<?xml version="1.0" encoding="UTF-8" standalone="no" ?>
<gpx xmlns="http://www.topografix.com/GPX/1/1" xmlns:xsi="http://www.w3.org/2001/XMLSchema-instance" xsi:schemaLocation="http://www.topografix.com/GPX/1/1 http://www.topografix.com/GPX/1/1/gpx.xsd" version="1.1" creator="VisuGPX - https://www.visugpx.com">
  <metadata>
    <name>Boucle Soisy / Seine / Sénart </name>
    <desc><![CDATA[Balade menée par Jean Paul pour le Rcy
aucune difficulté
]]></desc>
  </metadata>
  <trk>
    <name><![CDATA[SityTrail - Boucle Soisy / Seine / Sénart ]]></name>
    <trkseg>
      <trkpt lat="48.64526" lon="2.44368">
        <ele>37</ele>
        <time>2022-09-28T07:30:19.717Z</time>
      </trkpt>
      <trkpt lat="48.6453" lon="2.44371">
        <ele>37</ele>
        <time>2022-09-28T07:30:29.512Z</time>
      </trkpt>
      <trkpt lat="48.6453" lon="2.44374">
        <ele>37</ele>
        <time>2022-09-28T07:30:33.516Z</time>
      </trkpt>
      <trkpt lat="48.64532" lon="2.44376">
        <ele>38</ele>
        <time>2022-09-28T07:30:38.509Z</time>
      </trkpt>
      <trkpt lat="48.64534" lon="2.44377">
        <ele>38</ele>
        <time>2022-09-28T07:30:42.529Z</time>
      </trkpt>
      <trkpt lat="48.64535" lon="2.44377">
        <ele>38</ele>
        <time>2022-09-28T07:30:47.513Z</time>
      </trkpt>
      <trkpt lat="48.64529" lon="2.44378">
        <ele>38</ele>
        <time>2022-09-28T07:38:37.497Z</time>
      </trkpt>
      <trkpt lat="48.64529" lon="2.44377">
        <ele>38</ele>
        <time>2022-09-28T07:38:41.502Z</time>
      </trkpt>
      <trkpt lat="48.64528" lon="2.44379">
        <ele>38</ele>
        <time>2022-09-28T07:38:46.493Z</time>
      </trkpt>
      <trkpt lat="48.64525" lon="2.4438">
        <ele>38</ele>
        <time>2022-09-28T07:38:50.502Z</time>
      </trkpt>
      <trkpt lat="48.64521" lon="2.44379">
        <ele>38</ele>
        <time>2022-09-28T07:38:55.500Z</time>
      </trkpt>
      <trkpt lat="48.64518" lon="2.44376">
        <ele>38</ele>
        <time>2022-09-28T07:39:00.495Z</time>
      </trkpt>
      <trkpt lat="48.64513" lon="2.44375">
        <ele>38</ele>
        <time>2022-09-28T07:39:05.488Z</time>
      </trkpt>
      <trkpt lat="48.6451" lon="2.44375">
        <ele>39</ele>
        <time>2022-09-28T07:39:09.501Z</time>
      </trkpt>
      <trkpt lat="48.64503" lon="2.44374">
        <ele>39</ele>
        <time>2022-09-28T07:39:14.497Z</time>
      </trkpt>
      <trkpt lat="48.645" lon="2.44377">
        <ele>38</ele>
        <time>2022-09-28T07:39:18.499Z</time>
      </trkpt>
      <trkpt lat="48.64497" lon="2.4438">
        <ele>38</ele>
        <time>2022-09-28T07:39:23.512Z</time>
      </trkpt>
      <trkpt lat="48.64495" lon="2.44384">
        <ele>38</ele>
        <time>2022-09-28T07:39:28.505Z</time>
      </trkpt>
      <trkpt lat="48.64492" lon="2.44388">
        <ele>38</ele>
        <time>2022-09-28T07:39:33.494Z</time>
      </trkpt>
      <trkpt lat="48.64488" lon="2.44391">
        <ele>38</ele>
        <time>2022-09-28T07:39:38.497Z</time>
      </trkpt>
      <trkpt lat="48.64485" lon="2.44393">
        <ele>36</ele>
        <time>2022-09-28T07:39:42.499Z</time>
      </trkpt>
      <trkpt lat="48.64481" lon="2.44395">
        <ele>36</ele>
        <time>2022-09-28T07:39:46.510Z</time>
      </trkpt>
      <trkpt lat="48.64476" lon="2.44398">
        <ele>36</ele>
        <time>2022-09-28T07:39:51.501Z</time>
      </trkpt>
      <trkpt lat="48.64471" lon="2.44403">
        <ele>34</ele>
        <time>2022-09-28T07:39:56.510Z</time>
      </trkpt>
      <trkpt lat="48.64468" lon="2.44407">
        <ele>34</ele>
        <time>2022-09-28T07:40:00.507Z</time>
      </trkpt>
      <trkpt lat="48.64464" lon="2.44412">
        <ele>34</ele>
        <time>2022-09-28T07:40:05.498Z</time>
      </trkpt>
      <trkpt lat="48.6446" lon="2.44414">
        <ele>34</ele>
        <time>2022-09-28T07:40:09.490Z</time>
      </trkpt>
      <trkpt lat="48.64456" lon="2.44415">
        <ele>33</ele>
        <time>2022-09-28T07:40:14.509Z</time>
      </trkpt>
      <trkpt lat="48.64452" lon="2.44419">
        <ele>33</ele>
        <time>2022-09-28T07:40:19.499Z</time>
      </trkpt>
      <trkpt lat="48.64447" lon="2.44424">
        <ele>33</ele>
        <time>2022-09-28T07:40:24.491Z</time>
      </trkpt>
      <trkpt lat="48.64444" lon="2.44426">
        <ele>33</ele>
        <time>2022-09-28T07:40:28.528Z</time>
      </trkpt>
      <trkpt lat="48.64438" lon="2.44435">
        <ele>32</ele>
        <time>2022-09-28T07:40:33.519Z</time>
      </trkpt>
      <trkpt lat="48.64433" lon="2.44442">
        <ele>32</ele>
        <time>2022-09-28T07:40:37.523Z</time>
      </trkpt>
      <trkpt lat="48.64426" lon="2.4445">
        <ele>31</ele>
        <time>2022-09-28T07:40:42.495Z</time>
      </trkpt>
      <trkpt lat="48.6442" lon="2.44455">
        <ele>31</ele>
        <time>2022-09-28T07:40:47.496Z</time>
      </trkpt>
      <trkpt lat="48.64415" lon="2.44459">
        <ele>32</ele>
        <time>2022-09-28T07:40:52.506Z</time>
      </trkpt>
      <trkpt lat="48.64411" lon="2.44464">
        <ele>32</ele>
        <time>2022-09-28T07:40:57.506Z</time>
      </trkpt>
      <trkpt lat="48.64409" lon="2.44468">
        <ele>32</ele>
        <time>2022-09-28T07:41:01.514Z</time>
      </trkpt>
      <trkpt lat="48.64406" lon="2.44472">
        <ele>32</ele>
        <time>2022-09-28T07:41:06.497Z</time>
      </trkpt>
      <trkpt lat="48.64401" lon="2.44475">
        <ele>31</ele>
        <time>2022-09-28T07:41:10.495Z</time>
      </trkpt>
      <trkpt lat="48.64394" lon="2.4448">
        <ele>31</ele>
        <time>2022-09-28T07:41:15.498Z</time>
      </trkpt>
      <trkpt lat="48.6439" lon="2.44502">
        <ele>33</ele>
        <time>2022-09-28T07:41:20.491Z</time>
      </trkpt>
      <trkpt lat="48.64386" lon="2.44502">
        <ele>33</ele>
        <time>2022-09-28T07:41:24.517Z</time>
      </trkpt>
      <trkpt lat="48.64378" lon="2.44507">
        <ele>33</ele>
        <time>2022-09-28T07:41:28.535Z</time>
      </trkpt>
      <trkpt lat="48.64373" lon="2.44514">
        <ele>30</ele>
        <time>2022-09-28T07:41:33.487Z</time>
      </trkpt>
      <trkpt lat="48.64369" lon="2.44519">
        <ele>32</ele>
        <time>2022-09-28T07:41:38.493Z</time>
      </trkpt>
      <trkpt lat="48.64365" lon="2.44526">
        <ele>32</ele>
        <time>2022-09-28T07:41:43.489Z</time>
      </trkpt>
      <trkpt lat="48.64363" lon="2.44531">
        <ele>32</ele>
        <time>2022-09-28T07:41:47.495Z</time>
      </trkpt>
      <trkpt lat="48.64359" lon="2.44536">
        <ele>32</ele>
        <time>2022-09-28T07:41:52.535Z</time>
      </trkpt>
      <trkpt lat="48.64355" lon="2.44542">
        <ele>33</ele>
        <time>2022-09-28T07:41:57.490Z</time>
      </trkpt>
      <trkpt lat="48.64351" lon="2.44547">
        <ele>33</ele>
        <time>2022-09-28T07:42:02.489Z</time>
      </trkpt>
      <trkpt lat="48.64347" lon="2.44555">
        <ele>33</ele>
        <time>2022-09-28T07:42:07.492Z</time>
      </trkpt>
      <trkpt lat="48.64343" lon="2.44561">
        <ele>33</ele>
        <time>2022-09-28T07:42:11.523Z</time>
      </trkpt>
      <trkpt lat="48.64339" lon="2.44565">
        <ele>33</ele>
        <time>2022-09-28T07:42:15.547Z</time>
      </trkpt>
      <trkpt lat="48.64335" lon="2.44572">
        <ele>35</ele>
        <time>2022-09-28T07:42:20.533Z</time>
      </trkpt>
      <trkpt lat="48.64331" lon="2.44578">
        <ele>35</ele>
        <time>2022-09-28T07:42:24.547Z</time>
      </trkpt>
      <trkpt lat="48.64326" lon="2.44582">
        <ele>35</ele>
        <time>2022-09-28T07:42:29.532Z</time>
      </trkpt>
      <trkpt lat="48.64322" lon="2.4459">
        <ele>35</ele>
        <time>2022-09-28T07:42:34.550Z</time>
      </trkpt>
      <trkpt lat="48.64319" lon="2.44599">
        <ele>38</ele>
        <time>2022-09-28T07:42:39.524Z</time>
      </trkpt>
      <trkpt lat="48.64316" lon="2.44605">
        <ele>35</ele>
        <time>2022-09-28T07:42:43.550Z</time>
      </trkpt>
      <trkpt lat="48.64311" lon="2.44609">
        <ele>35</ele>
        <time>2022-09-28T07:42:48.533Z</time>
      </trkpt>
      <trkpt lat="48.64308" lon="2.44614">
        <ele>35</ele>
        <time>2022-09-28T07:42:52.553Z</time>
      </trkpt>
      <trkpt lat="48.64303" lon="2.4462">
        <ele>35</ele>
        <time>2022-09-28T07:42:57.540Z</time>
      </trkpt>
      <trkpt lat="48.64298" lon="2.44625">
        <ele>35</ele>
        <time>2022-09-28T07:43:02.534Z</time>
      </trkpt>
      <trkpt lat="48.64295" lon="2.4463">
        <ele>38</ele>
        <time>2022-09-28T07:43:07.549Z</time>
      </trkpt>
      <trkpt lat="48.64289" lon="2.44636">
        <ele>35</ele>
        <time>2022-09-28T07:43:12.530Z</time>
      </trkpt>
      <trkpt lat="48.64286" lon="2.44642">
        <ele>35</ele>
        <time>2022-09-28T07:43:17.534Z</time>
      </trkpt>
      <trkpt lat="48.64284" lon="2.44647">
        <ele>35</ele>
        <time>2022-09-28T07:43:22.548Z</time>
      </trkpt>
      <trkpt lat="48.64279" lon="2.44653">
        <ele>35</ele>
        <time>2022-09-28T07:43:27.531Z</time>
      </trkpt>
      <trkpt lat="48.64275" lon="2.4466">
        <ele>37</ele>
        <time>2022-09-28T07:43:31.539Z</time>
      </trkpt>
      <trkpt lat="48.6427" lon="2.44663">
        <ele>37</ele>
        <time>2022-09-28T07:43:36.536Z</time>
      </trkpt>
      <trkpt lat="48.64268" lon="2.44665">
        <ele>37</ele>
        <time>2022-09-28T07:43:40.546Z</time>
      </trkpt>
      <trkpt lat="48.64265" lon="2.44668">
        <ele>37</ele>
        <time>2022-09-28T07:43:45.545Z</time>
      </trkpt>
      <trkpt lat="48.6426" lon="2.44671">
        <ele>35</ele>
        <time>2022-09-28T07:43:50.531Z</time>
      </trkpt>
      <trkpt lat="48.64256" lon="2.44675">
        <ele>35</ele>
        <time>2022-09-28T07:43:54.551Z</time>
      </trkpt>
      <trkpt lat="48.64252" lon="2.4468">
        <ele>35</ele>
        <time>2022-09-28T07:43:59.518Z</time>
      </trkpt>
      <trkpt lat="48.64248" lon="2.44685">
        <ele>36</ele>
        <time>2022-09-28T07:44:03.534Z</time>
      </trkpt>
      <trkpt lat="48.64243" lon="2.44689">
        <ele>36</ele>
        <time>2022-09-28T07:44:07.544Z</time>
      </trkpt>
      <trkpt lat="48.64238" lon="2.44695">
        <ele>36</ele>
        <time>2022-09-28T07:44:12.554Z</time>
      </trkpt>
      <trkpt lat="48.64234" lon="2.44702">
        <ele>36</ele>
        <time>2022-09-28T07:44:17.524Z</time>
      </trkpt>
      <trkpt lat="48.64229" lon="2.44706">
        <ele>36</ele>
        <time>2022-09-28T07:44:22.525Z</time>
      </trkpt>
      <trkpt lat="48.64226" lon="2.44709">
        <ele>38</ele>
        <time>2022-09-28T07:44:26.541Z</time>
      </trkpt>
      <trkpt lat="48.64221" lon="2.44712">
        <ele>38</ele>
        <time>2022-09-28T07:44:31.529Z</time>
      </trkpt>
      <trkpt lat="48.64217" lon="2.44716">
        <ele>38</ele>
        <time>2022-09-28T07:44:35.540Z</time>
      </trkpt>
      <trkpt lat="48.64213" lon="2.4472">
        <ele>38</ele>
        <time>2022-09-28T07:44:40.548Z</time>
      </trkpt>
      <trkpt lat="48.64209" lon="2.44723">
        <ele>38</ele>
        <time>2022-09-28T07:44:45.551Z</time>
      </trkpt>
      <trkpt lat="48.64204" lon="2.44727">
        <ele>40</ele>
        <time>2022-09-28T07:44:50.518Z</time>
      </trkpt>
      <trkpt lat="48.64201" lon="2.4473">
        <ele>40</ele>
        <time>2022-09-28T07:44:54.528Z</time>
      </trkpt>
      <trkpt lat="48.64197" lon="2.44735">
        <ele>40</ele>
        <time>2022-09-28T07:44:59.539Z</time>
      </trkpt>
      <trkpt lat="48.64192" lon="2.44741">
        <ele>39</ele>
        <time>2022-09-28T07:45:04.550Z</time>
      </trkpt>
      <trkpt lat="48.64188" lon="2.44745">
        <ele>39</ele>
        <time>2022-09-28T07:45:09.514Z</time>
      </trkpt>
      <trkpt lat="48.64186" lon="2.4475">
        <ele>39</ele>
        <time>2022-09-28T07:45:13.530Z</time>
      </trkpt>
      <trkpt lat="48.64182" lon="2.44756">
        <ele>39</ele>
        <time>2022-09-28T07:45:18.527Z</time>
      </trkpt>
      <trkpt lat="48.64177" lon="2.4476">
        <ele>43</ele>
        <time>2022-09-28T07:45:23.522Z</time>
      </trkpt>
      <trkpt lat="48.64172" lon="2.44763">
        <ele>43</ele>
        <time>2022-09-28T07:45:27.537Z</time>
      </trkpt>
      <trkpt lat="48.64166" lon="2.44768">
        <ele>43</ele>
        <time>2022-09-28T07:45:32.535Z</time>
      </trkpt>
      <trkpt lat="48.6416" lon="2.44771">
        <ele>43</ele>
        <time>2022-09-28T07:45:36.538Z</time>
      </trkpt>
      <trkpt lat="48.64153" lon="2.44774">
        <ele>43</ele>
        <time>2022-09-28T07:45:41.527Z</time>
      </trkpt>
      <trkpt lat="48.64148" lon="2.4478">
        <ele>45</ele>
        <time>2022-09-28T07:45:46.515Z</time>
      </trkpt>
      <trkpt lat="48.64143" lon="2.44783">
        <ele>45</ele>
        <time>2022-09-28T07:45:50.531Z</time>
      </trkpt>
      <trkpt lat="48.64139" lon="2.44787">
        <ele>45</ele>
        <time>2022-09-28T07:45:55.518Z</time>
      </trkpt>
      <trkpt lat="48.64135" lon="2.4479">
        <ele>45</ele>
        <time>2022-09-28T07:46:00.492Z</time>
      </trkpt>
      <trkpt lat="48.64132" lon="2.44793">
        <ele>44</ele>
        <time>2022-09-28T07:46:04.525Z</time>
      </trkpt>
      <trkpt lat="48.64126" lon="2.44798">
        <ele>44</ele>
        <time>2022-09-28T07:46:09.527Z</time>
      </trkpt>
      <trkpt lat="48.64123" lon="2.44804">
        <ele>44</ele>
        <time>2022-09-28T07:46:13.534Z</time>
      </trkpt>
      <trkpt lat="48.6412" lon="2.44808">
        <ele>44</ele>
        <time>2022-09-28T07:46:17.540Z</time>
      </trkpt>
      <trkpt lat="48.64118" lon="2.44816">
        <ele>44</ele>
        <time>2022-09-28T07:46:22.538Z</time>
      </trkpt>
      <trkpt lat="48.64114" lon="2.44822">
        <ele>43</ele>
        <time>2022-09-28T07:46:27.539Z</time>
      </trkpt>
      <trkpt lat="48.6411" lon="2.44828">
        <ele>43</ele>
        <time>2022-09-28T07:46:32.558Z</time>
      </trkpt>
      <trkpt lat="48.64105" lon="2.44831">
        <ele>43</ele>
        <time>2022-09-28T07:46:37.547Z</time>
      </trkpt>
      <trkpt lat="48.641" lon="2.44831">
        <ele>43</ele>
        <time>2022-09-28T07:46:42.540Z</time>
      </trkpt>
      <trkpt lat="48.64094" lon="2.44833">
        <ele>40</ele>
        <time>2022-09-28T07:46:47.530Z</time>
      </trkpt>
      <trkpt lat="48.64087" lon="2.44838">
        <ele>40</ele>
        <time>2022-09-28T07:46:52.540Z</time>
      </trkpt>
      <trkpt lat="48.64079" lon="2.44843">
        <ele>40</ele>
        <time>2022-09-28T07:46:57.542Z</time>
      </trkpt>
      <trkpt lat="48.64071" lon="2.44849">
        <ele>38</ele>
        <time>2022-09-28T07:47:02.547Z</time>
      </trkpt>
      <trkpt lat="48.64065" lon="2.44854">
        <ele>35</ele>
        <time>2022-09-28T07:47:07.538Z</time>
      </trkpt>
      <trkpt lat="48.64061" lon="2.4486">
        <ele>35</ele>
        <time>2022-09-28T07:47:11.553Z</time>
      </trkpt>
      <trkpt lat="48.64056" lon="2.44867">
        <ele>35</ele>
        <time>2022-09-28T07:47:16.508Z</time>
      </trkpt>
      <trkpt lat="48.6405" lon="2.4487">
        <ele>35</ele>
        <time>2022-09-28T07:47:20.528Z</time>
      </trkpt>
      <trkpt lat="48.64045" lon="2.44872">
        <ele>35</ele>
        <time>2022-09-28T07:47:24.545Z</time>
      </trkpt>
      <trkpt lat="48.64039" lon="2.44875">
        <ele>33</ele>
        <time>2022-09-28T07:47:29.550Z</time>
      </trkpt>
      <trkpt lat="48.64036" lon="2.4488">
        <ele>33</ele>
        <time>2022-09-28T07:47:33.558Z</time>
      </trkpt>
      <trkpt lat="48.64031" lon="2.44888">
        <ele>33</ele>
        <time>2022-09-28T07:47:38.555Z</time>
      </trkpt>
      <trkpt lat="48.64027" lon="2.44894">
        <ele>33</ele>
        <time>2022-09-28T07:47:43.529Z</time>
      </trkpt>
      <trkpt lat="48.64023" lon="2.44898">
        <ele>33</ele>
        <time>2022-09-28T07:47:47.541Z</time>
      </trkpt>
      <trkpt lat="48.64018" lon="2.44903">
        <ele>34</ele>
        <time>2022-09-28T07:47:52.551Z</time>
      </trkpt>
      <trkpt lat="48.64014" lon="2.44909">
        <ele>34</ele>
        <time>2022-09-28T07:47:57.542Z</time>
      </trkpt>
      <trkpt lat="48.64009" lon="2.44914">
        <ele>32</ele>
        <time>2022-09-28T07:48:02.536Z</time>
      </trkpt>
      <trkpt lat="48.64003" lon="2.44919">
        <ele>32</ele>
        <time>2022-09-28T07:48:07.551Z</time>
      </trkpt>
      <trkpt lat="48.63997" lon="2.44925">
        <ele>32</ele>
        <time>2022-09-28T07:48:12.537Z</time>
      </trkpt>
      <trkpt lat="48.63992" lon="2.44931">
        <ele>32</ele>
        <time>2022-09-28T07:48:17.526Z</time>
      </trkpt>
      <trkpt lat="48.63989" lon="2.44936">
        <ele>32</ele>
        <time>2022-09-28T07:48:21.544Z</time>
      </trkpt>
      <trkpt lat="48.63986" lon="2.4494">
        <ele>34</ele>
        <time>2022-09-28T07:48:26.526Z</time>
      </trkpt>
      <trkpt lat="48.63983" lon="2.44945">
        <ele>34</ele>
        <time>2022-09-28T07:48:30.530Z</time>
      </trkpt>
      <trkpt lat="48.63979" lon="2.44955">
        <ele>34</ele>
        <time>2022-09-28T07:48:35.534Z</time>
      </trkpt>
      <trkpt lat="48.63974" lon="2.44965">
        <ele>34</ele>
        <time>2022-09-28T07:48:40.570Z</time>
      </trkpt>
      <trkpt lat="48.63971" lon="2.44975">
        <ele>34</ele>
        <time>2022-09-28T07:48:45.546Z</time>
      </trkpt>
      <trkpt lat="48.63966" lon="2.44979">
        <ele>34</ele>
        <time>2022-09-28T07:48:50.532Z</time>
      </trkpt>
      <trkpt lat="48.63963" lon="2.44982">
        <ele>34</ele>
        <time>2022-09-28T07:48:54.554Z</time>
      </trkpt>
      <trkpt lat="48.63959" lon="2.44987">
        <ele>33</ele>
        <time>2022-09-28T07:48:59.528Z</time>
      </trkpt>
      <trkpt lat="48.63954" lon="2.44991">
        <ele>34</ele>
        <time>2022-09-28T07:49:04.545Z</time>
      </trkpt>
      <trkpt lat="48.6395" lon="2.44996">
        <ele>34</ele>
        <time>2022-09-28T07:49:09.537Z</time>
      </trkpt>
      <trkpt lat="48.63947" lon="2.45001">
        <ele>34</ele>
        <time>2022-09-28T07:49:14.547Z</time>
      </trkpt>
      <trkpt lat="48.63945" lon="2.45008">
        <ele>34</ele>
        <time>2022-09-28T07:49:19.538Z</time>
      </trkpt>
      <trkpt lat="48.63942" lon="2.45015">
        <ele>33</ele>
        <time>2022-09-28T07:49:24.507Z</time>
      </trkpt>
      <trkpt lat="48.63939" lon="2.45019">
        <ele>33</ele>
        <time>2022-09-28T07:49:28.549Z</time>
      </trkpt>
      <trkpt lat="48.63936" lon="2.45026">
        <ele>33</ele>
        <time>2022-09-28T07:49:33.525Z</time>
      </trkpt>
      <trkpt lat="48.63933" lon="2.45033">
        <ele>33</ele>
        <time>2022-09-28T07:49:37.527Z</time>
      </trkpt>
      <trkpt lat="48.63929" lon="2.45042">
        <ele>32</ele>
        <time>2022-09-28T07:49:42.523Z</time>
      </trkpt>
      <trkpt lat="48.63926" lon="2.45049">
        <ele>32</ele>
        <time>2022-09-28T07:49:46.549Z</time>
      </trkpt>
      <trkpt lat="48.63924" lon="2.45055">
        <ele>32</ele>
        <time>2022-09-28T07:49:51.520Z</time>
      </trkpt>
      <trkpt lat="48.63922" lon="2.4506">
        <ele>32</ele>
        <time>2022-09-28T07:49:55.537Z</time>
      </trkpt>
      <trkpt lat="48.6392" lon="2.45065">
        <ele>32</ele>
        <time>2022-09-28T07:49:59.540Z</time>
      </trkpt>
      <trkpt lat="48.63918" lon="2.45072">
        <ele>34</ele>
        <time>2022-09-28T07:50:04.545Z</time>
      </trkpt>
      <trkpt lat="48.63914" lon="2.45078">
        <ele>34</ele>
        <time>2022-09-28T07:50:09.541Z</time>
      </trkpt>
      <trkpt lat="48.63911" lon="2.45086">
        <ele>34</ele>
        <time>2022-09-28T07:50:14.521Z</time>
      </trkpt>
      <trkpt lat="48.6391" lon="2.45096">
        <ele>34</ele>
        <time>2022-09-28T07:50:19.495Z</time>
      </trkpt>
      <trkpt lat="48.63909" lon="2.45103">
        <ele>38</ele>
        <time>2022-09-28T07:50:23.523Z</time>
      </trkpt>
      <trkpt lat="48.63906" lon="2.45111">
        <ele>38</ele>
        <time>2022-09-28T07:50:27.542Z</time>
      </trkpt>
      <trkpt lat="48.63911" lon="2.45153">
        <ele>40</ele>
        <time>2022-09-28T07:50:51.505Z</time>
      </trkpt>
      <trkpt lat="48.63901" lon="2.45166">
        <ele>40</ele>
        <time>2022-09-28T07:50:56.501Z</time>
      </trkpt>
      <trkpt lat="48.63891" lon="2.45178">
        <ele>40</ele>
        <time>2022-09-28T07:51:01.495Z</time>
      </trkpt>
      <trkpt lat="48.63882" lon="2.45188">
        <ele>44</ele>
        <time>2022-09-28T07:51:06.500Z</time>
      </trkpt>
      <trkpt lat="48.63878" lon="2.45195">
        <ele>44</ele>
        <time>2022-09-28T07:51:10.497Z</time>
      </trkpt>
      <trkpt lat="48.63874" lon="2.45203">
        <ele>49</ele>
        <time>2022-09-28T07:51:14.509Z</time>
      </trkpt>
      <trkpt lat="48.6387" lon="2.45215">
        <ele>52</ele>
        <time>2022-09-28T07:51:19.507Z</time>
      </trkpt>
      <trkpt lat="48.63866" lon="2.45225">
        <ele>52</ele>
        <time>2022-09-28T07:51:24.514Z</time>
      </trkpt>
      <trkpt lat="48.63862" lon="2.45235">
        <ele>52</ele>
        <time>2022-09-28T07:51:29.499Z</time>
      </trkpt>
      <trkpt lat="48.6386" lon="2.45244">
        <ele>45</ele>
        <time>2022-09-28T07:51:33.509Z</time>
      </trkpt>
      <trkpt lat="48.63858" lon="2.45251">
        <ele>45</ele>
        <time>2022-09-28T07:51:38.496Z</time>
      </trkpt>
      <trkpt lat="48.63856" lon="2.45254">
        <ele>45</ele>
        <time>2022-09-28T07:51:42.505Z</time>
      </trkpt>
      <trkpt lat="48.63852" lon="2.45263">
        <ele>45</ele>
        <time>2022-09-28T07:51:47.496Z</time>
      </trkpt>
      <trkpt lat="48.63848" lon="2.45274">
        <ele>41</ele>
        <time>2022-09-28T07:51:52.491Z</time>
      </trkpt>
      <trkpt lat="48.63847" lon="2.45286">
        <ele>36</ele>
        <time>2022-09-28T07:51:57.498Z</time>
      </trkpt>
      <trkpt lat="48.63844" lon="2.45293">
        <ele>35</ele>
        <time>2022-09-28T07:52:02.491Z</time>
      </trkpt>
      <trkpt lat="48.63842" lon="2.45299">
        <ele>35</ele>
        <time>2022-09-28T07:52:06.483Z</time>
      </trkpt>
      <trkpt lat="48.63839" lon="2.45309">
        <ele>35</ele>
        <time>2022-09-28T07:52:11.521Z</time>
      </trkpt>
      <trkpt lat="48.63833" lon="2.4532">
        <ele>37</ele>
        <time>2022-09-28T07:52:16.503Z</time>
      </trkpt>
      <trkpt lat="48.6383" lon="2.4533">
        <ele>37</ele>
        <time>2022-09-28T07:52:21.497Z</time>
      </trkpt>
      <trkpt lat="48.63827" lon="2.45339">
        <ele>37</ele>
        <time>2022-09-28T07:52:25.504Z</time>
      </trkpt>
      <trkpt lat="48.63823" lon="2.45345">
        <ele>37</ele>
        <time>2022-09-28T07:52:29.538Z</time>
      </trkpt>
      <trkpt lat="48.63818" lon="2.45354">
        <ele>43</ele>
        <time>2022-09-28T07:52:34.489Z</time>
      </trkpt>
      <trkpt lat="48.63815" lon="2.45361">
        <ele>43</ele>
        <time>2022-09-28T07:52:39.486Z</time>
      </trkpt>
      <trkpt lat="48.63812" lon="2.45366">
        <ele>43</ele>
        <time>2022-09-28T07:52:43.493Z</time>
      </trkpt>
      <trkpt lat="48.6381" lon="2.45371">
        <ele>43</ele>
        <time>2022-09-28T07:52:48.495Z</time>
      </trkpt>
      <trkpt lat="48.63807" lon="2.45378">
        <ele>43</ele>
        <time>2022-09-28T07:52:53.521Z</time>
      </trkpt>
      <trkpt lat="48.63805" lon="2.45383">
        <ele>43</ele>
        <time>2022-09-28T07:52:58.552Z</time>
      </trkpt>
      <trkpt lat="48.63802" lon="2.45387">
        <ele>43</ele>
        <time>2022-09-28T07:53:02.541Z</time>
      </trkpt>
      <trkpt lat="48.638" lon="2.45393">
        <ele>43</ele>
        <time>2022-09-28T07:53:07.547Z</time>
      </trkpt>
      <trkpt lat="48.63797" lon="2.45399">
        <ele>43</ele>
        <time>2022-09-28T07:53:12.535Z</time>
      </trkpt>
      <trkpt lat="48.63793" lon="2.45407">
        <ele>42</ele>
        <time>2022-09-28T07:53:17.537Z</time>
      </trkpt>
      <trkpt lat="48.63792" lon="2.45413">
        <ele>42</ele>
        <time>2022-09-28T07:53:21.542Z</time>
      </trkpt>
      <trkpt lat="48.63789" lon="2.4542">
        <ele>43</ele>
        <time>2022-09-28T07:53:26.520Z</time>
      </trkpt>
      <trkpt lat="48.63787" lon="2.45427">
        <ele>43</ele>
        <time>2022-09-28T07:53:30.535Z</time>
      </trkpt>
      <trkpt lat="48.63784" lon="2.45434">
        <ele>41</ele>
        <time>2022-09-28T07:53:34.544Z</time>
      </trkpt>
      <trkpt lat="48.6378" lon="2.45441">
        <ele>41</ele>
        <time>2022-09-28T07:53:39.542Z</time>
      </trkpt>
      <trkpt lat="48.63776" lon="2.45449">
        <ele>41</ele>
        <time>2022-09-28T07:53:44.549Z</time>
      </trkpt>
      <trkpt lat="48.63775" lon="2.45456">
        <ele>41</ele>
        <time>2022-09-28T07:53:49.533Z</time>
      </trkpt>
      <trkpt lat="48.63773" lon="2.45461">
        <ele>40</ele>
        <time>2022-09-28T07:53:53.548Z</time>
      </trkpt>
      <trkpt lat="48.6377" lon="2.45469">
        <ele>40</ele>
        <time>2022-09-28T07:53:58.524Z</time>
      </trkpt>
      <trkpt lat="48.63768" lon="2.45476">
        <ele>40</ele>
        <time>2022-09-28T07:54:02.538Z</time>
      </trkpt>
      <trkpt lat="48.63766" lon="2.45483">
        <ele>40</ele>
        <time>2022-09-28T07:54:06.552Z</time>
      </trkpt>
      <trkpt lat="48.63762" lon="2.45495">
        <ele>39</ele>
        <time>2022-09-28T07:54:11.529Z</time>
      </trkpt>
      <trkpt lat="48.63758" lon="2.45506">
        <ele>39</ele>
        <time>2022-09-28T07:54:16.529Z</time>
      </trkpt>
      <trkpt lat="48.63755" lon="2.45515">
        <ele>38</ele>
        <time>2022-09-28T07:54:21.538Z</time>
      </trkpt>
      <trkpt lat="48.63751" lon="2.45525">
        <ele>38</ele>
        <time>2022-09-28T07:54:26.540Z</time>
      </trkpt>
      <trkpt lat="48.63748" lon="2.45533">
        <ele>38</ele>
        <time>2022-09-28T07:54:30.543Z</time>
      </trkpt>
      <trkpt lat="48.63744" lon="2.45541">
        <ele>38</ele>
        <time>2022-09-28T07:54:35.549Z</time>
      </trkpt>
      <trkpt lat="48.63739" lon="2.45549">
        <ele>37</ele>
        <time>2022-09-28T07:54:40.545Z</time>
      </trkpt>
      <trkpt lat="48.63734" lon="2.45557">
        <ele>32</ele>
        <time>2022-09-28T07:54:45.538Z</time>
      </trkpt>
      <trkpt lat="48.63729" lon="2.45564">
        <ele>32</ele>
        <time>2022-09-28T07:54:50.523Z</time>
      </trkpt>
      <trkpt lat="48.63726" lon="2.45571">
        <ele>32</ele>
        <time>2022-09-28T07:54:55.489Z</time>
      </trkpt>
      <trkpt lat="48.63727" lon="2.45575">
        <ele>32</ele>
        <time>2022-09-28T07:55:00.496Z</time>
      </trkpt>
      <trkpt lat="48.63729" lon="2.45578">
        <ele>32</ele>
        <time>2022-09-28T07:55:05.483Z</time>
      </trkpt>
      <trkpt lat="48.63722" lon="2.45597">
        <ele>32</ele>
        <time>2022-09-28T07:55:10.493Z</time>
      </trkpt>
      <trkpt lat="48.63712" lon="2.45599">
        <ele>34</ele>
        <time>2022-09-28T07:55:15.483Z</time>
      </trkpt>
      <trkpt lat="48.63706" lon="2.45608">
        <ele>32</ele>
        <time>2022-09-28T07:55:19.489Z</time>
      </trkpt>
      <trkpt lat="48.637" lon="2.4562">
        <ele>32</ele>
        <time>2022-09-28T07:55:24.509Z</time>
      </trkpt>
      <trkpt lat="48.63697" lon="2.45624">
        <ele>32</ele>
        <time>2022-09-28T07:55:29.490Z</time>
      </trkpt>
      <trkpt lat="48.63694" lon="2.45631">
        <ele>34</ele>
        <time>2022-09-28T07:55:33.492Z</time>
      </trkpt>
      <trkpt lat="48.63691" lon="2.45637">
        <ele>34</ele>
        <time>2022-09-28T07:55:37.494Z</time>
      </trkpt>
      <trkpt lat="48.63689" lon="2.45646">
        <ele>34</ele>
        <time>2022-09-28T07:55:42.489Z</time>
      </trkpt>
      <trkpt lat="48.63685" lon="2.45651">
        <ele>34</ele>
        <time>2022-09-28T07:55:46.502Z</time>
      </trkpt>
      <trkpt lat="48.6368" lon="2.45655">
        <ele>35</ele>
        <time>2022-09-28T07:55:51.498Z</time>
      </trkpt>
      <trkpt lat="48.63676" lon="2.45657">
        <ele>35</ele>
        <time>2022-09-28T07:55:55.504Z</time>
      </trkpt>
      <trkpt lat="48.63671" lon="2.45662">
        <ele>35</ele>
        <time>2022-09-28T07:56:00.497Z</time>
      </trkpt>
      <trkpt lat="48.63668" lon="2.4567">
        <ele>35</ele>
        <time>2022-09-28T07:56:05.494Z</time>
      </trkpt>
      <trkpt lat="48.63667" lon="2.45675">
        <ele>35</ele>
        <time>2022-09-28T07:56:09.503Z</time>
      </trkpt>
      <trkpt lat="48.63665" lon="2.45682">
        <ele>36</ele>
        <time>2022-09-28T07:56:14.495Z</time>
      </trkpt>
      <trkpt lat="48.63662" lon="2.45688">
        <ele>36</ele>
        <time>2022-09-28T07:56:18.508Z</time>
      </trkpt>
      <trkpt lat="48.63659" lon="2.45694">
        <ele>36</ele>
        <time>2022-09-28T07:56:23.511Z</time>
      </trkpt>
      <trkpt lat="48.63657" lon="2.45699">
        <ele>36</ele>
        <time>2022-09-28T07:56:28.506Z</time>
      </trkpt>
      <trkpt lat="48.63656" lon="2.45704">
        <ele>36</ele>
        <time>2022-09-28T07:56:32.507Z</time>
      </trkpt>
      <trkpt lat="48.63653" lon="2.45711">
        <ele>39</ele>
        <time>2022-09-28T07:56:37.494Z</time>
      </trkpt>
      <trkpt lat="48.63649" lon="2.45713">
        <ele>38</ele>
        <time>2022-09-28T07:56:42.499Z</time>
      </trkpt>
      <trkpt lat="48.63644" lon="2.45716">
        <ele>38</ele>
        <time>2022-09-28T07:56:47.486Z</time>
      </trkpt>
      <trkpt lat="48.63641" lon="2.45719">
        <ele>38</ele>
        <time>2022-09-28T07:56:51.492Z</time>
      </trkpt>
      <trkpt lat="48.63638" lon="2.4572">
        <ele>38</ele>
        <time>2022-09-28T07:56:56.504Z</time>
      </trkpt>
      <trkpt lat="48.63633" lon="2.45727">
        <ele>38</ele>
        <time>2022-09-28T07:57:01.498Z</time>
      </trkpt>
      <trkpt lat="48.63629" lon="2.45734">
        <ele>38</ele>
        <time>2022-09-28T07:57:05.501Z</time>
      </trkpt>
      <trkpt lat="48.63629" lon="2.4574">
        <ele>38</ele>
        <time>2022-09-28T07:57:09.544Z</time>
      </trkpt>
      <trkpt lat="48.63629" lon="2.45751">
        <ele>38</ele>
        <time>2022-09-28T07:57:14.535Z</time>
      </trkpt>
      <trkpt lat="48.63631" lon="2.45758">
        <ele>38</ele>
        <time>2022-09-28T07:57:18.555Z</time>
      </trkpt>
      <trkpt lat="48.63635" lon="2.45764">
        <ele>38</ele>
        <time>2022-09-28T07:57:23.548Z</time>
      </trkpt>
      <trkpt lat="48.63639" lon="2.45771">
        <ele>38</ele>
        <time>2022-09-28T07:57:28.546Z</time>
      </trkpt>
      <trkpt lat="48.63643" lon="2.45778">
        <ele>38</ele>
        <time>2022-09-28T07:57:33.515Z</time>
      </trkpt>
      <trkpt lat="48.63647" lon="2.45782">
        <ele>38</ele>
        <time>2022-09-28T07:57:37.552Z</time>
      </trkpt>
      <trkpt lat="48.6365" lon="2.45787">
        <ele>38</ele>
        <time>2022-09-28T07:57:42.503Z</time>
      </trkpt>
      <trkpt lat="48.63652" lon="2.45791">
        <ele>38</ele>
        <time>2022-09-28T07:57:46.550Z</time>
      </trkpt>
      <trkpt lat="48.63654" lon="2.45796">
        <ele>39</ele>
        <time>2022-09-28T07:57:51.530Z</time>
      </trkpt>
      <trkpt lat="48.63656" lon="2.45804">
        <ele>39</ele>
        <time>2022-09-28T07:57:56.529Z</time>
      </trkpt>
      <trkpt lat="48.63661" lon="2.4581">
        <ele>39</ele>
        <time>2022-09-28T07:58:01.547Z</time>
      </trkpt>
      <trkpt lat="48.63664" lon="2.45817">
        <ele>39</ele>
        <time>2022-09-28T07:58:06.532Z</time>
      </trkpt>
      <trkpt lat="48.63669" lon="2.45821">
        <ele>36</ele>
        <time>2022-09-28T07:58:11.541Z</time>
      </trkpt>
      <trkpt lat="48.63675" lon="2.45825">
        <ele>36</ele>
        <time>2022-09-28T07:58:16.530Z</time>
      </trkpt>
      <trkpt lat="48.63679" lon="2.45829">
        <ele>36</ele>
        <time>2022-09-28T07:58:20.552Z</time>
      </trkpt>
      <trkpt lat="48.63684" lon="2.45834">
        <ele>37</ele>
        <time>2022-09-28T07:58:25.521Z</time>
      </trkpt>
      <trkpt lat="48.63689" lon="2.45838">
        <ele>37</ele>
        <time>2022-09-28T07:58:30.522Z</time>
      </trkpt>
      <trkpt lat="48.63693" lon="2.45841">
        <ele>37</ele>
        <time>2022-09-28T07:58:34.534Z</time>
      </trkpt>
      <trkpt lat="48.63697" lon="2.45845">
        <ele>37</ele>
        <time>2022-09-28T07:58:38.554Z</time>
      </trkpt>
      <trkpt lat="48.63702" lon="2.45848">
        <ele>35</ele>
        <time>2022-09-28T07:58:43.559Z</time>
      </trkpt>
      <trkpt lat="48.63707" lon="2.45851">
        <ele>35</ele>
        <time>2022-09-28T07:58:48.538Z</time>
      </trkpt>
      <trkpt lat="48.6371" lon="2.45853">
        <ele>39</ele>
        <time>2022-09-28T07:58:52.555Z</time>
      </trkpt>
      <trkpt lat="48.63716" lon="2.45857">
        <ele>39</ele>
        <time>2022-09-28T07:58:57.537Z</time>
      </trkpt>
      <trkpt lat="48.6372" lon="2.45858">
        <ele>39</ele>
        <time>2022-09-28T07:59:01.557Z</time>
      </trkpt>
      <trkpt lat="48.63725" lon="2.45861">
        <ele>39</ele>
        <time>2022-09-28T07:59:06.537Z</time>
      </trkpt>
      <trkpt lat="48.63731" lon="2.45865">
        <ele>39</ele>
        <time>2022-09-28T07:59:11.543Z</time>
      </trkpt>
      <trkpt lat="48.63736" lon="2.45869">
        <ele>40</ele>
        <time>2022-09-28T07:59:16.527Z</time>
      </trkpt>
      <trkpt lat="48.63741" lon="2.45873">
        <ele>40</ele>
        <time>2022-09-28T07:59:21.492Z</time>
      </trkpt>
      <trkpt lat="48.63745" lon="2.45875">
        <ele>37</ele>
        <time>2022-09-28T07:59:25.528Z</time>
      </trkpt>
      <trkpt lat="48.63749" lon="2.45877">
        <ele>37</ele>
        <time>2022-09-28T07:59:29.545Z</time>
      </trkpt>
      <trkpt lat="48.63756" lon="2.4588">
        <ele>37</ele>
        <time>2022-09-28T07:59:34.520Z</time>
      </trkpt>
      <trkpt lat="48.63761" lon="2.45885">
        <ele>37</ele>
        <time>2022-09-28T07:59:39.543Z</time>
      </trkpt>
      <trkpt lat="48.63767" lon="2.45889">
        <ele>39</ele>
        <time>2022-09-28T07:59:44.540Z</time>
      </trkpt>
      <trkpt lat="48.63772" lon="2.45892">
        <ele>39</ele>
        <time>2022-09-28T07:59:49.523Z</time>
      </trkpt>
      <trkpt lat="48.63777" lon="2.45893">
        <ele>39</ele>
        <time>2022-09-28T07:59:53.545Z</time>
      </trkpt>
      <trkpt lat="48.63782" lon="2.45894">
        <ele>39</ele>
        <time>2022-09-28T07:59:57.551Z</time>
      </trkpt>
      <trkpt lat="48.63787" lon="2.45896">
        <ele>39</ele>
        <time>2022-09-28T08:00:02.524Z</time>
      </trkpt>
      <trkpt lat="48.6379" lon="2.45897">
        <ele>39</ele>
        <time>2022-09-28T08:00:06.532Z</time>
      </trkpt>
      <trkpt lat="48.63793" lon="2.45895">
        <ele>41</ele>
        <time>2022-09-28T08:00:11.524Z</time>
      </trkpt>
      <trkpt lat="48.63796" lon="2.45888">
        <ele>41</ele>
        <time>2022-09-28T08:00:43.518Z</time>
      </trkpt>
      <trkpt lat="48.63813" lon="2.45854">
        <ele>42</ele>
        <time>2022-09-28T08:00:48.526Z</time>
      </trkpt>
      <trkpt lat="48.6382" lon="2.45845">
        <ele>37</ele>
        <time>2022-09-28T08:00:53.517Z</time>
      </trkpt>
      <trkpt lat="48.63822" lon="2.45844">
        <ele>37</ele>
        <time>2022-09-28T08:00:57.530Z</time>
      </trkpt>
      <trkpt lat="48.63824" lon="2.45848">
        <ele>39</ele>
        <time>2022-09-28T08:01:01.524Z</time>
      </trkpt>
      <trkpt lat="48.63828" lon="2.45849">
        <ele>39</ele>
        <time>2022-09-28T08:01:06.497Z</time>
      </trkpt>
      <trkpt lat="48.63833" lon="2.45851">
        <ele>39</ele>
        <time>2022-09-28T08:01:11.492Z</time>
      </trkpt>
      <trkpt lat="48.63837" lon="2.45852">
        <ele>39</ele>
        <time>2022-09-28T08:01:15.505Z</time>
      </trkpt>
      <trkpt lat="48.6384" lon="2.45855">
        <ele>39</ele>
        <time>2022-09-28T08:01:19.545Z</time>
      </trkpt>
      <trkpt lat="48.63841" lon="2.45861">
        <ele>39</ele>
        <time>2022-09-28T08:01:24.555Z</time>
      </trkpt>
      <trkpt lat="48.6384" lon="2.45864">
        <ele>39</ele>
        <time>2022-09-28T08:01:28.556Z</time>
      </trkpt>
      <trkpt lat="48.63838" lon="2.45867">
        <ele>39</ele>
        <time>2022-09-28T08:01:33.531Z</time>
      </trkpt>
      <trkpt lat="48.63836" lon="2.45867">
        <ele>39</ele>
        <time>2022-09-28T08:01:37.533Z</time>
      </trkpt>
      <trkpt lat="48.63833" lon="2.45867">
        <ele>39</ele>
        <time>2022-09-28T08:01:41.546Z</time>
      </trkpt>
      <trkpt lat="48.63828" lon="2.45865">
        <ele>39</ele>
        <time>2022-09-28T08:01:46.513Z</time>
      </trkpt>
      <trkpt lat="48.63824" lon="2.45864">
        <ele>39</ele>
        <time>2022-09-28T08:01:50.532Z</time>
      </trkpt>
      <trkpt lat="48.63819" lon="2.45863">
        <ele>42</ele>
        <time>2022-09-28T08:01:55.501Z</time>
      </trkpt>
      <trkpt lat="48.63816" lon="2.45862">
        <ele>42</ele>
        <time>2022-09-28T08:01:59.555Z</time>
      </trkpt>
      <trkpt lat="48.63812" lon="2.45861">
        <ele>42</ele>
        <time>2022-09-28T08:02:04.559Z</time>
      </trkpt>
      <trkpt lat="48.63807" lon="2.45861">
        <ele>42</ele>
        <time>2022-09-28T08:02:09.550Z</time>
      </trkpt>
      <trkpt lat="48.63801" lon="2.45858">
        <ele>42</ele>
        <time>2022-09-28T08:02:14.523Z</time>
      </trkpt>
      <trkpt lat="48.63796" lon="2.45856">
        <ele>42</ele>
        <time>2022-09-28T08:02:19.541Z</time>
      </trkpt>
      <trkpt lat="48.63792" lon="2.45854">
        <ele>42</ele>
        <time>2022-09-28T08:02:23.553Z</time>
      </trkpt>
      <trkpt lat="48.63787" lon="2.45853">
        <ele>40</ele>
        <time>2022-09-28T08:02:28.544Z</time>
      </trkpt>
      <trkpt lat="48.63783" lon="2.4585">
        <ele>40</ele>
        <time>2022-09-28T08:02:32.558Z</time>
      </trkpt>
      <trkpt lat="48.63777" lon="2.45847">
        <ele>40</ele>
        <time>2022-09-28T08:02:37.529Z</time>
      </trkpt>
      <trkpt lat="48.63773" lon="2.45845">
        <ele>42</ele>
        <time>2022-09-28T08:02:41.536Z</time>
      </trkpt>
      <trkpt lat="48.63768" lon="2.45842">
        <ele>42</ele>
        <time>2022-09-28T08:02:46.517Z</time>
      </trkpt>
      <trkpt lat="48.63764" lon="2.4584">
        <ele>42</ele>
        <time>2022-09-28T08:02:50.541Z</time>
      </trkpt>
      <trkpt lat="48.63759" lon="2.45837">
        <ele>41</ele>
        <time>2022-09-28T08:02:55.551Z</time>
      </trkpt>
      <trkpt lat="48.63755" lon="2.45834">
        <ele>41</ele>
        <time>2022-09-28T08:02:59.551Z</time>
      </trkpt>
      <trkpt lat="48.63749" lon="2.45831">
        <ele>41</ele>
        <time>2022-09-28T08:03:04.549Z</time>
      </trkpt>
      <trkpt lat="48.63744" lon="2.45827">
        <ele>41</ele>
        <time>2022-09-28T08:03:09.537Z</time>
      </trkpt>
      <trkpt lat="48.6374" lon="2.45824">
        <ele>41</ele>
        <time>2022-09-28T08:03:13.554Z</time>
      </trkpt>
      <trkpt lat="48.63735" lon="2.45821">
        <ele>40</ele>
        <time>2022-09-28T08:03:18.541Z</time>
      </trkpt>
      <trkpt lat="48.63731" lon="2.45817">
        <ele>41</ele>
        <time>2022-09-28T08:03:22.563Z</time>
      </trkpt>
      <trkpt lat="48.63726" lon="2.45813">
        <ele>41</ele>
        <time>2022-09-28T08:03:27.512Z</time>
      </trkpt>
      <trkpt lat="48.63722" lon="2.45811">
        <ele>41</ele>
        <time>2022-09-28T08:03:31.533Z</time>
      </trkpt>
      <trkpt lat="48.63717" lon="2.45806">
        <ele>41</ele>
        <time>2022-09-28T08:03:36.541Z</time>
      </trkpt>
      <trkpt lat="48.63712" lon="2.45802">
        <ele>41</ele>
        <time>2022-09-28T08:03:41.544Z</time>
      </trkpt>
      <trkpt lat="48.63708" lon="2.45798">
        <ele>41</ele>
        <time>2022-09-28T08:03:45.559Z</time>
      </trkpt>
      <trkpt lat="48.63703" lon="2.45792">
        <ele>40</ele>
        <time>2022-09-28T08:03:50.548Z</time>
      </trkpt>
      <trkpt lat="48.63698" lon="2.45787">
        <ele>42</ele>
        <time>2022-09-28T08:03:55.558Z</time>
      </trkpt>
      <trkpt lat="48.63693" lon="2.4578">
        <ele>42</ele>
        <time>2022-09-28T08:04:00.528Z</time>
      </trkpt>
      <trkpt lat="48.63688" lon="2.45774">
        <ele>42</ele>
        <time>2022-09-28T08:04:05.531Z</time>
      </trkpt>
      <trkpt lat="48.63685" lon="2.45768">
        <ele>42</ele>
        <time>2022-09-28T08:04:10.507Z</time>
      </trkpt>
      <trkpt lat="48.63682" lon="2.45764">
        <ele>42</ele>
        <time>2022-09-28T08:04:14.543Z</time>
      </trkpt>
      <trkpt lat="48.63678" lon="2.4576">
        <ele>41</ele>
        <time>2022-09-28T08:04:19.529Z</time>
      </trkpt>
      <trkpt lat="48.63675" lon="2.45754">
        <ele>41</ele>
        <time>2022-09-28T08:04:23.538Z</time>
      </trkpt>
      <trkpt lat="48.6367" lon="2.45748">
        <ele>41</ele>
        <time>2022-09-28T08:04:28.538Z</time>
      </trkpt>
      <trkpt lat="48.63667" lon="2.45741">
        <ele>41</ele>
        <time>2022-09-28T08:04:33.528Z</time>
      </trkpt>
      <trkpt lat="48.63662" lon="2.45734">
        <ele>39</ele>
        <time>2022-09-28T08:04:38.541Z</time>
      </trkpt>
      <trkpt lat="48.63658" lon="2.45729">
        <ele>39</ele>
        <time>2022-09-28T08:04:43.546Z</time>
      </trkpt>
      <trkpt lat="48.63655" lon="2.45723">
        <ele>39</ele>
        <time>2022-09-28T08:04:48.540Z</time>
      </trkpt>
      <trkpt lat="48.6365" lon="2.45717">
        <ele>38</ele>
        <time>2022-09-28T08:04:53.529Z</time>
      </trkpt>
      <trkpt lat="48.63644" lon="2.4571">
        <ele>38</ele>
        <time>2022-09-28T08:04:58.533Z</time>
      </trkpt>
      <trkpt lat="48.63639" lon="2.45703">
        <ele>36</ele>
        <time>2022-09-28T08:05:03.533Z</time>
      </trkpt>
      <trkpt lat="48.63635" lon="2.45696">
        <ele>36</ele>
        <time>2022-09-28T08:05:08.528Z</time>
      </trkpt>
      <trkpt lat="48.63631" lon="2.4569">
        <ele>36</ele>
        <time>2022-09-28T08:05:12.535Z</time>
      </trkpt>
      <trkpt lat="48.63625" lon="2.45683">
        <ele>36</ele>
        <time>2022-09-28T08:05:17.545Z</time>
      </trkpt>
      <trkpt lat="48.6362" lon="2.45677">
        <ele>32</ele>
        <time>2022-09-28T08:05:22.539Z</time>
      </trkpt>
      <trkpt lat="48.63616" lon="2.45671">
        <ele>32</ele>
        <time>2022-09-28T08:05:27.544Z</time>
      </trkpt>
      <trkpt lat="48.63612" lon="2.45665">
        <ele>32</ele>
        <time>2022-09-28T08:05:31.544Z</time>
      </trkpt>
      <trkpt lat="48.63607" lon="2.45658">
        <ele>32</ele>
        <time>2022-09-28T08:05:36.543Z</time>
      </trkpt>
      <trkpt lat="48.63603" lon="2.45651">
        <ele>29</ele>
        <time>2022-09-28T08:05:41.510Z</time>
      </trkpt>
      <trkpt lat="48.636" lon="2.45645">
        <ele>29</ele>
        <time>2022-09-28T08:05:45.549Z</time>
      </trkpt>
      <trkpt lat="48.63596" lon="2.4564">
        <ele>30</ele>
        <time>2022-09-28T08:05:49.549Z</time>
      </trkpt>
      <trkpt lat="48.63591" lon="2.45633">
        <ele>30</ele>
        <time>2022-09-28T08:05:54.538Z</time>
      </trkpt>
      <trkpt lat="48.63588" lon="2.45628">
        <ele>30</ele>
        <time>2022-09-28T08:05:58.539Z</time>
      </trkpt>
      <trkpt lat="48.63585" lon="2.45623">
        <ele>28</ele>
        <time>2022-09-28T08:06:02.546Z</time>
      </trkpt>
      <trkpt lat="48.6358" lon="2.45615">
        <ele>28</ele>
        <time>2022-09-28T08:06:07.536Z</time>
      </trkpt>
      <trkpt lat="48.63575" lon="2.45609">
        <ele>28</ele>
        <time>2022-09-28T08:06:12.527Z</time>
      </trkpt>
      <trkpt lat="48.63572" lon="2.45604">
        <ele>28</ele>
        <time>2022-09-28T08:06:16.548Z</time>
      </trkpt>
      <trkpt lat="48.63568" lon="2.45598">
        <ele>31</ele>
        <time>2022-09-28T08:06:21.554Z</time>
      </trkpt>
      <trkpt lat="48.63564" lon="2.45592">
        <ele>27</ele>
        <time>2022-09-28T08:06:26.548Z</time>
      </trkpt>
      <trkpt lat="48.63559" lon="2.45586">
        <ele>27</ele>
        <time>2022-09-28T08:06:31.495Z</time>
      </trkpt>
      <trkpt lat="48.63555" lon="2.4558">
        <ele>27</ele>
        <time>2022-09-28T08:06:35.537Z</time>
      </trkpt>
      <trkpt lat="48.63551" lon="2.45574">
        <ele>27</ele>
        <time>2022-09-28T08:06:40.536Z</time>
      </trkpt>
      <trkpt lat="48.63546" lon="2.45566">
        <ele>28</ele>
        <time>2022-09-28T08:06:45.514Z</time>
      </trkpt>
      <trkpt lat="48.63543" lon="2.45561">
        <ele>28</ele>
        <time>2022-09-28T08:06:49.547Z</time>
      </trkpt>
      <trkpt lat="48.63538" lon="2.45555">
        <ele>31</ele>
        <time>2022-09-28T08:06:54.526Z</time>
      </trkpt>
      <trkpt lat="48.63535" lon="2.4555">
        <ele>31</ele>
        <time>2022-09-28T08:06:58.534Z</time>
      </trkpt>
      <trkpt lat="48.63533" lon="2.45545">
        <ele>31</ele>
        <time>2022-09-28T08:07:02.564Z</time>
      </trkpt>
      <trkpt lat="48.63529" lon="2.45539">
        <ele>34</ele>
        <time>2022-09-28T08:07:07.501Z</time>
      </trkpt>
      <trkpt lat="48.63526" lon="2.45535">
        <ele>34</ele>
        <time>2022-09-28T08:07:11.545Z</time>
      </trkpt>
      <trkpt lat="48.63523" lon="2.45531">
        <ele>34</ele>
        <time>2022-09-28T08:07:16.548Z</time>
      </trkpt>
      <trkpt lat="48.6352" lon="2.45527">
        <ele>34</ele>
        <time>2022-09-28T08:07:20.711Z</time>
      </trkpt>
      <trkpt lat="48.63518" lon="2.4552">
        <ele>34</ele>
        <time>2022-09-28T08:07:25.604Z</time>
      </trkpt>
      <trkpt lat="48.63516" lon="2.45514">
        <ele>38</ele>
        <time>2022-09-28T08:07:29.533Z</time>
      </trkpt>
      <trkpt lat="48.63511" lon="2.45505">
        <ele>43</ele>
        <time>2022-09-28T08:07:34.568Z</time>
      </trkpt>
      <trkpt lat="48.63507" lon="2.45499">
        <ele>43</ele>
        <time>2022-09-28T08:07:39.551Z</time>
      </trkpt>
      <trkpt lat="48.63504" lon="2.45491">
        <ele>43</ele>
        <time>2022-09-28T08:07:44.555Z</time>
      </trkpt>
      <trkpt lat="48.63501" lon="2.45483">
        <ele>45</ele>
        <time>2022-09-28T08:07:48.552Z</time>
      </trkpt>
      <trkpt lat="48.63502" lon="2.45477">
        <ele>45</ele>
        <time>2022-09-28T08:07:53.543Z</time>
      </trkpt>
      <trkpt lat="48.63502" lon="2.45469">
        <ele>45</ele>
        <time>2022-09-28T08:07:57.555Z</time>
      </trkpt>
      <trkpt lat="48.63503" lon="2.4546">
        <ele>45</ele>
        <time>2022-09-28T08:08:02.527Z</time>
      </trkpt>
      <trkpt lat="48.63504" lon="2.45452">
        <ele>46</ele>
        <time>2022-09-28T08:08:06.548Z</time>
      </trkpt>
      <trkpt lat="48.63506" lon="2.45445">
        <ele>46</ele>
        <time>2022-09-28T08:08:10.543Z</time>
      </trkpt>
      <trkpt lat="48.6351" lon="2.45438">
        <ele>46</ele>
        <time>2022-09-28T08:08:15.514Z</time>
      </trkpt>
      <trkpt lat="48.63513" lon="2.45431">
        <ele>46</ele>
        <time>2022-09-28T08:08:19.529Z</time>
      </trkpt>
      <trkpt lat="48.63518" lon="2.45424">
        <ele>43</ele>
        <time>2022-09-28T08:08:24.524Z</time>
      </trkpt>
      <trkpt lat="48.63522" lon="2.45418">
        <ele>43</ele>
        <time>2022-09-28T08:08:29.517Z</time>
      </trkpt>
      <trkpt lat="48.63528" lon="2.45412">
        <ele>43</ele>
        <time>2022-09-28T08:08:34.516Z</time>
      </trkpt>
      <trkpt lat="48.63532" lon="2.45407">
        <ele>43</ele>
        <time>2022-09-28T08:08:39.523Z</time>
      </trkpt>
      <trkpt lat="48.63536" lon="2.45402">
        <ele>41</ele>
        <time>2022-09-28T08:08:44.497Z</time>
      </trkpt>
      <trkpt lat="48.63541" lon="2.45398">
        <ele>41</ele>
        <time>2022-09-28T08:08:49.516Z</time>
      </trkpt>
      <trkpt lat="48.63546" lon="2.45394">
        <ele>39</ele>
        <time>2022-09-28T08:08:54.506Z</time>
      </trkpt>
      <trkpt lat="48.63552" lon="2.45392">
        <ele>39</ele>
        <time>2022-09-28T08:08:58.542Z</time>
      </trkpt>
      <trkpt lat="48.63556" lon="2.45389">
        <ele>39</ele>
        <time>2022-09-28T08:09:03.523Z</time>
      </trkpt>
      <trkpt lat="48.63562" lon="2.45388">
        <ele>39</ele>
        <time>2022-09-28T08:09:07.543Z</time>
      </trkpt>
      <trkpt lat="48.63568" lon="2.45389">
        <ele>39</ele>
        <time>2022-09-28T08:09:12.572Z</time>
      </trkpt>
      <trkpt lat="48.63573" lon="2.4539">
        <ele>38</ele>
        <time>2022-09-28T08:09:17.552Z</time>
      </trkpt>
      <trkpt lat="48.63576" lon="2.45387">
        <ele>38</ele>
        <time>2022-09-28T08:09:22.564Z</time>
      </trkpt>
      <trkpt lat="48.63578" lon="2.45385">
        <ele>38</ele>
        <time>2022-09-28T08:09:27.550Z</time>
      </trkpt>
      <trkpt lat="48.63586" lon="2.45387">
        <ele>38</ele>
        <time>2022-09-28T08:10:41.541Z</time>
      </trkpt>
      <trkpt lat="48.63587" lon="2.45388">
        <ele>38</ele>
        <time>2022-09-28T08:10:46.550Z</time>
      </trkpt>
      <trkpt lat="48.63588" lon="2.4539">
        <ele>38</ele>
        <time>2022-09-28T08:10:51.533Z</time>
      </trkpt>
      <trkpt lat="48.63589" lon="2.45389">
        <ele>38</ele>
        <time>2022-09-28T08:10:55.542Z</time>
      </trkpt>
      <trkpt lat="48.6359" lon="2.4539">
        <ele>38</ele>
        <time>2022-09-28T08:11:00.544Z</time>
      </trkpt>
      <trkpt lat="48.6359" lon="2.45388">
        <ele>38</ele>
        <time>2022-09-28T08:15:52.508Z</time>
      </trkpt>
      <trkpt lat="48.63589" lon="2.45387">
        <ele>38</ele>
        <time>2022-09-28T08:15:57.508Z</time>
      </trkpt>
      <trkpt lat="48.63591" lon="2.45381">
        <ele>38</ele>
        <time>2022-09-28T08:16:02.514Z</time>
      </trkpt>
      <trkpt lat="48.63595" lon="2.45375">
        <ele>38</ele>
        <time>2022-09-28T08:16:07.495Z</time>
      </trkpt>
      <trkpt lat="48.63598" lon="2.45371">
        <ele>40</ele>
        <time>2022-09-28T08:16:11.506Z</time>
      </trkpt>
      <trkpt lat="48.63603" lon="2.45366">
        <ele>40</ele>
        <time>2022-09-28T08:16:16.497Z</time>
      </trkpt>
      <trkpt lat="48.63607" lon="2.45362">
        <ele>40</ele>
        <time>2022-09-28T08:16:20.503Z</time>
      </trkpt>
      <trkpt lat="48.63609" lon="2.45356">
        <ele>40</ele>
        <time>2022-09-28T08:16:25.492Z</time>
      </trkpt>
      <trkpt lat="48.63611" lon="2.45351">
        <ele>40</ele>
        <time>2022-09-28T08:16:29.493Z</time>
      </trkpt>
      <trkpt lat="48.63613" lon="2.45344">
        <ele>40</ele>
        <time>2022-09-28T08:16:34.493Z</time>
      </trkpt>
      <trkpt lat="48.63617" lon="2.45335">
        <ele>40</ele>
        <time>2022-09-28T08:16:39.492Z</time>
      </trkpt>
      <trkpt lat="48.63619" lon="2.45329">
        <ele>40</ele>
        <time>2022-09-28T08:16:43.498Z</time>
      </trkpt>
      <trkpt lat="48.63621" lon="2.45321">
        <ele>40</ele>
        <time>2022-09-28T08:16:48.506Z</time>
      </trkpt>
      <trkpt lat="48.63622" lon="2.45313">
        <ele>42</ele>
        <time>2022-09-28T08:16:53.492Z</time>
      </trkpt>
      <trkpt lat="48.63626" lon="2.45304">
        <ele>41</ele>
        <time>2022-09-28T08:16:57.496Z</time>
      </trkpt>
      <trkpt lat="48.63632" lon="2.45297">
        <ele>41</ele>
        <time>2022-09-28T08:17:01.504Z</time>
      </trkpt>
      <trkpt lat="48.63635" lon="2.45288">
        <ele>40</ele>
        <time>2022-09-28T08:17:06.516Z</time>
      </trkpt>
      <trkpt lat="48.63636" lon="2.45278">
        <ele>40</ele>
        <time>2022-09-28T08:17:11.504Z</time>
      </trkpt>
      <trkpt lat="48.63637" lon="2.45269">
        <ele>40</ele>
        <time>2022-09-28T08:17:15.527Z</time>
      </trkpt>
      <trkpt lat="48.63639" lon="2.45261">
        <ele>40</ele>
        <time>2022-09-28T08:17:20.513Z</time>
      </trkpt>
      <trkpt lat="48.63641" lon="2.45255">
        <ele>40</ele>
        <time>2022-09-28T08:17:24.531Z</time>
      </trkpt>
      <trkpt lat="48.63645" lon="2.45246">
        <ele>40</ele>
        <time>2022-09-28T08:17:29.529Z</time>
      </trkpt>
      <trkpt lat="48.63649" lon="2.45238">
        <ele>40</ele>
        <time>2022-09-28T08:17:34.536Z</time>
      </trkpt>
      <trkpt lat="48.63652" lon="2.45232">
        <ele>38</ele>
        <time>2022-09-28T08:17:39.525Z</time>
      </trkpt>
      <trkpt lat="48.63657" lon="2.45226">
        <ele>37</ele>
        <time>2022-09-28T08:17:44.522Z</time>
      </trkpt>
      <trkpt lat="48.6366" lon="2.45219">
        <ele>37</ele>
        <time>2022-09-28T08:17:49.521Z</time>
      </trkpt>
      <trkpt lat="48.63663" lon="2.45211">
        <ele>37</ele>
        <time>2022-09-28T08:17:54.529Z</time>
      </trkpt>
      <trkpt lat="48.63666" lon="2.45203">
        <ele>36</ele>
        <time>2022-09-28T08:17:59.514Z</time>
      </trkpt>
      <trkpt lat="48.63668" lon="2.45197">
        <ele>36</ele>
        <time>2022-09-28T08:18:03.534Z</time>
      </trkpt>
      <trkpt lat="48.63673" lon="2.45192">
        <ele>36</ele>
        <time>2022-09-28T08:18:08.536Z</time>
      </trkpt>
      <trkpt lat="48.63677" lon="2.45186">
        <ele>36</ele>
        <time>2022-09-28T08:18:12.532Z</time>
      </trkpt>
      <trkpt lat="48.63681" lon="2.45176">
        <ele>35</ele>
        <time>2022-09-28T08:18:17.538Z</time>
      </trkpt>
      <trkpt lat="48.63685" lon="2.45174">
        <ele>35</ele>
        <time>2022-09-28T08:18:22.493Z</time>
      </trkpt>
      <trkpt lat="48.63689" lon="2.45177">
        <ele>35</ele>
        <time>2022-09-28T08:18:27.498Z</time>
      </trkpt>
      <trkpt lat="48.63696" lon="2.4516">
        <ele>35</ele>
        <time>2022-09-28T08:18:31.507Z</time>
      </trkpt>
      <trkpt lat="48.63703" lon="2.45143">
        <ele>35</ele>
        <time>2022-09-28T08:18:36.515Z</time>
      </trkpt>
      <trkpt lat="48.63704" lon="2.4513">
        <ele>35</ele>
        <time>2022-09-28T08:18:41.527Z</time>
      </trkpt>
      <trkpt lat="48.63701" lon="2.45123">
        <ele>35</ele>
        <time>2022-09-28T08:18:45.539Z</time>
      </trkpt>
      <trkpt lat="48.637" lon="2.45116">
        <ele>35</ele>
        <time>2022-09-28T08:18:50.542Z</time>
      </trkpt>
      <trkpt lat="48.63704" lon="2.4511">
        <ele>35</ele>
        <time>2022-09-28T08:18:55.492Z</time>
      </trkpt>
      <trkpt lat="48.63707" lon="2.45105">
        <ele>35</ele>
        <time>2022-09-28T08:18:59.535Z</time>
      </trkpt>
      <trkpt lat="48.63711" lon="2.451">
        <ele>32</ele>
        <time>2022-09-28T08:19:04.543Z</time>
      </trkpt>
      <trkpt lat="48.63716" lon="2.45094">
        <ele>33</ele>
        <time>2022-09-28T08:19:09.509Z</time>
      </trkpt>
      <trkpt lat="48.6372" lon="2.45088">
        <ele>33</ele>
        <time>2022-09-28T08:19:14.527Z</time>
      </trkpt>
      <trkpt lat="48.63724" lon="2.45082">
        <ele>33</ele>
        <time>2022-09-28T08:19:18.558Z</time>
      </trkpt>
      <trkpt lat="48.63726" lon="2.45073">
        <ele>33</ele>
        <time>2022-09-28T08:19:23.542Z</time>
      </trkpt>
      <trkpt lat="48.63731" lon="2.45066">
        <ele>32</ele>
        <time>2022-09-28T08:19:27.547Z</time>
      </trkpt>
      <trkpt lat="48.63735" lon="2.45058">
        <ele>32</ele>
        <time>2022-09-28T08:19:32.546Z</time>
      </trkpt>
      <trkpt lat="48.63738" lon="2.45051">
        <ele>31</ele>
        <time>2022-09-28T08:19:37.546Z</time>
      </trkpt>
      <trkpt lat="48.63742" lon="2.45044">
        <ele>31</ele>
        <time>2022-09-28T08:19:42.539Z</time>
      </trkpt>
      <trkpt lat="48.63746" lon="2.45035">
        <ele>32</ele>
        <time>2022-09-28T08:19:47.535Z</time>
      </trkpt>
      <trkpt lat="48.63748" lon="2.45027">
        <ele>32</ele>
        <time>2022-09-28T08:19:52.563Z</time>
      </trkpt>
      <trkpt lat="48.63749" lon="2.45025">
        <ele>32</ele>
        <time>2022-09-28T08:19:57.538Z</time>
      </trkpt>
      <trkpt lat="48.6375" lon="2.45024">
        <ele>32</ele>
        <time>2022-09-28T08:20:02.547Z</time>
      </trkpt>
      <trkpt lat="48.63751" lon="2.45018">
        <ele>32</ele>
        <time>2022-09-28T08:20:07.528Z</time>
      </trkpt>
      <trkpt lat="48.63755" lon="2.45011">
        <ele>32</ele>
        <time>2022-09-28T08:20:11.545Z</time>
      </trkpt>
      <trkpt lat="48.63759" lon="2.45005">
        <ele>32</ele>
        <time>2022-09-28T08:20:16.531Z</time>
      </trkpt>
      <trkpt lat="48.63762" lon="2.45">
        <ele>32</ele>
        <time>2022-09-28T08:20:20.550Z</time>
      </trkpt>
      <trkpt lat="48.63764" lon="2.44995">
        <ele>30</ele>
        <time>2022-09-28T08:20:25.560Z</time>
      </trkpt>
      <trkpt lat="48.63769" lon="2.44992">
        <ele>30</ele>
        <time>2022-09-28T08:20:30.555Z</time>
      </trkpt>
      <trkpt lat="48.63774" lon="2.44987">
        <ele>30</ele>
        <time>2022-09-28T08:20:35.520Z</time>
      </trkpt>
      <trkpt lat="48.63777" lon="2.44986">
        <ele>29</ele>
        <time>2022-09-28T08:20:39.533Z</time>
      </trkpt>
      <trkpt lat="48.6378" lon="2.44982">
        <ele>29</ele>
        <time>2022-09-28T08:20:43.537Z</time>
      </trkpt>
      <trkpt lat="48.63784" lon="2.44975">
        <ele>29</ele>
        <time>2022-09-28T08:20:48.533Z</time>
      </trkpt>
      <trkpt lat="48.63789" lon="2.44968">
        <ele>29</ele>
        <time>2022-09-28T08:20:53.556Z</time>
      </trkpt>
      <trkpt lat="48.63792" lon="2.4496">
        <ele>25</ele>
        <time>2022-09-28T08:20:58.538Z</time>
      </trkpt>
      <trkpt lat="48.63795" lon="2.44954">
        <ele>26</ele>
        <time>2022-09-28T08:21:02.540Z</time>
      </trkpt>
      <trkpt lat="48.638" lon="2.44945">
        <ele>26</ele>
        <time>2022-09-28T08:21:07.534Z</time>
      </trkpt>
      <trkpt lat="48.63804" lon="2.44936">
        <ele>26</ele>
        <time>2022-09-28T08:21:12.545Z</time>
      </trkpt>
      <trkpt lat="48.63808" lon="2.44927">
        <ele>29</ele>
        <time>2022-09-28T08:21:17.533Z</time>
      </trkpt>
      <trkpt lat="48.63812" lon="2.44919">
        <ele>29</ele>
        <time>2022-09-28T08:21:22.524Z</time>
      </trkpt>
      <trkpt lat="48.63815" lon="2.44913">
        <ele>29</ele>
        <time>2022-09-28T08:21:26.539Z</time>
      </trkpt>
      <trkpt lat="48.63818" lon="2.44904">
        <ele>29</ele>
        <time>2022-09-28T08:21:31.520Z</time>
      </trkpt>
      <trkpt lat="48.63822" lon="2.44897">
        <ele>29</ele>
        <time>2022-09-28T08:21:35.542Z</time>
      </trkpt>
      <trkpt lat="48.63824" lon="2.4489">
        <ele>29</ele>
        <time>2022-09-28T08:21:39.547Z</time>
      </trkpt>
      <trkpt lat="48.63828" lon="2.44883">
        <ele>29</ele>
        <time>2022-09-28T08:21:44.544Z</time>
      </trkpt>
      <trkpt lat="48.63832" lon="2.44875">
        <ele>32</ele>
        <time>2022-09-28T08:21:49.507Z</time>
      </trkpt>
      <trkpt lat="48.6383" lon="2.44868">
        <ele>32</ele>
        <time>2022-09-28T08:21:53.510Z</time>
      </trkpt>
      <trkpt lat="48.63822" lon="2.44853">
        <ele>32</ele>
        <time>2022-09-28T08:21:58.503Z</time>
      </trkpt>
      <trkpt lat="48.6383" lon="2.44841">
        <ele>36</ele>
        <time>2022-09-28T08:22:03.493Z</time>
      </trkpt>
      <trkpt lat="48.63836" lon="2.44835">
        <ele>36</ele>
        <time>2022-09-28T08:22:08.494Z</time>
      </trkpt>
      <trkpt lat="48.63839" lon="2.44831">
        <ele>36</ele>
        <time>2022-09-28T08:22:12.502Z</time>
      </trkpt>
      <trkpt lat="48.63842" lon="2.44826">
        <ele>36</ele>
        <time>2022-09-28T08:22:16.501Z</time>
      </trkpt>
      <trkpt lat="48.63845" lon="2.4482">
        <ele>36</ele>
        <time>2022-09-28T08:22:21.504Z</time>
      </trkpt>
      <trkpt lat="48.63848" lon="2.44817">
        <ele>40</ele>
        <time>2022-09-28T08:22:26.494Z</time>
      </trkpt>
      <trkpt lat="48.63852" lon="2.44813">
        <ele>40</ele>
        <time>2022-09-28T08:22:30.507Z</time>
      </trkpt>
      <trkpt lat="48.63857" lon="2.44806">
        <ele>40</ele>
        <time>2022-09-28T08:22:35.500Z</time>
      </trkpt>
      <trkpt lat="48.6386" lon="2.44801">
        <ele>40</ele>
        <time>2022-09-28T08:22:40.500Z</time>
      </trkpt>
      <trkpt lat="48.63864" lon="2.44793">
        <ele>40</ele>
        <time>2022-09-28T08:22:45.500Z</time>
      </trkpt>
      <trkpt lat="48.63868" lon="2.44786">
        <ele>43</ele>
        <time>2022-09-28T08:22:50.509Z</time>
      </trkpt>
      <trkpt lat="48.63873" lon="2.44781">
        <ele>43</ele>
        <time>2022-09-28T08:22:55.502Z</time>
      </trkpt>
      <trkpt lat="48.63878" lon="2.44773">
        <ele>39</ele>
        <time>2022-09-28T08:23:00.496Z</time>
      </trkpt>
      <trkpt lat="48.63883" lon="2.44767">
        <ele>39</ele>
        <time>2022-09-28T08:23:05.497Z</time>
      </trkpt>
      <trkpt lat="48.63888" lon="2.44759">
        <ele>42</ele>
        <time>2022-09-28T08:23:10.509Z</time>
      </trkpt>
      <trkpt lat="48.63893" lon="2.44753">
        <ele>42</ele>
        <time>2022-09-28T08:23:15.500Z</time>
      </trkpt>
      <trkpt lat="48.63897" lon="2.44751">
        <ele>42</ele>
        <time>2022-09-28T08:23:19.504Z</time>
      </trkpt>
      <trkpt lat="48.63901" lon="2.44745">
        <ele>42</ele>
        <time>2022-09-28T08:23:23.509Z</time>
      </trkpt>
      <trkpt lat="48.63904" lon="2.44737">
        <ele>38</ele>
        <time>2022-09-28T08:23:28.499Z</time>
      </trkpt>
      <trkpt lat="48.63907" lon="2.44731">
        <ele>42</ele>
        <time>2022-09-28T08:23:33.500Z</time>
      </trkpt>
      <trkpt lat="48.6391" lon="2.44726">
        <ele>42</ele>
        <time>2022-09-28T08:23:38.500Z</time>
      </trkpt>
      <trkpt lat="48.63912" lon="2.44721">
        <ele>42</ele>
        <time>2022-09-28T08:23:42.515Z</time>
      </trkpt>
      <trkpt lat="48.63915" lon="2.44712">
        <ele>42</ele>
        <time>2022-09-28T08:23:47.492Z</time>
      </trkpt>
      <trkpt lat="48.63918" lon="2.44706">
        <ele>45</ele>
        <time>2022-09-28T08:23:51.504Z</time>
      </trkpt>
      <trkpt lat="48.63926" lon="2.44697">
        <ele>45</ele>
        <time>2022-09-28T08:23:56.518Z</time>
      </trkpt>
      <trkpt lat="48.63934" lon="2.44694">
        <ele>42</ele>
        <time>2022-09-28T08:24:01.491Z</time>
      </trkpt>
      <trkpt lat="48.63941" lon="2.44694">
        <ele>42</ele>
        <time>2022-09-28T08:24:05.514Z</time>
      </trkpt>
      <trkpt lat="48.63952" lon="2.4469">
        <ele>42</ele>
        <time>2022-09-28T08:24:10.517Z</time>
      </trkpt>
      <trkpt lat="48.63958" lon="2.44689">
        <ele>40</ele>
        <time>2022-09-28T08:24:15.490Z</time>
      </trkpt>
      <trkpt lat="48.63965" lon="2.4468">
        <ele>41</ele>
        <time>2022-09-28T08:24:19.488Z</time>
      </trkpt>
      <trkpt lat="48.63977" lon="2.44671">
        <ele>41</ele>
        <time>2022-09-28T08:24:23.513Z</time>
      </trkpt>
      <trkpt lat="48.63986" lon="2.44667">
        <ele>41</ele>
        <time>2022-09-28T08:24:27.519Z</time>
      </trkpt>
      <trkpt lat="48.63995" lon="2.44658">
        <ele>41</ele>
        <time>2022-09-28T08:24:32.511Z</time>
      </trkpt>
      <trkpt lat="48.63998" lon="2.44654">
        <ele>41</ele>
        <time>2022-09-28T08:24:36.519Z</time>
      </trkpt>
      <trkpt lat="48.64002" lon="2.44647">
        <ele>40</ele>
        <time>2022-09-28T08:24:41.531Z</time>
      </trkpt>
      <trkpt lat="48.64005" lon="2.44644">
        <ele>40</ele>
        <time>2022-09-28T08:24:46.534Z</time>
      </trkpt>
      <trkpt lat="48.64006" lon="2.44638">
        <ele>40</ele>
        <time>2022-09-28T08:24:51.494Z</time>
      </trkpt>
      <trkpt lat="48.64007" lon="2.44635">
        <ele>40</ele>
        <time>2022-09-28T08:24:55.508Z</time>
      </trkpt>
      <trkpt lat="48.6401" lon="2.44629">
        <ele>40</ele>
        <time>2022-09-28T08:25:00.504Z</time>
      </trkpt>
      <trkpt lat="48.64014" lon="2.44623">
        <ele>41</ele>
        <time>2022-09-28T08:25:05.492Z</time>
      </trkpt>
      <trkpt lat="48.64017" lon="2.44616">
        <ele>41</ele>
        <time>2022-09-28T08:25:09.517Z</time>
      </trkpt>
      <trkpt lat="48.64021" lon="2.44613">
        <ele>41</ele>
        <time>2022-09-28T08:25:14.510Z</time>
      </trkpt>
      <trkpt lat="48.64024" lon="2.44609">
        <ele>41</ele>
        <time>2022-09-28T08:25:18.529Z</time>
      </trkpt>
      <trkpt lat="48.64026" lon="2.44601">
        <ele>41</ele>
        <time>2022-09-28T08:25:23.547Z</time>
      </trkpt>
      <trkpt lat="48.64029" lon="2.44594">
        <ele>40</ele>
        <time>2022-09-28T08:25:28.544Z</time>
      </trkpt>
      <trkpt lat="48.64035" lon="2.44588">
        <ele>40</ele>
        <time>2022-09-28T08:25:33.534Z</time>
      </trkpt>
      <trkpt lat="48.6404" lon="2.4458">
        <ele>40</ele>
        <time>2022-09-28T08:25:38.525Z</time>
      </trkpt>
      <trkpt lat="48.64043" lon="2.44576">
        <ele>37</ele>
        <time>2022-09-28T08:25:42.536Z</time>
      </trkpt>
      <trkpt lat="48.64048" lon="2.4457">
        <ele>37</ele>
        <time>2022-09-28T08:25:47.548Z</time>
      </trkpt>
      <trkpt lat="48.64051" lon="2.44564">
        <ele>37</ele>
        <time>2022-09-28T08:25:51.553Z</time>
      </trkpt>
      <trkpt lat="48.64055" lon="2.44562">
        <ele>37</ele>
        <time>2022-09-28T08:25:56.546Z</time>
      </trkpt>
      <trkpt lat="48.64061" lon="2.44558">
        <ele>37</ele>
        <time>2022-09-28T08:26:01.537Z</time>
      </trkpt>
      <trkpt lat="48.64067" lon="2.44552">
        <ele>37</ele>
        <time>2022-09-28T08:26:06.545Z</time>
      </trkpt>
      <trkpt lat="48.64074" lon="2.44544">
        <ele>34</ele>
        <time>2022-09-28T08:26:11.523Z</time>
      </trkpt>
      <trkpt lat="48.64081" lon="2.44538">
        <ele>36</ele>
        <time>2022-09-28T08:26:16.548Z</time>
      </trkpt>
      <trkpt lat="48.64086" lon="2.44533">
        <ele>36</ele>
        <time>2022-09-28T08:26:21.518Z</time>
      </trkpt>
      <trkpt lat="48.64091" lon="2.44527">
        <ele>36</ele>
        <time>2022-09-28T08:26:26.537Z</time>
      </trkpt>
      <trkpt lat="48.64095" lon="2.44522">
        <ele>36</ele>
        <time>2022-09-28T08:26:31.524Z</time>
      </trkpt>
      <trkpt lat="48.64099" lon="2.44518">
        <ele>36</ele>
        <time>2022-09-28T08:26:35.544Z</time>
      </trkpt>
      <trkpt lat="48.64103" lon="2.44514">
        <ele>37</ele>
        <time>2022-09-28T08:26:40.529Z</time>
      </trkpt>
      <trkpt lat="48.64106" lon="2.44509">
        <ele>37</ele>
        <time>2022-09-28T08:26:44.538Z</time>
      </trkpt>
      <trkpt lat="48.64113" lon="2.44502">
        <ele>37</ele>
        <time>2022-09-28T08:26:49.548Z</time>
      </trkpt>
      <trkpt lat="48.64119" lon="2.44497">
        <ele>37</ele>
        <time>2022-09-28T08:26:54.526Z</time>
      </trkpt>
      <trkpt lat="48.64124" lon="2.44492">
        <ele>37</ele>
        <time>2022-09-28T08:26:58.542Z</time>
      </trkpt>
      <trkpt lat="48.6413" lon="2.44486">
        <ele>35</ele>
        <time>2022-09-28T08:27:03.545Z</time>
      </trkpt>
      <trkpt lat="48.64135" lon="2.44478">
        <ele>35</ele>
        <time>2022-09-28T08:27:08.554Z</time>
      </trkpt>
      <trkpt lat="48.64141" lon="2.44473">
        <ele>35</ele>
        <time>2022-09-28T08:27:13.540Z</time>
      </trkpt>
      <trkpt lat="48.64146" lon="2.44466">
        <ele>35</ele>
        <time>2022-09-28T08:27:18.548Z</time>
      </trkpt>
      <trkpt lat="48.64152" lon="2.4446">
        <ele>35</ele>
        <time>2022-09-28T08:27:23.538Z</time>
      </trkpt>
      <trkpt lat="48.64158" lon="2.44454">
        <ele>35</ele>
        <time>2022-09-28T08:27:28.503Z</time>
      </trkpt>
      <trkpt lat="48.64164" lon="2.44446">
        <ele>35</ele>
        <time>2022-09-28T08:27:33.503Z</time>
      </trkpt>
      <trkpt lat="48.64168" lon="2.44441">
        <ele>35</ele>
        <time>2022-09-28T08:27:38.512Z</time>
      </trkpt>
      <trkpt lat="48.64172" lon="2.44436">
        <ele>35</ele>
        <time>2022-09-28T08:27:42.525Z</time>
      </trkpt>
      <trkpt lat="48.64177" lon="2.44431">
        <ele>35</ele>
        <time>2022-09-28T08:27:46.535Z</time>
      </trkpt>
      <trkpt lat="48.64181" lon="2.44426">
        <ele>31</ele>
        <time>2022-09-28T08:27:50.543Z</time>
      </trkpt>
      <trkpt lat="48.64187" lon="2.44419">
        <ele>31</ele>
        <time>2022-09-28T08:27:55.535Z</time>
      </trkpt>
      <trkpt lat="48.64192" lon="2.44414">
        <ele>31</ele>
        <time>2022-09-28T08:28:00.542Z</time>
      </trkpt>
      <trkpt lat="48.64198" lon="2.44408">
        <ele>31</ele>
        <time>2022-09-28T08:28:05.536Z</time>
      </trkpt>
      <trkpt lat="48.64204" lon="2.44402">
        <ele>32</ele>
        <time>2022-09-28T08:28:10.545Z</time>
      </trkpt>
      <trkpt lat="48.64209" lon="2.44396">
        <ele>30</ele>
        <time>2022-09-28T08:28:15.520Z</time>
      </trkpt>
      <trkpt lat="48.64214" lon="2.44391">
        <ele>30</ele>
        <time>2022-09-28T08:28:19.528Z</time>
      </trkpt>
      <trkpt lat="48.64218" lon="2.44385">
        <ele>30</ele>
        <time>2022-09-28T08:28:24.551Z</time>
      </trkpt>
      <trkpt lat="48.64222" lon="2.44379">
        <ele>30</ele>
        <time>2022-09-28T08:28:29.533Z</time>
      </trkpt>
      <trkpt lat="48.64226" lon="2.44375">
        <ele>33</ele>
        <time>2022-09-28T08:28:33.550Z</time>
      </trkpt>
      <trkpt lat="48.64231" lon="2.44369">
        <ele>33</ele>
        <time>2022-09-28T08:28:38.519Z</time>
      </trkpt>
      <trkpt lat="48.64236" lon="2.44364">
        <ele>33</ele>
        <time>2022-09-28T08:28:42.552Z</time>
      </trkpt>
      <trkpt lat="48.64241" lon="2.44357">
        <ele>33</ele>
        <time>2022-09-28T08:28:47.521Z</time>
      </trkpt>
      <trkpt lat="48.64246" lon="2.44352">
        <ele>33</ele>
        <time>2022-09-28T08:28:52.528Z</time>
      </trkpt>
      <trkpt lat="48.64251" lon="2.44347">
        <ele>34</ele>
        <time>2022-09-28T08:28:56.539Z</time>
      </trkpt>
      <trkpt lat="48.64255" lon="2.44342">
        <ele>34</ele>
        <time>2022-09-28T08:29:00.542Z</time>
      </trkpt>
      <trkpt lat="48.6426" lon="2.44337">
        <ele>34</ele>
        <time>2022-09-28T08:29:05.532Z</time>
      </trkpt>
      <trkpt lat="48.64264" lon="2.44328">
        <ele>34</ele>
        <time>2022-09-28T08:29:10.528Z</time>
      </trkpt>
      <trkpt lat="48.64265" lon="2.44321">
        <ele>34</ele>
        <time>2022-09-28T08:29:14.538Z</time>
      </trkpt>
      <trkpt lat="48.64266" lon="2.44314">
        <ele>35</ele>
        <time>2022-09-28T08:29:19.542Z</time>
      </trkpt>
      <trkpt lat="48.64272" lon="2.44313">
        <ele>35</ele>
        <time>2022-09-28T08:29:24.524Z</time>
      </trkpt>
      <trkpt lat="48.64277" lon="2.44306">
        <ele>35</ele>
        <time>2022-09-28T08:29:29.512Z</time>
      </trkpt>
      <trkpt lat="48.6428" lon="2.44299">
        <ele>35</ele>
        <time>2022-09-28T08:29:33.528Z</time>
      </trkpt>
      <trkpt lat="48.64282" lon="2.4429">
        <ele>36</ele>
        <time>2022-09-28T08:29:38.527Z</time>
      </trkpt>
      <trkpt lat="48.64286" lon="2.44282">
        <ele>36</ele>
        <time>2022-09-28T08:29:43.534Z</time>
      </trkpt>
      <trkpt lat="48.6429" lon="2.44276">
        <ele>36</ele>
        <time>2022-09-28T08:29:48.531Z</time>
      </trkpt>
      <trkpt lat="48.64295" lon="2.4427">
        <ele>34</ele>
        <time>2022-09-28T08:29:53.542Z</time>
      </trkpt>
      <trkpt lat="48.643" lon="2.44264">
        <ele>34</ele>
        <time>2022-09-28T08:29:58.533Z</time>
      </trkpt>
      <trkpt lat="48.64306" lon="2.44258">
        <ele>36</ele>
        <time>2022-09-28T08:30:03.539Z</time>
      </trkpt>
      <trkpt lat="48.64311" lon="2.44253">
        <ele>36</ele>
        <time>2022-09-28T08:30:08.543Z</time>
      </trkpt>
      <trkpt lat="48.64316" lon="2.44248">
        <ele>36</ele>
        <time>2022-09-28T08:30:13.524Z</time>
      </trkpt>
      <trkpt lat="48.64319" lon="2.44242">
        <ele>36</ele>
        <time>2022-09-28T08:30:17.543Z</time>
      </trkpt>
      <trkpt lat="48.64323" lon="2.44236">
        <ele>33</ele>
        <time>2022-09-28T08:30:22.536Z</time>
      </trkpt>
      <trkpt lat="48.64326" lon="2.44231">
        <ele>37</ele>
        <time>2022-09-28T08:30:26.546Z</time>
      </trkpt>
      <trkpt lat="48.64332" lon="2.44225">
        <ele>37</ele>
        <time>2022-09-28T08:30:31.524Z</time>
      </trkpt>
      <trkpt lat="48.64335" lon="2.4422">
        <ele>37</ele>
        <time>2022-09-28T08:30:35.534Z</time>
      </trkpt>
      <trkpt lat="48.64342" lon="2.44216">
        <ele>37</ele>
        <time>2022-09-28T08:30:40.491Z</time>
      </trkpt>
      <trkpt lat="48.64345" lon="2.44212">
        <ele>37</ele>
        <time>2022-09-28T08:30:44.495Z</time>
      </trkpt>
      <trkpt lat="48.6435" lon="2.44205">
        <ele>40</ele>
        <time>2022-09-28T08:30:49.488Z</time>
      </trkpt>
      <trkpt lat="48.64355" lon="2.44202">
        <ele>40</ele>
        <time>2022-09-28T08:30:53.516Z</time>
      </trkpt>
      <trkpt lat="48.64361" lon="2.44197">
        <ele>40</ele>
        <time>2022-09-28T08:30:58.525Z</time>
      </trkpt>
      <trkpt lat="48.64367" lon="2.44191">
        <ele>40</ele>
        <time>2022-09-28T08:31:03.514Z</time>
      </trkpt>
      <trkpt lat="48.64373" lon="2.44187">
        <ele>40</ele>
        <time>2022-09-28T08:31:08.543Z</time>
      </trkpt>
      <trkpt lat="48.64377" lon="2.44181">
        <ele>46</ele>
        <time>2022-09-28T08:31:13.509Z</time>
      </trkpt>
      <trkpt lat="48.6438" lon="2.44175">
        <ele>49</ele>
        <time>2022-09-28T08:31:18.522Z</time>
      </trkpt>
      <trkpt lat="48.64385" lon="2.44169">
        <ele>49</ele>
        <time>2022-09-28T08:31:22.534Z</time>
      </trkpt>
      <trkpt lat="48.6439" lon="2.44164">
        <ele>49</ele>
        <time>2022-09-28T08:31:27.526Z</time>
      </trkpt>
      <trkpt lat="48.64394" lon="2.44156">
        <ele>49</ele>
        <time>2022-09-28T08:31:32.498Z</time>
      </trkpt>
      <trkpt lat="48.64398" lon="2.44152">
        <ele>48</ele>
        <time>2022-09-28T08:31:36.524Z</time>
      </trkpt>
      <trkpt lat="48.64403" lon="2.44147">
        <ele>48</ele>
        <time>2022-09-28T08:31:41.513Z</time>
      </trkpt>
      <trkpt lat="48.64406" lon="2.44143">
        <ele>41</ele>
        <time>2022-09-28T08:31:45.533Z</time>
      </trkpt>
      <trkpt lat="48.64412" lon="2.44137">
        <ele>41</ele>
        <time>2022-09-28T08:31:50.543Z</time>
      </trkpt>
      <trkpt lat="48.64417" lon="2.44132">
        <ele>41</ele>
        <time>2022-09-28T08:31:55.555Z</time>
      </trkpt>
      <trkpt lat="48.64423" lon="2.44127">
        <ele>41</ele>
        <time>2022-09-28T08:32:00.536Z</time>
      </trkpt>
      <trkpt lat="48.64427" lon="2.44123">
        <ele>39</ele>
        <time>2022-09-28T08:32:04.550Z</time>
      </trkpt>
      <trkpt lat="48.64433" lon="2.44117">
        <ele>37</ele>
        <time>2022-09-28T08:32:09.547Z</time>
      </trkpt>
      <trkpt lat="48.64438" lon="2.44111">
        <ele>37</ele>
        <time>2022-09-28T08:32:14.556Z</time>
      </trkpt>
      <trkpt lat="48.64444" lon="2.44105">
        <ele>37</ele>
        <time>2022-09-28T08:32:19.547Z</time>
      </trkpt>
      <trkpt lat="48.6445" lon="2.441">
        <ele>37</ele>
        <time>2022-09-28T08:32:24.545Z</time>
      </trkpt>
      <trkpt lat="48.64457" lon="2.44094">
        <ele>39</ele>
        <time>2022-09-28T08:32:29.531Z</time>
      </trkpt>
      <trkpt lat="48.64463" lon="2.4409">
        <ele>37</ele>
        <time>2022-09-28T08:32:33.544Z</time>
      </trkpt>
      <trkpt lat="48.64468" lon="2.44086">
        <ele>37</ele>
        <time>2022-09-28T08:32:37.547Z</time>
      </trkpt>
      <trkpt lat="48.64476" lon="2.44081">
        <ele>37</ele>
        <time>2022-09-28T08:32:42.557Z</time>
      </trkpt>
      <trkpt lat="48.64483" lon="2.44079">
        <ele>37</ele>
        <time>2022-09-28T08:32:47.540Z</time>
      </trkpt>
      <trkpt lat="48.64489" lon="2.44081">
        <ele>37</ele>
        <time>2022-09-28T08:32:52.539Z</time>
      </trkpt>
      <trkpt lat="48.64493" lon="2.44084">
        <ele>37</ele>
        <time>2022-09-28T08:32:56.560Z</time>
      </trkpt>
      <trkpt lat="48.64499" lon="2.44085">
        <ele>37</ele>
        <time>2022-09-28T08:33:01.533Z</time>
      </trkpt>
      <trkpt lat="48.64504" lon="2.44084">
        <ele>37</ele>
        <time>2022-09-28T08:33:05.545Z</time>
      </trkpt>
      <trkpt lat="48.6451" lon="2.44081">
        <ele>37</ele>
        <time>2022-09-28T08:33:09.544Z</time>
      </trkpt>
      <trkpt lat="48.64515" lon="2.44076">
        <ele>36</ele>
        <time>2022-09-28T08:33:14.535Z</time>
      </trkpt>
      <trkpt lat="48.64519" lon="2.44072">
        <ele>36</ele>
        <time>2022-09-28T08:33:18.536Z</time>
      </trkpt>
      <trkpt lat="48.64524" lon="2.44068">
        <ele>38</ele>
        <time>2022-09-28T08:33:23.535Z</time>
      </trkpt>
      <trkpt lat="48.64529" lon="2.44063">
        <ele>38</ele>
        <time>2022-09-28T08:33:28.561Z</time>
      </trkpt>
      <trkpt lat="48.64534" lon="2.44059">
        <ele>38</ele>
        <time>2022-09-28T08:33:33.554Z</time>
      </trkpt>
      <trkpt lat="48.64539" lon="2.44054">
        <ele>38</ele>
        <time>2022-09-28T08:33:38.548Z</time>
      </trkpt>
      <trkpt lat="48.64545" lon="2.44049">
        <ele>36</ele>
        <time>2022-09-28T08:33:43.543Z</time>
      </trkpt>
      <trkpt lat="48.64549" lon="2.44044">
        <ele>36</ele>
        <time>2022-09-28T08:33:48.541Z</time>
      </trkpt>
      <trkpt lat="48.64553" lon="2.44038">
        <ele>37</ele>
        <time>2022-09-28T08:33:53.535Z</time>
      </trkpt>
      <trkpt lat="48.64558" lon="2.4403">
        <ele>37</ele>
        <time>2022-09-28T08:33:58.535Z</time>
      </trkpt>
      <trkpt lat="48.64563" lon="2.44023">
        <ele>37</ele>
        <time>2022-09-28T08:34:03.539Z</time>
      </trkpt>
      <trkpt lat="48.64567" lon="2.44016">
        <ele>37</ele>
        <time>2022-09-28T08:34:08.573Z</time>
      </trkpt>
      <trkpt lat="48.64571" lon="2.4401">
        <ele>38</ele>
        <time>2022-09-28T08:34:13.543Z</time>
      </trkpt>
      <trkpt lat="48.64577" lon="2.44003">
        <ele>38</ele>
        <time>2022-09-28T08:34:18.547Z</time>
      </trkpt>
      <trkpt lat="48.6458" lon="2.43997">
        <ele>38</ele>
        <time>2022-09-28T08:34:22.555Z</time>
      </trkpt>
      <trkpt lat="48.64586" lon="2.4399">
        <ele>38</ele>
        <time>2022-09-28T08:34:27.536Z</time>
      </trkpt>
      <trkpt lat="48.6459" lon="2.43985">
        <ele>39</ele>
        <time>2022-09-28T08:34:31.542Z</time>
      </trkpt>
      <trkpt lat="48.64596" lon="2.43978">
        <ele>39</ele>
        <time>2022-09-28T08:34:36.526Z</time>
      </trkpt>
      <trkpt lat="48.646" lon="2.43974">
        <ele>37</ele>
        <time>2022-09-28T08:34:40.535Z</time>
      </trkpt>
      <trkpt lat="48.64604" lon="2.43968">
        <ele>37</ele>
        <time>2022-09-28T08:34:45.536Z</time>
      </trkpt>
      <trkpt lat="48.64607" lon="2.43962">
        <ele>37</ele>
        <time>2022-09-28T08:34:49.547Z</time>
      </trkpt>
      <trkpt lat="48.64611" lon="2.43956">
        <ele>38</ele>
        <time>2022-09-28T08:34:54.511Z</time>
      </trkpt>
      <trkpt lat="48.64613" lon="2.43949">
        <ele>38</ele>
        <time>2022-09-28T08:34:58.534Z</time>
      </trkpt>
      <trkpt lat="48.64618" lon="2.43942">
        <ele>38</ele>
        <time>2022-09-28T08:35:03.527Z</time>
      </trkpt>
      <trkpt lat="48.64625" lon="2.43936">
        <ele>38</ele>
        <time>2022-09-28T08:35:08.533Z</time>
      </trkpt>
      <trkpt lat="48.64629" lon="2.4393">
        <ele>39</ele>
        <time>2022-09-28T08:35:12.536Z</time>
      </trkpt>
      <trkpt lat="48.64633" lon="2.43921">
        <ele>39</ele>
        <time>2022-09-28T08:35:17.519Z</time>
      </trkpt>
      <trkpt lat="48.64637" lon="2.43915">
        <ele>39</ele>
        <time>2022-09-28T08:35:21.546Z</time>
      </trkpt>
      <trkpt lat="48.64641" lon="2.43907">
        <ele>39</ele>
        <time>2022-09-28T08:35:26.544Z</time>
      </trkpt>
      <trkpt lat="48.64644" lon="2.439">
        <ele>37</ele>
        <time>2022-09-28T08:35:30.553Z</time>
      </trkpt>
      <trkpt lat="48.6465" lon="2.43893">
        <ele>37</ele>
        <time>2022-09-28T08:35:35.545Z</time>
      </trkpt>
      <trkpt lat="48.64655" lon="2.43885">
        <ele>37</ele>
        <time>2022-09-28T08:35:40.535Z</time>
      </trkpt>
      <trkpt lat="48.6466" lon="2.43878">
        <ele>37</ele>
        <time>2022-09-28T08:35:45.523Z</time>
      </trkpt>
      <trkpt lat="48.64665" lon="2.43873">
        <ele>37</ele>
        <time>2022-09-28T08:35:49.552Z</time>
      </trkpt>
      <trkpt lat="48.6467" lon="2.43865">
        <ele>37</ele>
        <time>2022-09-28T08:35:54.556Z</time>
      </trkpt>
      <trkpt lat="48.64675" lon="2.43857">
        <ele>37</ele>
        <time>2022-09-28T08:35:59.532Z</time>
      </trkpt>
      <trkpt lat="48.64679" lon="2.43851">
        <ele>37</ele>
        <time>2022-09-28T08:36:04.536Z</time>
      </trkpt>
      <trkpt lat="48.64683" lon="2.43846">
        <ele>36</ele>
        <time>2022-09-28T08:36:08.560Z</time>
      </trkpt>
      <trkpt lat="48.64687" lon="2.43838">
        <ele>36</ele>
        <time>2022-09-28T08:36:13.541Z</time>
      </trkpt>
      <trkpt lat="48.64691" lon="2.43832">
        <ele>36</ele>
        <time>2022-09-28T08:36:18.534Z</time>
      </trkpt>
      <trkpt lat="48.64695" lon="2.43828">
        <ele>36</ele>
        <time>2022-09-28T08:36:22.539Z</time>
      </trkpt>
      <trkpt lat="48.64698" lon="2.43823">
        <ele>36</ele>
        <time>2022-09-28T08:36:27.524Z</time>
      </trkpt>
      <trkpt lat="48.64703" lon="2.43816">
        <ele>38</ele>
        <time>2022-09-28T08:36:32.493Z</time>
      </trkpt>
      <trkpt lat="48.64707" lon="2.43811">
        <ele>38</ele>
        <time>2022-09-28T08:36:36.517Z</time>
      </trkpt>
      <trkpt lat="48.64707" lon="2.43808">
        <ele>38</ele>
        <time>2022-09-28T08:36:40.531Z</time>
      </trkpt>
      <trkpt lat="48.6471" lon="2.43803">
        <ele>35</ele>
        <time>2022-09-28T08:36:44.537Z</time>
      </trkpt>
      <trkpt lat="48.64713" lon="2.43796">
        <ele>35</ele>
        <time>2022-09-28T08:36:49.530Z</time>
      </trkpt>
      <trkpt lat="48.64717" lon="2.43789">
        <ele>37</ele>
        <time>2022-09-28T08:36:53.560Z</time>
      </trkpt>
      <trkpt lat="48.64722" lon="2.43782">
        <ele>37</ele>
        <time>2022-09-28T08:36:58.558Z</time>
      </trkpt>
      <trkpt lat="48.64728" lon="2.43775">
        <ele>37</ele>
        <time>2022-09-28T08:37:03.531Z</time>
      </trkpt>
      <trkpt lat="48.64732" lon="2.43769">
        <ele>37</ele>
        <time>2022-09-28T08:37:07.540Z</time>
      </trkpt>
      <trkpt lat="48.64736" lon="2.43764">
        <ele>38</ele>
        <time>2022-09-28T08:37:11.546Z</time>
      </trkpt>
      <trkpt lat="48.64742" lon="2.43759">
        <ele>34</ele>
        <time>2022-09-28T08:37:16.544Z</time>
      </trkpt>
      <trkpt lat="48.64748" lon="2.43753">
        <ele>34</ele>
        <time>2022-09-28T08:37:21.532Z</time>
      </trkpt>
      <trkpt lat="48.64753" lon="2.43745">
        <ele>34</ele>
        <time>2022-09-28T08:37:26.523Z</time>
      </trkpt>
      <trkpt lat="48.64756" lon="2.43741">
        <ele>34</ele>
        <time>2022-09-28T08:37:30.545Z</time>
      </trkpt>
      <trkpt lat="48.64759" lon="2.43736">
        <ele>35</ele>
        <time>2022-09-28T08:37:34.558Z</time>
      </trkpt>
      <trkpt lat="48.64763" lon="2.43731">
        <ele>35</ele>
        <time>2022-09-28T08:37:39.541Z</time>
      </trkpt>
      <trkpt lat="48.64766" lon="2.43727">
        <ele>33</ele>
        <time>2022-09-28T08:37:44.551Z</time>
      </trkpt>
      <trkpt lat="48.6477" lon="2.43719">
        <ele>33</ele>
        <time>2022-09-28T08:37:49.522Z</time>
      </trkpt>
      <trkpt lat="48.64773" lon="2.43715">
        <ele>33</ele>
        <time>2022-09-28T08:37:53.539Z</time>
      </trkpt>
      <trkpt lat="48.64776" lon="2.43707">
        <ele>33</ele>
        <time>2022-09-28T08:37:58.547Z</time>
      </trkpt>
      <trkpt lat="48.64781" lon="2.437">
        <ele>33</ele>
        <time>2022-09-28T08:38:03.536Z</time>
      </trkpt>
      <trkpt lat="48.64784" lon="2.43694">
        <ele>33</ele>
        <time>2022-09-28T08:38:08.541Z</time>
      </trkpt>
      <trkpt lat="48.64788" lon="2.43689">
        <ele>33</ele>
        <time>2022-09-28T08:38:12.556Z</time>
      </trkpt>
      <trkpt lat="48.64791" lon="2.43684">
        <ele>33</ele>
        <time>2022-09-28T08:38:17.543Z</time>
      </trkpt>
      <trkpt lat="48.64794" lon="2.43678">
        <ele>32</ele>
        <time>2022-09-28T08:38:21.550Z</time>
      </trkpt>
      <trkpt lat="48.64794" lon="2.43676">
        <ele>32</ele>
        <time>2022-09-28T08:38:26.569Z</time>
      </trkpt>
      <trkpt lat="48.64796" lon="2.43674">
        <ele>32</ele>
        <time>2022-09-28T08:38:31.526Z</time>
      </trkpt>
      <trkpt lat="48.648" lon="2.43672">
        <ele>32</ele>
        <time>2022-09-28T08:38:36.550Z</time>
      </trkpt>
      <trkpt lat="48.64803" lon="2.43671">
        <ele>32</ele>
        <time>2022-09-28T08:38:41.547Z</time>
      </trkpt>
      <trkpt lat="48.64805" lon="2.43671">
        <ele>32</ele>
        <time>2022-09-28T08:38:46.563Z</time>
      </trkpt>
      <trkpt lat="48.64808" lon="2.43671">
        <ele>32</ele>
        <time>2022-09-28T08:38:51.498Z</time>
      </trkpt>
      <trkpt lat="48.64811" lon="2.43674">
        <ele>32</ele>
        <time>2022-09-28T08:38:55.527Z</time>
      </trkpt>
      <trkpt lat="48.64814" lon="2.43677">
        <ele>32</ele>
        <time>2022-09-28T08:39:00.525Z</time>
      </trkpt>
      <trkpt lat="48.64816" lon="2.43681">
        <ele>32</ele>
        <time>2022-09-28T08:39:05.510Z</time>
      </trkpt>
      <trkpt lat="48.64818" lon="2.43683">
        <ele>32</ele>
        <time>2022-09-28T08:39:09.537Z</time>
      </trkpt>
      <trkpt lat="48.64819" lon="2.43686">
        <ele>32</ele>
        <time>2022-09-28T08:39:13.552Z</time>
      </trkpt>
      <trkpt lat="48.64822" lon="2.43687">
        <ele>31</ele>
        <time>2022-09-28T08:39:18.554Z</time>
      </trkpt>
      <trkpt lat="48.64826" lon="2.43688">
        <ele>31</ele>
        <time>2022-09-28T08:39:23.555Z</time>
      </trkpt>
      <trkpt lat="48.64831" lon="2.43689">
        <ele>31</ele>
        <time>2022-09-28T08:39:28.543Z</time>
      </trkpt>
      <trkpt lat="48.64836" lon="2.43684">
        <ele>31</ele>
        <time>2022-09-28T08:39:33.510Z</time>
      </trkpt>
      <trkpt lat="48.64838" lon="2.43679">
        <ele>32</ele>
        <time>2022-09-28T08:39:38.510Z</time>
      </trkpt>
      <trkpt lat="48.64841" lon="2.43674">
        <ele>32</ele>
        <time>2022-09-28T08:39:43.500Z</time>
      </trkpt>
      <trkpt lat="48.64843" lon="2.43664">
        <ele>32</ele>
        <time>2022-09-28T08:39:52.501Z</time>
      </trkpt>
      <trkpt lat="48.64842" lon="2.43663">
        <ele>32</ele>
        <time>2022-09-28T08:39:57.499Z</time>
      </trkpt>
      <trkpt lat="48.64842" lon="2.43661">
        <ele>32</ele>
        <time>2022-09-28T08:40:01.504Z</time>
      </trkpt>
      <trkpt lat="48.64842" lon="2.43657">
        <ele>32</ele>
        <time>2022-09-28T08:40:06.506Z</time>
      </trkpt>
      <trkpt lat="48.64844" lon="2.4365">
        <ele>35</ele>
        <time>2022-09-28T08:40:11.500Z</time>
      </trkpt>
      <trkpt lat="48.64849" lon="2.43645">
        <ele>35</ele>
        <time>2022-09-28T08:40:16.506Z</time>
      </trkpt>
      <trkpt lat="48.64853" lon="2.43638">
        <ele>35</ele>
        <time>2022-09-28T08:40:21.508Z</time>
      </trkpt>
      <trkpt lat="48.64858" lon="2.43628">
        <ele>35</ele>
        <time>2022-09-28T08:40:26.506Z</time>
      </trkpt>
      <trkpt lat="48.64863" lon="2.43623">
        <ele>37</ele>
        <time>2022-09-28T08:40:31.510Z</time>
      </trkpt>
      <trkpt lat="48.64867" lon="2.43619">
        <ele>37</ele>
        <time>2022-09-28T08:40:36.496Z</time>
      </trkpt>
      <trkpt lat="48.64871" lon="2.43613">
        <ele>37</ele>
        <time>2022-09-28T08:40:40.506Z</time>
      </trkpt>
      <trkpt lat="48.64873" lon="2.4361">
        <ele>37</ele>
        <time>2022-09-28T08:40:44.509Z</time>
      </trkpt>
      <trkpt lat="48.64873" lon="2.43606">
        <ele>37</ele>
        <time>2022-09-28T08:40:49.502Z</time>
      </trkpt>
      <trkpt lat="48.64875" lon="2.436">
        <ele>37</ele>
        <time>2022-09-28T08:40:53.507Z</time>
      </trkpt>
      <trkpt lat="48.64878" lon="2.43596">
        <ele>38</ele>
        <time>2022-09-28T08:40:58.511Z</time>
      </trkpt>
      <trkpt lat="48.64882" lon="2.43591">
        <ele>38</ele>
        <time>2022-09-28T08:41:02.504Z</time>
      </trkpt>
      <trkpt lat="48.64885" lon="2.43587">
        <ele>38</ele>
        <time>2022-09-28T08:41:06.507Z</time>
      </trkpt>
      <trkpt lat="48.6489" lon="2.43581">
        <ele>38</ele>
        <time>2022-09-28T08:41:11.507Z</time>
      </trkpt>
      <trkpt lat="48.64893" lon="2.43574">
        <ele>38</ele>
        <time>2022-09-28T08:41:16.507Z</time>
      </trkpt>
      <trkpt lat="48.64897" lon="2.43568">
        <ele>38</ele>
        <time>2022-09-28T08:41:21.492Z</time>
      </trkpt>
      <trkpt lat="48.64899" lon="2.43561">
        <ele>38</ele>
        <time>2022-09-28T08:41:26.522Z</time>
      </trkpt>
      <trkpt lat="48.64901" lon="2.43552">
        <ele>38</ele>
        <time>2022-09-28T08:41:31.534Z</time>
      </trkpt>
      <trkpt lat="48.64905" lon="2.43544">
        <ele>38</ele>
        <time>2022-09-28T08:41:36.521Z</time>
      </trkpt>
      <trkpt lat="48.64909" lon="2.43539">
        <ele>39</ele>
        <time>2022-09-28T08:41:40.530Z</time>
      </trkpt>
      <trkpt lat="48.64913" lon="2.43534">
        <ele>39</ele>
        <time>2022-09-28T08:41:45.521Z</time>
      </trkpt>
      <trkpt lat="48.64917" lon="2.4353">
        <ele>39</ele>
        <time>2022-09-28T08:41:49.538Z</time>
      </trkpt>
      <trkpt lat="48.64921" lon="2.43524">
        <ele>39</ele>
        <time>2022-09-28T08:41:54.509Z</time>
      </trkpt>
      <trkpt lat="48.64924" lon="2.43519">
        <ele>39</ele>
        <time>2022-09-28T08:41:59.501Z</time>
      </trkpt>
      <trkpt lat="48.64926" lon="2.43515">
        <ele>39</ele>
        <time>2022-09-28T08:42:03.541Z</time>
      </trkpt>
      <trkpt lat="48.6493" lon="2.43509">
        <ele>39</ele>
        <time>2022-09-28T08:42:08.513Z</time>
      </trkpt>
      <trkpt lat="48.64933" lon="2.43503">
        <ele>38</ele>
        <time>2022-09-28T08:42:12.518Z</time>
      </trkpt>
      <trkpt lat="48.64937" lon="2.43499">
        <ele>38</ele>
        <time>2022-09-28T08:42:16.552Z</time>
      </trkpt>
      <trkpt lat="48.64941" lon="2.43495">
        <ele>38</ele>
        <time>2022-09-28T08:42:21.541Z</time>
      </trkpt>
      <trkpt lat="48.64943" lon="2.43491">
        <ele>38</ele>
        <time>2022-09-28T08:42:25.559Z</time>
      </trkpt>
      <trkpt lat="48.64944" lon="2.43484">
        <ele>37</ele>
        <time>2022-09-28T08:42:30.549Z</time>
      </trkpt>
      <trkpt lat="48.64946" lon="2.43477">
        <ele>37</ele>
        <time>2022-09-28T08:42:34.552Z</time>
      </trkpt>
      <trkpt lat="48.64948" lon="2.43469">
        <ele>37</ele>
        <time>2022-09-28T08:42:39.531Z</time>
      </trkpt>
      <trkpt lat="48.6495" lon="2.43463">
        <ele>37</ele>
        <time>2022-09-28T08:42:43.545Z</time>
      </trkpt>
      <trkpt lat="48.64953" lon="2.43459">
        <ele>37</ele>
        <time>2022-09-28T08:42:47.547Z</time>
      </trkpt>
      <trkpt lat="48.64956" lon="2.43455">
        <ele>38</ele>
        <time>2022-09-28T08:42:52.552Z</time>
      </trkpt>
      <trkpt lat="48.64958" lon="2.4345">
        <ele>36</ele>
        <time>2022-09-28T08:42:56.554Z</time>
      </trkpt>
      <trkpt lat="48.64961" lon="2.43443">
        <ele>36</ele>
        <time>2022-09-28T08:43:01.534Z</time>
      </trkpt>
      <trkpt lat="48.64964" lon="2.43438">
        <ele>36</ele>
        <time>2022-09-28T08:43:05.553Z</time>
      </trkpt>
      <trkpt lat="48.64968" lon="2.43432">
        <ele>36</ele>
        <time>2022-09-28T08:43:10.537Z</time>
      </trkpt>
      <trkpt lat="48.64972" lon="2.43427">
        <ele>36</ele>
        <time>2022-09-28T08:43:15.522Z</time>
      </trkpt>
      <trkpt lat="48.64975" lon="2.43422">
        <ele>36</ele>
        <time>2022-09-28T08:43:19.550Z</time>
      </trkpt>
      <trkpt lat="48.64976" lon="2.43414">
        <ele>36</ele>
        <time>2022-09-28T08:43:24.554Z</time>
      </trkpt>
      <trkpt lat="48.64979" lon="2.43407">
        <ele>36</ele>
        <time>2022-09-28T08:43:29.501Z</time>
      </trkpt>
      <trkpt lat="48.64978" lon="2.434">
        <ele>37</ele>
        <time>2022-09-28T08:43:33.512Z</time>
      </trkpt>
      <trkpt lat="48.64985" lon="2.43393">
        <ele>37</ele>
        <time>2022-09-28T08:43:38.506Z</time>
      </trkpt>
      <trkpt lat="48.64991" lon="2.43386">
        <ele>36</ele>
        <time>2022-09-28T08:43:43.518Z</time>
      </trkpt>
      <trkpt lat="48.64995" lon="2.43381">
        <ele>36</ele>
        <time>2022-09-28T08:43:47.526Z</time>
      </trkpt>
      <trkpt lat="48.65" lon="2.43373">
        <ele>36</ele>
        <time>2022-09-28T08:43:52.510Z</time>
      </trkpt>
      <trkpt lat="48.65006" lon="2.43367">
        <ele>36</ele>
        <time>2022-09-28T08:43:56.540Z</time>
      </trkpt>
      <trkpt lat="48.6501" lon="2.4336">
        <ele>36</ele>
        <time>2022-09-28T08:44:01.530Z</time>
      </trkpt>
      <trkpt lat="48.65015" lon="2.43354">
        <ele>36</ele>
        <time>2022-09-28T08:44:05.531Z</time>
      </trkpt>
      <trkpt lat="48.6502" lon="2.43348">
        <ele>36</ele>
        <time>2022-09-28T08:44:10.503Z</time>
      </trkpt>
      <trkpt lat="48.65023" lon="2.43343">
        <ele>35</ele>
        <time>2022-09-28T08:44:14.540Z</time>
      </trkpt>
      <trkpt lat="48.65026" lon="2.43339">
        <ele>35</ele>
        <time>2022-09-28T08:44:18.550Z</time>
      </trkpt>
      <trkpt lat="48.65028" lon="2.43333">
        <ele>35</ele>
        <time>2022-09-28T08:44:23.516Z</time>
      </trkpt>
      <trkpt lat="48.65031" lon="2.43327">
        <ele>35</ele>
        <time>2022-09-28T08:44:27.537Z</time>
      </trkpt>
      <trkpt lat="48.65033" lon="2.43321">
        <ele>35</ele>
        <time>2022-09-28T08:44:31.554Z</time>
      </trkpt>
      <trkpt lat="48.65038" lon="2.43314">
        <ele>37</ele>
        <time>2022-09-28T08:44:36.517Z</time>
      </trkpt>
      <trkpt lat="48.65041" lon="2.43308">
        <ele>37</ele>
        <time>2022-09-28T08:44:40.530Z</time>
      </trkpt>
      <trkpt lat="48.65045" lon="2.43304">
        <ele>36</ele>
        <time>2022-09-28T08:44:44.548Z</time>
      </trkpt>
      <trkpt lat="48.65048" lon="2.43298">
        <ele>36</ele>
        <time>2022-09-28T08:44:49.555Z</time>
      </trkpt>
      <trkpt lat="48.65053" lon="2.43294">
        <ele>36</ele>
        <time>2022-09-28T08:44:54.549Z</time>
      </trkpt>
      <trkpt lat="48.65059" lon="2.43292">
        <ele>36</ele>
        <time>2022-09-28T08:44:59.548Z</time>
      </trkpt>
      <trkpt lat="48.65065" lon="2.43288">
        <ele>36</ele>
        <time>2022-09-28T08:45:04.512Z</time>
      </trkpt>
      <trkpt lat="48.65071" lon="2.43285">
        <ele>37</ele>
        <time>2022-09-28T08:45:08.538Z</time>
      </trkpt>
      <trkpt lat="48.65074" lon="2.4328">
        <ele>37</ele>
        <time>2022-09-28T08:45:13.526Z</time>
      </trkpt>
      <trkpt lat="48.65078" lon="2.43276">
        <ele>37</ele>
        <time>2022-09-28T08:45:17.537Z</time>
      </trkpt>
      <trkpt lat="48.65084" lon="2.43268">
        <ele>37</ele>
        <time>2022-09-28T08:45:22.534Z</time>
      </trkpt>
      <trkpt lat="48.65088" lon="2.4326">
        <ele>38</ele>
        <time>2022-09-28T08:45:27.536Z</time>
      </trkpt>
      <trkpt lat="48.65091" lon="2.43255">
        <ele>38</ele>
        <time>2022-09-28T08:45:31.548Z</time>
      </trkpt>
      <trkpt lat="48.65095" lon="2.43247">
        <ele>38</ele>
        <time>2022-09-28T08:45:36.566Z</time>
      </trkpt>
      <trkpt lat="48.65098" lon="2.4324">
        <ele>36</ele>
        <time>2022-09-28T08:45:41.527Z</time>
      </trkpt>
      <trkpt lat="48.65102" lon="2.43234">
        <ele>38</ele>
        <time>2022-09-28T08:45:45.529Z</time>
      </trkpt>
      <trkpt lat="48.65106" lon="2.43227">
        <ele>38</ele>
        <time>2022-09-28T08:45:50.556Z</time>
      </trkpt>
      <trkpt lat="48.6511" lon="2.4322">
        <ele>38</ele>
        <time>2022-09-28T08:45:55.529Z</time>
      </trkpt>
      <trkpt lat="48.65112" lon="2.43213">
        <ele>38</ele>
        <time>2022-09-28T08:45:59.545Z</time>
      </trkpt>
      <trkpt lat="48.65114" lon="2.43205">
        <ele>37</ele>
        <time>2022-09-28T08:46:04.546Z</time>
      </trkpt>
      <trkpt lat="48.65118" lon="2.43198">
        <ele>37</ele>
        <time>2022-09-28T08:46:09.522Z</time>
      </trkpt>
      <trkpt lat="48.65121" lon="2.43193">
        <ele>37</ele>
        <time>2022-09-28T08:46:14.534Z</time>
      </trkpt>
      <trkpt lat="48.65126" lon="2.43189">
        <ele>39</ele>
        <time>2022-09-28T08:46:19.534Z</time>
      </trkpt>
      <trkpt lat="48.65128" lon="2.43182">
        <ele>39</ele>
        <time>2022-09-28T08:46:24.530Z</time>
      </trkpt>
      <trkpt lat="48.65129" lon="2.43177">
        <ele>38</ele>
        <time>2022-09-28T08:46:29.519Z</time>
      </trkpt>
      <trkpt lat="48.65133" lon="2.43171">
        <ele>38</ele>
        <time>2022-09-28T08:46:34.508Z</time>
      </trkpt>
      <trkpt lat="48.65138" lon="2.43165">
        <ele>38</ele>
        <time>2022-09-28T08:46:39.503Z</time>
      </trkpt>
      <trkpt lat="48.65143" lon="2.43159">
        <ele>38</ele>
        <time>2022-09-28T08:46:44.505Z</time>
      </trkpt>
      <trkpt lat="48.65148" lon="2.43154">
        <ele>38</ele>
        <time>2022-09-28T08:46:49.509Z</time>
      </trkpt>
      <trkpt lat="48.65149" lon="2.4315">
        <ele>38</ele>
        <time>2022-09-28T08:46:54.503Z</time>
      </trkpt>
      <trkpt lat="48.65154" lon="2.43141">
        <ele>39</ele>
        <time>2022-09-28T08:46:59.495Z</time>
      </trkpt>
      <trkpt lat="48.65158" lon="2.43134">
        <ele>39</ele>
        <time>2022-09-28T08:47:03.541Z</time>
      </trkpt>
      <trkpt lat="48.65162" lon="2.43126">
        <ele>39</ele>
        <time>2022-09-28T08:47:08.517Z</time>
      </trkpt>
      <trkpt lat="48.65166" lon="2.43118">
        <ele>39</ele>
        <time>2022-09-28T08:47:13.498Z</time>
      </trkpt>
      <trkpt lat="48.65169" lon="2.43112">
        <ele>39</ele>
        <time>2022-09-28T08:47:17.506Z</time>
      </trkpt>
      <trkpt lat="48.65173" lon="2.43106">
        <ele>39</ele>
        <time>2022-09-28T08:47:22.515Z</time>
      </trkpt>
      <trkpt lat="48.65176" lon="2.431">
        <ele>39</ele>
        <time>2022-09-28T08:47:27.502Z</time>
      </trkpt>
      <trkpt lat="48.6518" lon="2.43096">
        <ele>38</ele>
        <time>2022-09-28T08:47:31.553Z</time>
      </trkpt>
      <trkpt lat="48.65184" lon="2.4309">
        <ele>37</ele>
        <time>2022-09-28T08:47:36.503Z</time>
      </trkpt>
      <trkpt lat="48.65188" lon="2.43083">
        <ele>37</ele>
        <time>2022-09-28T08:47:41.501Z</time>
      </trkpt>
      <trkpt lat="48.65193" lon="2.43075">
        <ele>37</ele>
        <time>2022-09-28T08:47:46.504Z</time>
      </trkpt>
      <trkpt lat="48.65197" lon="2.43071">
        <ele>37</ele>
        <time>2022-09-28T08:47:50.530Z</time>
      </trkpt>
      <trkpt lat="48.652" lon="2.43068">
        <ele>37</ele>
        <time>2022-09-28T08:47:54.557Z</time>
      </trkpt>
      <trkpt lat="48.65205" lon="2.43064">
        <ele>37</ele>
        <time>2022-09-28T08:47:59.535Z</time>
      </trkpt>
      <trkpt lat="48.65209" lon="2.43059">
        <ele>39</ele>
        <time>2022-09-28T08:48:04.525Z</time>
      </trkpt>
      <trkpt lat="48.65211" lon="2.43052">
        <ele>39</ele>
        <time>2022-09-28T08:48:09.515Z</time>
      </trkpt>
      <trkpt lat="48.65214" lon="2.43046">
        <ele>39</ele>
        <time>2022-09-28T08:48:13.522Z</time>
      </trkpt>
      <trkpt lat="48.65216" lon="2.43039">
        <ele>39</ele>
        <time>2022-09-28T08:48:17.528Z</time>
      </trkpt>
      <trkpt lat="48.65219" lon="2.43031">
        <ele>39</ele>
        <time>2022-09-28T08:48:22.525Z</time>
      </trkpt>
      <trkpt lat="48.65223" lon="2.43024">
        <ele>39</ele>
        <time>2022-09-28T08:48:27.499Z</time>
      </trkpt>
      <trkpt lat="48.65225" lon="2.43018">
        <ele>39</ele>
        <time>2022-09-28T08:48:31.531Z</time>
      </trkpt>
      <trkpt lat="48.65229" lon="2.43011">
        <ele>37</ele>
        <time>2022-09-28T08:48:36.519Z</time>
      </trkpt>
      <trkpt lat="48.65232" lon="2.43004">
        <ele>37</ele>
        <time>2022-09-28T08:48:41.529Z</time>
      </trkpt>
      <trkpt lat="48.65237" lon="2.42998">
        <ele>37</ele>
        <time>2022-09-28T08:48:46.529Z</time>
      </trkpt>
      <trkpt lat="48.65241" lon="2.42994">
        <ele>37</ele>
        <time>2022-09-28T08:48:50.541Z</time>
      </trkpt>
      <trkpt lat="48.65246" lon="2.42987">
        <ele>37</ele>
        <time>2022-09-28T08:48:55.520Z</time>
      </trkpt>
      <trkpt lat="48.65251" lon="2.42981">
        <ele>35</ele>
        <time>2022-09-28T08:49:00.521Z</time>
      </trkpt>
      <trkpt lat="48.65256" lon="2.42974">
        <ele>35</ele>
        <time>2022-09-28T08:49:05.521Z</time>
      </trkpt>
      <trkpt lat="48.6526" lon="2.42967">
        <ele>35</ele>
        <time>2022-09-28T08:49:10.510Z</time>
      </trkpt>
      <trkpt lat="48.65265" lon="2.42961">
        <ele>32</ele>
        <time>2022-09-28T08:49:14.521Z</time>
      </trkpt>
      <trkpt lat="48.65268" lon="2.42955">
        <ele>34</ele>
        <time>2022-09-28T08:49:18.520Z</time>
      </trkpt>
      <trkpt lat="48.6527" lon="2.42947">
        <ele>34</ele>
        <time>2022-09-28T08:49:23.507Z</time>
      </trkpt>
      <trkpt lat="48.65273" lon="2.42942">
        <ele>34</ele>
        <time>2022-09-28T08:49:27.519Z</time>
      </trkpt>
      <trkpt lat="48.65279" lon="2.42936">
        <ele>34</ele>
        <time>2022-09-28T08:49:32.525Z</time>
      </trkpt>
      <trkpt lat="48.65282" lon="2.4293">
        <ele>35</ele>
        <time>2022-09-28T08:49:37.509Z</time>
      </trkpt>
      <trkpt lat="48.65286" lon="2.42923">
        <ele>35</ele>
        <time>2022-09-28T08:49:42.506Z</time>
      </trkpt>
      <trkpt lat="48.65288" lon="2.42917">
        <ele>35</ele>
        <time>2022-09-28T08:49:46.520Z</time>
      </trkpt>
      <trkpt lat="48.65291" lon="2.42912">
        <ele>35</ele>
        <time>2022-09-28T08:49:50.543Z</time>
      </trkpt>
      <trkpt lat="48.65294" lon="2.42906">
        <ele>34</ele>
        <time>2022-09-28T08:49:54.550Z</time>
      </trkpt>
      <trkpt lat="48.65298" lon="2.429">
        <ele>37</ele>
        <time>2022-09-28T08:49:58.561Z</time>
      </trkpt>
      <trkpt lat="48.65302" lon="2.42896">
        <ele>37</ele>
        <time>2022-09-28T08:50:03.551Z</time>
      </trkpt>
      <trkpt lat="48.65308" lon="2.4289">
        <ele>37</ele>
        <time>2022-09-28T08:50:08.528Z</time>
      </trkpt>
      <trkpt lat="48.6531" lon="2.42885">
        <ele>37</ele>
        <time>2022-09-28T08:50:12.549Z</time>
      </trkpt>
      <trkpt lat="48.65312" lon="2.42877">
        <ele>37</ele>
        <time>2022-09-28T08:50:17.567Z</time>
      </trkpt>
      <trkpt lat="48.65316" lon="2.42871">
        <ele>37</ele>
        <time>2022-09-28T08:50:22.556Z</time>
      </trkpt>
      <trkpt lat="48.65319" lon="2.42865">
        <ele>37</ele>
        <time>2022-09-28T08:50:27.559Z</time>
      </trkpt>
      <trkpt lat="48.65324" lon="2.42858">
        <ele>36</ele>
        <time>2022-09-28T08:50:32.545Z</time>
      </trkpt>
      <trkpt lat="48.65327" lon="2.42852">
        <ele>36</ele>
        <time>2022-09-28T08:50:36.561Z</time>
      </trkpt>
      <trkpt lat="48.65332" lon="2.42845">
        <ele>35</ele>
        <time>2022-09-28T08:50:41.536Z</time>
      </trkpt>
      <trkpt lat="48.65334" lon="2.42839">
        <ele>35</ele>
        <time>2022-09-28T08:50:45.543Z</time>
      </trkpt>
      <trkpt lat="48.65337" lon="2.42832">
        <ele>35</ele>
        <time>2022-09-28T08:50:50.549Z</time>
      </trkpt>
      <trkpt lat="48.65342" lon="2.42827">
        <ele>35</ele>
        <time>2022-09-28T08:50:55.536Z</time>
      </trkpt>
      <trkpt lat="48.65346" lon="2.42822">
        <ele>35</ele>
        <time>2022-09-28T08:51:00.551Z</time>
      </trkpt>
      <trkpt lat="48.65349" lon="2.42816">
        <ele>34</ele>
        <time>2022-09-28T08:51:05.539Z</time>
      </trkpt>
      <trkpt lat="48.65351" lon="2.42809">
        <ele>34</ele>
        <time>2022-09-28T08:51:09.549Z</time>
      </trkpt>
      <trkpt lat="48.65356" lon="2.42803">
        <ele>34</ele>
        <time>2022-09-28T08:51:14.546Z</time>
      </trkpt>
      <trkpt lat="48.6536" lon="2.42796">
        <ele>34</ele>
        <time>2022-09-28T08:51:19.516Z</time>
      </trkpt>
      <trkpt lat="48.65364" lon="2.42792">
        <ele>35</ele>
        <time>2022-09-28T08:51:23.545Z</time>
      </trkpt>
      <trkpt lat="48.65368" lon="2.42785">
        <ele>35</ele>
        <time>2022-09-28T08:51:28.529Z</time>
      </trkpt>
      <trkpt lat="48.6537" lon="2.42781">
        <ele>35</ele>
        <time>2022-09-28T08:51:32.551Z</time>
      </trkpt>
      <trkpt lat="48.65373" lon="2.42773">
        <ele>35</ele>
        <time>2022-09-28T08:51:37.526Z</time>
      </trkpt>
      <trkpt lat="48.65376" lon="2.42765">
        <ele>33</ele>
        <time>2022-09-28T08:51:42.546Z</time>
      </trkpt>
      <trkpt lat="48.65379" lon="2.42758">
        <ele>34</ele>
        <time>2022-09-28T08:51:46.551Z</time>
      </trkpt>
      <trkpt lat="48.65384" lon="2.42751">
        <ele>34</ele>
        <time>2022-09-28T08:51:51.547Z</time>
      </trkpt>
      <trkpt lat="48.65388" lon="2.42743">
        <ele>34</ele>
        <time>2022-09-28T08:51:56.551Z</time>
      </trkpt>
      <trkpt lat="48.65392" lon="2.42736">
        <ele>36</ele>
        <time>2022-09-28T08:52:01.536Z</time>
      </trkpt>
      <trkpt lat="48.65397" lon="2.4273">
        <ele>36</ele>
        <time>2022-09-28T08:52:05.553Z</time>
      </trkpt>
      <trkpt lat="48.654" lon="2.42723">
        <ele>36</ele>
        <time>2022-09-28T08:52:10.545Z</time>
      </trkpt>
      <trkpt lat="48.65404" lon="2.42715">
        <ele>33</ele>
        <time>2022-09-28T08:52:15.548Z</time>
      </trkpt>
      <trkpt lat="48.65409" lon="2.42711">
        <ele>33</ele>
        <time>2022-09-28T08:52:20.549Z</time>
      </trkpt>
      <trkpt lat="48.65412" lon="2.42703">
        <ele>35</ele>
        <time>2022-09-28T08:52:25.568Z</time>
      </trkpt>
      <trkpt lat="48.65415" lon="2.42696">
        <ele>35</ele>
        <time>2022-09-28T08:52:30.540Z</time>
      </trkpt>
      <trkpt lat="48.65417" lon="2.42688">
        <ele>35</ele>
        <time>2022-09-28T08:52:35.544Z</time>
      </trkpt>
      <trkpt lat="48.6542" lon="2.42679">
        <ele>36</ele>
        <time>2022-09-28T08:52:40.558Z</time>
      </trkpt>
      <trkpt lat="48.65423" lon="2.42673">
        <ele>36</ele>
        <time>2022-09-28T08:52:44.564Z</time>
      </trkpt>
      <trkpt lat="48.65428" lon="2.42665">
        <ele>36</ele>
        <time>2022-09-28T08:52:49.535Z</time>
      </trkpt>
      <trkpt lat="48.6543" lon="2.42658">
        <ele>36</ele>
        <time>2022-09-28T08:52:53.562Z</time>
      </trkpt>
      <trkpt lat="48.65434" lon="2.42651">
        <ele>36</ele>
        <time>2022-09-28T08:52:58.558Z</time>
      </trkpt>
      <trkpt lat="48.65438" lon="2.42646">
        <ele>36</ele>
        <time>2022-09-28T08:53:03.528Z</time>
      </trkpt>
      <trkpt lat="48.65442" lon="2.4264">
        <ele>36</ele>
        <time>2022-09-28T08:53:07.546Z</time>
      </trkpt>
      <trkpt lat="48.65445" lon="2.42632">
        <ele>36</ele>
        <time>2022-09-28T08:53:12.547Z</time>
      </trkpt>
      <trkpt lat="48.65447" lon="2.42624">
        <ele>37</ele>
        <time>2022-09-28T08:53:16.547Z</time>
      </trkpt>
      <trkpt lat="48.65451" lon="2.42616">
        <ele>37</ele>
        <time>2022-09-28T08:53:21.564Z</time>
      </trkpt>
      <trkpt lat="48.65453" lon="2.42607">
        <ele>37</ele>
        <time>2022-09-28T08:53:26.556Z</time>
      </trkpt>
      <trkpt lat="48.65456" lon="2.42601">
        <ele>37</ele>
        <time>2022-09-28T08:53:30.558Z</time>
      </trkpt>
      <trkpt lat="48.65458" lon="2.42593">
        <ele>37</ele>
        <time>2022-09-28T08:53:35.542Z</time>
      </trkpt>
      <trkpt lat="48.65461" lon="2.42586">
        <ele>35</ele>
        <time>2022-09-28T08:53:39.545Z</time>
      </trkpt>
      <trkpt lat="48.65464" lon="2.42576">
        <ele>35</ele>
        <time>2022-09-28T08:53:44.546Z</time>
      </trkpt>
      <trkpt lat="48.65468" lon="2.42568">
        <ele>36</ele>
        <time>2022-09-28T08:53:49.548Z</time>
      </trkpt>
      <trkpt lat="48.65471" lon="2.4256">
        <ele>36</ele>
        <time>2022-09-28T08:53:54.567Z</time>
      </trkpt>
      <trkpt lat="48.65474" lon="2.42553">
        <ele>36</ele>
        <time>2022-09-28T08:53:59.526Z</time>
      </trkpt>
      <trkpt lat="48.65477" lon="2.42547">
        <ele>36</ele>
        <time>2022-09-28T08:54:03.532Z</time>
      </trkpt>
      <trkpt lat="48.65481" lon="2.42539">
        <ele>36</ele>
        <time>2022-09-28T08:54:08.534Z</time>
      </trkpt>
      <trkpt lat="48.65483" lon="2.42534">
        <ele>36</ele>
        <time>2022-09-28T08:54:12.549Z</time>
      </trkpt>
      <trkpt lat="48.65487" lon="2.42527">
        <ele>36</ele>
        <time>2022-09-28T08:54:16.567Z</time>
      </trkpt>
      <trkpt lat="48.65491" lon="2.4252">
        <ele>36</ele>
        <time>2022-09-28T08:54:21.546Z</time>
      </trkpt>
      <trkpt lat="48.65495" lon="2.42515">
        <ele>36</ele>
        <time>2022-09-28T08:54:25.557Z</time>
      </trkpt>
      <trkpt lat="48.655" lon="2.42506">
        <ele>36</ele>
        <time>2022-09-28T08:54:30.562Z</time>
      </trkpt>
      <trkpt lat="48.65505" lon="2.42499">
        <ele>36</ele>
        <time>2022-09-28T08:54:35.553Z</time>
      </trkpt>
      <trkpt lat="48.6551" lon="2.42492">
        <ele>36</ele>
        <time>2022-09-28T08:54:40.567Z</time>
      </trkpt>
      <trkpt lat="48.65515" lon="2.42486">
        <ele>35</ele>
        <time>2022-09-28T08:54:45.549Z</time>
      </trkpt>
      <trkpt lat="48.65519" lon="2.4248">
        <ele>35</ele>
        <time>2022-09-28T08:54:49.546Z</time>
      </trkpt>
      <trkpt lat="48.65523" lon="2.42473">
        <ele>35</ele>
        <time>2022-09-28T08:54:54.547Z</time>
      </trkpt>
      <trkpt lat="48.65528" lon="2.42464">
        <ele>35</ele>
        <time>2022-09-28T08:54:59.534Z</time>
      </trkpt>
      <trkpt lat="48.65532" lon="2.42458">
        <ele>36</ele>
        <time>2022-09-28T08:55:03.565Z</time>
      </trkpt>
      <trkpt lat="48.65535" lon="2.42451">
        <ele>36</ele>
        <time>2022-09-28T08:55:08.543Z</time>
      </trkpt>
      <trkpt lat="48.6554" lon="2.42445">
        <ele>36</ele>
        <time>2022-09-28T08:55:12.551Z</time>
      </trkpt>
      <trkpt lat="48.65544" lon="2.42437">
        <ele>34</ele>
        <time>2022-09-28T08:55:17.551Z</time>
      </trkpt>
      <trkpt lat="48.65548" lon="2.42432">
        <ele>34</ele>
        <time>2022-09-28T08:55:22.558Z</time>
      </trkpt>
      <trkpt lat="48.6555" lon="2.4243">
        <ele>34</ele>
        <time>2022-09-28T09:10:21.509Z</time>
      </trkpt>
      <trkpt lat="48.6555" lon="2.42429">
        <ele>34</ele>
        <time>2022-09-28T09:10:25.522Z</time>
      </trkpt>
      <trkpt lat="48.6555" lon="2.42426">
        <ele>34</ele>
        <time>2022-09-28T09:10:29.527Z</time>
      </trkpt>
      <trkpt lat="48.6555" lon="2.42419">
        <ele>34</ele>
        <time>2022-09-28T09:10:34.540Z</time>
      </trkpt>
      <trkpt lat="48.65551" lon="2.42412">
        <ele>34</ele>
        <time>2022-09-28T09:10:39.518Z</time>
      </trkpt>
      <trkpt lat="48.65553" lon="2.42408">
        <ele>34</ele>
        <time>2022-09-28T09:10:43.522Z</time>
      </trkpt>
      <trkpt lat="48.65554" lon="2.42406">
        <ele>34</ele>
        <time>2022-09-28T09:10:48.515Z</time>
      </trkpt>
      <trkpt lat="48.65557" lon="2.42401">
        <ele>33</ele>
        <time>2022-09-28T09:10:53.497Z</time>
      </trkpt>
      <trkpt lat="48.65559" lon="2.42397">
        <ele>33</ele>
        <time>2022-09-28T09:10:57.505Z</time>
      </trkpt>
      <trkpt lat="48.65562" lon="2.42392">
        <ele>33</ele>
        <time>2022-09-28T09:11:01.531Z</time>
      </trkpt>
      <trkpt lat="48.65566" lon="2.42385">
        <ele>33</ele>
        <time>2022-09-28T09:11:06.522Z</time>
      </trkpt>
      <trkpt lat="48.6557" lon="2.42381">
        <ele>30</ele>
        <time>2022-09-28T09:11:10.520Z</time>
      </trkpt>
      <trkpt lat="48.65573" lon="2.42376">
        <ele>30</ele>
        <time>2022-09-28T09:11:14.535Z</time>
      </trkpt>
      <trkpt lat="48.65575" lon="2.42371">
        <ele>32</ele>
        <time>2022-09-28T09:11:27.534Z</time>
      </trkpt>
      <trkpt lat="48.65578" lon="2.42367">
        <ele>32</ele>
        <time>2022-09-28T09:11:32.498Z</time>
      </trkpt>
      <trkpt lat="48.65578" lon="2.42365">
        <ele>32</ele>
        <time>2022-09-28T09:11:36.515Z</time>
      </trkpt>
      <trkpt lat="48.65579" lon="2.42364">
        <ele>32</ele>
        <time>2022-09-28T09:11:40.531Z</time>
      </trkpt>
      <trkpt lat="48.65583" lon="2.42358">
        <ele>32</ele>
        <time>2022-09-28T09:11:44.542Z</time>
      </trkpt>
      <trkpt lat="48.65587" lon="2.42351">
        <ele>32</ele>
        <time>2022-09-28T09:11:49.509Z</time>
      </trkpt>
      <trkpt lat="48.65591" lon="2.42343">
        <ele>35</ele>
        <time>2022-09-28T09:11:53.531Z</time>
      </trkpt>
      <trkpt lat="48.65596" lon="2.42335">
        <ele>35</ele>
        <time>2022-09-28T09:11:58.536Z</time>
      </trkpt>
      <trkpt lat="48.656" lon="2.42327">
        <ele>34</ele>
        <time>2022-09-28T09:12:03.536Z</time>
      </trkpt>
      <trkpt lat="48.65601" lon="2.42318">
        <ele>35</ele>
        <time>2022-09-28T09:12:08.539Z</time>
      </trkpt>
      <trkpt lat="48.65598" lon="2.42314">
        <ele>35</ele>
        <time>2022-09-28T09:12:13.534Z</time>
      </trkpt>
      <trkpt lat="48.65595" lon="2.42311">
        <ele>37</ele>
        <time>2022-09-28T09:12:18.538Z</time>
      </trkpt>
      <trkpt lat="48.6559" lon="2.42306">
        <ele>37</ele>
        <time>2022-09-28T09:12:23.536Z</time>
      </trkpt>
      <trkpt lat="48.65585" lon="2.42301">
        <ele>37</ele>
        <time>2022-09-28T09:12:28.538Z</time>
      </trkpt>
      <trkpt lat="48.65582" lon="2.42296">
        <ele>37</ele>
        <time>2022-09-28T09:12:33.525Z</time>
      </trkpt>
      <trkpt lat="48.65578" lon="2.42293">
        <ele>37</ele>
        <time>2022-09-28T09:12:38.539Z</time>
      </trkpt>
      <trkpt lat="48.65571" lon="2.42286">
        <ele>38</ele>
        <time>2022-09-28T09:12:43.537Z</time>
      </trkpt>
      <trkpt lat="48.65567" lon="2.42278">
        <ele>38</ele>
        <time>2022-09-28T09:12:48.521Z</time>
      </trkpt>
      <trkpt lat="48.65561" lon="2.42268">
        <ele>38</ele>
        <time>2022-09-28T09:12:53.498Z</time>
      </trkpt>
      <trkpt lat="48.65561" lon="2.42262">
        <ele>38</ele>
        <time>2022-09-28T09:12:57.504Z</time>
      </trkpt>
      <trkpt lat="48.65553" lon="2.42254">
        <ele>38</ele>
        <time>2022-09-28T09:13:02.507Z</time>
      </trkpt>
      <trkpt lat="48.65552" lon="2.42251">
        <ele>38</ele>
        <time>2022-09-28T09:13:07.498Z</time>
      </trkpt>
      <trkpt lat="48.65553" lon="2.4225">
        <ele>38</ele>
        <time>2022-09-28T09:13:11.530Z</time>
      </trkpt>
      <trkpt lat="48.65555" lon="2.42246">
        <ele>38</ele>
        <time>2022-09-28T09:13:16.516Z</time>
      </trkpt>
      <trkpt lat="48.65556" lon="2.4224">
        <ele>38</ele>
        <time>2022-09-28T09:13:21.518Z</time>
      </trkpt>
      <trkpt lat="48.65559" lon="2.42232">
        <ele>37</ele>
        <time>2022-09-28T09:13:26.503Z</time>
      </trkpt>
      <trkpt lat="48.65557" lon="2.42227">
        <ele>37</ele>
        <time>2022-09-28T09:13:30.512Z</time>
      </trkpt>
      <trkpt lat="48.65553" lon="2.42223">
        <ele>37</ele>
        <time>2022-09-28T09:13:35.505Z</time>
      </trkpt>
      <trkpt lat="48.65551" lon="2.42218">
        <ele>37</ele>
        <time>2022-09-28T09:13:39.514Z</time>
      </trkpt>
      <trkpt lat="48.65549" lon="2.42222">
        <ele>37</ele>
        <time>2022-09-28T09:13:44.503Z</time>
      </trkpt>
      <trkpt lat="48.65548" lon="2.42221">
        <ele>37</ele>
        <time>2022-09-28T09:14:16.510Z</time>
      </trkpt>
      <trkpt lat="48.65547" lon="2.42219">
        <ele>37</ele>
        <time>2022-09-28T09:14:21.510Z</time>
      </trkpt>
      <trkpt lat="48.65547" lon="2.42213">
        <ele>37</ele>
        <time>2022-09-28T09:14:26.502Z</time>
      </trkpt>
      <trkpt lat="48.65548" lon="2.42209">
        <ele>37</ele>
        <time>2022-09-28T09:14:30.546Z</time>
      </trkpt>
      <trkpt lat="48.65548" lon="2.42206">
        <ele>36</ele>
        <time>2022-09-28T09:14:35.503Z</time>
      </trkpt>
      <trkpt lat="48.65548" lon="2.42199">
        <ele>36</ele>
        <time>2022-09-28T09:14:44.512Z</time>
      </trkpt>
      <trkpt lat="48.65548" lon="2.42199">
        <ele>36</ele>
        <time>2022-09-28T09:14:48.541Z</time>
      </trkpt>
      <trkpt lat="48.65549" lon="2.42195">
        <ele>36</ele>
        <time>2022-09-28T09:14:53.528Z</time>
      </trkpt>
      <trkpt lat="48.65549" lon="2.42192">
        <ele>36</ele>
        <time>2022-09-28T09:14:58.539Z</time>
      </trkpt>
      <trkpt lat="48.65548" lon="2.42186">
        <ele>36</ele>
        <time>2022-09-28T09:15:03.502Z</time>
      </trkpt>
      <trkpt lat="48.65544" lon="2.4218">
        <ele>36</ele>
        <time>2022-09-28T09:15:08.506Z</time>
      </trkpt>
      <trkpt lat="48.65538" lon="2.4217">
        <ele>38</ele>
        <time>2022-09-28T09:15:13.503Z</time>
      </trkpt>
      <trkpt lat="48.65535" lon="2.42164">
        <ele>38</ele>
        <time>2022-09-28T09:15:18.496Z</time>
      </trkpt>
      <trkpt lat="48.65531" lon="2.42154">
        <ele>38</ele>
        <time>2022-09-28T09:15:23.495Z</time>
      </trkpt>
      <trkpt lat="48.65529" lon="2.42147">
        <ele>39</ele>
        <time>2022-09-28T09:15:27.499Z</time>
      </trkpt>
      <trkpt lat="48.65525" lon="2.4214">
        <ele>39</ele>
        <time>2022-09-28T09:15:31.501Z</time>
      </trkpt>
      <trkpt lat="48.65523" lon="2.42137">
        <ele>39</ele>
        <time>2022-09-28T09:15:35.507Z</time>
      </trkpt>
      <trkpt lat="48.65521" lon="2.42128">
        <ele>39</ele>
        <time>2022-09-28T09:15:40.503Z</time>
      </trkpt>
      <trkpt lat="48.65521" lon="2.42122">
        <ele>40</ele>
        <time>2022-09-28T09:15:44.502Z</time>
      </trkpt>
      <trkpt lat="48.65521" lon="2.42117">
        <ele>40</ele>
        <time>2022-09-28T09:15:48.504Z</time>
      </trkpt>
      <trkpt lat="48.6552" lon="2.42108">
        <ele>40</ele>
        <time>2022-09-28T09:15:53.503Z</time>
      </trkpt>
      <trkpt lat="48.65519" lon="2.42101">
        <ele>40</ele>
        <time>2022-09-28T09:15:58.506Z</time>
      </trkpt>
      <trkpt lat="48.65518" lon="2.42094">
        <ele>42</ele>
        <time>2022-09-28T09:16:03.508Z</time>
      </trkpt>
      <trkpt lat="48.65515" lon="2.42089">
        <ele>42</ele>
        <time>2022-09-28T09:16:08.511Z</time>
      </trkpt>
      <trkpt lat="48.65515" lon="2.42079">
        <ele>42</ele>
        <time>2022-09-28T09:16:13.504Z</time>
      </trkpt>
      <trkpt lat="48.65514" lon="2.42071">
        <ele>42</ele>
        <time>2022-09-28T09:16:18.506Z</time>
      </trkpt>
      <trkpt lat="48.65514" lon="2.42062">
        <ele>42</ele>
        <time>2022-09-28T09:16:23.507Z</time>
      </trkpt>
      <trkpt lat="48.65515" lon="2.42054">
        <ele>42</ele>
        <time>2022-09-28T09:16:28.509Z</time>
      </trkpt>
      <trkpt lat="48.65515" lon="2.42046">
        <ele>42</ele>
        <time>2022-09-28T09:16:33.511Z</time>
      </trkpt>
      <trkpt lat="48.65517" lon="2.42039">
        <ele>41</ele>
        <time>2022-09-28T09:16:38.498Z</time>
      </trkpt>
      <trkpt lat="48.65518" lon="2.42033">
        <ele>41</ele>
        <time>2022-09-28T09:16:42.508Z</time>
      </trkpt>
      <trkpt lat="48.65519" lon="2.42027">
        <ele>41</ele>
        <time>2022-09-28T09:16:47.501Z</time>
      </trkpt>
      <trkpt lat="48.6552" lon="2.4202">
        <ele>41</ele>
        <time>2022-09-28T09:16:52.506Z</time>
      </trkpt>
      <trkpt lat="48.65522" lon="2.42014">
        <ele>41</ele>
        <time>2022-09-28T09:16:56.508Z</time>
      </trkpt>
      <trkpt lat="48.65523" lon="2.42007">
        <ele>41</ele>
        <time>2022-09-28T09:17:00.514Z</time>
      </trkpt>
      <trkpt lat="48.65523" lon="2.42">
        <ele>41</ele>
        <time>2022-09-28T09:17:05.508Z</time>
      </trkpt>
      <trkpt lat="48.65526" lon="2.41992">
        <ele>41</ele>
        <time>2022-09-28T09:17:10.512Z</time>
      </trkpt>
      <trkpt lat="48.65529" lon="2.41985">
        <ele>40</ele>
        <time>2022-09-28T09:17:15.510Z</time>
      </trkpt>
      <trkpt lat="48.65532" lon="2.4198">
        <ele>40</ele>
        <time>2022-09-28T09:17:20.509Z</time>
      </trkpt>
      <trkpt lat="48.65534" lon="2.41974">
        <ele>40</ele>
        <time>2022-09-28T09:17:24.537Z</time>
      </trkpt>
      <trkpt lat="48.65536" lon="2.41968">
        <ele>40</ele>
        <time>2022-09-28T09:17:29.500Z</time>
      </trkpt>
      <trkpt lat="48.65543" lon="2.41961">
        <ele>36</ele>
        <time>2022-09-28T09:17:33.538Z</time>
      </trkpt>
      <trkpt lat="48.65548" lon="2.4195">
        <ele>37</ele>
        <time>2022-09-28T09:17:38.515Z</time>
      </trkpt>
      <trkpt lat="48.65548" lon="2.41944">
        <ele>37</ele>
        <time>2022-09-28T09:17:42.535Z</time>
      </trkpt>
      <trkpt lat="48.65548" lon="2.41938">
        <ele>37</ele>
        <time>2022-09-28T09:17:47.535Z</time>
      </trkpt>
      <trkpt lat="48.65549" lon="2.41932">
        <ele>37</ele>
        <time>2022-09-28T09:17:52.538Z</time>
      </trkpt>
      <trkpt lat="48.65552" lon="2.41927">
        <ele>37</ele>
        <time>2022-09-28T09:17:57.543Z</time>
      </trkpt>
      <trkpt lat="48.65556" lon="2.41921">
        <ele>37</ele>
        <time>2022-09-28T09:18:02.507Z</time>
      </trkpt>
      <trkpt lat="48.6556" lon="2.41914">
        <ele>37</ele>
        <time>2022-09-28T09:18:07.504Z</time>
      </trkpt>
      <trkpt lat="48.65562" lon="2.41907">
        <ele>37</ele>
        <time>2022-09-28T09:18:12.525Z</time>
      </trkpt>
      <trkpt lat="48.65565" lon="2.41901">
        <ele>38</ele>
        <time>2022-09-28T09:18:17.501Z</time>
      </trkpt>
      <trkpt lat="48.65566" lon="2.41896">
        <ele>38</ele>
        <time>2022-09-28T09:18:21.535Z</time>
      </trkpt>
      <trkpt lat="48.65567" lon="2.41891">
        <ele>38</ele>
        <time>2022-09-28T09:18:26.508Z</time>
      </trkpt>
      <trkpt lat="48.65567" lon="2.41883">
        <ele>38</ele>
        <time>2022-09-28T09:18:30.517Z</time>
      </trkpt>
      <trkpt lat="48.65567" lon="2.41875">
        <ele>38</ele>
        <time>2022-09-28T09:18:34.549Z</time>
      </trkpt>
      <trkpt lat="48.65568" lon="2.41867">
        <ele>38</ele>
        <time>2022-09-28T09:18:39.535Z</time>
      </trkpt>
      <trkpt lat="48.65569" lon="2.41859">
        <ele>38</ele>
        <time>2022-09-28T09:18:44.517Z</time>
      </trkpt>
      <trkpt lat="48.6557" lon="2.41845">
        <ele>35</ele>
        <time>2022-09-28T09:18:49.516Z</time>
      </trkpt>
      <trkpt lat="48.6557" lon="2.41839">
        <ele>35</ele>
        <time>2022-09-28T09:18:53.530Z</time>
      </trkpt>
      <trkpt lat="48.65571" lon="2.41832">
        <ele>35</ele>
        <time>2022-09-28T09:18:57.538Z</time>
      </trkpt>
      <trkpt lat="48.65572" lon="2.41826">
        <ele>35</ele>
        <time>2022-09-28T09:19:01.544Z</time>
      </trkpt>
      <trkpt lat="48.65572" lon="2.41817">
        <ele>34</ele>
        <time>2022-09-28T09:19:06.558Z</time>
      </trkpt>
      <trkpt lat="48.65573" lon="2.41807">
        <ele>34</ele>
        <time>2022-09-28T09:19:11.511Z</time>
      </trkpt>
      <trkpt lat="48.65573" lon="2.418">
        <ele>34</ele>
        <time>2022-09-28T09:19:15.544Z</time>
      </trkpt>
      <trkpt lat="48.65575" lon="2.41792">
        <ele>34</ele>
        <time>2022-09-28T09:19:20.548Z</time>
      </trkpt>
      <trkpt lat="48.65576" lon="2.41786">
        <ele>34</ele>
        <time>2022-09-28T09:19:24.564Z</time>
      </trkpt>
      <trkpt lat="48.65575" lon="2.41777">
        <ele>34</ele>
        <time>2022-09-28T09:19:29.503Z</time>
      </trkpt>
      <trkpt lat="48.65581" lon="2.41772">
        <ele>34</ele>
        <time>2022-09-28T09:19:34.510Z</time>
      </trkpt>
      <trkpt lat="48.6559" lon="2.41767">
        <ele>34</ele>
        <time>2022-09-28T09:19:39.509Z</time>
      </trkpt>
      <trkpt lat="48.65596" lon="2.4177">
        <ele>34</ele>
        <time>2022-09-28T09:19:44.503Z</time>
      </trkpt>
      <trkpt lat="48.656" lon="2.4177">
        <ele>33</ele>
        <time>2022-09-28T09:19:49.508Z</time>
      </trkpt>
      <trkpt lat="48.65604" lon="2.41774">
        <ele>33</ele>
        <time>2022-09-28T09:19:54.516Z</time>
      </trkpt>
      <trkpt lat="48.6561" lon="2.4178">
        <ele>33</ele>
        <time>2022-09-28T09:19:59.507Z</time>
      </trkpt>
      <trkpt lat="48.65615" lon="2.41784">
        <ele>33</ele>
        <time>2022-09-28T09:20:04.514Z</time>
      </trkpt>
      <trkpt lat="48.6562" lon="2.41791">
        <ele>33</ele>
        <time>2022-09-28T09:20:09.510Z</time>
      </trkpt>
      <trkpt lat="48.65623" lon="2.41793">
        <ele>34</ele>
        <time>2022-09-28T09:20:14.519Z</time>
      </trkpt>
      <trkpt lat="48.65628" lon="2.41797">
        <ele>34</ele>
        <time>2022-09-28T09:20:19.510Z</time>
      </trkpt>
      <trkpt lat="48.65632" lon="2.41804">
        <ele>34</ele>
        <time>2022-09-28T09:20:24.507Z</time>
      </trkpt>
      <trkpt lat="48.65636" lon="2.41807">
        <ele>34</ele>
        <time>2022-09-28T09:20:28.513Z</time>
      </trkpt>
      <trkpt lat="48.65639" lon="2.4181">
        <ele>34</ele>
        <time>2022-09-28T09:20:32.526Z</time>
      </trkpt>
      <trkpt lat="48.65646" lon="2.41813">
        <ele>34</ele>
        <time>2022-09-28T09:20:37.513Z</time>
      </trkpt>
      <trkpt lat="48.65651" lon="2.41819">
        <ele>34</ele>
        <time>2022-09-28T09:20:42.519Z</time>
      </trkpt>
      <trkpt lat="48.65656" lon="2.41823">
        <ele>34</ele>
        <time>2022-09-28T09:20:46.512Z</time>
      </trkpt>
      <trkpt lat="48.65662" lon="2.4183">
        <ele>34</ele>
        <time>2022-09-28T09:20:51.510Z</time>
      </trkpt>
      <trkpt lat="48.65667" lon="2.41836">
        <ele>34</ele>
        <time>2022-09-28T09:20:56.511Z</time>
      </trkpt>
      <trkpt lat="48.65672" lon="2.4184">
        <ele>34</ele>
        <time>2022-09-28T09:21:01.508Z</time>
      </trkpt>
      <trkpt lat="48.65676" lon="2.41844">
        <ele>34</ele>
        <time>2022-09-28T09:21:05.510Z</time>
      </trkpt>
      <trkpt lat="48.65681" lon="2.41847">
        <ele>35</ele>
        <time>2022-09-28T09:21:09.514Z</time>
      </trkpt>
      <trkpt lat="48.65686" lon="2.41852">
        <ele>35</ele>
        <time>2022-09-28T09:21:14.508Z</time>
      </trkpt>
      <trkpt lat="48.65693" lon="2.4186">
        <ele>35</ele>
        <time>2022-09-28T09:21:19.516Z</time>
      </trkpt>
      <trkpt lat="48.65697" lon="2.41866">
        <ele>35</ele>
        <time>2022-09-28T09:21:24.508Z</time>
      </trkpt>
      <trkpt lat="48.65701" lon="2.4187">
        <ele>35</ele>
        <time>2022-09-28T09:21:29.506Z</time>
      </trkpt>
      <trkpt lat="48.65706" lon="2.41874">
        <ele>35</ele>
        <time>2022-09-28T09:21:34.502Z</time>
      </trkpt>
      <trkpt lat="48.65709" lon="2.41878">
        <ele>36</ele>
        <time>2022-09-28T09:21:38.538Z</time>
      </trkpt>
      <trkpt lat="48.65712" lon="2.41887">
        <ele>36</ele>
        <time>2022-09-28T09:21:42.560Z</time>
      </trkpt>
      <trkpt lat="48.65714" lon="2.41894">
        <ele>36</ele>
        <time>2022-09-28T09:21:47.523Z</time>
      </trkpt>
      <trkpt lat="48.65719" lon="2.419">
        <ele>36</ele>
        <time>2022-09-28T09:21:51.555Z</time>
      </trkpt>
      <trkpt lat="48.65726" lon="2.41898">
        <ele>36</ele>
        <time>2022-09-28T09:21:56.543Z</time>
      </trkpt>
      <trkpt lat="48.65728" lon="2.41893">
        <ele>36</ele>
        <time>2022-09-28T09:22:00.555Z</time>
      </trkpt>
      <trkpt lat="48.65732" lon="2.41886">
        <ele>36</ele>
        <time>2022-09-28T09:22:05.521Z</time>
      </trkpt>
      <trkpt lat="48.65731" lon="2.4188">
        <ele>36</ele>
        <time>2022-09-28T09:22:09.550Z</time>
      </trkpt>
      <trkpt lat="48.65731" lon="2.41874">
        <ele>36</ele>
        <time>2022-09-28T09:22:14.544Z</time>
      </trkpt>
      <trkpt lat="48.65733" lon="2.41868">
        <ele>36</ele>
        <time>2022-09-28T09:22:18.537Z</time>
      </trkpt>
      <trkpt lat="48.65737" lon="2.4186">
        <ele>37</ele>
        <time>2022-09-28T09:22:23.540Z</time>
      </trkpt>
      <trkpt lat="48.65739" lon="2.41856">
        <ele>37</ele>
        <time>2022-09-28T09:22:28.504Z</time>
      </trkpt>
      <trkpt lat="48.65749" lon="2.41861">
        <ele>37</ele>
        <time>2022-09-28T09:22:33.506Z</time>
      </trkpt>
      <trkpt lat="48.65749" lon="2.41847">
        <ele>37</ele>
        <time>2022-09-28T09:22:38.508Z</time>
      </trkpt>
      <trkpt lat="48.65752" lon="2.41844">
        <ele>36</ele>
        <time>2022-09-28T09:22:42.515Z</time>
      </trkpt>
      <trkpt lat="48.65754" lon="2.41847">
        <ele>37</ele>
        <time>2022-09-28T09:22:47.514Z</time>
      </trkpt>
      <trkpt lat="48.65758" lon="2.41851">
        <ele>37</ele>
        <time>2022-09-28T09:22:51.511Z</time>
      </trkpt>
      <trkpt lat="48.65761" lon="2.41852">
        <ele>37</ele>
        <time>2022-09-28T09:22:56.516Z</time>
      </trkpt>
      <trkpt lat="48.65765" lon="2.41855">
        <ele>36</ele>
        <time>2022-09-28T09:23:01.511Z</time>
      </trkpt>
      <trkpt lat="48.65782" lon="2.41875">
        <ele>36</ele>
        <time>2022-09-28T09:23:18.502Z</time>
      </trkpt>
      <trkpt lat="48.6578" lon="2.41885">
        <ele>36</ele>
        <time>2022-09-28T09:23:23.492Z</time>
      </trkpt>
      <trkpt lat="48.65785" lon="2.41887">
        <ele>36</ele>
        <time>2022-09-28T09:23:27.502Z</time>
      </trkpt>
      <trkpt lat="48.6579" lon="2.41883">
        <ele>36</ele>
        <time>2022-09-28T09:23:31.508Z</time>
      </trkpt>
      <trkpt lat="48.65797" lon="2.41888">
        <ele>36</ele>
        <time>2022-09-28T09:23:36.496Z</time>
      </trkpt>
      <trkpt lat="48.65801" lon="2.41891">
        <ele>36</ele>
        <time>2022-09-28T09:23:40.509Z</time>
      </trkpt>
      <trkpt lat="48.65807" lon="2.41895">
        <ele>36</ele>
        <time>2022-09-28T09:23:44.539Z</time>
      </trkpt>
      <trkpt lat="48.65813" lon="2.419">
        <ele>36</ele>
        <time>2022-09-28T09:23:49.508Z</time>
      </trkpt>
      <trkpt lat="48.65817" lon="2.41903">
        <ele>36</ele>
        <time>2022-09-28T09:23:53.517Z</time>
      </trkpt>
      <trkpt lat="48.65822" lon="2.41906">
        <ele>34</ele>
        <time>2022-09-28T09:23:57.523Z</time>
      </trkpt>
      <trkpt lat="48.65826" lon="2.41911">
        <ele>34</ele>
        <time>2022-09-28T09:24:02.502Z</time>
      </trkpt>
      <trkpt lat="48.65832" lon="2.41908">
        <ele>34</ele>
        <time>2022-09-28T09:24:06.505Z</time>
      </trkpt>
      <trkpt lat="48.65837" lon="2.41902">
        <ele>34</ele>
        <time>2022-09-28T09:24:11.506Z</time>
      </trkpt>
      <trkpt lat="48.6584" lon="2.41896">
        <ele>34</ele>
        <time>2022-09-28T09:24:16.506Z</time>
      </trkpt>
      <trkpt lat="48.65843" lon="2.41889">
        <ele>34</ele>
        <time>2022-09-28T09:24:20.525Z</time>
      </trkpt>
      <trkpt lat="48.65845" lon="2.41881">
        <ele>34</ele>
        <time>2022-09-28T09:24:24.530Z</time>
      </trkpt>
      <trkpt lat="48.65851" lon="2.41873">
        <ele>33</ele>
        <time>2022-09-28T09:24:29.517Z</time>
      </trkpt>
      <trkpt lat="48.65855" lon="2.41868">
        <ele>33</ele>
        <time>2022-09-28T09:24:34.508Z</time>
      </trkpt>
      <trkpt lat="48.6586" lon="2.41859">
        <ele>33</ele>
        <time>2022-09-28T09:24:39.505Z</time>
      </trkpt>
      <trkpt lat="48.65863" lon="2.41853">
        <ele>33</ele>
        <time>2022-09-28T09:24:43.525Z</time>
      </trkpt>
      <trkpt lat="48.65866" lon="2.41844">
        <ele>35</ele>
        <time>2022-09-28T09:24:48.528Z</time>
      </trkpt>
      <trkpt lat="48.65867" lon="2.41833">
        <ele>35</ele>
        <time>2022-09-28T09:24:53.505Z</time>
      </trkpt>
      <trkpt lat="48.65872" lon="2.41827">
        <ele>35</ele>
        <time>2022-09-28T09:24:58.500Z</time>
      </trkpt>
      <trkpt lat="48.65877" lon="2.4182">
        <ele>35</ele>
        <time>2022-09-28T09:25:02.521Z</time>
      </trkpt>
      <trkpt lat="48.65882" lon="2.41813">
        <ele>37</ele>
        <time>2022-09-28T09:25:07.527Z</time>
      </trkpt>
      <trkpt lat="48.65885" lon="2.41804">
        <ele>37</ele>
        <time>2022-09-28T09:25:12.528Z</time>
      </trkpt>
      <trkpt lat="48.65889" lon="2.41798">
        <ele>37</ele>
        <time>2022-09-28T09:25:16.539Z</time>
      </trkpt>
      <trkpt lat="48.65891" lon="2.41792">
        <ele>37</ele>
        <time>2022-09-28T09:25:21.542Z</time>
      </trkpt>
      <trkpt lat="48.65894" lon="2.41786">
        <ele>37</ele>
        <time>2022-09-28T09:25:26.504Z</time>
      </trkpt>
      <trkpt lat="48.65898" lon="2.41779">
        <ele>37</ele>
        <time>2022-09-28T09:25:31.503Z</time>
      </trkpt>
      <trkpt lat="48.65901" lon="2.41774">
        <ele>37</ele>
        <time>2022-09-28T09:25:35.502Z</time>
      </trkpt>
      <trkpt lat="48.65904" lon="2.41768">
        <ele>36</ele>
        <time>2022-09-28T09:25:40.511Z</time>
      </trkpt>
      <trkpt lat="48.65907" lon="2.41761">
        <ele>38</ele>
        <time>2022-09-28T09:25:45.504Z</time>
      </trkpt>
      <trkpt lat="48.6591" lon="2.41759">
        <ele>38</ele>
        <time>2022-09-28T09:25:49.524Z</time>
      </trkpt>
      <trkpt lat="48.65913" lon="2.41754">
        <ele>38</ele>
        <time>2022-09-28T09:25:54.518Z</time>
      </trkpt>
      <trkpt lat="48.65916" lon="2.41748">
        <ele>38</ele>
        <time>2022-09-28T09:25:59.507Z</time>
      </trkpt>
      <trkpt lat="48.65919" lon="2.41742">
        <ele>38</ele>
        <time>2022-09-28T09:26:04.510Z</time>
      </trkpt>
      <trkpt lat="48.65921" lon="2.4173">
        <ele>39</ele>
        <time>2022-09-28T09:26:09.511Z</time>
      </trkpt>
      <trkpt lat="48.65926" lon="2.41733">
        <ele>39</ele>
        <time>2022-09-28T09:26:13.517Z</time>
      </trkpt>
      <trkpt lat="48.65932" lon="2.41725">
        <ele>37</ele>
        <time>2022-09-28T09:26:18.504Z</time>
      </trkpt>
      <trkpt lat="48.65934" lon="2.41717">
        <ele>37</ele>
        <time>2022-09-28T09:26:22.506Z</time>
      </trkpt>
      <trkpt lat="48.65933" lon="2.41713">
        <ele>37</ele>
        <time>2022-09-28T09:26:27.508Z</time>
      </trkpt>
      <trkpt lat="48.65936" lon="2.41707">
        <ele>38</ele>
        <time>2022-09-28T09:26:32.502Z</time>
      </trkpt>
      <trkpt lat="48.65943" lon="2.41705">
        <ele>38</ele>
        <time>2022-09-28T09:26:37.497Z</time>
      </trkpt>
      <trkpt lat="48.65945" lon="2.41699">
        <ele>38</ele>
        <time>2022-09-28T09:26:42.505Z</time>
      </trkpt>
      <trkpt lat="48.65944" lon="2.41689">
        <ele>38</ele>
        <time>2022-09-28T09:26:47.498Z</time>
      </trkpt>
      <trkpt lat="48.65943" lon="2.41688">
        <ele>38</ele>
        <time>2022-09-28T09:26:52.510Z</time>
      </trkpt>
      <trkpt lat="48.65948" lon="2.41682">
        <ele>38</ele>
        <time>2022-09-28T09:26:56.506Z</time>
      </trkpt>
      <trkpt lat="48.65954" lon="2.41672">
        <ele>39</ele>
        <time>2022-09-28T09:27:01.508Z</time>
      </trkpt>
      <trkpt lat="48.65959" lon="2.41664">
        <ele>35</ele>
        <time>2022-09-28T09:27:06.508Z</time>
      </trkpt>
      <trkpt lat="48.65963" lon="2.41658">
        <ele>35</ele>
        <time>2022-09-28T09:27:10.511Z</time>
      </trkpt>
      <trkpt lat="48.65968" lon="2.41651">
        <ele>36</ele>
        <time>2022-09-28T09:27:15.499Z</time>
      </trkpt>
      <trkpt lat="48.6597" lon="2.41645">
        <ele>36</ele>
        <time>2022-09-28T09:27:19.504Z</time>
      </trkpt>
      <trkpt lat="48.65973" lon="2.41641">
        <ele>36</ele>
        <time>2022-09-28T09:27:24.502Z</time>
      </trkpt>
      <trkpt lat="48.65974" lon="2.41635">
        <ele>36</ele>
        <time>2022-09-28T09:27:29.507Z</time>
      </trkpt>
      <trkpt lat="48.65978" lon="2.41631">
        <ele>36</ele>
        <time>2022-09-28T09:27:33.519Z</time>
      </trkpt>
      <trkpt lat="48.65981" lon="2.41626">
        <ele>36</ele>
        <time>2022-09-28T09:27:37.522Z</time>
      </trkpt>
      <trkpt lat="48.65985" lon="2.4162">
        <ele>37</ele>
        <time>2022-09-28T09:27:42.507Z</time>
      </trkpt>
      <trkpt lat="48.65988" lon="2.41615">
        <ele>35</ele>
        <time>2022-09-28T09:27:46.520Z</time>
      </trkpt>
      <trkpt lat="48.65991" lon="2.41607">
        <ele>35</ele>
        <time>2022-09-28T09:27:51.510Z</time>
      </trkpt>
      <trkpt lat="48.65994" lon="2.416">
        <ele>35</ele>
        <time>2022-09-28T09:27:55.526Z</time>
      </trkpt>
      <trkpt lat="48.65998" lon="2.41594">
        <ele>36</ele>
        <time>2022-09-28T09:28:00.533Z</time>
      </trkpt>
      <trkpt lat="48.66002" lon="2.41588">
        <ele>36</ele>
        <time>2022-09-28T09:28:05.530Z</time>
      </trkpt>
      <trkpt lat="48.66006" lon="2.41582">
        <ele>36</ele>
        <time>2022-09-28T09:28:10.526Z</time>
      </trkpt>
      <trkpt lat="48.66009" lon="2.41574">
        <ele>36</ele>
        <time>2022-09-28T09:28:15.535Z</time>
      </trkpt>
      <trkpt lat="48.66014" lon="2.41568">
        <ele>35</ele>
        <time>2022-09-28T09:28:20.527Z</time>
      </trkpt>
      <trkpt lat="48.66018" lon="2.41563">
        <ele>35</ele>
        <time>2022-09-28T09:28:24.533Z</time>
      </trkpt>
      <trkpt lat="48.66023" lon="2.41559">
        <ele>35</ele>
        <time>2022-09-28T09:28:29.515Z</time>
      </trkpt>
      <trkpt lat="48.66027" lon="2.41554">
        <ele>35</ele>
        <time>2022-09-28T09:28:34.513Z</time>
      </trkpt>
      <trkpt lat="48.6603" lon="2.41551">
        <ele>35</ele>
        <time>2022-09-28T09:28:39.498Z</time>
      </trkpt>
      <trkpt lat="48.66034" lon="2.41545">
        <ele>35</ele>
        <time>2022-09-28T09:28:43.500Z</time>
      </trkpt>
      <trkpt lat="48.66037" lon="2.41539">
        <ele>35</ele>
        <time>2022-09-28T09:28:47.518Z</time>
      </trkpt>
      <trkpt lat="48.66041" lon="2.41533">
        <ele>35</ele>
        <time>2022-09-28T09:28:52.508Z</time>
      </trkpt>
      <trkpt lat="48.66045" lon="2.41534">
        <ele>35</ele>
        <time>2022-09-28T09:28:56.546Z</time>
      </trkpt>
      <trkpt lat="48.66046" lon="2.41536">
        <ele>35</ele>
        <time>2022-09-28T09:29:01.534Z</time>
      </trkpt>
      <trkpt lat="48.66048" lon="2.41537">
        <ele>35</ele>
        <time>2022-09-28T09:29:06.526Z</time>
      </trkpt>
      <trkpt lat="48.66052" lon="2.41539">
        <ele>35</ele>
        <time>2022-09-28T09:29:11.504Z</time>
      </trkpt>
      <trkpt lat="48.66056" lon="2.41541">
        <ele>35</ele>
        <time>2022-09-28T09:29:16.504Z</time>
      </trkpt>
      <trkpt lat="48.66058" lon="2.41547">
        <ele>33</ele>
        <time>2022-09-28T09:29:20.507Z</time>
      </trkpt>
      <trkpt lat="48.66064" lon="2.41554">
        <ele>33</ele>
        <time>2022-09-28T09:29:24.514Z</time>
      </trkpt>
      <trkpt lat="48.66066" lon="2.41558">
        <ele>33</ele>
        <time>2022-09-28T09:29:29.508Z</time>
      </trkpt>
      <trkpt lat="48.66071" lon="2.41564">
        <ele>28</ele>
        <time>2022-09-28T09:29:34.504Z</time>
      </trkpt>
      <trkpt lat="48.66074" lon="2.41568">
        <ele>28</ele>
        <time>2022-09-28T09:29:38.529Z</time>
      </trkpt>
      <trkpt lat="48.66079" lon="2.41574">
        <ele>28</ele>
        <time>2022-09-28T09:29:43.531Z</time>
      </trkpt>
      <trkpt lat="48.66083" lon="2.41578">
        <ele>28</ele>
        <time>2022-09-28T09:29:47.545Z</time>
      </trkpt>
      <trkpt lat="48.66087" lon="2.41584">
        <ele>28</ele>
        <time>2022-09-28T09:29:52.500Z</time>
      </trkpt>
      <trkpt lat="48.6609" lon="2.41588">
        <ele>28</ele>
        <time>2022-09-28T09:29:56.506Z</time>
      </trkpt>
      <trkpt lat="48.66093" lon="2.41594">
        <ele>28</ele>
        <time>2022-09-28T09:30:00.510Z</time>
      </trkpt>
      <trkpt lat="48.66096" lon="2.41597">
        <ele>28</ele>
        <time>2022-09-28T09:30:05.506Z</time>
      </trkpt>
      <trkpt lat="48.66099" lon="2.41601">
        <ele>26</ele>
        <time>2022-09-28T09:30:09.503Z</time>
      </trkpt>
      <trkpt lat="48.66103" lon="2.4161">
        <ele>26</ele>
        <time>2022-09-28T09:30:14.507Z</time>
      </trkpt>
      <trkpt lat="48.66107" lon="2.41615">
        <ele>26</ele>
        <time>2022-09-28T09:30:19.510Z</time>
      </trkpt>
      <trkpt lat="48.66111" lon="2.41621">
        <ele>26</ele>
        <time>2022-09-28T09:30:23.522Z</time>
      </trkpt>
      <trkpt lat="48.66114" lon="2.41625">
        <ele>26</ele>
        <time>2022-09-28T09:30:28.509Z</time>
      </trkpt>
      <trkpt lat="48.66114" lon="2.41628">
        <ele>28</ele>
        <time>2022-09-28T09:30:33.506Z</time>
      </trkpt>
      <trkpt lat="48.66115" lon="2.41629">
        <ele>28</ele>
        <time>2022-09-28T09:30:38.507Z</time>
      </trkpt>
      <trkpt lat="48.66119" lon="2.41637">
        <ele>28</ele>
        <time>2022-09-28T09:30:43.511Z</time>
      </trkpt>
      <trkpt lat="48.66124" lon="2.41646">
        <ele>28</ele>
        <time>2022-09-28T09:30:48.511Z</time>
      </trkpt>
      <trkpt lat="48.66129" lon="2.41653">
        <ele>29</ele>
        <time>2022-09-28T09:30:53.517Z</time>
      </trkpt>
      <trkpt lat="48.66135" lon="2.4166">
        <ele>29</ele>
        <time>2022-09-28T09:30:58.501Z</time>
      </trkpt>
      <trkpt lat="48.6614" lon="2.41668">
        <ele>29</ele>
        <time>2022-09-28T09:31:02.504Z</time>
      </trkpt>
      <trkpt lat="48.66144" lon="2.41675">
        <ele>29</ele>
        <time>2022-09-28T09:31:06.514Z</time>
      </trkpt>
      <trkpt lat="48.66149" lon="2.41679">
        <ele>29</ele>
        <time>2022-09-28T09:31:10.527Z</time>
      </trkpt>
      <trkpt lat="48.66153" lon="2.41685">
        <ele>31</ele>
        <time>2022-09-28T09:31:15.499Z</time>
      </trkpt>
      <trkpt lat="48.66157" lon="2.41691">
        <ele>31</ele>
        <time>2022-09-28T09:31:19.507Z</time>
      </trkpt>
      <trkpt lat="48.6616" lon="2.41696">
        <ele>31</ele>
        <time>2022-09-28T09:31:23.519Z</time>
      </trkpt>
      <trkpt lat="48.66165" lon="2.41703">
        <ele>31</ele>
        <time>2022-09-28T09:31:28.515Z</time>
      </trkpt>
      <trkpt lat="48.66169" lon="2.41707">
        <ele>31</ele>
        <time>2022-09-28T09:31:32.523Z</time>
      </trkpt>
      <trkpt lat="48.66174" lon="2.41712">
        <ele>33</ele>
        <time>2022-09-28T09:31:37.515Z</time>
      </trkpt>
      <trkpt lat="48.66179" lon="2.41716">
        <ele>33</ele>
        <time>2022-09-28T09:31:42.517Z</time>
      </trkpt>
      <trkpt lat="48.66184" lon="2.41723">
        <ele>33</ele>
        <time>2022-09-28T09:31:47.552Z</time>
      </trkpt>
      <trkpt lat="48.66189" lon="2.41728">
        <ele>33</ele>
        <time>2022-09-28T09:31:52.534Z</time>
      </trkpt>
      <trkpt lat="48.66193" lon="2.41735">
        <ele>33</ele>
        <time>2022-09-28T09:31:57.529Z</time>
      </trkpt>
      <trkpt lat="48.66193" lon="2.4174">
        <ele>33</ele>
        <time>2022-09-28T09:32:02.506Z</time>
      </trkpt>
      <trkpt lat="48.66188" lon="2.41738">
        <ele>33</ele>
        <time>2022-09-28T09:32:06.521Z</time>
      </trkpt>
      <trkpt lat="48.66182" lon="2.41733">
        <ele>33</ele>
        <time>2022-09-28T09:32:11.519Z</time>
      </trkpt>
      <trkpt lat="48.66176" lon="2.41727">
        <ele>33</ele>
        <time>2022-09-28T09:32:16.506Z</time>
      </trkpt>
      <trkpt lat="48.66172" lon="2.41724">
        <ele>33</ele>
        <time>2022-09-28T09:32:20.542Z</time>
      </trkpt>
      <trkpt lat="48.66168" lon="2.41722">
        <ele>33</ele>
        <time>2022-09-28T09:32:30.513Z</time>
      </trkpt>
      <trkpt lat="48.66167" lon="2.41719">
        <ele>33</ele>
        <time>2022-09-28T09:32:34.535Z</time>
      </trkpt>
      <trkpt lat="48.66165" lon="2.41721">
        <ele>33</ele>
        <time>2022-09-28T09:32:39.511Z</time>
      </trkpt>
      <trkpt lat="48.66161" lon="2.41721">
        <ele>33</ele>
        <time>2022-09-28T09:32:43.544Z</time>
      </trkpt>
      <trkpt lat="48.66156" lon="2.41715">
        <ele>33</ele>
        <time>2022-09-28T09:32:48.539Z</time>
      </trkpt>
      <trkpt lat="48.66153" lon="2.41711">
        <ele>33</ele>
        <time>2022-09-28T09:32:52.559Z</time>
      </trkpt>
      <trkpt lat="48.66148" lon="2.41706">
        <ele>31</ele>
        <time>2022-09-28T09:32:57.559Z</time>
      </trkpt>
      <trkpt lat="48.66144" lon="2.417">
        <ele>31</ele>
        <time>2022-09-28T09:33:02.567Z</time>
      </trkpt>
      <trkpt lat="48.6614" lon="2.41698">
        <ele>31</ele>
        <time>2022-09-28T09:33:07.549Z</time>
      </trkpt>
      <trkpt lat="48.66136" lon="2.41695">
        <ele>31</ele>
        <time>2022-09-28T09:33:12.529Z</time>
      </trkpt>
      <trkpt lat="48.66132" lon="2.41696">
        <ele>31</ele>
        <time>2022-09-28T09:33:16.544Z</time>
      </trkpt>
      <trkpt lat="48.66127" lon="2.41701">
        <ele>31</ele>
        <time>2022-09-28T09:33:21.555Z</time>
      </trkpt>
      <trkpt lat="48.66124" lon="2.41707">
        <ele>33</ele>
        <time>2022-09-28T09:33:26.563Z</time>
      </trkpt>
      <trkpt lat="48.66121" lon="2.41715">
        <ele>34</ele>
        <time>2022-09-28T09:33:31.559Z</time>
      </trkpt>
      <trkpt lat="48.66118" lon="2.4172">
        <ele>34</ele>
        <time>2022-09-28T09:33:36.565Z</time>
      </trkpt>
      <trkpt lat="48.66114" lon="2.41724">
        <ele>34</ele>
        <time>2022-09-28T09:33:41.546Z</time>
      </trkpt>
      <trkpt lat="48.6611" lon="2.41729">
        <ele>34</ele>
        <time>2022-09-28T09:33:46.529Z</time>
      </trkpt>
      <trkpt lat="48.66106" lon="2.41735">
        <ele>34</ele>
        <time>2022-09-28T09:33:50.545Z</time>
      </trkpt>
      <trkpt lat="48.66101" lon="2.41738">
        <ele>35</ele>
        <time>2022-09-28T09:33:54.556Z</time>
      </trkpt>
      <trkpt lat="48.66098" lon="2.41741">
        <ele>35</ele>
        <time>2022-09-28T09:33:59.543Z</time>
      </trkpt>
      <trkpt lat="48.66095" lon="2.41748">
        <ele>36</ele>
        <time>2022-09-28T09:34:04.565Z</time>
      </trkpt>
      <trkpt lat="48.66091" lon="2.41752">
        <ele>36</ele>
        <time>2022-09-28T09:34:09.559Z</time>
      </trkpt>
      <trkpt lat="48.66088" lon="2.41756">
        <ele>36</ele>
        <time>2022-09-28T09:34:14.557Z</time>
      </trkpt>
      <trkpt lat="48.66083" lon="2.41763">
        <ele>36</ele>
        <time>2022-09-28T09:34:19.549Z</time>
      </trkpt>
      <trkpt lat="48.66078" lon="2.41768">
        <ele>36</ele>
        <time>2022-09-28T09:34:24.550Z</time>
      </trkpt>
      <trkpt lat="48.66073" lon="2.41774">
        <ele>36</ele>
        <time>2022-09-28T09:34:29.559Z</time>
      </trkpt>
      <trkpt lat="48.66069" lon="2.41779">
        <ele>36</ele>
        <time>2022-09-28T09:34:34.556Z</time>
      </trkpt>
      <trkpt lat="48.66066" lon="2.41783">
        <ele>36</ele>
        <time>2022-09-28T09:34:39.527Z</time>
      </trkpt>
      <trkpt lat="48.66064" lon="2.41786">
        <ele>36</ele>
        <time>2022-09-28T09:34:43.536Z</time>
      </trkpt>
      <trkpt lat="48.66061" lon="2.41792">
        <ele>36</ele>
        <time>2022-09-28T09:34:48.537Z</time>
      </trkpt>
      <trkpt lat="48.66058" lon="2.41797">
        <ele>36</ele>
        <time>2022-09-28T09:34:52.547Z</time>
      </trkpt>
      <trkpt lat="48.66055" lon="2.41801">
        <ele>36</ele>
        <time>2022-09-28T09:34:56.565Z</time>
      </trkpt>
      <trkpt lat="48.66051" lon="2.41806">
        <ele>36</ele>
        <time>2022-09-28T09:35:01.555Z</time>
      </trkpt>
      <trkpt lat="48.66048" lon="2.41812">
        <ele>36</ele>
        <time>2022-09-28T09:35:06.553Z</time>
      </trkpt>
      <trkpt lat="48.66044" lon="2.41816">
        <ele>36</ele>
        <time>2022-09-28T09:35:11.539Z</time>
      </trkpt>
      <trkpt lat="48.66041" lon="2.4182">
        <ele>36</ele>
        <time>2022-09-28T09:35:15.546Z</time>
      </trkpt>
      <trkpt lat="48.66036" lon="2.41826">
        <ele>36</ele>
        <time>2022-09-28T09:35:20.556Z</time>
      </trkpt>
      <trkpt lat="48.66035" lon="2.41831">
        <ele>36</ele>
        <time>2022-09-28T09:35:24.565Z</time>
      </trkpt>
      <trkpt lat="48.66033" lon="2.41837">
        <ele>36</ele>
        <time>2022-09-28T09:35:29.539Z</time>
      </trkpt>
      <trkpt lat="48.6603" lon="2.41843">
        <ele>36</ele>
        <time>2022-09-28T09:35:34.550Z</time>
      </trkpt>
      <trkpt lat="48.66028" lon="2.41848">
        <ele>36</ele>
        <time>2022-09-28T09:35:38.559Z</time>
      </trkpt>
      <trkpt lat="48.66024" lon="2.41854">
        <ele>36</ele>
        <time>2022-09-28T09:35:43.532Z</time>
      </trkpt>
      <trkpt lat="48.66021" lon="2.41859">
        <ele>36</ele>
        <time>2022-09-28T09:35:47.510Z</time>
      </trkpt>
      <trkpt lat="48.66017" lon="2.41868">
        <ele>36</ele>
        <time>2022-09-28T09:35:52.530Z</time>
      </trkpt>
      <trkpt lat="48.66013" lon="2.41874">
        <ele>38</ele>
        <time>2022-09-28T09:35:57.507Z</time>
      </trkpt>
      <trkpt lat="48.66008" lon="2.41881">
        <ele>37</ele>
        <time>2022-09-28T09:36:02.527Z</time>
      </trkpt>
      <trkpt lat="48.66002" lon="2.41888">
        <ele>37</ele>
        <time>2022-09-28T09:36:07.539Z</time>
      </trkpt>
      <trkpt lat="48.65998" lon="2.41896">
        <ele>37</ele>
        <time>2022-09-28T09:36:12.547Z</time>
      </trkpt>
      <trkpt lat="48.65994" lon="2.41902">
        <ele>37</ele>
        <time>2022-09-28T09:36:17.527Z</time>
      </trkpt>
      <trkpt lat="48.6599" lon="2.41907">
        <ele>36</ele>
        <time>2022-09-28T09:36:21.543Z</time>
      </trkpt>
      <trkpt lat="48.65988" lon="2.41914">
        <ele>36</ele>
        <time>2022-09-28T09:36:26.551Z</time>
      </trkpt>
      <trkpt lat="48.65982" lon="2.41919">
        <ele>35</ele>
        <time>2022-09-28T09:36:31.532Z</time>
      </trkpt>
      <trkpt lat="48.65979" lon="2.41926">
        <ele>35</ele>
        <time>2022-09-28T09:36:36.527Z</time>
      </trkpt>
      <trkpt lat="48.65975" lon="2.41934">
        <ele>34</ele>
        <time>2022-09-28T09:36:41.543Z</time>
      </trkpt>
      <trkpt lat="48.65972" lon="2.4194">
        <ele>34</ele>
        <time>2022-09-28T09:36:46.534Z</time>
      </trkpt>
      <trkpt lat="48.6597" lon="2.41946">
        <ele>34</ele>
        <time>2022-09-28T09:36:51.526Z</time>
      </trkpt>
      <trkpt lat="48.65968" lon="2.41954">
        <ele>34</ele>
        <time>2022-09-28T09:36:56.570Z</time>
      </trkpt>
      <trkpt lat="48.65965" lon="2.41961">
        <ele>35</ele>
        <time>2022-09-28T09:37:01.550Z</time>
      </trkpt>
      <trkpt lat="48.6596" lon="2.41968">
        <ele>35</ele>
        <time>2022-09-28T09:37:06.536Z</time>
      </trkpt>
      <trkpt lat="48.65957" lon="2.41973">
        <ele>34</ele>
        <time>2022-09-28T09:37:10.573Z</time>
      </trkpt>
      <trkpt lat="48.65951" lon="2.41981">
        <ele>34</ele>
        <time>2022-09-28T09:37:15.544Z</time>
      </trkpt>
      <trkpt lat="48.65948" lon="2.41989">
        <ele>34</ele>
        <time>2022-09-28T09:37:20.556Z</time>
      </trkpt>
      <trkpt lat="48.65945" lon="2.41995">
        <ele>34</ele>
        <time>2022-09-28T09:37:25.528Z</time>
      </trkpt>
      <trkpt lat="48.65943" lon="2.42001">
        <ele>34</ele>
        <time>2022-09-28T09:37:30.538Z</time>
      </trkpt>
      <trkpt lat="48.65941" lon="2.42008">
        <ele>34</ele>
        <time>2022-09-28T09:37:34.556Z</time>
      </trkpt>
      <trkpt lat="48.65938" lon="2.42012">
        <ele>34</ele>
        <time>2022-09-28T09:37:39.543Z</time>
      </trkpt>
      <trkpt lat="48.65938" lon="2.42014">
        <ele>34</ele>
        <time>2022-09-28T09:37:43.550Z</time>
      </trkpt>
      <trkpt lat="48.65936" lon="2.42016">
        <ele>34</ele>
        <time>2022-09-28T09:37:48.544Z</time>
      </trkpt>
      <trkpt lat="48.65934" lon="2.4202">
        <ele>34</ele>
        <time>2022-09-28T09:37:52.551Z</time>
      </trkpt>
      <trkpt lat="48.65931" lon="2.42028">
        <ele>34</ele>
        <time>2022-09-28T09:37:57.556Z</time>
      </trkpt>
      <trkpt lat="48.65927" lon="2.42035">
        <ele>34</ele>
        <time>2022-09-28T09:38:02.523Z</time>
      </trkpt>
      <trkpt lat="48.65924" lon="2.42041">
        <ele>34</ele>
        <time>2022-09-28T09:38:06.572Z</time>
      </trkpt>
      <trkpt lat="48.65921" lon="2.42048">
        <ele>33</ele>
        <time>2022-09-28T09:38:11.515Z</time>
      </trkpt>
      <trkpt lat="48.65919" lon="2.42053">
        <ele>33</ele>
        <time>2022-09-28T09:38:15.552Z</time>
      </trkpt>
      <trkpt lat="48.65916" lon="2.42059">
        <ele>33</ele>
        <time>2022-09-28T09:38:20.562Z</time>
      </trkpt>
      <trkpt lat="48.65913" lon="2.42064">
        <ele>33</ele>
        <time>2022-09-28T09:38:24.571Z</time>
      </trkpt>
      <trkpt lat="48.65911" lon="2.42069">
        <ele>33</ele>
        <time>2022-09-28T09:38:29.560Z</time>
      </trkpt>
      <trkpt lat="48.65907" lon="2.42076">
        <ele>33</ele>
        <time>2022-09-28T09:38:34.550Z</time>
      </trkpt>
      <trkpt lat="48.65905" lon="2.42081">
        <ele>33</ele>
        <time>2022-09-28T09:38:38.557Z</time>
      </trkpt>
      <trkpt lat="48.65902" lon="2.42087">
        <ele>34</ele>
        <time>2022-09-28T09:38:43.525Z</time>
      </trkpt>
      <trkpt lat="48.659" lon="2.42091">
        <ele>34</ele>
        <time>2022-09-28T09:38:47.562Z</time>
      </trkpt>
      <trkpt lat="48.65896" lon="2.42099">
        <ele>34</ele>
        <time>2022-09-28T09:38:52.553Z</time>
      </trkpt>
      <trkpt lat="48.65891" lon="2.42107">
        <ele>34</ele>
        <time>2022-09-28T09:38:57.543Z</time>
      </trkpt>
      <trkpt lat="48.65887" lon="2.42115">
        <ele>34</ele>
        <time>2022-09-28T09:39:02.543Z</time>
      </trkpt>
      <trkpt lat="48.65884" lon="2.4212">
        <ele>34</ele>
        <time>2022-09-28T09:39:07.571Z</time>
      </trkpt>
      <trkpt lat="48.65882" lon="2.42127">
        <ele>34</ele>
        <time>2022-09-28T09:39:12.557Z</time>
      </trkpt>
      <trkpt lat="48.65879" lon="2.42137">
        <ele>34</ele>
        <time>2022-09-28T09:39:17.539Z</time>
      </trkpt>
      <trkpt lat="48.65874" lon="2.42144">
        <ele>35</ele>
        <time>2022-09-28T09:39:22.566Z</time>
      </trkpt>
      <trkpt lat="48.65869" lon="2.42151">
        <ele>35</ele>
        <time>2022-09-28T09:39:27.536Z</time>
      </trkpt>
      <trkpt lat="48.65865" lon="2.42158">
        <ele>36</ele>
        <time>2022-09-28T09:39:31.546Z</time>
      </trkpt>
      <trkpt lat="48.6586" lon="2.42167">
        <ele>36</ele>
        <time>2022-09-28T09:39:36.558Z</time>
      </trkpt>
      <trkpt lat="48.65857" lon="2.42173">
        <ele>36</ele>
        <time>2022-09-28T09:39:41.522Z</time>
      </trkpt>
      <trkpt lat="48.65855" lon="2.42178">
        <ele>36</ele>
        <time>2022-09-28T09:39:45.549Z</time>
      </trkpt>
      <trkpt lat="48.65852" lon="2.42183">
        <ele>37</ele>
        <time>2022-09-28T09:39:50.557Z</time>
      </trkpt>
      <trkpt lat="48.65847" lon="2.42189">
        <ele>37</ele>
        <time>2022-09-28T09:39:55.543Z</time>
      </trkpt>
      <trkpt lat="48.65844" lon="2.42196">
        <ele>38</ele>
        <time>2022-09-28T09:39:59.548Z</time>
      </trkpt>
      <trkpt lat="48.65841" lon="2.42203">
        <ele>38</ele>
        <time>2022-09-28T09:40:04.538Z</time>
      </trkpt>
      <trkpt lat="48.65838" lon="2.42211">
        <ele>38</ele>
        <time>2022-09-28T09:40:09.521Z</time>
      </trkpt>
      <trkpt lat="48.65835" lon="2.42213">
        <ele>38</ele>
        <time>2022-09-28T09:40:13.539Z</time>
      </trkpt>
      <trkpt lat="48.65833" lon="2.42217">
        <ele>38</ele>
        <time>2022-09-28T09:40:18.546Z</time>
      </trkpt>
      <trkpt lat="48.65831" lon="2.4222">
        <ele>38</ele>
        <time>2022-09-28T09:40:22.557Z</time>
      </trkpt>
      <trkpt lat="48.65831" lon="2.42225">
        <ele>38</ele>
        <time>2022-09-28T09:40:26.558Z</time>
      </trkpt>
      <trkpt lat="48.65831" lon="2.42234">
        <ele>38</ele>
        <time>2022-09-28T09:40:31.555Z</time>
      </trkpt>
      <trkpt lat="48.65831" lon="2.4224">
        <ele>39</ele>
        <time>2022-09-28T09:40:36.556Z</time>
      </trkpt>
      <trkpt lat="48.65828" lon="2.42246">
        <ele>39</ele>
        <time>2022-09-28T09:40:41.571Z</time>
      </trkpt>
      <trkpt lat="48.65825" lon="2.42249">
        <ele>39</ele>
        <time>2022-09-28T09:40:46.550Z</time>
      </trkpt>
      <trkpt lat="48.65821" lon="2.42251">
        <ele>39</ele>
        <time>2022-09-28T09:40:51.552Z</time>
      </trkpt>
      <trkpt lat="48.65818" lon="2.42253">
        <ele>38</ele>
        <time>2022-09-28T09:40:55.561Z</time>
      </trkpt>
      <trkpt lat="48.65814" lon="2.42258">
        <ele>38</ele>
        <time>2022-09-28T09:41:00.543Z</time>
      </trkpt>
      <trkpt lat="48.65811" lon="2.42262">
        <ele>38</ele>
        <time>2022-09-28T09:41:04.561Z</time>
      </trkpt>
      <trkpt lat="48.65809" lon="2.42267">
        <ele>38</ele>
        <time>2022-09-28T09:41:09.560Z</time>
      </trkpt>
      <trkpt lat="48.65804" lon="2.42273">
        <ele>38</ele>
        <time>2022-09-28T09:41:14.573Z</time>
      </trkpt>
      <trkpt lat="48.65801" lon="2.4228">
        <ele>38</ele>
        <time>2022-09-28T09:41:19.533Z</time>
      </trkpt>
      <trkpt lat="48.65799" lon="2.42284">
        <ele>38</ele>
        <time>2022-09-28T09:41:23.545Z</time>
      </trkpt>
      <trkpt lat="48.65796" lon="2.42288">
        <ele>38</ele>
        <time>2022-09-28T09:41:27.566Z</time>
      </trkpt>
      <trkpt lat="48.65791" lon="2.42296">
        <ele>37</ele>
        <time>2022-09-28T09:41:32.562Z</time>
      </trkpt>
      <trkpt lat="48.65787" lon="2.42304">
        <ele>37</ele>
        <time>2022-09-28T09:41:37.578Z</time>
      </trkpt>
      <trkpt lat="48.65782" lon="2.42312">
        <ele>37</ele>
        <time>2022-09-28T09:41:42.553Z</time>
      </trkpt>
      <trkpt lat="48.65778" lon="2.42319">
        <ele>37</ele>
        <time>2022-09-28T09:41:47.552Z</time>
      </trkpt>
      <trkpt lat="48.65775" lon="2.42326">
        <ele>37</ele>
        <time>2022-09-28T09:41:52.559Z</time>
      </trkpt>
      <trkpt lat="48.65771" lon="2.4233">
        <ele>37</ele>
        <time>2022-09-28T09:41:57.563Z</time>
      </trkpt>
      <trkpt lat="48.65766" lon="2.42336">
        <ele>37</ele>
        <time>2022-09-28T09:42:02.538Z</time>
      </trkpt>
      <trkpt lat="48.65762" lon="2.42341">
        <ele>36</ele>
        <time>2022-09-28T09:42:07.529Z</time>
      </trkpt>
      <trkpt lat="48.6576" lon="2.42346">
        <ele>36</ele>
        <time>2022-09-28T09:42:11.551Z</time>
      </trkpt>
      <trkpt lat="48.65756" lon="2.42352">
        <ele>36</ele>
        <time>2022-09-28T09:42:16.565Z</time>
      </trkpt>
      <trkpt lat="48.65752" lon="2.42359">
        <ele>36</ele>
        <time>2022-09-28T09:42:21.568Z</time>
      </trkpt>
      <trkpt lat="48.65748" lon="2.42363">
        <ele>36</ele>
        <time>2022-09-28T09:42:26.566Z</time>
      </trkpt>
      <trkpt lat="48.65746" lon="2.42368">
        <ele>36</ele>
        <time>2022-09-28T09:42:31.554Z</time>
      </trkpt>
      <trkpt lat="48.65744" lon="2.42371">
        <ele>36</ele>
        <time>2022-09-28T09:42:35.559Z</time>
      </trkpt>
      <trkpt lat="48.6574" lon="2.42377">
        <ele>37</ele>
        <time>2022-09-28T09:42:40.525Z</time>
      </trkpt>
      <trkpt lat="48.65736" lon="2.42382">
        <ele>37</ele>
        <time>2022-09-28T09:42:44.576Z</time>
      </trkpt>
      <trkpt lat="48.65734" lon="2.42386">
        <ele>37</ele>
        <time>2022-09-28T09:42:49.543Z</time>
      </trkpt>
      <trkpt lat="48.65731" lon="2.42388">
        <ele>37</ele>
        <time>2022-09-28T09:42:54.563Z</time>
      </trkpt>
      <trkpt lat="48.65728" lon="2.42391">
        <ele>37</ele>
        <time>2022-09-28T09:42:59.546Z</time>
      </trkpt>
      <trkpt lat="48.65725" lon="2.42394">
        <ele>37</ele>
        <time>2022-09-28T09:43:03.557Z</time>
      </trkpt>
      <trkpt lat="48.65723" lon="2.42398">
        <ele>37</ele>
        <time>2022-09-28T09:43:08.562Z</time>
      </trkpt>
      <trkpt lat="48.6572" lon="2.42401">
        <ele>37</ele>
        <time>2022-09-28T09:43:13.548Z</time>
      </trkpt>
      <trkpt lat="48.65717" lon="2.42407">
        <ele>38</ele>
        <time>2022-09-28T09:43:18.535Z</time>
      </trkpt>
      <trkpt lat="48.65715" lon="2.42413">
        <ele>38</ele>
        <time>2022-09-28T09:43:23.549Z</time>
      </trkpt>
      <trkpt lat="48.65713" lon="2.42419">
        <ele>38</ele>
        <time>2022-09-28T09:43:27.567Z</time>
      </trkpt>
      <trkpt lat="48.6571" lon="2.42425">
        <ele>38</ele>
        <time>2022-09-28T09:43:32.564Z</time>
      </trkpt>
      <trkpt lat="48.65707" lon="2.42431">
        <ele>37</ele>
        <time>2022-09-28T09:43:37.555Z</time>
      </trkpt>
      <trkpt lat="48.65703" lon="2.42437">
        <ele>37</ele>
        <time>2022-09-28T09:43:42.558Z</time>
      </trkpt>
      <trkpt lat="48.657" lon="2.42443">
        <ele>37</ele>
        <time>2022-09-28T09:43:47.552Z</time>
      </trkpt>
      <trkpt lat="48.65697" lon="2.42448">
        <ele>37</ele>
        <time>2022-09-28T09:43:52.555Z</time>
      </trkpt>
      <trkpt lat="48.65695" lon="2.42454">
        <ele>37</ele>
        <time>2022-09-28T09:43:57.569Z</time>
      </trkpt>
      <trkpt lat="48.65696" lon="2.42459">
        <ele>37</ele>
        <time>2022-09-28T09:44:02.542Z</time>
      </trkpt>
      <trkpt lat="48.65697" lon="2.4246">
        <ele>37</ele>
        <time>2022-09-28T09:44:06.562Z</time>
      </trkpt>
      <trkpt lat="48.657" lon="2.4246">
        <ele>37</ele>
        <time>2022-09-28T09:44:11.546Z</time>
      </trkpt>
      <trkpt lat="48.65703" lon="2.42463">
        <ele>37</ele>
        <time>2022-09-28T09:44:15.544Z</time>
      </trkpt>
      <trkpt lat="48.65706" lon="2.42468">
        <ele>37</ele>
        <time>2022-09-28T09:44:20.545Z</time>
      </trkpt>
      <trkpt lat="48.65709" lon="2.42472">
        <ele>38</ele>
        <time>2022-09-28T09:44:24.546Z</time>
      </trkpt>
      <trkpt lat="48.65712" lon="2.42477">
        <ele>38</ele>
        <time>2022-09-28T09:44:29.553Z</time>
      </trkpt>
      <trkpt lat="48.65715" lon="2.42481">
        <ele>38</ele>
        <time>2022-09-28T09:44:34.558Z</time>
      </trkpt>
      <trkpt lat="48.65717" lon="2.42486">
        <ele>37</ele>
        <time>2022-09-28T09:44:39.556Z</time>
      </trkpt>
      <trkpt lat="48.65721" lon="2.42493">
        <ele>37</ele>
        <time>2022-09-28T09:44:44.547Z</time>
      </trkpt>
      <trkpt lat="48.65723" lon="2.42497">
        <ele>37</ele>
        <time>2022-09-28T09:44:48.564Z</time>
      </trkpt>
      <trkpt lat="48.65726" lon="2.42503">
        <ele>37</ele>
        <time>2022-09-28T09:44:53.565Z</time>
      </trkpt>
      <trkpt lat="48.6573" lon="2.4251">
        <ele>37</ele>
        <time>2022-09-28T09:44:58.564Z</time>
      </trkpt>
      <trkpt lat="48.65735" lon="2.42516">
        <ele>37</ele>
        <time>2022-09-28T09:45:03.549Z</time>
      </trkpt>
      <trkpt lat="48.65739" lon="2.42522">
        <ele>37</ele>
        <time>2022-09-28T09:45:08.547Z</time>
      </trkpt>
      <trkpt lat="48.65744" lon="2.42526">
        <ele>37</ele>
        <time>2022-09-28T09:45:12.545Z</time>
      </trkpt>
      <trkpt lat="48.65748" lon="2.4253">
        <ele>37</ele>
        <time>2022-09-28T09:45:16.567Z</time>
      </trkpt>
      <trkpt lat="48.65753" lon="2.42536">
        <ele>37</ele>
        <time>2022-09-28T09:45:21.564Z</time>
      </trkpt>
      <trkpt lat="48.65758" lon="2.42543">
        <ele>37</ele>
        <time>2022-09-28T09:45:26.558Z</time>
      </trkpt>
      <trkpt lat="48.65762" lon="2.4255">
        <ele>37</ele>
        <time>2022-09-28T09:45:31.557Z</time>
      </trkpt>
      <trkpt lat="48.65766" lon="2.42555">
        <ele>39</ele>
        <time>2022-09-28T09:45:35.570Z</time>
      </trkpt>
      <trkpt lat="48.65768" lon="2.42558">
        <ele>39</ele>
        <time>2022-09-28T09:45:39.582Z</time>
      </trkpt>
      <trkpt lat="48.65768" lon="2.42566">
        <ele>39</ele>
        <time>2022-09-28T09:45:44.530Z</time>
      </trkpt>
      <trkpt lat="48.65766" lon="2.42572">
        <ele>41</ele>
        <time>2022-09-28T09:45:48.570Z</time>
      </trkpt>
      <trkpt lat="48.65763" lon="2.42581">
        <ele>38</ele>
        <time>2022-09-28T09:45:53.552Z</time>
      </trkpt>
      <trkpt lat="48.65761" lon="2.42589">
        <ele>38</ele>
        <time>2022-09-28T09:45:58.522Z</time>
      </trkpt>
      <trkpt lat="48.65759" lon="2.42595">
        <ele>38</ele>
        <time>2022-09-28T09:46:02.532Z</time>
      </trkpt>
      <trkpt lat="48.65757" lon="2.42601">
        <ele>38</ele>
        <time>2022-09-28T09:46:06.554Z</time>
      </trkpt>
      <trkpt lat="48.65754" lon="2.42609">
        <ele>38</ele>
        <time>2022-09-28T09:46:11.542Z</time>
      </trkpt>
      <trkpt lat="48.65751" lon="2.42619">
        <ele>38</ele>
        <time>2022-09-28T09:46:16.522Z</time>
      </trkpt>
      <trkpt lat="48.65748" lon="2.42626">
        <ele>39</ele>
        <time>2022-09-28T09:46:21.511Z</time>
      </trkpt>
      <trkpt lat="48.65746" lon="2.42632">
        <ele>39</ele>
        <time>2022-09-28T09:46:25.514Z</time>
      </trkpt>
      <trkpt lat="48.65743" lon="2.42641">
        <ele>39</ele>
        <time>2022-09-28T09:46:30.513Z</time>
      </trkpt>
      <trkpt lat="48.6574" lon="2.42649">
        <ele>39</ele>
        <time>2022-09-28T09:46:35.517Z</time>
      </trkpt>
      <trkpt lat="48.65737" lon="2.42656">
        <ele>39</ele>
        <time>2022-09-28T09:46:39.520Z</time>
      </trkpt>
      <trkpt lat="48.65734" lon="2.42664">
        <ele>36</ele>
        <time>2022-09-28T09:46:44.531Z</time>
      </trkpt>
      <trkpt lat="48.65731" lon="2.42671">
        <ele>36</ele>
        <time>2022-09-28T09:46:49.523Z</time>
      </trkpt>
      <trkpt lat="48.65727" lon="2.4268">
        <ele>36</ele>
        <time>2022-09-28T09:46:54.518Z</time>
      </trkpt>
      <trkpt lat="48.65724" lon="2.42686">
        <ele>36</ele>
        <time>2022-09-28T09:46:58.527Z</time>
      </trkpt>
      <trkpt lat="48.6572" lon="2.42695">
        <ele>36</ele>
        <time>2022-09-28T09:47:03.519Z</time>
      </trkpt>
      <trkpt lat="48.65717" lon="2.42702">
        <ele>36</ele>
        <time>2022-09-28T09:47:08.539Z</time>
      </trkpt>
      <trkpt lat="48.65714" lon="2.42709">
        <ele>37</ele>
        <time>2022-09-28T09:47:13.517Z</time>
      </trkpt>
      <trkpt lat="48.65712" lon="2.42716">
        <ele>37</ele>
        <time>2022-09-28T09:47:17.525Z</time>
      </trkpt>
      <trkpt lat="48.65709" lon="2.42724">
        <ele>37</ele>
        <time>2022-09-28T09:47:22.525Z</time>
      </trkpt>
      <trkpt lat="48.65705" lon="2.42731">
        <ele>35</ele>
        <time>2022-09-28T09:47:27.521Z</time>
      </trkpt>
      <trkpt lat="48.65702" lon="2.42738">
        <ele>36</ele>
        <time>2022-09-28T09:47:31.536Z</time>
      </trkpt>
      <trkpt lat="48.65698" lon="2.42747">
        <ele>36</ele>
        <time>2022-09-28T09:47:36.526Z</time>
      </trkpt>
      <trkpt lat="48.65695" lon="2.42755">
        <ele>36</ele>
        <time>2022-09-28T09:47:41.551Z</time>
      </trkpt>
      <trkpt lat="48.65691" lon="2.42764">
        <ele>36</ele>
        <time>2022-09-28T09:47:46.522Z</time>
      </trkpt>
      <trkpt lat="48.6569" lon="2.42772">
        <ele>36</ele>
        <time>2022-09-28T09:47:50.526Z</time>
      </trkpt>
      <trkpt lat="48.65694" lon="2.42779">
        <ele>36</ele>
        <time>2022-09-28T09:47:55.522Z</time>
      </trkpt>
      <trkpt lat="48.65697" lon="2.42783">
        <ele>36</ele>
        <time>2022-09-28T09:47:59.533Z</time>
      </trkpt>
      <trkpt lat="48.65703" lon="2.42787">
        <ele>36</ele>
        <time>2022-09-28T09:48:04.517Z</time>
      </trkpt>
      <trkpt lat="48.65708" lon="2.42791">
        <ele>36</ele>
        <time>2022-09-28T09:48:09.522Z</time>
      </trkpt>
      <trkpt lat="48.65712" lon="2.42797">
        <ele>38</ele>
        <time>2022-09-28T09:48:14.516Z</time>
      </trkpt>
      <trkpt lat="48.65716" lon="2.42802">
        <ele>38</ele>
        <time>2022-09-28T09:48:18.526Z</time>
      </trkpt>
      <trkpt lat="48.6572" lon="2.42807">
        <ele>38</ele>
        <time>2022-09-28T09:48:23.511Z</time>
      </trkpt>
      <trkpt lat="48.65724" lon="2.42811">
        <ele>38</ele>
        <time>2022-09-28T09:48:27.512Z</time>
      </trkpt>
      <trkpt lat="48.65729" lon="2.42815">
        <ele>38</ele>
        <time>2022-09-28T09:48:31.518Z</time>
      </trkpt>
      <trkpt lat="48.65734" lon="2.42818">
        <ele>38</ele>
        <time>2022-09-28T09:48:36.540Z</time>
      </trkpt>
      <trkpt lat="48.6574" lon="2.42823">
        <ele>38</ele>
        <time>2022-09-28T09:48:41.527Z</time>
      </trkpt>
      <trkpt lat="48.65746" lon="2.42825">
        <ele>38</ele>
        <time>2022-09-28T09:48:46.516Z</time>
      </trkpt>
      <trkpt lat="48.6575" lon="2.42826">
        <ele>38</ele>
        <time>2022-09-28T09:48:50.518Z</time>
      </trkpt>
      <trkpt lat="48.65753" lon="2.42826">
        <ele>38</ele>
        <time>2022-09-28T09:48:54.519Z</time>
      </trkpt>
      <trkpt lat="48.65758" lon="2.42828">
        <ele>38</ele>
        <time>2022-09-28T09:48:59.508Z</time>
      </trkpt>
      <trkpt lat="48.6576" lon="2.42829">
        <ele>38</ele>
        <time>2022-09-28T09:49:03.510Z</time>
      </trkpt>
      <trkpt lat="48.65765" lon="2.42829">
        <ele>37</ele>
        <time>2022-09-28T09:49:08.514Z</time>
      </trkpt>
      <trkpt lat="48.6577" lon="2.42828">
        <ele>37</ele>
        <time>2022-09-28T09:49:12.521Z</time>
      </trkpt>
      <trkpt lat="48.65775" lon="2.42825">
        <ele>37</ele>
        <time>2022-09-28T09:49:17.511Z</time>
      </trkpt>
      <trkpt lat="48.6578" lon="2.42823">
        <ele>37</ele>
        <time>2022-09-28T09:49:21.519Z</time>
      </trkpt>
      <trkpt lat="48.65784" lon="2.42823">
        <ele>37</ele>
        <time>2022-09-28T09:49:25.529Z</time>
      </trkpt>
      <trkpt lat="48.6579" lon="2.42821">
        <ele>37</ele>
        <time>2022-09-28T09:49:30.520Z</time>
      </trkpt>
      <trkpt lat="48.65796" lon="2.42821">
        <ele>38</ele>
        <time>2022-09-28T09:49:34.525Z</time>
      </trkpt>
      <trkpt lat="48.65801" lon="2.42821">
        <ele>38</ele>
        <time>2022-09-28T09:49:39.510Z</time>
      </trkpt>
      <trkpt lat="48.65807" lon="2.42821">
        <ele>38</ele>
        <time>2022-09-28T09:49:44.513Z</time>
      </trkpt>
      <trkpt lat="48.65811" lon="2.42819">
        <ele>38</ele>
        <time>2022-09-28T09:49:48.520Z</time>
      </trkpt>
      <trkpt lat="48.65816" lon="2.42818">
        <ele>38</ele>
        <time>2022-09-28T09:49:53.514Z</time>
      </trkpt>
      <trkpt lat="48.65819" lon="2.42818">
        <ele>38</ele>
        <time>2022-09-28T09:49:57.523Z</time>
      </trkpt>
      <trkpt lat="48.65823" lon="2.42816">
        <ele>42</ele>
        <time>2022-09-28T09:50:01.531Z</time>
      </trkpt>
      <trkpt lat="48.65828" lon="2.42813">
        <ele>42</ele>
        <time>2022-09-28T09:50:06.512Z</time>
      </trkpt>
      <trkpt lat="48.65832" lon="2.42812">
        <ele>42</ele>
        <time>2022-09-28T09:50:10.529Z</time>
      </trkpt>
      <trkpt lat="48.65837" lon="2.42811">
        <ele>42</ele>
        <time>2022-09-28T09:50:15.523Z</time>
      </trkpt>
      <trkpt lat="48.65842" lon="2.4281">
        <ele>42</ele>
        <time>2022-09-28T09:50:20.524Z</time>
      </trkpt>
      <trkpt lat="48.65847" lon="2.42809">
        <ele>42</ele>
        <time>2022-09-28T09:50:25.522Z</time>
      </trkpt>
      <trkpt lat="48.65852" lon="2.42808">
        <ele>48</ele>
        <time>2022-09-28T09:50:30.514Z</time>
      </trkpt>
      <trkpt lat="48.65857" lon="2.42808">
        <ele>48</ele>
        <time>2022-09-28T09:50:34.521Z</time>
      </trkpt>
      <trkpt lat="48.65863" lon="2.42809">
        <ele>48</ele>
        <time>2022-09-28T09:50:39.508Z</time>
      </trkpt>
      <trkpt lat="48.65867" lon="2.42806">
        <ele>48</ele>
        <time>2022-09-28T09:50:43.519Z</time>
      </trkpt>
      <trkpt lat="48.65871" lon="2.42808">
        <ele>48</ele>
        <time>2022-09-28T09:50:48.519Z</time>
      </trkpt>
      <trkpt lat="48.65876" lon="2.42811">
        <ele>52</ele>
        <time>2022-09-28T09:50:53.513Z</time>
      </trkpt>
      <trkpt lat="48.65881" lon="2.42813">
        <ele>52</ele>
        <time>2022-09-28T09:50:57.527Z</time>
      </trkpt>
      <trkpt lat="48.65887" lon="2.42817">
        <ele>52</ele>
        <time>2022-09-28T09:51:02.521Z</time>
      </trkpt>
      <trkpt lat="48.65891" lon="2.42823">
        <ele>54</ele>
        <time>2022-09-28T09:51:07.509Z</time>
      </trkpt>
      <trkpt lat="48.65895" lon="2.42827">
        <ele>54</ele>
        <time>2022-09-28T09:51:12.530Z</time>
      </trkpt>
      <trkpt lat="48.659" lon="2.42833">
        <ele>54</ele>
        <time>2022-09-28T09:51:17.514Z</time>
      </trkpt>
      <trkpt lat="48.65903" lon="2.42837">
        <ele>55</ele>
        <time>2022-09-28T09:51:21.605Z</time>
      </trkpt>
      <trkpt lat="48.65908" lon="2.42844">
        <ele>55</ele>
        <time>2022-09-28T09:51:26.530Z</time>
      </trkpt>
      <trkpt lat="48.65911" lon="2.42851">
        <ele>56</ele>
        <time>2022-09-28T09:51:31.517Z</time>
      </trkpt>
      <trkpt lat="48.65913" lon="2.42857">
        <ele>56</ele>
        <time>2022-09-28T09:51:36.523Z</time>
      </trkpt>
      <trkpt lat="48.65911" lon="2.42863">
        <ele>56</ele>
        <time>2022-09-28T09:51:41.512Z</time>
      </trkpt>
      <trkpt lat="48.65907" lon="2.4287">
        <ele>56</ele>
        <time>2022-09-28T09:51:46.527Z</time>
      </trkpt>
      <trkpt lat="48.65903" lon="2.42878">
        <ele>58</ele>
        <time>2022-09-28T09:51:51.519Z</time>
      </trkpt>
      <trkpt lat="48.659" lon="2.42887">
        <ele>58</ele>
        <time>2022-09-28T09:51:56.514Z</time>
      </trkpt>
      <trkpt lat="48.65897" lon="2.42893">
        <ele>58</ele>
        <time>2022-09-28T09:52:00.554Z</time>
      </trkpt>
      <trkpt lat="48.65894" lon="2.42897">
        <ele>58</ele>
        <time>2022-09-28T09:52:04.575Z</time>
      </trkpt>
      <trkpt lat="48.6589" lon="2.42904">
        <ele>58</ele>
        <time>2022-09-28T09:52:09.557Z</time>
      </trkpt>
      <trkpt lat="48.65886" lon="2.42914">
        <ele>58</ele>
        <time>2022-09-28T09:52:14.574Z</time>
      </trkpt>
      <trkpt lat="48.65881" lon="2.42922">
        <ele>58</ele>
        <time>2022-09-28T09:52:19.562Z</time>
      </trkpt>
      <trkpt lat="48.65877" lon="2.42929">
        <ele>58</ele>
        <time>2022-09-28T09:52:24.561Z</time>
      </trkpt>
      <trkpt lat="48.65875" lon="2.42934">
        <ele>56</ele>
        <time>2022-09-28T09:52:28.571Z</time>
      </trkpt>
      <trkpt lat="48.65871" lon="2.42942">
        <ele>56</ele>
        <time>2022-09-28T09:52:33.574Z</time>
      </trkpt>
      <trkpt lat="48.65866" lon="2.42949">
        <ele>56</ele>
        <time>2022-09-28T09:52:38.581Z</time>
      </trkpt>
      <trkpt lat="48.65862" lon="2.42956">
        <ele>56</ele>
        <time>2022-09-28T09:52:43.576Z</time>
      </trkpt>
      <trkpt lat="48.65858" lon="2.42964">
        <ele>57</ele>
        <time>2022-09-28T09:52:48.586Z</time>
      </trkpt>
      <trkpt lat="48.65855" lon="2.4297">
        <ele>57</ele>
        <time>2022-09-28T09:52:53.543Z</time>
      </trkpt>
      <trkpt lat="48.65853" lon="2.42974">
        <ele>57</ele>
        <time>2022-09-28T09:52:57.580Z</time>
      </trkpt>
      <trkpt lat="48.65848" lon="2.42979">
        <ele>57</ele>
        <time>2022-09-28T09:53:02.565Z</time>
      </trkpt>
      <trkpt lat="48.65844" lon="2.42985">
        <ele>53</ele>
        <time>2022-09-28T09:53:07.560Z</time>
      </trkpt>
      <trkpt lat="48.65839" lon="2.4299">
        <ele>54</ele>
        <time>2022-09-28T09:53:12.540Z</time>
      </trkpt>
      <trkpt lat="48.65836" lon="2.42996">
        <ele>54</ele>
        <time>2022-09-28T09:53:16.556Z</time>
      </trkpt>
      <trkpt lat="48.65833" lon="2.43002">
        <ele>54</ele>
        <time>2022-09-28T09:53:21.588Z</time>
      </trkpt>
      <trkpt lat="48.65828" lon="2.43009">
        <ele>54</ele>
        <time>2022-09-28T09:53:26.552Z</time>
      </trkpt>
      <trkpt lat="48.65824" lon="2.43014">
        <ele>53</ele>
        <time>2022-09-28T09:53:30.579Z</time>
      </trkpt>
      <trkpt lat="48.65821" lon="2.4302">
        <ele>53</ele>
        <time>2022-09-28T09:53:34.583Z</time>
      </trkpt>
      <trkpt lat="48.65817" lon="2.43024">
        <ele>51</ele>
        <time>2022-09-28T09:53:39.577Z</time>
      </trkpt>
      <trkpt lat="48.65811" lon="2.43032">
        <ele>51</ele>
        <time>2022-09-28T09:53:44.563Z</time>
      </trkpt>
      <trkpt lat="48.65807" lon="2.4304">
        <ele>51</ele>
        <time>2022-09-28T09:53:49.562Z</time>
      </trkpt>
      <trkpt lat="48.65802" lon="2.43046">
        <ele>52</ele>
        <time>2022-09-28T09:53:54.570Z</time>
      </trkpt>
      <trkpt lat="48.65798" lon="2.43053">
        <ele>52</ele>
        <time>2022-09-28T09:53:59.540Z</time>
      </trkpt>
      <trkpt lat="48.65795" lon="2.43059">
        <ele>52</ele>
        <time>2022-09-28T09:54:03.566Z</time>
      </trkpt>
      <trkpt lat="48.65792" lon="2.43065">
        <ele>52</ele>
        <time>2022-09-28T09:54:07.573Z</time>
      </trkpt>
      <trkpt lat="48.65786" lon="2.43069">
        <ele>54</ele>
        <time>2022-09-28T09:54:12.567Z</time>
      </trkpt>
      <trkpt lat="48.65783" lon="2.43075">
        <ele>54</ele>
        <time>2022-09-28T09:54:16.564Z</time>
      </trkpt>
      <trkpt lat="48.65779" lon="2.43081">
        <ele>54</ele>
        <time>2022-09-28T09:54:20.585Z</time>
      </trkpt>
      <trkpt lat="48.65775" lon="2.43088">
        <ele>54</ele>
        <time>2022-09-28T09:54:25.563Z</time>
      </trkpt>
      <trkpt lat="48.65772" lon="2.43094">
        <ele>54</ele>
        <time>2022-09-28T09:54:29.574Z</time>
      </trkpt>
      <trkpt lat="48.65769" lon="2.431">
        <ele>55</ele>
        <time>2022-09-28T09:54:34.579Z</time>
      </trkpt>
      <trkpt lat="48.65765" lon="2.431">
        <ele>55</ele>
        <time>2022-09-28T09:54:39.563Z</time>
      </trkpt>
      <trkpt lat="48.65762" lon="2.43098">
        <ele>52</ele>
        <time>2022-09-28T09:54:44.558Z</time>
      </trkpt>
      <trkpt lat="48.65758" lon="2.43095">
        <ele>51</ele>
        <time>2022-09-28T09:54:49.571Z</time>
      </trkpt>
      <trkpt lat="48.65756" lon="2.43091">
        <ele>51</ele>
        <time>2022-09-28T09:54:54.568Z</time>
      </trkpt>
      <trkpt lat="48.65753" lon="2.43086">
        <ele>51</ele>
        <time>2022-09-28T09:54:59.723Z</time>
      </trkpt>
      <trkpt lat="48.65748" lon="2.43081">
        <ele>51</ele>
        <time>2022-09-28T09:55:04.576Z</time>
      </trkpt>
      <trkpt lat="48.65744" lon="2.43077">
        <ele>51</ele>
        <time>2022-09-28T09:55:09.558Z</time>
      </trkpt>
      <trkpt lat="48.6574" lon="2.43073">
        <ele>51</ele>
        <time>2022-09-28T09:55:14.575Z</time>
      </trkpt>
      <trkpt lat="48.65736" lon="2.4307">
        <ele>51</ele>
        <time>2022-09-28T09:55:19.559Z</time>
      </trkpt>
      <trkpt lat="48.65732" lon="2.43066">
        <ele>47</ele>
        <time>2022-09-28T09:55:24.571Z</time>
      </trkpt>
      <trkpt lat="48.65728" lon="2.43061">
        <ele>47</ele>
        <time>2022-09-28T09:55:29.561Z</time>
      </trkpt>
      <trkpt lat="48.65723" lon="2.43057">
        <ele>47</ele>
        <time>2022-09-28T09:55:34.573Z</time>
      </trkpt>
      <trkpt lat="48.65721" lon="2.43058">
        <ele>47</ele>
        <time>2022-09-28T09:59:01.530Z</time>
      </trkpt>
      <trkpt lat="48.65722" lon="2.4306">
        <ele>47</ele>
        <time>2022-09-28T09:59:06.512Z</time>
      </trkpt>
      <trkpt lat="48.65722" lon="2.4306">
        <ele>47</ele>
        <time>2022-09-28T09:59:10.526Z</time>
      </trkpt>
      <trkpt lat="48.65723" lon="2.4306">
        <ele>47</ele>
        <time>2022-09-28T09:59:15.506Z</time>
      </trkpt>
      <trkpt lat="48.65727" lon="2.43064">
        <ele>47</ele>
        <time>2022-09-28T09:59:19.507Z</time>
      </trkpt>
      <trkpt lat="48.65733" lon="2.43066">
        <ele>47</ele>
        <time>2022-09-28T09:59:23.516Z</time>
      </trkpt>
      <trkpt lat="48.6573" lon="2.4307">
        <ele>49</ele>
        <time>2022-09-28T09:59:28.527Z</time>
      </trkpt>
      <trkpt lat="48.65722" lon="2.43072">
        <ele>49</ele>
        <time>2022-09-28T09:59:33.516Z</time>
      </trkpt>
      <trkpt lat="48.65719" lon="2.43074">
        <ele>49</ele>
        <time>2022-09-28T09:59:37.533Z</time>
      </trkpt>
      <trkpt lat="48.65716" lon="2.4306">
        <ele>47</ele>
        <time>2022-09-28T10:03:56.566Z</time>
      </trkpt>
      <trkpt lat="48.65716" lon="2.4306">
        <ele>47</ele>
        <time>2022-09-28T10:04:00.572Z</time>
      </trkpt>
      <trkpt lat="48.65716" lon="2.4306">
        <ele>47</ele>
        <time>2022-09-28T10:04:05.548Z</time>
      </trkpt>
      <trkpt lat="48.65716" lon="2.4306">
        <ele>47</ele>
        <time>2022-09-28T10:04:09.546Z</time>
      </trkpt>
      <trkpt lat="48.65716" lon="2.43059">
        <ele>47</ele>
        <time>2022-09-28T10:04:13.555Z</time>
      </trkpt>
      <trkpt lat="48.65721" lon="2.43054">
        <ele>47</ele>
        <time>2022-09-28T10:36:59.531Z</time>
      </trkpt>
      <trkpt lat="48.65723" lon="2.43056">
        <ele>47</ele>
        <time>2022-09-28T10:37:04.526Z</time>
      </trkpt>
      <trkpt lat="48.65725" lon="2.43058">
        <ele>47</ele>
        <time>2022-09-28T10:37:08.522Z</time>
      </trkpt>
      <trkpt lat="48.65726" lon="2.43062">
        <ele>47</ele>
        <time>2022-09-28T10:37:13.531Z</time>
      </trkpt>
      <trkpt lat="48.65731" lon="2.43065">
        <ele>47</ele>
        <time>2022-09-28T10:37:18.519Z</time>
      </trkpt>
      <trkpt lat="48.65733" lon="2.4307">
        <ele>49</ele>
        <time>2022-09-28T10:37:22.566Z</time>
      </trkpt>
      <trkpt lat="48.65738" lon="2.43075">
        <ele>51</ele>
        <time>2022-09-28T10:37:27.542Z</time>
      </trkpt>
      <trkpt lat="48.65742" lon="2.4308">
        <ele>51</ele>
        <time>2022-09-28T10:37:31.577Z</time>
      </trkpt>
      <trkpt lat="48.65745" lon="2.43088">
        <ele>51</ele>
        <time>2022-09-28T10:37:36.521Z</time>
      </trkpt>
      <trkpt lat="48.65749" lon="2.43092">
        <ele>51</ele>
        <time>2022-09-28T10:37:41.519Z</time>
      </trkpt>
      <trkpt lat="48.65751" lon="2.43095">
        <ele>51</ele>
        <time>2022-09-28T10:37:46.519Z</time>
      </trkpt>
      <trkpt lat="48.65753" lon="2.43098">
        <ele>52</ele>
        <time>2022-09-28T10:37:50.528Z</time>
      </trkpt>
      <trkpt lat="48.65755" lon="2.43101">
        <ele>52</ele>
        <time>2022-09-28T10:37:55.521Z</time>
      </trkpt>
      <trkpt lat="48.65759" lon="2.43102">
        <ele>52</ele>
        <time>2022-09-28T10:38:00.523Z</time>
      </trkpt>
      <trkpt lat="48.65762" lon="2.43104">
        <ele>52</ele>
        <time>2022-09-28T10:38:04.568Z</time>
      </trkpt>
      <trkpt lat="48.65767" lon="2.43106">
        <ele>55</ele>
        <time>2022-09-28T10:38:09.520Z</time>
      </trkpt>
      <trkpt lat="48.6577" lon="2.43108">
        <ele>55</ele>
        <time>2022-09-28T10:38:13.554Z</time>
      </trkpt>
      <trkpt lat="48.65773" lon="2.43109">
        <ele>55</ele>
        <time>2022-09-28T10:38:18.518Z</time>
      </trkpt>
      <trkpt lat="48.65775" lon="2.4311">
        <ele>55</ele>
        <time>2022-09-28T10:38:22.549Z</time>
      </trkpt>
      <trkpt lat="48.65779" lon="2.43112">
        <ele>55</ele>
        <time>2022-09-28T10:38:27.516Z</time>
      </trkpt>
      <trkpt lat="48.65782" lon="2.43115">
        <ele>55</ele>
        <time>2022-09-28T10:38:31.539Z</time>
      </trkpt>
      <trkpt lat="48.65785" lon="2.43119">
        <ele>55</ele>
        <time>2022-09-28T10:38:35.546Z</time>
      </trkpt>
      <trkpt lat="48.65787" lon="2.43126">
        <ele>56</ele>
        <time>2022-09-28T10:38:40.539Z</time>
      </trkpt>
      <trkpt lat="48.65788" lon="2.43129">
        <ele>56</ele>
        <time>2022-09-28T10:38:44.552Z</time>
      </trkpt>
      <trkpt lat="48.65792" lon="2.43133">
        <ele>56</ele>
        <time>2022-09-28T10:38:49.537Z</time>
      </trkpt>
      <trkpt lat="48.65796" lon="2.43137">
        <ele>56</ele>
        <time>2022-09-28T10:38:54.532Z</time>
      </trkpt>
      <trkpt lat="48.658" lon="2.43139">
        <ele>56</ele>
        <time>2022-09-28T10:38:58.552Z</time>
      </trkpt>
      <trkpt lat="48.65802" lon="2.43145">
        <ele>56</ele>
        <time>2022-09-28T10:39:03.551Z</time>
      </trkpt>
      <trkpt lat="48.65804" lon="2.43152">
        <ele>56</ele>
        <time>2022-09-28T10:39:08.560Z</time>
      </trkpt>
      <trkpt lat="48.65808" lon="2.43156">
        <ele>57</ele>
        <time>2022-09-28T10:39:13.559Z</time>
      </trkpt>
      <trkpt lat="48.65812" lon="2.4316">
        <ele>57</ele>
        <time>2022-09-28T10:39:18.561Z</time>
      </trkpt>
      <trkpt lat="48.65815" lon="2.43163">
        <ele>57</ele>
        <time>2022-09-28T10:39:23.557Z</time>
      </trkpt>
      <trkpt lat="48.65819" lon="2.43166">
        <ele>57</ele>
        <time>2022-09-28T10:39:28.558Z</time>
      </trkpt>
      <trkpt lat="48.6582" lon="2.43167">
        <ele>58</ele>
        <time>2022-09-28T10:39:32.569Z</time>
      </trkpt>
      <trkpt lat="48.6582" lon="2.43171">
        <ele>58</ele>
        <time>2022-09-28T10:39:37.550Z</time>
      </trkpt>
      <trkpt lat="48.6582" lon="2.43174">
        <ele>58</ele>
        <time>2022-09-28T10:39:42.556Z</time>
      </trkpt>
      <trkpt lat="48.65822" lon="2.43177">
        <ele>58</ele>
        <time>2022-09-28T10:39:47.553Z</time>
      </trkpt>
      <trkpt lat="48.65828" lon="2.43182">
        <ele>59</ele>
        <time>2022-09-28T10:39:52.554Z</time>
      </trkpt>
      <trkpt lat="48.6583" lon="2.43186">
        <ele>59</ele>
        <time>2022-09-28T10:39:56.564Z</time>
      </trkpt>
      <trkpt lat="48.6583" lon="2.43193">
        <ele>59</ele>
        <time>2022-09-28T10:40:01.549Z</time>
      </trkpt>
      <trkpt lat="48.65831" lon="2.43198">
        <ele>59</ele>
        <time>2022-09-28T10:40:05.556Z</time>
      </trkpt>
      <trkpt lat="48.65834" lon="2.43203">
        <ele>59</ele>
        <time>2022-09-28T10:40:10.547Z</time>
      </trkpt>
      <trkpt lat="48.65837" lon="2.43207">
        <ele>59</ele>
        <time>2022-09-28T10:40:14.549Z</time>
      </trkpt>
      <trkpt lat="48.65842" lon="2.43212">
        <ele>61</ele>
        <time>2022-09-28T10:40:19.547Z</time>
      </trkpt>
      <trkpt lat="48.65846" lon="2.43217">
        <ele>61</ele>
        <time>2022-09-28T10:40:24.554Z</time>
      </trkpt>
      <trkpt lat="48.65849" lon="2.43221">
        <ele>65</ele>
        <time>2022-09-28T10:40:28.565Z</time>
      </trkpt>
      <trkpt lat="48.65852" lon="2.43228">
        <ele>65</ele>
        <time>2022-09-28T10:40:32.569Z</time>
      </trkpt>
      <trkpt lat="48.65857" lon="2.43235">
        <ele>65</ele>
        <time>2022-09-28T10:40:37.552Z</time>
      </trkpt>
      <trkpt lat="48.6586" lon="2.43239">
        <ele>66</ele>
        <time>2022-09-28T10:40:41.562Z</time>
      </trkpt>
      <trkpt lat="48.65865" lon="2.43243">
        <ele>66</ele>
        <time>2022-09-28T10:40:46.554Z</time>
      </trkpt>
      <trkpt lat="48.6587" lon="2.43251">
        <ele>66</ele>
        <time>2022-09-28T10:40:51.537Z</time>
      </trkpt>
      <trkpt lat="48.65875" lon="2.43255">
        <ele>66</ele>
        <time>2022-09-28T10:40:55.553Z</time>
      </trkpt>
      <trkpt lat="48.65879" lon="2.43257">
        <ele>69</ele>
        <time>2022-09-28T10:40:59.652Z</time>
      </trkpt>
      <trkpt lat="48.65886" lon="2.43261">
        <ele>69</ele>
        <time>2022-09-28T10:41:04.577Z</time>
      </trkpt>
      <trkpt lat="48.65892" lon="2.43267">
        <ele>70</ele>
        <time>2022-09-28T10:41:09.536Z</time>
      </trkpt>
      <trkpt lat="48.65895" lon="2.43273">
        <ele>70</ele>
        <time>2022-09-28T10:41:13.568Z</time>
      </trkpt>
      <trkpt lat="48.65899" lon="2.43282">
        <ele>70</ele>
        <time>2022-09-28T10:41:18.555Z</time>
      </trkpt>
      <trkpt lat="48.65902" lon="2.43286">
        <ele>70</ele>
        <time>2022-09-28T10:41:22.558Z</time>
      </trkpt>
      <trkpt lat="48.65907" lon="2.43291">
        <ele>71</ele>
        <time>2022-09-28T10:41:27.553Z</time>
      </trkpt>
      <trkpt lat="48.65909" lon="2.43296">
        <ele>73</ele>
        <time>2022-09-28T10:41:31.577Z</time>
      </trkpt>
      <trkpt lat="48.65914" lon="2.43302">
        <ele>73</ele>
        <time>2022-09-28T10:41:36.576Z</time>
      </trkpt>
      <trkpt lat="48.65917" lon="2.43308">
        <ele>73</ele>
        <time>2022-09-28T10:41:41.553Z</time>
      </trkpt>
      <trkpt lat="48.6592" lon="2.43314">
        <ele>73</ele>
        <time>2022-09-28T10:41:45.560Z</time>
      </trkpt>
      <trkpt lat="48.65926" lon="2.43319">
        <ele>73</ele>
        <time>2022-09-28T10:41:50.565Z</time>
      </trkpt>
      <trkpt lat="48.65932" lon="2.43326">
        <ele>77</ele>
        <time>2022-09-28T10:41:55.558Z</time>
      </trkpt>
      <trkpt lat="48.65937" lon="2.43329">
        <ele>77</ele>
        <time>2022-09-28T10:41:59.583Z</time>
      </trkpt>
      <trkpt lat="48.65942" lon="2.43335">
        <ele>77</ele>
        <time>2022-09-28T10:42:04.565Z</time>
      </trkpt>
      <trkpt lat="48.65947" lon="2.43342">
        <ele>77</ele>
        <time>2022-09-28T10:42:09.570Z</time>
      </trkpt>
      <trkpt lat="48.65953" lon="2.43349">
        <ele>80</ele>
        <time>2022-09-28T10:42:14.580Z</time>
      </trkpt>
      <trkpt lat="48.65958" lon="2.43354">
        <ele>80</ele>
        <time>2022-09-28T10:42:19.549Z</time>
      </trkpt>
      <trkpt lat="48.65964" lon="2.43362">
        <ele>80</ele>
        <time>2022-09-28T10:42:24.563Z</time>
      </trkpt>
      <trkpt lat="48.65968" lon="2.43368">
        <ele>80</ele>
        <time>2022-09-28T10:42:28.569Z</time>
      </trkpt>
      <trkpt lat="48.65972" lon="2.43375">
        <ele>80</ele>
        <time>2022-09-28T10:42:32.570Z</time>
      </trkpt>
      <trkpt lat="48.65978" lon="2.43381">
        <ele>81</ele>
        <time>2022-09-28T10:42:37.567Z</time>
      </trkpt>
      <trkpt lat="48.65983" lon="2.43387">
        <ele>81</ele>
        <time>2022-09-28T10:42:42.573Z</time>
      </trkpt>
      <trkpt lat="48.65988" lon="2.43394">
        <ele>81</ele>
        <time>2022-09-28T10:42:47.548Z</time>
      </trkpt>
      <trkpt lat="48.65992" lon="2.43399">
        <ele>81</ele>
        <time>2022-09-28T10:42:52.552Z</time>
      </trkpt>
      <trkpt lat="48.65996" lon="2.43404">
        <ele>82</ele>
        <time>2022-09-28T10:42:56.570Z</time>
      </trkpt>
      <trkpt lat="48.66001" lon="2.43411">
        <ele>82</ele>
        <time>2022-09-28T10:43:01.562Z</time>
      </trkpt>
      <trkpt lat="48.66006" lon="2.4342">
        <ele>82</ele>
        <time>2022-09-28T10:43:06.549Z</time>
      </trkpt>
      <trkpt lat="48.6601" lon="2.43426">
        <ele>82</ele>
        <time>2022-09-28T10:43:10.576Z</time>
      </trkpt>
      <trkpt lat="48.66017" lon="2.43432">
        <ele>84</ele>
        <time>2022-09-28T10:43:15.547Z</time>
      </trkpt>
      <trkpt lat="48.66022" lon="2.43439">
        <ele>84</ele>
        <time>2022-09-28T10:43:20.548Z</time>
      </trkpt>
      <trkpt lat="48.66027" lon="2.43445">
        <ele>84</ele>
        <time>2022-09-28T10:43:24.566Z</time>
      </trkpt>
      <trkpt lat="48.66034" lon="2.43451">
        <ele>84</ele>
        <time>2022-09-28T10:43:29.540Z</time>
      </trkpt>
      <trkpt lat="48.66039" lon="2.43458">
        <ele>84</ele>
        <time>2022-09-28T10:43:33.572Z</time>
      </trkpt>
      <trkpt lat="48.66044" lon="2.43463">
        <ele>87</ele>
        <time>2022-09-28T10:43:37.581Z</time>
      </trkpt>
      <trkpt lat="48.6605" lon="2.43471">
        <ele>87</ele>
        <time>2022-09-28T10:43:42.567Z</time>
      </trkpt>
      <trkpt lat="48.66054" lon="2.43477">
        <ele>87</ele>
        <time>2022-09-28T10:43:46.574Z</time>
      </trkpt>
      <trkpt lat="48.66058" lon="2.43485">
        <ele>87</ele>
        <time>2022-09-28T10:43:51.553Z</time>
      </trkpt>
      <trkpt lat="48.66062" lon="2.43492">
        <ele>88</ele>
        <time>2022-09-28T10:43:55.561Z</time>
      </trkpt>
      <trkpt lat="48.66063" lon="2.435">
        <ele>88</ele>
        <time>2022-09-28T10:43:59.578Z</time>
      </trkpt>
      <trkpt lat="48.6607" lon="2.43508">
        <ele>88</ele>
        <time>2022-09-28T10:44:04.564Z</time>
      </trkpt>
      <trkpt lat="48.66075" lon="2.43515">
        <ele>88</ele>
        <time>2022-09-28T10:44:08.560Z</time>
      </trkpt>
      <trkpt lat="48.6608" lon="2.4352">
        <ele>88</ele>
        <time>2022-09-28T10:44:12.569Z</time>
      </trkpt>
      <trkpt lat="48.66085" lon="2.43524">
        <ele>88</ele>
        <time>2022-09-28T10:44:16.589Z</time>
      </trkpt>
      <trkpt lat="48.66092" lon="2.43531">
        <ele>88</ele>
        <time>2022-09-28T10:44:21.564Z</time>
      </trkpt>
      <trkpt lat="48.66097" lon="2.43535">
        <ele>89</ele>
        <time>2022-09-28T10:44:25.564Z</time>
      </trkpt>
      <trkpt lat="48.66102" lon="2.43541">
        <ele>89</ele>
        <time>2022-09-28T10:44:30.571Z</time>
      </trkpt>
      <trkpt lat="48.66106" lon="2.43546">
        <ele>88</ele>
        <time>2022-09-28T10:44:34.585Z</time>
      </trkpt>
      <trkpt lat="48.66111" lon="2.43553">
        <ele>88</ele>
        <time>2022-09-28T10:44:39.567Z</time>
      </trkpt>
      <trkpt lat="48.66115" lon="2.43559">
        <ele>88</ele>
        <time>2022-09-28T10:44:44.573Z</time>
      </trkpt>
      <trkpt lat="48.6612" lon="2.43565">
        <ele>88</ele>
        <time>2022-09-28T10:44:48.589Z</time>
      </trkpt>
      <trkpt lat="48.66126" lon="2.43574">
        <ele>89</ele>
        <time>2022-09-28T10:44:53.548Z</time>
      </trkpt>
      <trkpt lat="48.6613" lon="2.43582">
        <ele>89</ele>
        <time>2022-09-28T10:44:57.566Z</time>
      </trkpt>
      <trkpt lat="48.66135" lon="2.4359">
        <ele>89</ele>
        <time>2022-09-28T10:45:02.578Z</time>
      </trkpt>
      <trkpt lat="48.6614" lon="2.43598">
        <ele>90</ele>
        <time>2022-09-28T10:45:07.561Z</time>
      </trkpt>
      <trkpt lat="48.66145" lon="2.43605">
        <ele>90</ele>
        <time>2022-09-28T10:45:11.572Z</time>
      </trkpt>
      <trkpt lat="48.66149" lon="2.43611">
        <ele>90</ele>
        <time>2022-09-28T10:45:15.579Z</time>
      </trkpt>
      <trkpt lat="48.66153" lon="2.43617">
        <ele>90</ele>
        <time>2022-09-28T10:45:20.565Z</time>
      </trkpt>
      <trkpt lat="48.66158" lon="2.43621">
        <ele>90</ele>
        <time>2022-09-28T10:45:24.579Z</time>
      </trkpt>
      <trkpt lat="48.66164" lon="2.43627">
        <ele>91</ele>
        <time>2022-09-28T10:45:29.562Z</time>
      </trkpt>
      <trkpt lat="48.66169" lon="2.43635">
        <ele>91</ele>
        <time>2022-09-28T10:45:34.560Z</time>
      </trkpt>
      <trkpt lat="48.66177" lon="2.43643">
        <ele>91</ele>
        <time>2022-09-28T10:45:39.538Z</time>
      </trkpt>
      <trkpt lat="48.66182" lon="2.43647">
        <ele>89</ele>
        <time>2022-09-28T10:45:43.555Z</time>
      </trkpt>
      <trkpt lat="48.66187" lon="2.43651">
        <ele>89</ele>
        <time>2022-09-28T10:45:47.555Z</time>
      </trkpt>
      <trkpt lat="48.66192" lon="2.43657">
        <ele>90</ele>
        <time>2022-09-28T10:45:52.556Z</time>
      </trkpt>
      <trkpt lat="48.66195" lon="2.43661">
        <ele>90</ele>
        <time>2022-09-28T10:45:56.582Z</time>
      </trkpt>
      <trkpt lat="48.66194" lon="2.43675">
        <ele>90</ele>
        <time>2022-09-28T10:46:25.560Z</time>
      </trkpt>
      <trkpt lat="48.66192" lon="2.43677">
        <ele>90</ele>
        <time>2022-09-28T10:46:29.565Z</time>
      </trkpt>
      <trkpt lat="48.66193" lon="2.43677">
        <ele>90</ele>
        <time>2022-09-28T10:46:34.567Z</time>
      </trkpt>
      <trkpt lat="48.66193" lon="2.43678">
        <ele>90</ele>
        <time>2022-09-28T10:46:38.576Z</time>
      </trkpt>
      <trkpt lat="48.66194" lon="2.43682">
        <ele>91</ele>
        <time>2022-09-28T10:46:43.560Z</time>
      </trkpt>
      <trkpt lat="48.66198" lon="2.43685">
        <ele>91</ele>
        <time>2022-09-28T10:46:47.563Z</time>
      </trkpt>
      <trkpt lat="48.66201" lon="2.43689">
        <ele>91</ele>
        <time>2022-09-28T10:46:51.569Z</time>
      </trkpt>
      <trkpt lat="48.66205" lon="2.43695">
        <ele>91</ele>
        <time>2022-09-28T10:46:56.559Z</time>
      </trkpt>
      <trkpt lat="48.66208" lon="2.43701">
        <ele>91</ele>
        <time>2022-09-28T10:47:00.573Z</time>
      </trkpt>
      <trkpt lat="48.66212" lon="2.43706">
        <ele>90</ele>
        <time>2022-09-28T10:47:04.578Z</time>
      </trkpt>
      <trkpt lat="48.66215" lon="2.43714">
        <ele>91</ele>
        <time>2022-09-28T10:47:09.556Z</time>
      </trkpt>
      <trkpt lat="48.66218" lon="2.4372">
        <ele>91</ele>
        <time>2022-09-28T10:47:13.574Z</time>
      </trkpt>
      <trkpt lat="48.66221" lon="2.43727">
        <ele>91</ele>
        <time>2022-09-28T10:47:18.556Z</time>
      </trkpt>
      <trkpt lat="48.66223" lon="2.43735">
        <ele>91</ele>
        <time>2022-09-28T10:47:23.558Z</time>
      </trkpt>
      <trkpt lat="48.66225" lon="2.43743">
        <ele>90</ele>
        <time>2022-09-28T10:47:28.580Z</time>
      </trkpt>
      <trkpt lat="48.66226" lon="2.4375">
        <ele>90</ele>
        <time>2022-09-28T10:47:33.566Z</time>
      </trkpt>
      <trkpt lat="48.66227" lon="2.43759">
        <ele>90</ele>
        <time>2022-09-28T10:47:38.561Z</time>
      </trkpt>
      <trkpt lat="48.66226" lon="2.43767">
        <ele>90</ele>
        <time>2022-09-28T10:47:42.575Z</time>
      </trkpt>
      <trkpt lat="48.66227" lon="2.43774">
        <ele>90</ele>
        <time>2022-09-28T10:47:47.560Z</time>
      </trkpt>
      <trkpt lat="48.66227" lon="2.43782">
        <ele>90</ele>
        <time>2022-09-28T10:47:51.573Z</time>
      </trkpt>
      <trkpt lat="48.66226" lon="2.43791">
        <ele>90</ele>
        <time>2022-09-28T10:47:56.557Z</time>
      </trkpt>
      <trkpt lat="48.66226" lon="2.43798">
        <ele>89</ele>
        <time>2022-09-28T10:48:00.561Z</time>
      </trkpt>
      <trkpt lat="48.66226" lon="2.43806">
        <ele>89</ele>
        <time>2022-09-28T10:48:04.577Z</time>
      </trkpt>
      <trkpt lat="48.66226" lon="2.43816">
        <ele>89</ele>
        <time>2022-09-28T10:48:09.571Z</time>
      </trkpt>
      <trkpt lat="48.66224" lon="2.43826">
        <ele>89</ele>
        <time>2022-09-28T10:48:14.546Z</time>
      </trkpt>
      <trkpt lat="48.66223" lon="2.43834">
        <ele>89</ele>
        <time>2022-09-28T10:48:18.550Z</time>
      </trkpt>
      <trkpt lat="48.66222" lon="2.43843">
        <ele>89</ele>
        <time>2022-09-28T10:48:22.557Z</time>
      </trkpt>
      <trkpt lat="48.66223" lon="2.43853">
        <ele>89</ele>
        <time>2022-09-28T10:48:27.558Z</time>
      </trkpt>
      <trkpt lat="48.66223" lon="2.43864">
        <ele>89</ele>
        <time>2022-09-28T10:48:32.547Z</time>
      </trkpt>
      <trkpt lat="48.66222" lon="2.43875">
        <ele>89</ele>
        <time>2022-09-28T10:48:37.538Z</time>
      </trkpt>
      <trkpt lat="48.66222" lon="2.43883">
        <ele>89</ele>
        <time>2022-09-28T10:48:41.556Z</time>
      </trkpt>
      <trkpt lat="48.66222" lon="2.43893">
        <ele>89</ele>
        <time>2022-09-28T10:48:46.549Z</time>
      </trkpt>
      <trkpt lat="48.66221" lon="2.439">
        <ele>89</ele>
        <time>2022-09-28T10:48:50.562Z</time>
      </trkpt>
      <trkpt lat="48.66222" lon="2.43911">
        <ele>89</ele>
        <time>2022-09-28T10:48:55.553Z</time>
      </trkpt>
      <trkpt lat="48.66221" lon="2.43919">
        <ele>89</ele>
        <time>2022-09-28T10:49:00.554Z</time>
      </trkpt>
      <trkpt lat="48.66221" lon="2.43927">
        <ele>89</ele>
        <time>2022-09-28T10:49:05.542Z</time>
      </trkpt>
      <trkpt lat="48.66222" lon="2.43935">
        <ele>89</ele>
        <time>2022-09-28T10:49:09.547Z</time>
      </trkpt>
      <trkpt lat="48.66222" lon="2.43945">
        <ele>89</ele>
        <time>2022-09-28T10:49:14.560Z</time>
      </trkpt>
      <trkpt lat="48.66221" lon="2.43953">
        <ele>89</ele>
        <time>2022-09-28T10:49:19.551Z</time>
      </trkpt>
      <trkpt lat="48.66221" lon="2.43961">
        <ele>88</ele>
        <time>2022-09-28T10:49:23.546Z</time>
      </trkpt>
      <trkpt lat="48.66221" lon="2.43971">
        <ele>88</ele>
        <time>2022-09-28T10:49:28.545Z</time>
      </trkpt>
      <trkpt lat="48.66221" lon="2.43979">
        <ele>88</ele>
        <time>2022-09-28T10:49:32.550Z</time>
      </trkpt>
      <trkpt lat="48.66221" lon="2.4399">
        <ele>87</ele>
        <time>2022-09-28T10:49:37.563Z</time>
      </trkpt>
      <trkpt lat="48.6622" lon="2.44">
        <ele>87</ele>
        <time>2022-09-28T10:49:42.556Z</time>
      </trkpt>
      <trkpt lat="48.6622" lon="2.44011">
        <ele>87</ele>
        <time>2022-09-28T10:49:47.554Z</time>
      </trkpt>
      <trkpt lat="48.66219" lon="2.44018">
        <ele>85</ele>
        <time>2022-09-28T10:49:51.551Z</time>
      </trkpt>
      <trkpt lat="48.66219" lon="2.44028">
        <ele>85</ele>
        <time>2022-09-28T10:49:56.565Z</time>
      </trkpt>
      <trkpt lat="48.66218" lon="2.44038">
        <ele>85</ele>
        <time>2022-09-28T10:50:01.556Z</time>
      </trkpt>
      <trkpt lat="48.66217" lon="2.4405">
        <ele>85</ele>
        <time>2022-09-28T10:50:06.566Z</time>
      </trkpt>
      <trkpt lat="48.66217" lon="2.44061">
        <ele>85</ele>
        <time>2022-09-28T10:50:11.551Z</time>
      </trkpt>
      <trkpt lat="48.66216" lon="2.44069">
        <ele>85</ele>
        <time>2022-09-28T10:50:15.561Z</time>
      </trkpt>
      <trkpt lat="48.66217" lon="2.4408">
        <ele>85</ele>
        <time>2022-09-28T10:50:20.576Z</time>
      </trkpt>
      <trkpt lat="48.66217" lon="2.4409">
        <ele>85</ele>
        <time>2022-09-28T10:50:25.557Z</time>
      </trkpt>
      <trkpt lat="48.66217" lon="2.44097">
        <ele>86</ele>
        <time>2022-09-28T10:50:30.553Z</time>
      </trkpt>
      <trkpt lat="48.66217" lon="2.44108">
        <ele>86</ele>
        <time>2022-09-28T10:50:35.523Z</time>
      </trkpt>
      <trkpt lat="48.66216" lon="2.44117">
        <ele>86</ele>
        <time>2022-09-28T10:50:39.532Z</time>
      </trkpt>
      <trkpt lat="48.66216" lon="2.44124">
        <ele>86</ele>
        <time>2022-09-28T10:50:43.539Z</time>
      </trkpt>
      <trkpt lat="48.66217" lon="2.44133">
        <ele>87</ele>
        <time>2022-09-28T10:50:47.539Z</time>
      </trkpt>
      <trkpt lat="48.66216" lon="2.44145">
        <ele>87</ele>
        <time>2022-09-28T10:50:52.562Z</time>
      </trkpt>
      <trkpt lat="48.66216" lon="2.44155">
        <ele>89</ele>
        <time>2022-09-28T10:50:57.556Z</time>
      </trkpt>
      <trkpt lat="48.66216" lon="2.44164">
        <ele>89</ele>
        <time>2022-09-28T10:51:02.540Z</time>
      </trkpt>
      <trkpt lat="48.66215" lon="2.44172">
        <ele>89</ele>
        <time>2022-09-28T10:51:06.541Z</time>
      </trkpt>
      <trkpt lat="48.66214" lon="2.44182">
        <ele>89</ele>
        <time>2022-09-28T10:51:11.537Z</time>
      </trkpt>
      <trkpt lat="48.66214" lon="2.44193">
        <ele>89</ele>
        <time>2022-09-28T10:51:16.557Z</time>
      </trkpt>
      <trkpt lat="48.66213" lon="2.44204">
        <ele>89</ele>
        <time>2022-09-28T10:51:21.551Z</time>
      </trkpt>
      <trkpt lat="48.66214" lon="2.44212">
        <ele>88</ele>
        <time>2022-09-28T10:51:25.564Z</time>
      </trkpt>
      <trkpt lat="48.66213" lon="2.44219">
        <ele>88</ele>
        <time>2022-09-28T10:51:29.583Z</time>
      </trkpt>
      <trkpt lat="48.66213" lon="2.44227">
        <ele>88</ele>
        <time>2022-09-28T10:51:34.551Z</time>
      </trkpt>
      <trkpt lat="48.66213" lon="2.44235">
        <ele>88</ele>
        <time>2022-09-28T10:51:39.537Z</time>
      </trkpt>
      <trkpt lat="48.66213" lon="2.44245">
        <ele>88</ele>
        <time>2022-09-28T10:51:44.546Z</time>
      </trkpt>
      <trkpt lat="48.66213" lon="2.44253">
        <ele>88</ele>
        <time>2022-09-28T10:51:49.550Z</time>
      </trkpt>
      <trkpt lat="48.66213" lon="2.44262">
        <ele>88</ele>
        <time>2022-09-28T10:51:54.547Z</time>
      </trkpt>
      <trkpt lat="48.66214" lon="2.44269">
        <ele>88</ele>
        <time>2022-09-28T10:51:58.558Z</time>
      </trkpt>
      <trkpt lat="48.66212" lon="2.44278">
        <ele>88</ele>
        <time>2022-09-28T10:52:03.547Z</time>
      </trkpt>
      <trkpt lat="48.66213" lon="2.44287">
        <ele>88</ele>
        <time>2022-09-28T10:52:08.554Z</time>
      </trkpt>
      <trkpt lat="48.66212" lon="2.44296">
        <ele>89</ele>
        <time>2022-09-28T10:52:12.565Z</time>
      </trkpt>
      <trkpt lat="48.66211" lon="2.44306">
        <ele>89</ele>
        <time>2022-09-28T10:52:17.548Z</time>
      </trkpt>
      <trkpt lat="48.66212" lon="2.44313">
        <ele>89</ele>
        <time>2022-09-28T10:52:22.552Z</time>
      </trkpt>
      <trkpt lat="48.66212" lon="2.44318">
        <ele>89</ele>
        <time>2022-09-28T10:52:26.568Z</time>
      </trkpt>
      <trkpt lat="48.66211" lon="2.4433">
        <ele>89</ele>
        <time>2022-09-28T10:52:31.571Z</time>
      </trkpt>
      <trkpt lat="48.66211" lon="2.44343">
        <ele>89</ele>
        <time>2022-09-28T10:52:36.552Z</time>
      </trkpt>
      <trkpt lat="48.6621" lon="2.44352">
        <ele>89</ele>
        <time>2022-09-28T10:52:40.563Z</time>
      </trkpt>
      <trkpt lat="48.66209" lon="2.44364">
        <ele>89</ele>
        <time>2022-09-28T10:52:45.534Z</time>
      </trkpt>
      <trkpt lat="48.66208" lon="2.44372">
        <ele>89</ele>
        <time>2022-09-28T10:52:49.548Z</time>
      </trkpt>
      <trkpt lat="48.66209" lon="2.44379">
        <ele>89</ele>
        <time>2022-09-28T10:52:54.554Z</time>
      </trkpt>
      <trkpt lat="48.66211" lon="2.44387">
        <ele>89</ele>
        <time>2022-09-28T10:52:58.570Z</time>
      </trkpt>
      <trkpt lat="48.66211" lon="2.44395">
        <ele>89</ele>
        <time>2022-09-28T10:53:03.556Z</time>
      </trkpt>
      <trkpt lat="48.66209" lon="2.44404">
        <ele>90</ele>
        <time>2022-09-28T10:53:08.541Z</time>
      </trkpt>
      <trkpt lat="48.6621" lon="2.44412">
        <ele>90</ele>
        <time>2022-09-28T10:53:12.579Z</time>
      </trkpt>
      <trkpt lat="48.66209" lon="2.44422">
        <ele>90</ele>
        <time>2022-09-28T10:53:17.539Z</time>
      </trkpt>
      <trkpt lat="48.6621" lon="2.44427">
        <ele>90</ele>
        <time>2022-09-28T10:53:21.541Z</time>
      </trkpt>
      <trkpt lat="48.66208" lon="2.44436">
        <ele>90</ele>
        <time>2022-09-28T10:53:26.539Z</time>
      </trkpt>
      <trkpt lat="48.66206" lon="2.44444">
        <ele>90</ele>
        <time>2022-09-28T10:53:30.541Z</time>
      </trkpt>
      <trkpt lat="48.66206" lon="2.44453">
        <ele>90</ele>
        <time>2022-09-28T10:53:35.565Z</time>
      </trkpt>
      <trkpt lat="48.66206" lon="2.44462">
        <ele>90</ele>
        <time>2022-09-28T10:53:40.558Z</time>
      </trkpt>
      <trkpt lat="48.66205" lon="2.44469">
        <ele>90</ele>
        <time>2022-09-28T10:53:45.554Z</time>
      </trkpt>
      <trkpt lat="48.66203" lon="2.44477">
        <ele>90</ele>
        <time>2022-09-28T10:53:49.571Z</time>
      </trkpt>
      <trkpt lat="48.66205" lon="2.44488">
        <ele>90</ele>
        <time>2022-09-28T10:53:54.534Z</time>
      </trkpt>
      <trkpt lat="48.66208" lon="2.44498">
        <ele>90</ele>
        <time>2022-09-28T10:53:59.532Z</time>
      </trkpt>
      <trkpt lat="48.66209" lon="2.44499">
        <ele>91</ele>
        <time>2022-09-28T10:54:04.521Z</time>
      </trkpt>
      <trkpt lat="48.66217" lon="2.44503">
        <ele>91</ele>
        <time>2022-09-28T10:54:09.525Z</time>
      </trkpt>
      <trkpt lat="48.66226" lon="2.44499">
        <ele>91</ele>
        <time>2022-09-28T10:54:14.536Z</time>
      </trkpt>
      <trkpt lat="48.66232" lon="2.44501">
        <ele>91</ele>
        <time>2022-09-28T10:54:19.529Z</time>
      </trkpt>
      <trkpt lat="48.66238" lon="2.44505">
        <ele>90</ele>
        <time>2022-09-28T10:54:24.532Z</time>
      </trkpt>
      <trkpt lat="48.66244" lon="2.44511">
        <ele>90</ele>
        <time>2022-09-28T10:54:29.518Z</time>
      </trkpt>
      <trkpt lat="48.66251" lon="2.44512">
        <ele>90</ele>
        <time>2022-09-28T10:54:34.517Z</time>
      </trkpt>
      <trkpt lat="48.66256" lon="2.44511">
        <ele>90</ele>
        <time>2022-09-28T10:54:38.527Z</time>
      </trkpt>
      <trkpt lat="48.66261" lon="2.44512">
        <ele>90</ele>
        <time>2022-09-28T10:54:42.530Z</time>
      </trkpt>
      <trkpt lat="48.66266" lon="2.44512">
        <ele>88</ele>
        <time>2022-09-28T10:54:47.521Z</time>
      </trkpt>
      <trkpt lat="48.6627" lon="2.44513">
        <ele>88</ele>
        <time>2022-09-28T10:54:52.532Z</time>
      </trkpt>
      <trkpt lat="48.66267" lon="2.44515">
        <ele>89</ele>
        <time>2022-09-28T10:54:56.534Z</time>
      </trkpt>
      <trkpt lat="48.66262" lon="2.44514">
        <ele>90</ele>
        <time>2022-09-28T10:55:00.563Z</time>
      </trkpt>
      <trkpt lat="48.66255" lon="2.44514">
        <ele>90</ele>
        <time>2022-09-28T10:55:05.549Z</time>
      </trkpt>
      <trkpt lat="48.6625" lon="2.44514">
        <ele>90</ele>
        <time>2022-09-28T10:55:10.547Z</time>
      </trkpt>
      <trkpt lat="48.66243" lon="2.44513">
        <ele>90</ele>
        <time>2022-09-28T10:55:15.549Z</time>
      </trkpt>
      <trkpt lat="48.66237" lon="2.44512">
        <ele>90</ele>
        <time>2022-09-28T10:55:20.525Z</time>
      </trkpt>
      <trkpt lat="48.66231" lon="2.44511">
        <ele>91</ele>
        <time>2022-09-28T10:55:25.522Z</time>
      </trkpt>
      <trkpt lat="48.66226" lon="2.44513">
        <ele>91</ele>
        <time>2022-09-28T10:55:29.529Z</time>
      </trkpt>
      <trkpt lat="48.66221" lon="2.44514">
        <ele>91</ele>
        <time>2022-09-28T10:55:34.531Z</time>
      </trkpt>
      <trkpt lat="48.66217" lon="2.44515">
        <ele>91</ele>
        <time>2022-09-28T10:55:38.528Z</time>
      </trkpt>
      <trkpt lat="48.66215" lon="2.44515">
        <ele>91</ele>
        <time>2022-09-28T10:55:42.540Z</time>
      </trkpt>
      <trkpt lat="48.66212" lon="2.44518">
        <ele>91</ele>
        <time>2022-09-28T10:55:46.539Z</time>
      </trkpt>
      <trkpt lat="48.6621" lon="2.44521">
        <ele>91</ele>
        <time>2022-09-28T10:55:50.545Z</time>
      </trkpt>
      <trkpt lat="48.66208" lon="2.44528">
        <ele>91</ele>
        <time>2022-09-28T10:55:55.549Z</time>
      </trkpt>
      <trkpt lat="48.6621" lon="2.44539">
        <ele>91</ele>
        <time>2022-09-28T10:56:00.554Z</time>
      </trkpt>
      <trkpt lat="48.66213" lon="2.44536">
        <ele>91</ele>
        <time>2022-09-28T10:58:05.561Z</time>
      </trkpt>
      <trkpt lat="48.66216" lon="2.4454">
        <ele>91</ele>
        <time>2022-09-28T10:58:10.543Z</time>
      </trkpt>
      <trkpt lat="48.66217" lon="2.44545">
        <ele>92</ele>
        <time>2022-09-28T10:58:14.557Z</time>
      </trkpt>
      <trkpt lat="48.66217" lon="2.44547">
        <ele>92</ele>
        <time>2022-09-28T10:58:19.547Z</time>
      </trkpt>
      <trkpt lat="48.66221" lon="2.44551">
        <ele>92</ele>
        <time>2022-09-28T10:58:24.545Z</time>
      </trkpt>
      <trkpt lat="48.66223" lon="2.44555">
        <ele>92</ele>
        <time>2022-09-28T10:58:28.560Z</time>
      </trkpt>
      <trkpt lat="48.66225" lon="2.44562">
        <ele>92</ele>
        <time>2022-09-28T10:58:32.549Z</time>
      </trkpt>
      <trkpt lat="48.66228" lon="2.44568">
        <ele>92</ele>
        <time>2022-09-28T10:58:37.531Z</time>
      </trkpt>
      <trkpt lat="48.66232" lon="2.44571">
        <ele>92</ele>
        <time>2022-09-28T10:58:42.534Z</time>
      </trkpt>
      <trkpt lat="48.66235" lon="2.44579">
        <ele>92</ele>
        <time>2022-09-28T10:58:47.528Z</time>
      </trkpt>
      <trkpt lat="48.66237" lon="2.44584">
        <ele>93</ele>
        <time>2022-09-28T10:58:51.528Z</time>
      </trkpt>
      <trkpt lat="48.66241" lon="2.44588">
        <ele>93</ele>
        <time>2022-09-28T10:58:55.551Z</time>
      </trkpt>
      <trkpt lat="48.66244" lon="2.44592">
        <ele>93</ele>
        <time>2022-09-28T10:58:59.556Z</time>
      </trkpt>
      <trkpt lat="48.66247" lon="2.44599">
        <ele>92</ele>
        <time>2022-09-28T10:59:04.556Z</time>
      </trkpt>
      <trkpt lat="48.66249" lon="2.44605">
        <ele>92</ele>
        <time>2022-09-28T10:59:09.573Z</time>
      </trkpt>
      <trkpt lat="48.66251" lon="2.4461">
        <ele>92</ele>
        <time>2022-09-28T10:59:14.551Z</time>
      </trkpt>
      <trkpt lat="48.66255" lon="2.44615">
        <ele>92</ele>
        <time>2022-09-28T10:59:19.540Z</time>
      </trkpt>
      <trkpt lat="48.66259" lon="2.4462">
        <ele>92</ele>
        <time>2022-09-28T10:59:23.569Z</time>
      </trkpt>
      <trkpt lat="48.66263" lon="2.44628">
        <ele>91</ele>
        <time>2022-09-28T10:59:28.545Z</time>
      </trkpt>
      <trkpt lat="48.66266" lon="2.44632">
        <ele>90</ele>
        <time>2022-09-28T10:59:32.577Z</time>
      </trkpt>
      <trkpt lat="48.66269" lon="2.44639">
        <ele>90</ele>
        <time>2022-09-28T10:59:37.562Z</time>
      </trkpt>
      <trkpt lat="48.66273" lon="2.44642">
        <ele>90</ele>
        <time>2022-09-28T10:59:41.582Z</time>
      </trkpt>
      <trkpt lat="48.66276" lon="2.44649">
        <ele>90</ele>
        <time>2022-09-28T10:59:46.550Z</time>
      </trkpt>
      <trkpt lat="48.66279" lon="2.44654">
        <ele>89</ele>
        <time>2022-09-28T10:59:50.584Z</time>
      </trkpt>
      <trkpt lat="48.66282" lon="2.44662">
        <ele>89</ele>
        <time>2022-09-28T10:59:55.566Z</time>
      </trkpt>
      <trkpt lat="48.66285" lon="2.44668">
        <ele>89</ele>
        <time>2022-09-28T11:00:00.547Z</time>
      </trkpt>
      <trkpt lat="48.66289" lon="2.44672">
        <ele>89</ele>
        <time>2022-09-28T11:00:04.571Z</time>
      </trkpt>
      <trkpt lat="48.66293" lon="2.44681">
        <ele>88</ele>
        <time>2022-09-28T11:00:09.563Z</time>
      </trkpt>
      <trkpt lat="48.66298" lon="2.44689">
        <ele>88</ele>
        <time>2022-09-28T11:00:14.544Z</time>
      </trkpt>
      <trkpt lat="48.66304" lon="2.44695">
        <ele>88</ele>
        <time>2022-09-28T11:00:19.591Z</time>
      </trkpt>
      <trkpt lat="48.66309" lon="2.44703">
        <ele>88</ele>
        <time>2022-09-28T11:00:24.567Z</time>
      </trkpt>
      <trkpt lat="48.66312" lon="2.44709">
        <ele>90</ele>
        <time>2022-09-28T11:00:28.580Z</time>
      </trkpt>
      <trkpt lat="48.66315" lon="2.44717">
        <ele>90</ele>
        <time>2022-09-28T11:00:33.581Z</time>
      </trkpt>
      <trkpt lat="48.66319" lon="2.44722">
        <ele>90</ele>
        <time>2022-09-28T11:00:38.568Z</time>
      </trkpt>
      <trkpt lat="48.66323" lon="2.44729">
        <ele>89</ele>
        <time>2022-09-28T11:00:43.532Z</time>
      </trkpt>
      <trkpt lat="48.66326" lon="2.44733">
        <ele>89</ele>
        <time>2022-09-28T11:00:47.541Z</time>
      </trkpt>
      <trkpt lat="48.66329" lon="2.44739">
        <ele>89</ele>
        <time>2022-09-28T11:00:51.563Z</time>
      </trkpt>
      <trkpt lat="48.66331" lon="2.44746">
        <ele>89</ele>
        <time>2022-09-28T11:00:56.558Z</time>
      </trkpt>
      <trkpt lat="48.66334" lon="2.44756">
        <ele>89</ele>
        <time>2022-09-28T11:01:01.542Z</time>
      </trkpt>
      <trkpt lat="48.66338" lon="2.44761">
        <ele>89</ele>
        <time>2022-09-28T11:01:05.555Z</time>
      </trkpt>
      <trkpt lat="48.66341" lon="2.44772">
        <ele>90</ele>
        <time>2022-09-28T11:01:10.539Z</time>
      </trkpt>
      <trkpt lat="48.66345" lon="2.44784">
        <ele>90</ele>
        <time>2022-09-28T11:01:15.528Z</time>
      </trkpt>
      <trkpt lat="48.6635" lon="2.44791">
        <ele>90</ele>
        <time>2022-09-28T11:01:19.541Z</time>
      </trkpt>
      <trkpt lat="48.66354" lon="2.44797">
        <ele>91</ele>
        <time>2022-09-28T11:01:24.544Z</time>
      </trkpt>
      <trkpt lat="48.66356" lon="2.44802">
        <ele>91</ele>
        <time>2022-09-28T11:01:29.544Z</time>
      </trkpt>
      <trkpt lat="48.66359" lon="2.44811">
        <ele>91</ele>
        <time>2022-09-28T11:01:34.558Z</time>
      </trkpt>
      <trkpt lat="48.66363" lon="2.44819">
        <ele>91</ele>
        <time>2022-09-28T11:01:39.552Z</time>
      </trkpt>
      <trkpt lat="48.66366" lon="2.44824">
        <ele>91</ele>
        <time>2022-09-28T11:01:43.560Z</time>
      </trkpt>
      <trkpt lat="48.6637" lon="2.44829">
        <ele>91</ele>
        <time>2022-09-28T11:01:48.555Z</time>
      </trkpt>
      <trkpt lat="48.66374" lon="2.44836">
        <ele>91</ele>
        <time>2022-09-28T11:01:53.560Z</time>
      </trkpt>
      <trkpt lat="48.66379" lon="2.44843">
        <ele>89</ele>
        <time>2022-09-28T11:01:58.544Z</time>
      </trkpt>
      <trkpt lat="48.66383" lon="2.44851">
        <ele>90</ele>
        <time>2022-09-28T11:02:02.548Z</time>
      </trkpt>
      <trkpt lat="48.66386" lon="2.44856">
        <ele>90</ele>
        <time>2022-09-28T11:02:07.559Z</time>
      </trkpt>
      <trkpt lat="48.6639" lon="2.44862">
        <ele>90</ele>
        <time>2022-09-28T11:02:11.583Z</time>
      </trkpt>
      <trkpt lat="48.66395" lon="2.44867">
        <ele>90</ele>
        <time>2022-09-28T11:02:16.554Z</time>
      </trkpt>
      <trkpt lat="48.664" lon="2.44873">
        <ele>90</ele>
        <time>2022-09-28T11:02:21.525Z</time>
      </trkpt>
      <trkpt lat="48.66404" lon="2.44879">
        <ele>90</ele>
        <time>2022-09-28T11:02:25.538Z</time>
      </trkpt>
      <trkpt lat="48.66407" lon="2.44886">
        <ele>90</ele>
        <time>2022-09-28T11:02:30.540Z</time>
      </trkpt>
      <trkpt lat="48.66411" lon="2.44893">
        <ele>90</ele>
        <time>2022-09-28T11:02:35.540Z</time>
      </trkpt>
      <trkpt lat="48.66414" lon="2.44901">
        <ele>90</ele>
        <time>2022-09-28T11:02:40.535Z</time>
      </trkpt>
      <trkpt lat="48.66419" lon="2.4491">
        <ele>90</ele>
        <time>2022-09-28T11:02:45.526Z</time>
      </trkpt>
      <trkpt lat="48.66421" lon="2.44916">
        <ele>90</ele>
        <time>2022-09-28T11:02:49.536Z</time>
      </trkpt>
      <trkpt lat="48.66425" lon="2.44922">
        <ele>90</ele>
        <time>2022-09-28T11:02:54.524Z</time>
      </trkpt>
      <trkpt lat="48.66429" lon="2.4493">
        <ele>90</ele>
        <time>2022-09-28T11:02:58.538Z</time>
      </trkpt>
      <trkpt lat="48.66433" lon="2.4494">
        <ele>89</ele>
        <time>2022-09-28T11:03:02.542Z</time>
      </trkpt>
      <trkpt lat="48.66436" lon="2.44947">
        <ele>89</ele>
        <time>2022-09-28T11:03:07.532Z</time>
      </trkpt>
      <trkpt lat="48.6644" lon="2.44957">
        <ele>89</ele>
        <time>2022-09-28T11:03:12.540Z</time>
      </trkpt>
      <trkpt lat="48.66443" lon="2.44962">
        <ele>90</ele>
        <time>2022-09-28T11:03:16.555Z</time>
      </trkpt>
      <trkpt lat="48.66446" lon="2.44965">
        <ele>90</ele>
        <time>2022-09-28T11:03:21.542Z</time>
      </trkpt>
      <trkpt lat="48.6645" lon="2.44966">
        <ele>90</ele>
        <time>2022-09-28T11:03:26.530Z</time>
      </trkpt>
      <trkpt lat="48.66454" lon="2.44966">
        <ele>90</ele>
        <time>2022-09-28T11:03:30.541Z</time>
      </trkpt>
      <trkpt lat="48.6646" lon="2.4496">
        <ele>91</ele>
        <time>2022-09-28T11:03:35.536Z</time>
      </trkpt>
      <trkpt lat="48.66463" lon="2.44955">
        <ele>90</ele>
        <time>2022-09-28T11:03:40.543Z</time>
      </trkpt>
      <trkpt lat="48.66467" lon="2.4495">
        <ele>90</ele>
        <time>2022-09-28T11:03:44.546Z</time>
      </trkpt>
      <trkpt lat="48.66473" lon="2.44944">
        <ele>90</ele>
        <time>2022-09-28T11:03:49.550Z</time>
      </trkpt>
      <trkpt lat="48.66478" lon="2.44939">
        <ele>90</ele>
        <time>2022-09-28T11:03:54.547Z</time>
      </trkpt>
      <trkpt lat="48.66483" lon="2.44935">
        <ele>90</ele>
        <time>2022-09-28T11:03:59.564Z</time>
      </trkpt>
      <trkpt lat="48.66488" lon="2.44928">
        <ele>88</ele>
        <time>2022-09-28T11:04:04.542Z</time>
      </trkpt>
      <trkpt lat="48.66491" lon="2.44923">
        <ele>88</ele>
        <time>2022-09-28T11:04:08.576Z</time>
      </trkpt>
      <trkpt lat="48.66496" lon="2.44918">
        <ele>88</ele>
        <time>2022-09-28T11:04:13.521Z</time>
      </trkpt>
      <trkpt lat="48.665" lon="2.44913">
        <ele>88</ele>
        <time>2022-09-28T11:04:17.530Z</time>
      </trkpt>
      <trkpt lat="48.66505" lon="2.44908">
        <ele>88</ele>
        <time>2022-09-28T11:04:21.544Z</time>
      </trkpt>
      <trkpt lat="48.66509" lon="2.44903">
        <ele>88</ele>
        <time>2022-09-28T11:04:26.548Z</time>
      </trkpt>
      <trkpt lat="48.66513" lon="2.44898">
        <ele>87</ele>
        <time>2022-09-28T11:04:31.537Z</time>
      </trkpt>
      <trkpt lat="48.66515" lon="2.44895">
        <ele>87</ele>
        <time>2022-09-28T11:04:35.544Z</time>
      </trkpt>
      <trkpt lat="48.66519" lon="2.4489">
        <ele>87</ele>
        <time>2022-09-28T11:04:40.553Z</time>
      </trkpt>
      <trkpt lat="48.66524" lon="2.44885">
        <ele>87</ele>
        <time>2022-09-28T11:04:45.552Z</time>
      </trkpt>
      <trkpt lat="48.66529" lon="2.4488">
        <ele>87</ele>
        <time>2022-09-28T11:04:50.562Z</time>
      </trkpt>
      <trkpt lat="48.66533" lon="2.44876">
        <ele>87</ele>
        <time>2022-09-28T11:04:55.534Z</time>
      </trkpt>
      <trkpt lat="48.66537" lon="2.44872">
        <ele>87</ele>
        <time>2022-09-28T11:04:59.547Z</time>
      </trkpt>
      <trkpt lat="48.6654" lon="2.44866">
        <ele>87</ele>
        <time>2022-09-28T11:05:04.552Z</time>
      </trkpt>
      <trkpt lat="48.66545" lon="2.44861">
        <ele>88</ele>
        <time>2022-09-28T11:05:09.563Z</time>
      </trkpt>
      <trkpt lat="48.66551" lon="2.44855">
        <ele>88</ele>
        <time>2022-09-28T11:05:14.557Z</time>
      </trkpt>
      <trkpt lat="48.66556" lon="2.44849">
        <ele>88</ele>
        <time>2022-09-28T11:05:19.542Z</time>
      </trkpt>
      <trkpt lat="48.66562" lon="2.44844">
        <ele>88</ele>
        <time>2022-09-28T11:05:24.556Z</time>
      </trkpt>
      <trkpt lat="48.66568" lon="2.44839">
        <ele>88</ele>
        <time>2022-09-28T11:05:29.557Z</time>
      </trkpt>
      <trkpt lat="48.66574" lon="2.44832">
        <ele>89</ele>
        <time>2022-09-28T11:05:34.569Z</time>
      </trkpt>
      <trkpt lat="48.66579" lon="2.44827">
        <ele>89</ele>
        <time>2022-09-28T11:05:39.547Z</time>
      </trkpt>
      <trkpt lat="48.66584" lon="2.44821">
        <ele>89</ele>
        <time>2022-09-28T11:05:44.534Z</time>
      </trkpt>
      <trkpt lat="48.66588" lon="2.44817">
        <ele>89</ele>
        <time>2022-09-28T11:05:48.557Z</time>
      </trkpt>
      <trkpt lat="48.66594" lon="2.44808">
        <ele>89</ele>
        <time>2022-09-28T11:05:53.544Z</time>
      </trkpt>
      <trkpt lat="48.66599" lon="2.44802">
        <ele>91</ele>
        <time>2022-09-28T11:05:58.556Z</time>
      </trkpt>
      <trkpt lat="48.66602" lon="2.44797">
        <ele>91</ele>
        <time>2022-09-28T11:06:02.559Z</time>
      </trkpt>
      <trkpt lat="48.66607" lon="2.44789">
        <ele>91</ele>
        <time>2022-09-28T11:06:07.552Z</time>
      </trkpt>
      <trkpt lat="48.66612" lon="2.44781">
        <ele>91</ele>
        <time>2022-09-28T11:06:12.552Z</time>
      </trkpt>
      <trkpt lat="48.66617" lon="2.44776">
        <ele>91</ele>
        <time>2022-09-28T11:06:17.549Z</time>
      </trkpt>
      <trkpt lat="48.66621" lon="2.44771">
        <ele>91</ele>
        <time>2022-09-28T11:06:21.557Z</time>
      </trkpt>
      <trkpt lat="48.66626" lon="2.44766">
        <ele>93</ele>
        <time>2022-09-28T11:06:26.561Z</time>
      </trkpt>
      <trkpt lat="48.6663" lon="2.44759">
        <ele>92</ele>
        <time>2022-09-28T11:06:31.541Z</time>
      </trkpt>
      <trkpt lat="48.66633" lon="2.44756">
        <ele>92</ele>
        <time>2022-09-28T11:06:35.729Z</time>
      </trkpt>
      <trkpt lat="48.66638" lon="2.44749">
        <ele>92</ele>
        <time>2022-09-28T11:06:40.565Z</time>
      </trkpt>
      <trkpt lat="48.66644" lon="2.44743">
        <ele>92</ele>
        <time>2022-09-28T11:06:45.553Z</time>
      </trkpt>
      <trkpt lat="48.66649" lon="2.4474">
        <ele>92</ele>
        <time>2022-09-28T11:06:49.591Z</time>
      </trkpt>
      <trkpt lat="48.66652" lon="2.44735">
        <ele>91</ele>
        <time>2022-09-28T11:06:54.566Z</time>
      </trkpt>
      <trkpt lat="48.66657" lon="2.44728">
        <ele>91</ele>
        <time>2022-09-28T11:06:59.559Z</time>
      </trkpt>
      <trkpt lat="48.66661" lon="2.44722">
        <ele>91</ele>
        <time>2022-09-28T11:07:04.530Z</time>
      </trkpt>
      <trkpt lat="48.66665" lon="2.44717">
        <ele>91</ele>
        <time>2022-09-28T11:07:08.544Z</time>
      </trkpt>
      <trkpt lat="48.66669" lon="2.44713">
        <ele>91</ele>
        <time>2022-09-28T11:07:13.552Z</time>
      </trkpt>
      <trkpt lat="48.66672" lon="2.44709">
        <ele>91</ele>
        <time>2022-09-28T11:07:17.568Z</time>
      </trkpt>
      <trkpt lat="48.66678" lon="2.44705">
        <ele>90</ele>
        <time>2022-09-28T11:07:22.551Z</time>
      </trkpt>
      <trkpt lat="48.66682" lon="2.447">
        <ele>91</ele>
        <time>2022-09-28T11:07:26.589Z</time>
      </trkpt>
      <trkpt lat="48.66688" lon="2.44693">
        <ele>91</ele>
        <time>2022-09-28T11:07:31.523Z</time>
      </trkpt>
      <trkpt lat="48.66692" lon="2.44685">
        <ele>91</ele>
        <time>2022-09-28T11:07:36.520Z</time>
      </trkpt>
      <trkpt lat="48.66705" lon="2.44677">
        <ele>91</ele>
        <time>2022-09-28T11:07:41.522Z</time>
      </trkpt>
      <trkpt lat="48.66708" lon="2.44668">
        <ele>91</ele>
        <time>2022-09-28T11:07:46.534Z</time>
      </trkpt>
      <trkpt lat="48.66713" lon="2.44662">
        <ele>92</ele>
        <time>2022-09-28T11:07:51.532Z</time>
      </trkpt>
      <trkpt lat="48.66716" lon="2.4466">
        <ele>92</ele>
        <time>2022-09-28T11:07:55.556Z</time>
      </trkpt>
      <trkpt lat="48.66721" lon="2.44654">
        <ele>92</ele>
        <time>2022-09-28T11:08:00.524Z</time>
      </trkpt>
      <trkpt lat="48.66726" lon="2.4465">
        <ele>92</ele>
        <time>2022-09-28T11:08:04.530Z</time>
      </trkpt>
      <trkpt lat="48.66731" lon="2.44645">
        <ele>92</ele>
        <time>2022-09-28T11:08:09.525Z</time>
      </trkpt>
      <trkpt lat="48.66734" lon="2.44641">
        <ele>92</ele>
        <time>2022-09-28T11:08:13.530Z</time>
      </trkpt>
      <trkpt lat="48.66739" lon="2.44635">
        <ele>91</ele>
        <time>2022-09-28T11:08:18.528Z</time>
      </trkpt>
      <trkpt lat="48.66744" lon="2.44631">
        <ele>91</ele>
        <time>2022-09-28T11:08:22.574Z</time>
      </trkpt>
      <trkpt lat="48.66747" lon="2.44626">
        <ele>91</ele>
        <time>2022-09-28T11:08:27.519Z</time>
      </trkpt>
      <trkpt lat="48.66753" lon="2.44621">
        <ele>92</ele>
        <time>2022-09-28T11:08:32.527Z</time>
      </trkpt>
      <trkpt lat="48.66757" lon="2.44616">
        <ele>92</ele>
        <time>2022-09-28T11:08:36.532Z</time>
      </trkpt>
      <trkpt lat="48.66763" lon="2.44608">
        <ele>92</ele>
        <time>2022-09-28T11:08:41.541Z</time>
      </trkpt>
      <trkpt lat="48.66768" lon="2.44602">
        <ele>91</ele>
        <time>2022-09-28T11:08:46.536Z</time>
      </trkpt>
      <trkpt lat="48.66771" lon="2.44597">
        <ele>91</ele>
        <time>2022-09-28T11:08:50.547Z</time>
      </trkpt>
      <trkpt lat="48.66774" lon="2.44593">
        <ele>93</ele>
        <time>2022-09-28T11:08:54.552Z</time>
      </trkpt>
      <trkpt lat="48.66778" lon="2.44587">
        <ele>93</ele>
        <time>2022-09-28T11:08:59.558Z</time>
      </trkpt>
      <trkpt lat="48.66782" lon="2.44583">
        <ele>93</ele>
        <time>2022-09-28T11:09:04.550Z</time>
      </trkpt>
      <trkpt lat="48.66785" lon="2.44579">
        <ele>93</ele>
        <time>2022-09-28T11:09:08.558Z</time>
      </trkpt>
      <trkpt lat="48.6679" lon="2.44574">
        <ele>93</ele>
        <time>2022-09-28T11:09:13.555Z</time>
      </trkpt>
      <trkpt lat="48.66797" lon="2.44568">
        <ele>92</ele>
        <time>2022-09-28T11:09:18.534Z</time>
      </trkpt>
      <trkpt lat="48.66802" lon="2.44564">
        <ele>92</ele>
        <time>2022-09-28T11:09:22.569Z</time>
      </trkpt>
      <trkpt lat="48.66805" lon="2.44558">
        <ele>92</ele>
        <time>2022-09-28T11:09:27.550Z</time>
      </trkpt>
      <trkpt lat="48.66805" lon="2.44554">
        <ele>92</ele>
        <time>2022-09-28T11:09:31.584Z</time>
      </trkpt>
      <trkpt lat="48.66808" lon="2.44551">
        <ele>92</ele>
        <time>2022-09-28T11:09:36.562Z</time>
      </trkpt>
      <trkpt lat="48.66811" lon="2.44549">
        <ele>92</ele>
        <time>2022-09-28T11:09:40.578Z</time>
      </trkpt>
      <trkpt lat="48.66814" lon="2.44544">
        <ele>92</ele>
        <time>2022-09-28T11:09:45.565Z</time>
      </trkpt>
      <trkpt lat="48.66817" lon="2.44541">
        <ele>92</ele>
        <time>2022-09-28T11:09:50.580Z</time>
      </trkpt>
      <trkpt lat="48.66822" lon="2.44537">
        <ele>91</ele>
        <time>2022-09-28T11:09:55.567Z</time>
      </trkpt>
      <trkpt lat="48.66827" lon="2.44532">
        <ele>91</ele>
        <time>2022-09-28T11:10:00.533Z</time>
      </trkpt>
      <trkpt lat="48.66833" lon="2.44525">
        <ele>91</ele>
        <time>2022-09-28T11:10:05.574Z</time>
      </trkpt>
      <trkpt lat="48.66837" lon="2.44519">
        <ele>91</ele>
        <time>2022-09-28T11:10:10.562Z</time>
      </trkpt>
      <trkpt lat="48.6684" lon="2.44516">
        <ele>91</ele>
        <time>2022-09-28T11:10:15.584Z</time>
      </trkpt>
      <trkpt lat="48.66844" lon="2.44511">
        <ele>91</ele>
        <time>2022-09-28T11:10:20.567Z</time>
      </trkpt>
      <trkpt lat="48.66849" lon="2.44508">
        <ele>92</ele>
        <time>2022-09-28T11:10:25.526Z</time>
      </trkpt>
      <trkpt lat="48.66852" lon="2.44504">
        <ele>92</ele>
        <time>2022-09-28T11:10:30.524Z</time>
      </trkpt>
      <trkpt lat="48.66853" lon="2.445">
        <ele>92</ele>
        <time>2022-09-28T11:10:34.545Z</time>
      </trkpt>
      <trkpt lat="48.66857" lon="2.44504">
        <ele>92</ele>
        <time>2022-09-28T11:12:10.538Z</time>
      </trkpt>
      <trkpt lat="48.6686" lon="2.44502">
        <ele>92</ele>
        <time>2022-09-28T11:12:15.518Z</time>
      </trkpt>
      <trkpt lat="48.66862" lon="2.44502">
        <ele>92</ele>
        <time>2022-09-28T11:12:19.525Z</time>
      </trkpt>
      <trkpt lat="48.66866" lon="2.44502">
        <ele>92</ele>
        <time>2022-09-28T11:12:24.532Z</time>
      </trkpt>
      <trkpt lat="48.66869" lon="2.445">
        <ele>92</ele>
        <time>2022-09-28T11:12:28.535Z</time>
      </trkpt>
      <trkpt lat="48.66872" lon="2.44496">
        <ele>92</ele>
        <time>2022-09-28T11:12:33.528Z</time>
      </trkpt>
      <trkpt lat="48.66875" lon="2.44492">
        <ele>93</ele>
        <time>2022-09-28T11:12:38.533Z</time>
      </trkpt>
      <trkpt lat="48.6688" lon="2.44494">
        <ele>93</ele>
        <time>2022-09-28T11:12:43.530Z</time>
      </trkpt>
      <trkpt lat="48.66882" lon="2.44494">
        <ele>93</ele>
        <time>2022-09-28T11:12:47.534Z</time>
      </trkpt>
      <trkpt lat="48.66886" lon="2.44496">
        <ele>93</ele>
        <time>2022-09-28T11:12:52.535Z</time>
      </trkpt>
      <trkpt lat="48.66893" lon="2.44493">
        <ele>93</ele>
        <time>2022-09-28T11:12:57.533Z</time>
      </trkpt>
      <trkpt lat="48.669" lon="2.44493">
        <ele>93</ele>
        <time>2022-09-28T11:13:01.578Z</time>
      </trkpt>
      <trkpt lat="48.66906" lon="2.44491">
        <ele>93</ele>
        <time>2022-09-28T11:13:06.557Z</time>
      </trkpt>
      <trkpt lat="48.66912" lon="2.44491">
        <ele>93</ele>
        <time>2022-09-28T11:13:11.558Z</time>
      </trkpt>
      <trkpt lat="48.66919" lon="2.44493">
        <ele>93</ele>
        <time>2022-09-28T11:13:16.556Z</time>
      </trkpt>
      <trkpt lat="48.66924" lon="2.44492">
        <ele>93</ele>
        <time>2022-09-28T11:13:20.570Z</time>
      </trkpt>
      <trkpt lat="48.6693" lon="2.44493">
        <ele>93</ele>
        <time>2022-09-28T11:13:25.537Z</time>
      </trkpt>
      <trkpt lat="48.66934" lon="2.44494">
        <ele>93</ele>
        <time>2022-09-28T11:13:29.556Z</time>
      </trkpt>
      <trkpt lat="48.66941" lon="2.44493">
        <ele>93</ele>
        <time>2022-09-28T11:13:34.526Z</time>
      </trkpt>
      <trkpt lat="48.66946" lon="2.44493">
        <ele>93</ele>
        <time>2022-09-28T11:13:39.524Z</time>
      </trkpt>
      <trkpt lat="48.66952" lon="2.44493">
        <ele>93</ele>
        <time>2022-09-28T11:13:44.534Z</time>
      </trkpt>
      <trkpt lat="48.66957" lon="2.44492">
        <ele>93</ele>
        <time>2022-09-28T11:13:49.528Z</time>
      </trkpt>
      <trkpt lat="48.66961" lon="2.44493">
        <ele>94</ele>
        <time>2022-09-28T11:13:53.573Z</time>
      </trkpt>
      <trkpt lat="48.66967" lon="2.44493">
        <ele>94</ele>
        <time>2022-09-28T11:13:58.561Z</time>
      </trkpt>
      <trkpt lat="48.66972" lon="2.44492">
        <ele>94</ele>
        <time>2022-09-28T11:14:03.544Z</time>
      </trkpt>
      <trkpt lat="48.66974" lon="2.44491">
        <ele>94</ele>
        <time>2022-09-28T11:14:07.566Z</time>
      </trkpt>
      <trkpt lat="48.66978" lon="2.44491">
        <ele>94</ele>
        <time>2022-09-28T11:14:12.584Z</time>
      </trkpt>
      <trkpt lat="48.66983" lon="2.44491">
        <ele>94</ele>
        <time>2022-09-28T11:14:17.577Z</time>
      </trkpt>
      <trkpt lat="48.66989" lon="2.44492">
        <ele>95</ele>
        <time>2022-09-28T11:14:21.579Z</time>
      </trkpt>
      <trkpt lat="48.66993" lon="2.44492">
        <ele>95</ele>
        <time>2022-09-28T11:14:26.578Z</time>
      </trkpt>
      <trkpt lat="48.66997" lon="2.44492">
        <ele>95</ele>
        <time>2022-09-28T11:14:31.578Z</time>
      </trkpt>
      <trkpt lat="48.67002" lon="2.44491">
        <ele>95</ele>
        <time>2022-09-28T11:14:36.585Z</time>
      </trkpt>
      <trkpt lat="48.6701" lon="2.4449">
        <ele>95</ele>
        <time>2022-09-28T11:14:41.568Z</time>
      </trkpt>
      <trkpt lat="48.67014" lon="2.44489">
        <ele>93</ele>
        <time>2022-09-28T11:14:46.556Z</time>
      </trkpt>
      <trkpt lat="48.67018" lon="2.4449">
        <ele>93</ele>
        <time>2022-09-28T11:14:51.552Z</time>
      </trkpt>
      <trkpt lat="48.67021" lon="2.44489">
        <ele>93</ele>
        <time>2022-09-28T11:14:56.583Z</time>
      </trkpt>
      <trkpt lat="48.67025" lon="2.44488">
        <ele>93</ele>
        <time>2022-09-28T11:15:01.564Z</time>
      </trkpt>
      <trkpt lat="48.67031" lon="2.44486">
        <ele>93</ele>
        <time>2022-09-28T11:15:05.577Z</time>
      </trkpt>
      <trkpt lat="48.67037" lon="2.44485">
        <ele>93</ele>
        <time>2022-09-28T11:15:10.552Z</time>
      </trkpt>
      <trkpt lat="48.6704" lon="2.44486">
        <ele>93</ele>
        <time>2022-09-28T11:15:14.563Z</time>
      </trkpt>
      <trkpt lat="48.67045" lon="2.44486">
        <ele>89</ele>
        <time>2022-09-28T11:15:19.563Z</time>
      </trkpt>
      <trkpt lat="48.67049" lon="2.44486">
        <ele>90</ele>
        <time>2022-09-28T11:15:23.583Z</time>
      </trkpt>
      <trkpt lat="48.67054" lon="2.44487">
        <ele>89</ele>
        <time>2022-09-28T11:15:28.564Z</time>
      </trkpt>
      <trkpt lat="48.67059" lon="2.44488">
        <ele>89</ele>
        <time>2022-09-28T11:15:33.550Z</time>
      </trkpt>
      <trkpt lat="48.67067" lon="2.44485">
        <ele>90</ele>
        <time>2022-09-28T11:15:38.560Z</time>
      </trkpt>
      <trkpt lat="48.67074" lon="2.44485">
        <ele>87</ele>
        <time>2022-09-28T11:15:43.559Z</time>
      </trkpt>
      <trkpt lat="48.67079" lon="2.44484">
        <ele>87</ele>
        <time>2022-09-28T11:15:48.554Z</time>
      </trkpt>
      <trkpt lat="48.67084" lon="2.44483">
        <ele>87</ele>
        <time>2022-09-28T11:15:52.568Z</time>
      </trkpt>
      <trkpt lat="48.67088" lon="2.44483">
        <ele>87</ele>
        <time>2022-09-28T11:15:57.553Z</time>
      </trkpt>
      <trkpt lat="48.67094" lon="2.44484">
        <ele>87</ele>
        <time>2022-09-28T11:16:02.566Z</time>
      </trkpt>
      <trkpt lat="48.67101" lon="2.44483">
        <ele>88</ele>
        <time>2022-09-28T11:16:07.551Z</time>
      </trkpt>
      <trkpt lat="48.67106" lon="2.44484">
        <ele>88</ele>
        <time>2022-09-28T11:16:12.551Z</time>
      </trkpt>
      <trkpt lat="48.67112" lon="2.44486">
        <ele>88</ele>
        <time>2022-09-28T11:16:17.541Z</time>
      </trkpt>
      <trkpt lat="48.67119" lon="2.44482">
        <ele>88</ele>
        <time>2022-09-28T11:16:22.546Z</time>
      </trkpt>
      <trkpt lat="48.67124" lon="2.44484">
        <ele>88</ele>
        <time>2022-09-28T11:16:27.548Z</time>
      </trkpt>
      <trkpt lat="48.6713" lon="2.44483">
        <ele>90</ele>
        <time>2022-09-28T11:16:32.548Z</time>
      </trkpt>
      <trkpt lat="48.67133" lon="2.44483">
        <ele>90</ele>
        <time>2022-09-28T11:16:37.577Z</time>
      </trkpt>
      <trkpt lat="48.6714" lon="2.44481">
        <ele>90</ele>
        <time>2022-09-28T11:16:42.560Z</time>
      </trkpt>
      <trkpt lat="48.67145" lon="2.44483">
        <ele>90</ele>
        <time>2022-09-28T11:16:47.555Z</time>
      </trkpt>
      <trkpt lat="48.6715" lon="2.44482">
        <ele>90</ele>
        <time>2022-09-28T11:16:52.539Z</time>
      </trkpt>
      <trkpt lat="48.67154" lon="2.44484">
        <ele>92</ele>
        <time>2022-09-28T11:16:56.578Z</time>
      </trkpt>
      <trkpt lat="48.6716" lon="2.44484">
        <ele>92</ele>
        <time>2022-09-28T11:17:01.568Z</time>
      </trkpt>
      <trkpt lat="48.67166" lon="2.44484">
        <ele>92</ele>
        <time>2022-09-28T11:17:05.571Z</time>
      </trkpt>
      <trkpt lat="48.67174" lon="2.44485">
        <ele>92</ele>
        <time>2022-09-28T11:17:10.561Z</time>
      </trkpt>
      <trkpt lat="48.67181" lon="2.44484">
        <ele>92</ele>
        <time>2022-09-28T11:17:15.545Z</time>
      </trkpt>
      <trkpt lat="48.67186" lon="2.44485">
        <ele>92</ele>
        <time>2022-09-28T11:17:19.559Z</time>
      </trkpt>
      <trkpt lat="48.6719" lon="2.44483">
        <ele>92</ele>
        <time>2022-09-28T11:17:23.579Z</time>
      </trkpt>
      <trkpt lat="48.67195" lon="2.44482">
        <ele>92</ele>
        <time>2022-09-28T11:17:28.572Z</time>
      </trkpt>
      <trkpt lat="48.67199" lon="2.4448">
        <ele>92</ele>
        <time>2022-09-28T11:17:32.583Z</time>
      </trkpt>
      <trkpt lat="48.67205" lon="2.4448">
        <ele>92</ele>
        <time>2022-09-28T11:17:37.584Z</time>
      </trkpt>
      <trkpt lat="48.67211" lon="2.44481">
        <ele>91</ele>
        <time>2022-09-28T11:17:42.551Z</time>
      </trkpt>
      <trkpt lat="48.67218" lon="2.44479">
        <ele>91</ele>
        <time>2022-09-28T11:17:47.531Z</time>
      </trkpt>
      <trkpt lat="48.67224" lon="2.44479">
        <ele>91</ele>
        <time>2022-09-28T11:17:51.538Z</time>
      </trkpt>
      <trkpt lat="48.67229" lon="2.44479">
        <ele>91</ele>
        <time>2022-09-28T11:17:56.542Z</time>
      </trkpt>
      <trkpt lat="48.67235" lon="2.44478">
        <ele>91</ele>
        <time>2022-09-28T11:18:01.557Z</time>
      </trkpt>
      <trkpt lat="48.67239" lon="2.44476">
        <ele>91</ele>
        <time>2022-09-28T11:18:06.525Z</time>
      </trkpt>
      <trkpt lat="48.67245" lon="2.44477">
        <ele>91</ele>
        <time>2022-09-28T11:18:10.559Z</time>
      </trkpt>
      <trkpt lat="48.67253" lon="2.44476">
        <ele>91</ele>
        <time>2022-09-28T11:18:15.530Z</time>
      </trkpt>
      <trkpt lat="48.67259" lon="2.44476">
        <ele>91</ele>
        <time>2022-09-28T11:18:20.524Z</time>
      </trkpt>
      <trkpt lat="48.67263" lon="2.44476">
        <ele>91</ele>
        <time>2022-09-28T11:18:24.545Z</time>
      </trkpt>
      <trkpt lat="48.67267" lon="2.44477">
        <ele>91</ele>
        <time>2022-09-28T11:18:29.550Z</time>
      </trkpt>
      <trkpt lat="48.67272" lon="2.44478">
        <ele>91</ele>
        <time>2022-09-28T11:18:34.522Z</time>
      </trkpt>
      <trkpt lat="48.67277" lon="2.44481">
        <ele>91</ele>
        <time>2022-09-28T11:18:38.544Z</time>
      </trkpt>
      <trkpt lat="48.67283" lon="2.44479">
        <ele>91</ele>
        <time>2022-09-28T11:18:43.520Z</time>
      </trkpt>
      <trkpt lat="48.67287" lon="2.44479">
        <ele>91</ele>
        <time>2022-09-28T11:18:47.543Z</time>
      </trkpt>
      <trkpt lat="48.67293" lon="2.44478">
        <ele>92</ele>
        <time>2022-09-28T11:18:52.539Z</time>
      </trkpt>
      <trkpt lat="48.67298" lon="2.4448">
        <ele>92</ele>
        <time>2022-09-28T11:18:57.544Z</time>
      </trkpt>
      <trkpt lat="48.67304" lon="2.44479">
        <ele>92</ele>
        <time>2022-09-28T11:19:02.531Z</time>
      </trkpt>
      <trkpt lat="48.67309" lon="2.44478">
        <ele>92</ele>
        <time>2022-09-28T11:19:06.547Z</time>
      </trkpt>
      <trkpt lat="48.67314" lon="2.44477">
        <ele>92</ele>
        <time>2022-09-28T11:19:10.552Z</time>
      </trkpt>
      <trkpt lat="48.67321" lon="2.44475">
        <ele>92</ele>
        <time>2022-09-28T11:19:15.545Z</time>
      </trkpt>
      <trkpt lat="48.67327" lon="2.44475">
        <ele>92</ele>
        <time>2022-09-28T11:19:20.559Z</time>
      </trkpt>
      <trkpt lat="48.67332" lon="2.44474">
        <ele>92</ele>
        <time>2022-09-28T11:19:25.528Z</time>
      </trkpt>
      <trkpt lat="48.67335" lon="2.44473">
        <ele>92</ele>
        <time>2022-09-28T11:19:30.530Z</time>
      </trkpt>
      <trkpt lat="48.67339" lon="2.44475">
        <ele>92</ele>
        <time>2022-09-28T11:19:34.567Z</time>
      </trkpt>
      <trkpt lat="48.67345" lon="2.44477">
        <ele>92</ele>
        <time>2022-09-28T11:19:39.567Z</time>
      </trkpt>
      <trkpt lat="48.67356" lon="2.44476">
        <ele>92</ele>
        <time>2022-09-28T11:19:44.531Z</time>
      </trkpt>
      <trkpt lat="48.67358" lon="2.44484">
        <ele>92</ele>
        <time>2022-09-28T11:19:49.518Z</time>
      </trkpt>
      <trkpt lat="48.67363" lon="2.4448">
        <ele>92</ele>
        <time>2022-09-28T11:19:53.524Z</time>
      </trkpt>
      <trkpt lat="48.67367" lon="2.44477">
        <ele>92</ele>
        <time>2022-09-28T11:19:58.521Z</time>
      </trkpt>
      <trkpt lat="48.67372" lon="2.44479">
        <ele>92</ele>
        <time>2022-09-28T11:20:02.525Z</time>
      </trkpt>
      <trkpt lat="48.67378" lon="2.44478">
        <ele>92</ele>
        <time>2022-09-28T11:20:06.522Z</time>
      </trkpt>
      <trkpt lat="48.67384" lon="2.44472">
        <ele>92</ele>
        <time>2022-09-28T11:20:11.543Z</time>
      </trkpt>
      <trkpt lat="48.67387" lon="2.4447">
        <ele>92</ele>
        <time>2022-09-28T11:20:15.549Z</time>
      </trkpt>
      <trkpt lat="48.67389" lon="2.44467">
        <ele>92</ele>
        <time>2022-09-28T11:20:19.555Z</time>
      </trkpt>
      <trkpt lat="48.67389" lon="2.44466">
        <ele>92</ele>
        <time>2022-09-28T11:20:24.547Z</time>
      </trkpt>
      <trkpt lat="48.67393" lon="2.44463">
        <ele>92</ele>
        <time>2022-09-28T11:20:29.530Z</time>
      </trkpt>
      <trkpt lat="48.67397" lon="2.44457">
        <ele>93</ele>
        <time>2022-09-28T11:20:33.528Z</time>
      </trkpt>
      <trkpt lat="48.67403" lon="2.44457">
        <ele>94</ele>
        <time>2022-09-28T11:20:38.518Z</time>
      </trkpt>
      <trkpt lat="48.67404" lon="2.44453">
        <ele>94</ele>
        <time>2022-09-28T11:20:42.516Z</time>
      </trkpt>
      <trkpt lat="48.67404" lon="2.44457">
        <ele>94</ele>
        <time>2022-09-28T11:20:47.527Z</time>
      </trkpt>
      <trkpt lat="48.67397" lon="2.44461">
        <ele>92</ele>
        <time>2022-09-28T11:20:52.543Z</time>
      </trkpt>
      <trkpt lat="48.6739" lon="2.44465">
        <ele>92</ele>
        <time>2022-09-28T11:20:57.547Z</time>
      </trkpt>
      <trkpt lat="48.67397" lon="2.44469">
        <ele>92</ele>
        <time>2022-09-28T11:21:56.525Z</time>
      </trkpt>
      <trkpt lat="48.67397" lon="2.44473">
        <ele>92</ele>
        <time>2022-09-28T11:22:00.529Z</time>
      </trkpt>
      <trkpt lat="48.67397" lon="2.44481">
        <ele>92</ele>
        <time>2022-09-28T11:22:04.557Z</time>
      </trkpt>
      <trkpt lat="48.67399" lon="2.44488">
        <ele>92</ele>
        <time>2022-09-28T11:22:09.557Z</time>
      </trkpt>
      <trkpt lat="48.67399" lon="2.4449">
        <ele>92</ele>
        <time>2022-09-28T11:22:14.527Z</time>
      </trkpt>
      <trkpt lat="48.67401" lon="2.44495">
        <ele>92</ele>
        <time>2022-09-28T11:22:18.526Z</time>
      </trkpt>
      <trkpt lat="48.67403" lon="2.445">
        <ele>92</ele>
        <time>2022-09-28T11:22:23.522Z</time>
      </trkpt>
      <trkpt lat="48.67405" lon="2.44503">
        <ele>92</ele>
        <time>2022-09-28T11:22:27.562Z</time>
      </trkpt>
      <trkpt lat="48.67407" lon="2.4451">
        <ele>92</ele>
        <time>2022-09-28T11:22:32.562Z</time>
      </trkpt>
      <trkpt lat="48.67409" lon="2.44515">
        <ele>91</ele>
        <time>2022-09-28T11:22:37.551Z</time>
      </trkpt>
      <trkpt lat="48.67412" lon="2.44524">
        <ele>91</ele>
        <time>2022-09-28T11:22:42.551Z</time>
      </trkpt>
      <trkpt lat="48.67413" lon="2.44531">
        <ele>91</ele>
        <time>2022-09-28T11:22:46.550Z</time>
      </trkpt>
      <trkpt lat="48.67415" lon="2.44539">
        <ele>91</ele>
        <time>2022-09-28T11:22:51.525Z</time>
      </trkpt>
      <trkpt lat="48.67416" lon="2.44546">
        <ele>90</ele>
        <time>2022-09-28T11:22:55.572Z</time>
      </trkpt>
      <trkpt lat="48.67417" lon="2.44553">
        <ele>90</ele>
        <time>2022-09-28T11:23:00.554Z</time>
      </trkpt>
      <trkpt lat="48.67417" lon="2.44559">
        <ele>90</ele>
        <time>2022-09-28T11:23:04.573Z</time>
      </trkpt>
      <trkpt lat="48.67419" lon="2.44566">
        <ele>90</ele>
        <time>2022-09-28T11:23:09.542Z</time>
      </trkpt>
      <trkpt lat="48.6742" lon="2.44574">
        <ele>90</ele>
        <time>2022-09-28T11:23:14.527Z</time>
      </trkpt>
      <trkpt lat="48.67422" lon="2.44581">
        <ele>90</ele>
        <time>2022-09-28T11:23:18.578Z</time>
      </trkpt>
      <trkpt lat="48.67424" lon="2.44588">
        <ele>90</ele>
        <time>2022-09-28T11:23:23.527Z</time>
      </trkpt>
      <trkpt lat="48.67426" lon="2.44597">
        <ele>90</ele>
        <time>2022-09-28T11:23:28.527Z</time>
      </trkpt>
      <trkpt lat="48.67428" lon="2.44604">
        <ele>89</ele>
        <time>2022-09-28T11:23:33.529Z</time>
      </trkpt>
      <trkpt lat="48.67428" lon="2.44613">
        <ele>89</ele>
        <time>2022-09-28T11:23:37.581Z</time>
      </trkpt>
      <trkpt lat="48.6743" lon="2.44622">
        <ele>89</ele>
        <time>2022-09-28T11:23:42.569Z</time>
      </trkpt>
      <trkpt lat="48.67432" lon="2.44632">
        <ele>89</ele>
        <time>2022-09-28T11:23:47.565Z</time>
      </trkpt>
      <trkpt lat="48.67436" lon="2.44642">
        <ele>89</ele>
        <time>2022-09-28T11:23:52.547Z</time>
      </trkpt>
      <trkpt lat="48.67438" lon="2.44652">
        <ele>89</ele>
        <time>2022-09-28T11:23:56.564Z</time>
      </trkpt>
      <trkpt lat="48.67441" lon="2.44662">
        <ele>90</ele>
        <time>2022-09-28T11:24:01.557Z</time>
      </trkpt>
      <trkpt lat="48.67444" lon="2.4467">
        <ele>90</ele>
        <time>2022-09-28T11:24:05.571Z</time>
      </trkpt>
      <trkpt lat="48.67447" lon="2.44676">
        <ele>90</ele>
        <time>2022-09-28T11:24:09.579Z</time>
      </trkpt>
      <trkpt lat="48.6745" lon="2.44684">
        <ele>90</ele>
        <time>2022-09-28T11:24:14.553Z</time>
      </trkpt>
      <trkpt lat="48.67452" lon="2.44691">
        <ele>90</ele>
        <time>2022-09-28T11:24:18.578Z</time>
      </trkpt>
      <trkpt lat="48.67452" lon="2.44699">
        <ele>90</ele>
        <time>2022-09-28T11:24:23.570Z</time>
      </trkpt>
      <trkpt lat="48.67453" lon="2.4471">
        <ele>89</ele>
        <time>2022-09-28T11:24:28.587Z</time>
      </trkpt>
      <trkpt lat="48.67455" lon="2.44718">
        <ele>89</ele>
        <time>2022-09-28T11:24:33.588Z</time>
      </trkpt>
      <trkpt lat="48.67457" lon="2.44727">
        <ele>89</ele>
        <time>2022-09-28T11:24:38.540Z</time>
      </trkpt>
      <trkpt lat="48.67458" lon="2.44735">
        <ele>88</ele>
        <time>2022-09-28T11:24:42.559Z</time>
      </trkpt>
      <trkpt lat="48.6746" lon="2.44745">
        <ele>86</ele>
        <time>2022-09-28T11:24:47.526Z</time>
      </trkpt>
      <trkpt lat="48.67462" lon="2.44756">
        <ele>86</ele>
        <time>2022-09-28T11:24:52.545Z</time>
      </trkpt>
      <trkpt lat="48.67465" lon="2.44765">
        <ele>84</ele>
        <time>2022-09-28T11:24:57.539Z</time>
      </trkpt>
      <trkpt lat="48.67466" lon="2.44773">
        <ele>84</ele>
        <time>2022-09-28T11:25:01.547Z</time>
      </trkpt>
      <trkpt lat="48.67467" lon="2.44782">
        <ele>84</ele>
        <time>2022-09-28T11:25:06.547Z</time>
      </trkpt>
      <trkpt lat="48.67469" lon="2.4479">
        <ele>84</ele>
        <time>2022-09-28T11:25:10.545Z</time>
      </trkpt>
      <trkpt lat="48.67471" lon="2.44795">
        <ele>84</ele>
        <time>2022-09-28T11:25:14.574Z</time>
      </trkpt>
      <trkpt lat="48.67473" lon="2.44801">
        <ele>84</ele>
        <time>2022-09-28T11:25:19.549Z</time>
      </trkpt>
      <trkpt lat="48.67475" lon="2.44809">
        <ele>84</ele>
        <time>2022-09-28T11:25:23.561Z</time>
      </trkpt>
      <trkpt lat="48.67476" lon="2.44819">
        <ele>84</ele>
        <time>2022-09-28T11:25:28.567Z</time>
      </trkpt>
      <trkpt lat="48.67478" lon="2.44827">
        <ele>85</ele>
        <time>2022-09-28T11:25:32.578Z</time>
      </trkpt>
      <trkpt lat="48.67482" lon="2.44837">
        <ele>85</ele>
        <time>2022-09-28T11:25:37.564Z</time>
      </trkpt>
      <trkpt lat="48.67484" lon="2.44845">
        <ele>85</ele>
        <time>2022-09-28T11:25:42.561Z</time>
      </trkpt>
      <trkpt lat="48.67485" lon="2.44851">
        <ele>86</ele>
        <time>2022-09-28T11:25:46.589Z</time>
      </trkpt>
      <trkpt lat="48.67489" lon="2.4486">
        <ele>84</ele>
        <time>2022-09-28T11:25:51.570Z</time>
      </trkpt>
      <trkpt lat="48.67491" lon="2.44867">
        <ele>84</ele>
        <time>2022-09-28T11:25:55.585Z</time>
      </trkpt>
      <trkpt lat="48.67493" lon="2.44875">
        <ele>84</ele>
        <time>2022-09-28T11:26:00.559Z</time>
      </trkpt>
      <trkpt lat="48.67494" lon="2.44881">
        <ele>85</ele>
        <time>2022-09-28T11:26:04.575Z</time>
      </trkpt>
      <trkpt lat="48.67495" lon="2.44887">
        <ele>85</ele>
        <time>2022-09-28T11:26:08.589Z</time>
      </trkpt>
      <trkpt lat="48.67496" lon="2.44894">
        <ele>85</ele>
        <time>2022-09-28T11:26:12.597Z</time>
      </trkpt>
      <trkpt lat="48.67498" lon="2.44903">
        <ele>85</ele>
        <time>2022-09-28T11:26:17.536Z</time>
      </trkpt>
      <trkpt lat="48.67499" lon="2.44911">
        <ele>85</ele>
        <time>2022-09-28T11:26:21.548Z</time>
      </trkpt>
      <trkpt lat="48.675" lon="2.44916">
        <ele>85</ele>
        <time>2022-09-28T11:26:26.562Z</time>
      </trkpt>
      <trkpt lat="48.67503" lon="2.44924">
        <ele>85</ele>
        <time>2022-09-28T11:26:31.568Z</time>
      </trkpt>
      <trkpt lat="48.67504" lon="2.44933">
        <ele>85</ele>
        <time>2022-09-28T11:26:35.579Z</time>
      </trkpt>
      <trkpt lat="48.67506" lon="2.44941">
        <ele>85</ele>
        <time>2022-09-28T11:26:40.578Z</time>
      </trkpt>
      <trkpt lat="48.67508" lon="2.44952">
        <ele>85</ele>
        <time>2022-09-28T11:26:45.569Z</time>
      </trkpt>
      <trkpt lat="48.6751" lon="2.4496">
        <ele>85</ele>
        <time>2022-09-28T11:26:49.593Z</time>
      </trkpt>
      <trkpt lat="48.67512" lon="2.44967">
        <ele>85</ele>
        <time>2022-09-28T11:26:54.547Z</time>
      </trkpt>
      <trkpt lat="48.67514" lon="2.44976">
        <ele>84</ele>
        <time>2022-09-28T11:26:58.591Z</time>
      </trkpt>
      <trkpt lat="48.67515" lon="2.44985">
        <ele>84</ele>
        <time>2022-09-28T11:27:03.575Z</time>
      </trkpt>
      <trkpt lat="48.67517" lon="2.44994">
        <ele>85</ele>
        <time>2022-09-28T11:27:08.571Z</time>
      </trkpt>
      <trkpt lat="48.67519" lon="2.45001">
        <ele>85</ele>
        <time>2022-09-28T11:27:13.562Z</time>
      </trkpt>
      <trkpt lat="48.6752" lon="2.45007">
        <ele>85</ele>
        <time>2022-09-28T11:27:17.571Z</time>
      </trkpt>
      <trkpt lat="48.67522" lon="2.45017">
        <ele>85</ele>
        <time>2022-09-28T11:27:22.582Z</time>
      </trkpt>
      <trkpt lat="48.67524" lon="2.45026">
        <ele>85</ele>
        <time>2022-09-28T11:27:27.561Z</time>
      </trkpt>
      <trkpt lat="48.67526" lon="2.45034">
        <ele>85</ele>
        <time>2022-09-28T11:27:31.588Z</time>
      </trkpt>
      <trkpt lat="48.67528" lon="2.45045">
        <ele>85</ele>
        <time>2022-09-28T11:27:36.585Z</time>
      </trkpt>
      <trkpt lat="48.6753" lon="2.45055">
        <ele>85</ele>
        <time>2022-09-28T11:27:41.589Z</time>
      </trkpt>
      <trkpt lat="48.67532" lon="2.45065">
        <ele>85</ele>
        <time>2022-09-28T11:27:46.565Z</time>
      </trkpt>
      <trkpt lat="48.67534" lon="2.45072">
        <ele>86</ele>
        <time>2022-09-28T11:27:51.570Z</time>
      </trkpt>
      <trkpt lat="48.67536" lon="2.45077">
        <ele>86</ele>
        <time>2022-09-28T11:27:55.579Z</time>
      </trkpt>
      <trkpt lat="48.67538" lon="2.45082">
        <ele>86</ele>
        <time>2022-09-28T11:27:59.584Z</time>
      </trkpt>
      <trkpt lat="48.67541" lon="2.4509">
        <ele>86</ele>
        <time>2022-09-28T11:28:04.576Z</time>
      </trkpt>
      <trkpt lat="48.67542" lon="2.45099">
        <ele>84</ele>
        <time>2022-09-28T11:28:09.568Z</time>
      </trkpt>
      <trkpt lat="48.67544" lon="2.45107">
        <ele>84</ele>
        <time>2022-09-28T11:28:14.584Z</time>
      </trkpt>
      <trkpt lat="48.67545" lon="2.45117">
        <ele>84</ele>
        <time>2022-09-28T11:28:19.575Z</time>
      </trkpt>
      <trkpt lat="48.67547" lon="2.45127">
        <ele>84</ele>
        <time>2022-09-28T11:28:24.582Z</time>
      </trkpt>
      <trkpt lat="48.6755" lon="2.45137">
        <ele>84</ele>
        <time>2022-09-28T11:28:29.550Z</time>
      </trkpt>
      <trkpt lat="48.67551" lon="2.45144">
        <ele>84</ele>
        <time>2022-09-28T11:28:33.565Z</time>
      </trkpt>
      <trkpt lat="48.67553" lon="2.45153">
        <ele>84</ele>
        <time>2022-09-28T11:28:37.572Z</time>
      </trkpt>
      <trkpt lat="48.67554" lon="2.45164">
        <ele>84</ele>
        <time>2022-09-28T11:28:42.589Z</time>
      </trkpt>
      <trkpt lat="48.67555" lon="2.45174">
        <ele>84</ele>
        <time>2022-09-28T11:28:47.578Z</time>
      </trkpt>
      <trkpt lat="48.67552" lon="2.45179">
        <ele>84</ele>
        <time>2022-09-28T11:28:51.579Z</time>
      </trkpt>
      <trkpt lat="48.67548" lon="2.45184">
        <ele>85</ele>
        <time>2022-09-28T11:28:56.579Z</time>
      </trkpt>
      <trkpt lat="48.67543" lon="2.45188">
        <ele>85</ele>
        <time>2022-09-28T11:29:00.583Z</time>
      </trkpt>
      <trkpt lat="48.67538" lon="2.45193">
        <ele>85</ele>
        <time>2022-09-28T11:29:04.581Z</time>
      </trkpt>
      <trkpt lat="48.67533" lon="2.452">
        <ele>85</ele>
        <time>2022-09-28T11:29:09.581Z</time>
      </trkpt>
      <trkpt lat="48.67528" lon="2.45206">
        <ele>85</ele>
        <time>2022-09-28T11:29:14.566Z</time>
      </trkpt>
      <trkpt lat="48.67523" lon="2.45211">
        <ele>85</ele>
        <time>2022-09-28T11:29:19.565Z</time>
      </trkpt>
      <trkpt lat="48.67519" lon="2.45215">
        <ele>85</ele>
        <time>2022-09-28T11:29:24.567Z</time>
      </trkpt>
      <trkpt lat="48.67514" lon="2.45222">
        <ele>84</ele>
        <time>2022-09-28T11:29:29.557Z</time>
      </trkpt>
      <trkpt lat="48.67509" lon="2.45227">
        <ele>84</ele>
        <time>2022-09-28T11:29:34.557Z</time>
      </trkpt>
      <trkpt lat="48.67505" lon="2.4523">
        <ele>84</ele>
        <time>2022-09-28T11:29:38.579Z</time>
      </trkpt>
      <trkpt lat="48.67501" lon="2.45235">
        <ele>84</ele>
        <time>2022-09-28T11:29:43.557Z</time>
      </trkpt>
      <trkpt lat="48.67496" lon="2.4524">
        <ele>83</ele>
        <time>2022-09-28T11:29:48.565Z</time>
      </trkpt>
      <trkpt lat="48.67491" lon="2.45246">
        <ele>83</ele>
        <time>2022-09-28T11:29:53.561Z</time>
      </trkpt>
      <trkpt lat="48.67486" lon="2.45251">
        <ele>83</ele>
        <time>2022-09-28T11:29:57.569Z</time>
      </trkpt>
      <trkpt lat="48.6748" lon="2.45256">
        <ele>83</ele>
        <time>2022-09-28T11:30:02.560Z</time>
      </trkpt>
      <trkpt lat="48.67474" lon="2.45262">
        <ele>83</ele>
        <time>2022-09-28T11:30:07.561Z</time>
      </trkpt>
      <trkpt lat="48.67469" lon="2.45267">
        <ele>83</ele>
        <time>2022-09-28T11:30:12.556Z</time>
      </trkpt>
      <trkpt lat="48.67465" lon="2.4527">
        <ele>83</ele>
        <time>2022-09-28T11:30:16.570Z</time>
      </trkpt>
      <trkpt lat="48.6746" lon="2.45275">
        <ele>83</ele>
        <time>2022-09-28T11:30:21.582Z</time>
      </trkpt>
      <trkpt lat="48.67454" lon="2.45278">
        <ele>82</ele>
        <time>2022-09-28T11:30:26.596Z</time>
      </trkpt>
      <trkpt lat="48.67449" lon="2.45283">
        <ele>82</ele>
        <time>2022-09-28T11:30:31.589Z</time>
      </trkpt>
      <trkpt lat="48.67444" lon="2.45288">
        <ele>82</ele>
        <time>2022-09-28T11:30:36.573Z</time>
      </trkpt>
      <trkpt lat="48.67439" lon="2.45294">
        <ele>82</ele>
        <time>2022-09-28T11:30:41.570Z</time>
      </trkpt>
      <trkpt lat="48.67432" lon="2.453">
        <ele>82</ele>
        <time>2022-09-28T11:30:46.576Z</time>
      </trkpt>
      <trkpt lat="48.67428" lon="2.45303">
        <ele>84</ele>
        <time>2022-09-28T11:30:51.569Z</time>
      </trkpt>
      <trkpt lat="48.67423" lon="2.45309">
        <ele>84</ele>
        <time>2022-09-28T11:30:55.577Z</time>
      </trkpt>
      <trkpt lat="48.67417" lon="2.45316">
        <ele>84</ele>
        <time>2022-09-28T11:31:00.581Z</time>
      </trkpt>
      <trkpt lat="48.67412" lon="2.45319">
        <ele>84</ele>
        <time>2022-09-28T11:31:05.556Z</time>
      </trkpt>
      <trkpt lat="48.67408" lon="2.45323">
        <ele>84</ele>
        <time>2022-09-28T11:31:10.562Z</time>
      </trkpt>
      <trkpt lat="48.67403" lon="2.4533">
        <ele>85</ele>
        <time>2022-09-28T11:31:15.563Z</time>
      </trkpt>
      <trkpt lat="48.67398" lon="2.45335">
        <ele>85</ele>
        <time>2022-09-28T11:31:20.559Z</time>
      </trkpt>
      <trkpt lat="48.67393" lon="2.45341">
        <ele>85</ele>
        <time>2022-09-28T11:31:25.565Z</time>
      </trkpt>
      <trkpt lat="48.67387" lon="2.45344">
        <ele>85</ele>
        <time>2022-09-28T11:31:30.556Z</time>
      </trkpt>
      <trkpt lat="48.67381" lon="2.4535">
        <ele>85</ele>
        <time>2022-09-28T11:31:35.579Z</time>
      </trkpt>
      <trkpt lat="48.67375" lon="2.45357">
        <ele>85</ele>
        <time>2022-09-28T11:31:40.537Z</time>
      </trkpt>
      <trkpt lat="48.67371" lon="2.45362">
        <ele>85</ele>
        <time>2022-09-28T11:31:44.562Z</time>
      </trkpt>
      <trkpt lat="48.67366" lon="2.45367">
        <ele>85</ele>
        <time>2022-09-28T11:31:49.576Z</time>
      </trkpt>
      <trkpt lat="48.67361" lon="2.45373">
        <ele>85</ele>
        <time>2022-09-28T11:31:54.562Z</time>
      </trkpt>
      <trkpt lat="48.67355" lon="2.45379">
        <ele>85</ele>
        <time>2022-09-28T11:31:58.571Z</time>
      </trkpt>
      <trkpt lat="48.67349" lon="2.45384">
        <ele>85</ele>
        <time>2022-09-28T11:32:03.528Z</time>
      </trkpt>
      <trkpt lat="48.67345" lon="2.45389">
        <ele>87</ele>
        <time>2022-09-28T11:32:07.556Z</time>
      </trkpt>
      <trkpt lat="48.6734" lon="2.45394">
        <ele>87</ele>
        <time>2022-09-28T11:32:12.557Z</time>
      </trkpt>
      <trkpt lat="48.67336" lon="2.45397">
        <ele>87</ele>
        <time>2022-09-28T11:32:17.566Z</time>
      </trkpt>
      <trkpt lat="48.6733" lon="2.45402">
        <ele>87</ele>
        <time>2022-09-28T11:32:22.583Z</time>
      </trkpt>
      <trkpt lat="48.67324" lon="2.45406">
        <ele>87</ele>
        <time>2022-09-28T11:32:27.543Z</time>
      </trkpt>
      <trkpt lat="48.67319" lon="2.45411">
        <ele>87</ele>
        <time>2022-09-28T11:32:32.541Z</time>
      </trkpt>
      <trkpt lat="48.67315" lon="2.45413">
        <ele>87</ele>
        <time>2022-09-28T11:32:36.575Z</time>
      </trkpt>
      <trkpt lat="48.67311" lon="2.45418">
        <ele>87</ele>
        <time>2022-09-28T11:32:41.568Z</time>
      </trkpt>
      <trkpt lat="48.67304" lon="2.45424">
        <ele>87</ele>
        <time>2022-09-28T11:32:46.576Z</time>
      </trkpt>
      <trkpt lat="48.67298" lon="2.4543">
        <ele>87</ele>
        <time>2022-09-28T11:32:51.552Z</time>
      </trkpt>
      <trkpt lat="48.67293" lon="2.45437">
        <ele>88</ele>
        <time>2022-09-28T11:32:55.574Z</time>
      </trkpt>
      <trkpt lat="48.67288" lon="2.45442">
        <ele>88</ele>
        <time>2022-09-28T11:33:00.533Z</time>
      </trkpt>
      <trkpt lat="48.67284" lon="2.45444">
        <ele>88</ele>
        <time>2022-09-28T11:33:04.583Z</time>
      </trkpt>
      <trkpt lat="48.67281" lon="2.45448">
        <ele>88</ele>
        <time>2022-09-28T11:33:08.590Z</time>
      </trkpt>
      <trkpt lat="48.67277" lon="2.45452">
        <ele>88</ele>
        <time>2022-09-28T11:33:13.573Z</time>
      </trkpt>
      <trkpt lat="48.67272" lon="2.45457">
        <ele>88</ele>
        <time>2022-09-28T11:33:18.574Z</time>
      </trkpt>
      <trkpt lat="48.67268" lon="2.45463">
        <ele>88</ele>
        <time>2022-09-28T11:33:23.582Z</time>
      </trkpt>
      <trkpt lat="48.67262" lon="2.45469">
        <ele>89</ele>
        <time>2022-09-28T11:33:28.569Z</time>
      </trkpt>
      <trkpt lat="48.67257" lon="2.45472">
        <ele>89</ele>
        <time>2022-09-28T11:33:32.611Z</time>
      </trkpt>
      <trkpt lat="48.67251" lon="2.45478">
        <ele>89</ele>
        <time>2022-09-28T11:33:37.563Z</time>
      </trkpt>
      <trkpt lat="48.67247" lon="2.45484">
        <ele>89</ele>
        <time>2022-09-28T11:33:41.583Z</time>
      </trkpt>
      <trkpt lat="48.67241" lon="2.4549">
        <ele>88</ele>
        <time>2022-09-28T11:33:46.582Z</time>
      </trkpt>
      <trkpt lat="48.67237" lon="2.45493">
        <ele>88</ele>
        <time>2022-09-28T11:33:50.585Z</time>
      </trkpt>
      <trkpt lat="48.67233" lon="2.45499">
        <ele>89</ele>
        <time>2022-09-28T11:33:55.549Z</time>
      </trkpt>
      <trkpt lat="48.67229" lon="2.45503">
        <ele>89</ele>
        <time>2022-09-28T11:33:59.580Z</time>
      </trkpt>
      <trkpt lat="48.67224" lon="2.45508">
        <ele>89</ele>
        <time>2022-09-28T11:34:04.571Z</time>
      </trkpt>
      <trkpt lat="48.6722" lon="2.45511">
        <ele>89</ele>
        <time>2022-09-28T11:34:08.577Z</time>
      </trkpt>
      <trkpt lat="48.67216" lon="2.45514">
        <ele>88</ele>
        <time>2022-09-28T11:34:12.588Z</time>
      </trkpt>
      <trkpt lat="48.67212" lon="2.45518">
        <ele>88</ele>
        <time>2022-09-28T11:34:17.578Z</time>
      </trkpt>
      <trkpt lat="48.67208" lon="2.45523">
        <ele>89</ele>
        <time>2022-09-28T11:34:22.573Z</time>
      </trkpt>
      <trkpt lat="48.67203" lon="2.45527">
        <ele>89</ele>
        <time>2022-09-28T11:34:27.564Z</time>
      </trkpt>
      <trkpt lat="48.67198" lon="2.45533">
        <ele>89</ele>
        <time>2022-09-28T11:34:32.563Z</time>
      </trkpt>
      <trkpt lat="48.67193" lon="2.45537">
        <ele>89</ele>
        <time>2022-09-28T11:34:37.569Z</time>
      </trkpt>
      <trkpt lat="48.67187" lon="2.45542">
        <ele>88</ele>
        <time>2022-09-28T11:34:42.573Z</time>
      </trkpt>
      <trkpt lat="48.67183" lon="2.45547">
        <ele>88</ele>
        <time>2022-09-28T11:34:47.569Z</time>
      </trkpt>
      <trkpt lat="48.67179" lon="2.45551">
        <ele>88</ele>
        <time>2022-09-28T11:34:51.566Z</time>
      </trkpt>
      <trkpt lat="48.67174" lon="2.45555">
        <ele>88</ele>
        <time>2022-09-28T11:34:56.565Z</time>
      </trkpt>
      <trkpt lat="48.6717" lon="2.45558">
        <ele>88</ele>
        <time>2022-09-28T11:35:00.576Z</time>
      </trkpt>
      <trkpt lat="48.67166" lon="2.45563">
        <ele>88</ele>
        <time>2022-09-28T11:35:05.559Z</time>
      </trkpt>
      <trkpt lat="48.67161" lon="2.45566">
        <ele>88</ele>
        <time>2022-09-28T11:35:10.580Z</time>
      </trkpt>
      <trkpt lat="48.67155" lon="2.45571">
        <ele>88</ele>
        <time>2022-09-28T11:35:15.556Z</time>
      </trkpt>
      <trkpt lat="48.67149" lon="2.45576">
        <ele>88</ele>
        <time>2022-09-28T11:35:20.568Z</time>
      </trkpt>
      <trkpt lat="48.67144" lon="2.4558">
        <ele>88</ele>
        <time>2022-09-28T11:35:24.584Z</time>
      </trkpt>
      <trkpt lat="48.6714" lon="2.45584">
        <ele>88</ele>
        <time>2022-09-28T11:35:29.553Z</time>
      </trkpt>
      <trkpt lat="48.67136" lon="2.4559">
        <ele>88</ele>
        <time>2022-09-28T11:35:34.575Z</time>
      </trkpt>
      <trkpt lat="48.67131" lon="2.45596">
        <ele>88</ele>
        <time>2022-09-28T11:35:38.594Z</time>
      </trkpt>
      <trkpt lat="48.67127" lon="2.45601">
        <ele>88</ele>
        <time>2022-09-28T11:35:43.557Z</time>
      </trkpt>
      <trkpt lat="48.67123" lon="2.45604">
        <ele>89</ele>
        <time>2022-09-28T11:35:47.583Z</time>
      </trkpt>
      <trkpt lat="48.67119" lon="2.45608">
        <ele>89</ele>
        <time>2022-09-28T11:35:52.547Z</time>
      </trkpt>
      <trkpt lat="48.67114" lon="2.45612">
        <ele>89</ele>
        <time>2022-09-28T11:35:56.562Z</time>
      </trkpt>
      <trkpt lat="48.6711" lon="2.45616">
        <ele>89</ele>
        <time>2022-09-28T11:36:00.573Z</time>
      </trkpt>
      <trkpt lat="48.67105" lon="2.45619">
        <ele>89</ele>
        <time>2022-09-28T11:36:05.580Z</time>
      </trkpt>
      <trkpt lat="48.67099" lon="2.4562">
        <ele>89</ele>
        <time>2022-09-28T11:36:10.553Z</time>
      </trkpt>
      <trkpt lat="48.67097" lon="2.4562">
        <ele>90</ele>
        <time>2022-09-28T11:36:15.561Z</time>
      </trkpt>
      <trkpt lat="48.67096" lon="2.4562">
        <ele>90</ele>
        <time>2022-09-28T11:36:20.561Z</time>
      </trkpt>
      <trkpt lat="48.67094" lon="2.45617">
        <ele>90</ele>
        <time>2022-09-28T11:36:25.564Z</time>
      </trkpt>
      <trkpt lat="48.67092" lon="2.45614">
        <ele>90</ele>
        <time>2022-09-28T11:36:29.584Z</time>
      </trkpt>
      <trkpt lat="48.67089" lon="2.45609">
        <ele>90</ele>
        <time>2022-09-28T11:36:34.526Z</time>
      </trkpt>
      <trkpt lat="48.67087" lon="2.45606">
        <ele>90</ele>
        <time>2022-09-28T11:36:38.567Z</time>
      </trkpt>
      <trkpt lat="48.67085" lon="2.456">
        <ele>90</ele>
        <time>2022-09-28T11:36:43.579Z</time>
      </trkpt>
      <trkpt lat="48.67083" lon="2.45594">
        <ele>89</ele>
        <time>2022-09-28T11:36:48.563Z</time>
      </trkpt>
      <trkpt lat="48.6708" lon="2.45588">
        <ele>89</ele>
        <time>2022-09-28T11:36:53.575Z</time>
      </trkpt>
      <trkpt lat="48.67078" lon="2.45582">
        <ele>89</ele>
        <time>2022-09-28T11:36:58.566Z</time>
      </trkpt>
      <trkpt lat="48.67074" lon="2.45577">
        <ele>89</ele>
        <time>2022-09-28T11:37:03.583Z</time>
      </trkpt>
      <trkpt lat="48.67071" lon="2.45573">
        <ele>89</ele>
        <time>2022-09-28T11:37:08.587Z</time>
      </trkpt>
      <trkpt lat="48.67069" lon="2.45565">
        <ele>90</ele>
        <time>2022-09-28T11:37:13.563Z</time>
      </trkpt>
      <trkpt lat="48.67068" lon="2.4556">
        <ele>90</ele>
        <time>2022-09-28T11:37:17.587Z</time>
      </trkpt>
      <trkpt lat="48.67065" lon="2.45551">
        <ele>90</ele>
        <time>2022-09-28T11:37:22.574Z</time>
      </trkpt>
      <trkpt lat="48.67062" lon="2.45541">
        <ele>90</ele>
        <time>2022-09-28T11:37:27.569Z</time>
      </trkpt>
      <trkpt lat="48.6706" lon="2.45533">
        <ele>90</ele>
        <time>2022-09-28T11:37:31.596Z</time>
      </trkpt>
      <trkpt lat="48.67059" lon="2.45525">
        <ele>90</ele>
        <time>2022-09-28T11:37:36.572Z</time>
      </trkpt>
      <trkpt lat="48.67057" lon="2.45519">
        <ele>90</ele>
        <time>2022-09-28T11:37:40.575Z</time>
      </trkpt>
      <trkpt lat="48.67055" lon="2.4551">
        <ele>89</ele>
        <time>2022-09-28T11:37:45.582Z</time>
      </trkpt>
      <trkpt lat="48.67053" lon="2.45502">
        <ele>89</ele>
        <time>2022-09-28T11:37:50.577Z</time>
      </trkpt>
      <trkpt lat="48.6705" lon="2.45494">
        <ele>89</ele>
        <time>2022-09-28T11:37:55.572Z</time>
      </trkpt>
      <trkpt lat="48.67045" lon="2.45485">
        <ele>88</ele>
        <time>2022-09-28T11:38:00.553Z</time>
      </trkpt>
      <trkpt lat="48.67044" lon="2.45481">
        <ele>88</ele>
        <time>2022-09-28T11:38:04.561Z</time>
      </trkpt>
      <trkpt lat="48.67042" lon="2.45476">
        <ele>88</ele>
        <time>2022-09-28T11:38:09.559Z</time>
      </trkpt>
      <trkpt lat="48.67039" lon="2.45466">
        <ele>89</ele>
        <time>2022-09-28T11:38:14.566Z</time>
      </trkpt>
      <trkpt lat="48.67036" lon="2.45456">
        <ele>88</ele>
        <time>2022-09-28T11:38:19.568Z</time>
      </trkpt>
      <trkpt lat="48.67033" lon="2.45447">
        <ele>88</ele>
        <time>2022-09-28T11:38:24.568Z</time>
      </trkpt>
      <trkpt lat="48.67032" lon="2.45439">
        <ele>88</ele>
        <time>2022-09-28T11:38:28.587Z</time>
      </trkpt>
      <trkpt lat="48.67029" lon="2.4543">
        <ele>89</ele>
        <time>2022-09-28T11:38:33.579Z</time>
      </trkpt>
      <trkpt lat="48.67026" lon="2.4542">
        <ele>89</ele>
        <time>2022-09-28T11:38:38.591Z</time>
      </trkpt>
      <trkpt lat="48.67023" lon="2.45413">
        <ele>89</ele>
        <time>2022-09-28T11:38:43.537Z</time>
      </trkpt>
      <trkpt lat="48.6702" lon="2.45408">
        <ele>89</ele>
        <time>2022-09-28T11:38:47.554Z</time>
      </trkpt>
      <trkpt lat="48.67018" lon="2.45402">
        <ele>90</ele>
        <time>2022-09-28T11:38:51.561Z</time>
      </trkpt>
      <trkpt lat="48.67016" lon="2.45393">
        <ele>90</ele>
        <time>2022-09-28T11:38:55.570Z</time>
      </trkpt>
      <trkpt lat="48.67013" lon="2.45385">
        <ele>91</ele>
        <time>2022-09-28T11:39:00.559Z</time>
      </trkpt>
      <trkpt lat="48.67011" lon="2.45376">
        <ele>91</ele>
        <time>2022-09-28T11:39:05.543Z</time>
      </trkpt>
      <trkpt lat="48.67009" lon="2.4537">
        <ele>92</ele>
        <time>2022-09-28T11:39:09.584Z</time>
      </trkpt>
      <trkpt lat="48.67008" lon="2.45364">
        <ele>92</ele>
        <time>2022-09-28T11:39:13.582Z</time>
      </trkpt>
      <trkpt lat="48.67007" lon="2.45356">
        <ele>92</ele>
        <time>2022-09-28T11:39:18.585Z</time>
      </trkpt>
      <trkpt lat="48.67004" lon="2.45347">
        <ele>91</ele>
        <time>2022-09-28T11:39:23.564Z</time>
      </trkpt>
      <trkpt lat="48.67" lon="2.45339">
        <ele>91</ele>
        <time>2022-09-28T11:39:28.548Z</time>
      </trkpt>
      <trkpt lat="48.66998" lon="2.45332">
        <ele>91</ele>
        <time>2022-09-28T11:39:32.585Z</time>
      </trkpt>
      <trkpt lat="48.66996" lon="2.45326">
        <ele>91</ele>
        <time>2022-09-28T11:39:37.580Z</time>
      </trkpt>
      <trkpt lat="48.66994" lon="2.45321">
        <ele>91</ele>
        <time>2022-09-28T11:39:42.576Z</time>
      </trkpt>
      <trkpt lat="48.66991" lon="2.45313">
        <ele>90</ele>
        <time>2022-09-28T11:39:47.570Z</time>
      </trkpt>
      <trkpt lat="48.66989" lon="2.45305">
        <ele>90</ele>
        <time>2022-09-28T11:39:52.564Z</time>
      </trkpt>
      <trkpt lat="48.66987" lon="2.45302">
        <ele>90</ele>
        <time>2022-09-28T11:39:56.574Z</time>
      </trkpt>
      <trkpt lat="48.66984" lon="2.453">
        <ele>89</ele>
        <time>2022-09-28T11:40:01.549Z</time>
      </trkpt>
      <trkpt lat="48.6698" lon="2.45292">
        <ele>89</ele>
        <time>2022-09-28T11:40:26.570Z</time>
      </trkpt>
      <trkpt lat="48.6698" lon="2.4529">
        <ele>88</ele>
        <time>2022-09-28T11:40:31.575Z</time>
      </trkpt>
      <trkpt lat="48.66979" lon="2.45288">
        <ele>88</ele>
        <time>2022-09-28T11:40:35.590Z</time>
      </trkpt>
      <trkpt lat="48.66979" lon="2.45288">
        <ele>88</ele>
        <time>2022-09-28T11:40:39.595Z</time>
      </trkpt>
      <trkpt lat="48.66979" lon="2.45287">
        <ele>88</ele>
        <time>2022-09-28T11:40:44.567Z</time>
      </trkpt>
      <trkpt lat="48.66979" lon="2.45282">
        <ele>88</ele>
        <time>2022-09-28T11:41:03.547Z</time>
      </trkpt>
      <trkpt lat="48.66979" lon="2.45281">
        <ele>88</ele>
        <time>2022-09-28T11:41:08.541Z</time>
      </trkpt>
      <trkpt lat="48.66978" lon="2.45278">
        <ele>88</ele>
        <time>2022-09-28T11:41:13.553Z</time>
      </trkpt>
      <trkpt lat="48.66976" lon="2.45276">
        <ele>88</ele>
        <time>2022-09-28T11:41:17.560Z</time>
      </trkpt>
      <trkpt lat="48.66977" lon="2.45273">
        <ele>88</ele>
        <time>2022-09-28T11:41:22.567Z</time>
      </trkpt>
      <trkpt lat="48.66977" lon="2.45266">
        <ele>88</ele>
        <time>2022-09-28T11:45:11.561Z</time>
      </trkpt>
      <trkpt lat="48.66975" lon="2.45266">
        <ele>88</ele>
        <time>2022-09-28T11:45:15.563Z</time>
      </trkpt>
      <trkpt lat="48.66972" lon="2.45266">
        <ele>88</ele>
        <time>2022-09-28T11:45:20.564Z</time>
      </trkpt>
      <trkpt lat="48.66969" lon="2.45266">
        <ele>88</ele>
        <time>2022-09-28T11:45:25.562Z</time>
      </trkpt>
      <trkpt lat="48.66965" lon="2.45265">
        <ele>88</ele>
        <time>2022-09-28T11:45:30.563Z</time>
      </trkpt>
      <trkpt lat="48.66962" lon="2.45266">
        <ele>88</ele>
        <time>2022-09-28T11:45:35.550Z</time>
      </trkpt>
      <trkpt lat="48.66957" lon="2.45265">
        <ele>88</ele>
        <time>2022-09-28T11:45:40.547Z</time>
      </trkpt>
      <trkpt lat="48.66953" lon="2.45266">
        <ele>88</ele>
        <time>2022-09-28T11:45:44.562Z</time>
      </trkpt>
      <trkpt lat="48.66949" lon="2.45265">
        <ele>88</ele>
        <time>2022-09-28T11:45:49.555Z</time>
      </trkpt>
      <trkpt lat="48.66946" lon="2.45264">
        <ele>88</ele>
        <time>2022-09-28T11:45:54.561Z</time>
      </trkpt>
      <trkpt lat="48.66943" lon="2.45263">
        <ele>89</ele>
        <time>2022-09-28T11:45:59.542Z</time>
      </trkpt>
      <trkpt lat="48.66939" lon="2.45263">
        <ele>89</ele>
        <time>2022-09-28T11:46:03.558Z</time>
      </trkpt>
      <trkpt lat="48.66936" lon="2.45265">
        <ele>88</ele>
        <time>2022-09-28T11:46:08.543Z</time>
      </trkpt>
      <trkpt lat="48.66932" lon="2.45266">
        <ele>88</ele>
        <time>2022-09-28T11:46:13.550Z</time>
      </trkpt>
      <trkpt lat="48.66929" lon="2.4527">
        <ele>89</ele>
        <time>2022-09-28T11:46:18.547Z</time>
      </trkpt>
      <trkpt lat="48.66927" lon="2.45277">
        <ele>89</ele>
        <time>2022-09-28T11:46:23.534Z</time>
      </trkpt>
      <trkpt lat="48.66924" lon="2.45278">
        <ele>89</ele>
        <time>2022-09-28T11:46:27.549Z</time>
      </trkpt>
      <trkpt lat="48.6692" lon="2.45279">
        <ele>89</ele>
        <time>2022-09-28T11:46:31.574Z</time>
      </trkpt>
      <trkpt lat="48.66916" lon="2.45281">
        <ele>89</ele>
        <time>2022-09-28T11:46:36.559Z</time>
      </trkpt>
      <trkpt lat="48.66912" lon="2.45282">
        <ele>89</ele>
        <time>2022-09-28T11:46:41.564Z</time>
      </trkpt>
      <trkpt lat="48.66906" lon="2.45283">
        <ele>89</ele>
        <time>2022-09-28T11:46:46.556Z</time>
      </trkpt>
      <trkpt lat="48.669" lon="2.45284">
        <ele>90</ele>
        <time>2022-09-28T11:46:51.543Z</time>
      </trkpt>
      <trkpt lat="48.66895" lon="2.45286">
        <ele>90</ele>
        <time>2022-09-28T11:46:55.554Z</time>
      </trkpt>
      <trkpt lat="48.6689" lon="2.45288">
        <ele>90</ele>
        <time>2022-09-28T11:47:00.547Z</time>
      </trkpt>
      <trkpt lat="48.66886" lon="2.45289">
        <ele>90</ele>
        <time>2022-09-28T11:47:04.572Z</time>
      </trkpt>
      <trkpt lat="48.66884" lon="2.45293">
        <ele>90</ele>
        <time>2022-09-28T11:47:09.566Z</time>
      </trkpt>
      <trkpt lat="48.66883" lon="2.45301">
        <ele>90</ele>
        <time>2022-09-28T11:47:14.561Z</time>
      </trkpt>
      <trkpt lat="48.66882" lon="2.45309">
        <ele>90</ele>
        <time>2022-09-28T11:47:19.559Z</time>
      </trkpt>
      <trkpt lat="48.66881" lon="2.45317">
        <ele>90</ele>
        <time>2022-09-28T11:47:24.555Z</time>
      </trkpt>
      <trkpt lat="48.66882" lon="2.45322">
        <ele>90</ele>
        <time>2022-09-28T11:47:28.567Z</time>
      </trkpt>
      <trkpt lat="48.66881" lon="2.45331">
        <ele>90</ele>
        <time>2022-09-28T11:47:33.563Z</time>
      </trkpt>
      <trkpt lat="48.6688" lon="2.45339">
        <ele>90</ele>
        <time>2022-09-28T11:47:37.566Z</time>
      </trkpt>
      <trkpt lat="48.66878" lon="2.45348">
        <ele>89</ele>
        <time>2022-09-28T11:47:42.561Z</time>
      </trkpt>
      <trkpt lat="48.66877" lon="2.45357">
        <ele>89</ele>
        <time>2022-09-28T11:47:46.566Z</time>
      </trkpt>
      <trkpt lat="48.66876" lon="2.45365">
        <ele>89</ele>
        <time>2022-09-28T11:47:51.561Z</time>
      </trkpt>
      <trkpt lat="48.66877" lon="2.45374">
        <ele>89</ele>
        <time>2022-09-28T11:47:56.577Z</time>
      </trkpt>
      <trkpt lat="48.66878" lon="2.45381">
        <ele>88</ele>
        <time>2022-09-28T11:48:01.537Z</time>
      </trkpt>
      <trkpt lat="48.66878" lon="2.45386">
        <ele>88</ele>
        <time>2022-09-28T11:48:05.560Z</time>
      </trkpt>
      <trkpt lat="48.66878" lon="2.45397">
        <ele>88</ele>
        <time>2022-09-28T11:48:10.558Z</time>
      </trkpt>
      <trkpt lat="48.66876" lon="2.45406">
        <ele>88</ele>
        <time>2022-09-28T11:48:15.551Z</time>
      </trkpt>
      <trkpt lat="48.66877" lon="2.45417">
        <ele>88</ele>
        <time>2022-09-28T11:48:20.541Z</time>
      </trkpt>
      <trkpt lat="48.66877" lon="2.45424">
        <ele>88</ele>
        <time>2022-09-28T11:48:24.553Z</time>
      </trkpt>
      <trkpt lat="48.66875" lon="2.45435">
        <ele>87</ele>
        <time>2022-09-28T11:48:29.547Z</time>
      </trkpt>
      <trkpt lat="48.66873" lon="2.45442">
        <ele>87</ele>
        <time>2022-09-28T11:48:33.573Z</time>
      </trkpt>
      <trkpt lat="48.66872" lon="2.45454">
        <ele>87</ele>
        <time>2022-09-28T11:48:38.558Z</time>
      </trkpt>
      <trkpt lat="48.66871" lon="2.45465">
        <ele>88</ele>
        <time>2022-09-28T11:48:43.555Z</time>
      </trkpt>
      <trkpt lat="48.6687" lon="2.45475">
        <ele>88</ele>
        <time>2022-09-28T11:48:48.538Z</time>
      </trkpt>
      <trkpt lat="48.6687" lon="2.45484">
        <ele>88</ele>
        <time>2022-09-28T11:48:52.561Z</time>
      </trkpt>
      <trkpt lat="48.66869" lon="2.45492">
        <ele>88</ele>
        <time>2022-09-28T11:48:56.583Z</time>
      </trkpt>
      <trkpt lat="48.66868" lon="2.45501">
        <ele>88</ele>
        <time>2022-09-28T11:49:01.566Z</time>
      </trkpt>
      <trkpt lat="48.66869" lon="2.45509">
        <ele>88</ele>
        <time>2022-09-28T11:49:06.550Z</time>
      </trkpt>
      <trkpt lat="48.66869" lon="2.45516">
        <ele>89</ele>
        <time>2022-09-28T11:49:11.560Z</time>
      </trkpt>
      <trkpt lat="48.66869" lon="2.45525">
        <ele>89</ele>
        <time>2022-09-28T11:49:16.555Z</time>
      </trkpt>
      <trkpt lat="48.66867" lon="2.45535">
        <ele>89</ele>
        <time>2022-09-28T11:49:21.545Z</time>
      </trkpt>
      <trkpt lat="48.66867" lon="2.45545">
        <ele>91</ele>
        <time>2022-09-28T11:49:26.549Z</time>
      </trkpt>
      <trkpt lat="48.66867" lon="2.45555">
        <ele>91</ele>
        <time>2022-09-28T11:49:31.539Z</time>
      </trkpt>
      <trkpt lat="48.66866" lon="2.45563">
        <ele>91</ele>
        <time>2022-09-28T11:49:35.576Z</time>
      </trkpt>
      <trkpt lat="48.66866" lon="2.45573">
        <ele>91</ele>
        <time>2022-09-28T11:49:40.579Z</time>
      </trkpt>
      <trkpt lat="48.66865" lon="2.45583">
        <ele>91</ele>
        <time>2022-09-28T11:49:45.547Z</time>
      </trkpt>
      <trkpt lat="48.66864" lon="2.45594">
        <ele>91</ele>
        <time>2022-09-28T11:49:50.566Z</time>
      </trkpt>
      <trkpt lat="48.66864" lon="2.45607">
        <ele>90</ele>
        <time>2022-09-28T11:49:55.549Z</time>
      </trkpt>
      <trkpt lat="48.66864" lon="2.45618">
        <ele>90</ele>
        <time>2022-09-28T11:50:00.529Z</time>
      </trkpt>
      <trkpt lat="48.66863" lon="2.45625">
        <ele>90</ele>
        <time>2022-09-28T11:50:04.542Z</time>
      </trkpt>
      <trkpt lat="48.66862" lon="2.45634">
        <ele>90</ele>
        <time>2022-09-28T11:50:08.559Z</time>
      </trkpt>
      <trkpt lat="48.66861" lon="2.45645">
        <ele>90</ele>
        <time>2022-09-28T11:50:13.536Z</time>
      </trkpt>
      <trkpt lat="48.66862" lon="2.45655">
        <ele>90</ele>
        <time>2022-09-28T11:50:18.541Z</time>
      </trkpt>
      <trkpt lat="48.66864" lon="2.45662">
        <ele>90</ele>
        <time>2022-09-28T11:50:22.543Z</time>
      </trkpt>
      <trkpt lat="48.66861" lon="2.45682">
        <ele>90</ele>
        <time>2022-09-28T11:50:27.544Z</time>
      </trkpt>
      <trkpt lat="48.6686" lon="2.4569">
        <ele>90</ele>
        <time>2022-09-28T11:50:32.544Z</time>
      </trkpt>
      <trkpt lat="48.66859" lon="2.45696">
        <ele>90</ele>
        <time>2022-09-28T11:50:36.550Z</time>
      </trkpt>
      <trkpt lat="48.66856" lon="2.45704">
        <ele>90</ele>
        <time>2022-09-28T11:50:41.542Z</time>
      </trkpt>
      <trkpt lat="48.66853" lon="2.4571">
        <ele>91</ele>
        <time>2022-09-28T11:50:45.542Z</time>
      </trkpt>
      <trkpt lat="48.6685" lon="2.45714">
        <ele>91</ele>
        <time>2022-09-28T11:50:50.545Z</time>
      </trkpt>
      <trkpt lat="48.66848" lon="2.45724">
        <ele>91</ele>
        <time>2022-09-28T11:50:55.555Z</time>
      </trkpt>
      <trkpt lat="48.66848" lon="2.45734">
        <ele>91</ele>
        <time>2022-09-28T11:51:00.545Z</time>
      </trkpt>
      <trkpt lat="48.66847" lon="2.45742">
        <ele>91</ele>
        <time>2022-09-28T11:51:05.548Z</time>
      </trkpt>
      <trkpt lat="48.66847" lon="2.45747">
        <ele>91</ele>
        <time>2022-09-28T11:51:09.555Z</time>
      </trkpt>
      <trkpt lat="48.66848" lon="2.45756">
        <ele>92</ele>
        <time>2022-09-28T11:51:14.553Z</time>
      </trkpt>
      <trkpt lat="48.66848" lon="2.45765">
        <ele>91</ele>
        <time>2022-09-28T11:51:19.544Z</time>
      </trkpt>
      <trkpt lat="48.66847" lon="2.45777">
        <ele>90</ele>
        <time>2022-09-28T11:51:24.543Z</time>
      </trkpt>
      <trkpt lat="48.66846" lon="2.45784">
        <ele>90</ele>
        <time>2022-09-28T11:51:28.546Z</time>
      </trkpt>
      <trkpt lat="48.66843" lon="2.45794">
        <ele>90</ele>
        <time>2022-09-28T11:51:33.542Z</time>
      </trkpt>
      <trkpt lat="48.66843" lon="2.45802">
        <ele>90</ele>
        <time>2022-09-28T11:51:37.548Z</time>
      </trkpt>
      <trkpt lat="48.66843" lon="2.45811">
        <ele>90</ele>
        <time>2022-09-28T11:51:42.551Z</time>
      </trkpt>
      <trkpt lat="48.66843" lon="2.45818">
        <ele>90</ele>
        <time>2022-09-28T11:51:46.550Z</time>
      </trkpt>
      <trkpt lat="48.66842" lon="2.45826">
        <ele>90</ele>
        <time>2022-09-28T11:51:51.548Z</time>
      </trkpt>
      <trkpt lat="48.66843" lon="2.45835">
        <ele>90</ele>
        <time>2022-09-28T11:51:56.548Z</time>
      </trkpt>
      <trkpt lat="48.66844" lon="2.45843">
        <ele>90</ele>
        <time>2022-09-28T11:52:00.553Z</time>
      </trkpt>
      <trkpt lat="48.66843" lon="2.45854">
        <ele>92</ele>
        <time>2022-09-28T11:52:05.552Z</time>
      </trkpt>
      <trkpt lat="48.66841" lon="2.45861">
        <ele>92</ele>
        <time>2022-09-28T11:52:10.551Z</time>
      </trkpt>
      <trkpt lat="48.66837" lon="2.45867">
        <ele>92</ele>
        <time>2022-09-28T11:52:15.543Z</time>
      </trkpt>
      <trkpt lat="48.66833" lon="2.45873">
        <ele>92</ele>
        <time>2022-09-28T11:52:20.547Z</time>
      </trkpt>
      <trkpt lat="48.66828" lon="2.45876">
        <ele>92</ele>
        <time>2022-09-28T11:52:25.551Z</time>
      </trkpt>
      <trkpt lat="48.66823" lon="2.45881">
        <ele>92</ele>
        <time>2022-09-28T11:52:30.551Z</time>
      </trkpt>
      <trkpt lat="48.66817" lon="2.45883">
        <ele>92</ele>
        <time>2022-09-28T11:52:35.561Z</time>
      </trkpt>
      <trkpt lat="48.66809" lon="2.45891">
        <ele>92</ele>
        <time>2022-09-28T11:52:40.551Z</time>
      </trkpt>
      <trkpt lat="48.66804" lon="2.45896">
        <ele>92</ele>
        <time>2022-09-28T11:52:45.552Z</time>
      </trkpt>
      <trkpt lat="48.668" lon="2.45901">
        <ele>92</ele>
        <time>2022-09-28T11:52:50.550Z</time>
      </trkpt>
      <trkpt lat="48.66792" lon="2.4591">
        <ele>92</ele>
        <time>2022-09-28T11:52:55.527Z</time>
      </trkpt>
      <trkpt lat="48.66786" lon="2.45919">
        <ele>91</ele>
        <time>2022-09-28T11:53:00.541Z</time>
      </trkpt>
      <trkpt lat="48.66781" lon="2.45925">
        <ele>91</ele>
        <time>2022-09-28T11:53:05.523Z</time>
      </trkpt>
      <trkpt lat="48.66777" lon="2.45927">
        <ele>91</ele>
        <time>2022-09-28T11:53:09.550Z</time>
      </trkpt>
      <trkpt lat="48.66773" lon="2.4593">
        <ele>91</ele>
        <time>2022-09-28T11:53:13.548Z</time>
      </trkpt>
      <trkpt lat="48.6677" lon="2.45933">
        <ele>91</ele>
        <time>2022-09-28T11:53:18.541Z</time>
      </trkpt>
      <trkpt lat="48.66767" lon="2.45938">
        <ele>91</ele>
        <time>2022-09-28T11:53:23.546Z</time>
      </trkpt>
      <trkpt lat="48.66763" lon="2.45941">
        <ele>90</ele>
        <time>2022-09-28T11:53:28.545Z</time>
      </trkpt>
      <trkpt lat="48.66758" lon="2.45951">
        <ele>90</ele>
        <time>2022-09-28T11:53:33.530Z</time>
      </trkpt>
      <trkpt lat="48.66754" lon="2.45962">
        <ele>90</ele>
        <time>2022-09-28T11:53:38.545Z</time>
      </trkpt>
      <trkpt lat="48.66745" lon="2.45968">
        <ele>90</ele>
        <time>2022-09-28T11:53:43.536Z</time>
      </trkpt>
      <trkpt lat="48.6674" lon="2.45969">
        <ele>90</ele>
        <time>2022-09-28T11:53:48.549Z</time>
      </trkpt>
      <trkpt lat="48.66735" lon="2.4597">
        <ele>88</ele>
        <time>2022-09-28T11:53:53.531Z</time>
      </trkpt>
      <trkpt lat="48.66731" lon="2.45974">
        <ele>88</ele>
        <time>2022-09-28T11:53:57.563Z</time>
      </trkpt>
      <trkpt lat="48.66726" lon="2.45978">
        <ele>88</ele>
        <time>2022-09-28T11:54:02.549Z</time>
      </trkpt>
      <trkpt lat="48.6672" lon="2.45983">
        <ele>88</ele>
        <time>2022-09-28T11:54:07.544Z</time>
      </trkpt>
      <trkpt lat="48.66714" lon="2.45986">
        <ele>89</ele>
        <time>2022-09-28T11:54:12.547Z</time>
      </trkpt>
      <trkpt lat="48.66708" lon="2.45991">
        <ele>89</ele>
        <time>2022-09-28T11:54:16.557Z</time>
      </trkpt>
      <trkpt lat="48.66702" lon="2.45995">
        <ele>87</ele>
        <time>2022-09-28T11:54:21.545Z</time>
      </trkpt>
      <trkpt lat="48.66698" lon="2.46002">
        <ele>87</ele>
        <time>2022-09-28T11:54:26.553Z</time>
      </trkpt>
      <trkpt lat="48.66693" lon="2.4601">
        <ele>87</ele>
        <time>2022-09-28T11:54:31.542Z</time>
      </trkpt>
      <trkpt lat="48.66688" lon="2.46015">
        <ele>87</ele>
        <time>2022-09-28T11:54:36.550Z</time>
      </trkpt>
      <trkpt lat="48.66681" lon="2.46021">
        <ele>87</ele>
        <time>2022-09-28T11:54:41.543Z</time>
      </trkpt>
      <trkpt lat="48.66679" lon="2.46022">
        <ele>87</ele>
        <time>2022-09-28T11:54:45.555Z</time>
      </trkpt>
      <trkpt lat="48.66674" lon="2.46028">
        <ele>87</ele>
        <time>2022-09-28T11:54:50.545Z</time>
      </trkpt>
      <trkpt lat="48.66669" lon="2.46032">
        <ele>87</ele>
        <time>2022-09-28T11:54:55.533Z</time>
      </trkpt>
      <trkpt lat="48.66665" lon="2.46034">
        <ele>87</ele>
        <time>2022-09-28T11:54:59.549Z</time>
      </trkpt>
      <trkpt lat="48.6666" lon="2.46031">
        <ele>87</ele>
        <time>2022-09-28T11:55:04.543Z</time>
      </trkpt>
      <trkpt lat="48.66653" lon="2.46035">
        <ele>87</ele>
        <time>2022-09-28T11:55:09.545Z</time>
      </trkpt>
      <trkpt lat="48.66647" lon="2.4604">
        <ele>87</ele>
        <time>2022-09-28T11:55:14.542Z</time>
      </trkpt>
      <trkpt lat="48.6664" lon="2.46044">
        <ele>87</ele>
        <time>2022-09-28T11:55:18.545Z</time>
      </trkpt>
      <trkpt lat="48.66637" lon="2.46047">
        <ele>87</ele>
        <time>2022-09-28T11:55:23.538Z</time>
      </trkpt>
      <trkpt lat="48.66637" lon="2.46047">
        <ele>87</ele>
        <time>2022-09-28T11:55:27.547Z</time>
      </trkpt>
      <trkpt lat="48.66635" lon="2.4605">
        <ele>87</ele>
        <time>2022-09-28T11:55:32.554Z</time>
      </trkpt>
      <trkpt lat="48.66628" lon="2.46056">
        <ele>87</ele>
        <time>2022-09-28T11:55:37.557Z</time>
      </trkpt>
      <trkpt lat="48.66627" lon="2.46061">
        <ele>87</ele>
        <time>2022-09-28T11:55:42.545Z</time>
      </trkpt>
      <trkpt lat="48.66624" lon="2.46065">
        <ele>86</ele>
        <time>2022-09-28T11:55:47.540Z</time>
      </trkpt>
      <trkpt lat="48.66619" lon="2.46069">
        <ele>86</ele>
        <time>2022-09-28T11:55:51.550Z</time>
      </trkpt>
      <trkpt lat="48.66615" lon="2.46072">
        <ele>87</ele>
        <time>2022-09-28T11:55:55.563Z</time>
      </trkpt>
      <trkpt lat="48.66607" lon="2.46082">
        <ele>87</ele>
        <time>2022-09-28T11:56:00.557Z</time>
      </trkpt>
      <trkpt lat="48.66601" lon="2.46086">
        <ele>87</ele>
        <time>2022-09-28T11:56:05.538Z</time>
      </trkpt>
      <trkpt lat="48.66593" lon="2.4609">
        <ele>86</ele>
        <time>2022-09-28T11:56:09.545Z</time>
      </trkpt>
      <trkpt lat="48.66587" lon="2.46096">
        <ele>86</ele>
        <time>2022-09-28T11:56:13.555Z</time>
      </trkpt>
      <trkpt lat="48.66581" lon="2.46104">
        <ele>87</ele>
        <time>2022-09-28T11:56:18.545Z</time>
      </trkpt>
      <trkpt lat="48.66576" lon="2.46108">
        <ele>87</ele>
        <time>2022-09-28T11:56:22.557Z</time>
      </trkpt>
      <trkpt lat="48.66569" lon="2.46112">
        <ele>87</ele>
        <time>2022-09-28T11:56:27.562Z</time>
      </trkpt>
      <trkpt lat="48.66564" lon="2.4612">
        <ele>87</ele>
        <time>2022-09-28T11:56:32.544Z</time>
      </trkpt>
      <trkpt lat="48.66557" lon="2.46124">
        <ele>87</ele>
        <time>2022-09-28T11:56:37.535Z</time>
      </trkpt>
      <trkpt lat="48.66552" lon="2.46124">
        <ele>87</ele>
        <time>2022-09-28T11:56:41.558Z</time>
      </trkpt>
      <trkpt lat="48.66545" lon="2.46129">
        <ele>88</ele>
        <time>2022-09-28T11:56:46.551Z</time>
      </trkpt>
      <trkpt lat="48.66537" lon="2.4613">
        <ele>89</ele>
        <time>2022-09-28T11:56:51.533Z</time>
      </trkpt>
      <trkpt lat="48.66532" lon="2.46129">
        <ele>89</ele>
        <time>2022-09-28T11:56:56.553Z</time>
      </trkpt>
      <trkpt lat="48.66531" lon="2.46122">
        <ele>88</ele>
        <time>2022-09-28T11:57:01.532Z</time>
      </trkpt>
      <trkpt lat="48.66531" lon="2.46115">
        <ele>88</ele>
        <time>2022-09-28T11:57:05.549Z</time>
      </trkpt>
      <trkpt lat="48.66529" lon="2.46109">
        <ele>88</ele>
        <time>2022-09-28T11:57:10.548Z</time>
      </trkpt>
      <trkpt lat="48.66522" lon="2.46111">
        <ele>88</ele>
        <time>2022-09-28T11:57:15.546Z</time>
      </trkpt>
      <trkpt lat="48.66516" lon="2.46114">
        <ele>88</ele>
        <time>2022-09-28T11:57:20.550Z</time>
      </trkpt>
      <trkpt lat="48.66513" lon="2.46114">
        <ele>89</ele>
        <time>2022-09-28T11:57:25.539Z</time>
      </trkpt>
      <trkpt lat="48.66508" lon="2.46114">
        <ele>89</ele>
        <time>2022-09-28T11:57:30.541Z</time>
      </trkpt>
      <trkpt lat="48.66502" lon="2.46115">
        <ele>89</ele>
        <time>2022-09-28T11:57:35.531Z</time>
      </trkpt>
      <trkpt lat="48.66498" lon="2.46113">
        <ele>89</ele>
        <time>2022-09-28T11:57:39.544Z</time>
      </trkpt>
      <trkpt lat="48.66494" lon="2.46111">
        <ele>89</ele>
        <time>2022-09-28T11:57:44.534Z</time>
      </trkpt>
      <trkpt lat="48.66492" lon="2.46111">
        <ele>89</ele>
        <time>2022-09-28T11:57:48.547Z</time>
      </trkpt>
      <trkpt lat="48.66484" lon="2.46111">
        <ele>90</ele>
        <time>2022-09-28T11:57:53.536Z</time>
      </trkpt>
      <trkpt lat="48.6648" lon="2.46111">
        <ele>90</ele>
        <time>2022-09-28T11:57:58.541Z</time>
      </trkpt>
      <trkpt lat="48.66472" lon="2.46114">
        <ele>90</ele>
        <time>2022-09-28T11:58:02.547Z</time>
      </trkpt>
      <trkpt lat="48.66462" lon="2.46119">
        <ele>90</ele>
        <time>2022-09-28T11:58:07.547Z</time>
      </trkpt>
      <trkpt lat="48.66451" lon="2.46118">
        <ele>92</ele>
        <time>2022-09-28T11:58:12.545Z</time>
      </trkpt>
      <trkpt lat="48.66447" lon="2.46121">
        <ele>92</ele>
        <time>2022-09-28T11:58:16.546Z</time>
      </trkpt>
      <trkpt lat="48.66439" lon="2.46125">
        <ele>92</ele>
        <time>2022-09-28T11:58:21.535Z</time>
      </trkpt>
      <trkpt lat="48.66434" lon="2.46126">
        <ele>92</ele>
        <time>2022-09-28T11:58:25.554Z</time>
      </trkpt>
      <trkpt lat="48.66431" lon="2.46127">
        <ele>92</ele>
        <time>2022-09-28T11:58:30.541Z</time>
      </trkpt>
      <trkpt lat="48.66428" lon="2.46125">
        <ele>92</ele>
        <time>2022-09-28T11:58:34.551Z</time>
      </trkpt>
      <trkpt lat="48.66424" lon="2.46125">
        <ele>92</ele>
        <time>2022-09-28T11:58:39.544Z</time>
      </trkpt>
      <trkpt lat="48.66418" lon="2.46128">
        <ele>92</ele>
        <time>2022-09-28T11:58:44.534Z</time>
      </trkpt>
      <trkpt lat="48.66414" lon="2.46128">
        <ele>92</ele>
        <time>2022-09-28T11:58:48.544Z</time>
      </trkpt>
      <trkpt lat="48.66408" lon="2.46128">
        <ele>92</ele>
        <time>2022-09-28T11:58:53.548Z</time>
      </trkpt>
      <trkpt lat="48.66403" lon="2.46128">
        <ele>92</ele>
        <time>2022-09-28T11:58:58.548Z</time>
      </trkpt>
      <trkpt lat="48.66398" lon="2.4613">
        <ele>92</ele>
        <time>2022-09-28T11:59:02.568Z</time>
      </trkpt>
      <trkpt lat="48.66393" lon="2.46132">
        <ele>92</ele>
        <time>2022-09-28T11:59:07.543Z</time>
      </trkpt>
      <trkpt lat="48.66388" lon="2.46135">
        <ele>92</ele>
        <time>2022-09-28T11:59:12.546Z</time>
      </trkpt>
      <trkpt lat="48.66383" lon="2.46136">
        <ele>92</ele>
        <time>2022-09-28T11:59:16.549Z</time>
      </trkpt>
      <trkpt lat="48.66376" lon="2.46138">
        <ele>92</ele>
        <time>2022-09-28T11:59:21.549Z</time>
      </trkpt>
      <trkpt lat="48.66371" lon="2.46137">
        <ele>91</ele>
        <time>2022-09-28T11:59:26.546Z</time>
      </trkpt>
      <trkpt lat="48.66365" lon="2.46136">
        <ele>91</ele>
        <time>2022-09-28T11:59:30.557Z</time>
      </trkpt>
      <trkpt lat="48.66359" lon="2.46138">
        <ele>91</ele>
        <time>2022-09-28T11:59:35.548Z</time>
      </trkpt>
      <trkpt lat="48.66352" lon="2.46136">
        <ele>91</ele>
        <time>2022-09-28T11:59:40.533Z</time>
      </trkpt>
      <trkpt lat="48.66351" lon="2.46136">
        <ele>91</ele>
        <time>2022-09-28T11:59:44.545Z</time>
      </trkpt>
      <trkpt lat="48.66348" lon="2.46137">
        <ele>91</ele>
        <time>2022-09-28T11:59:48.559Z</time>
      </trkpt>
      <trkpt lat="48.66346" lon="2.46137">
        <ele>91</ele>
        <time>2022-09-28T11:59:53.550Z</time>
      </trkpt>
      <trkpt lat="48.66343" lon="2.46139">
        <ele>91</ele>
        <time>2022-09-28T11:59:57.565Z</time>
      </trkpt>
      <trkpt lat="48.66339" lon="2.46141">
        <ele>91</ele>
        <time>2022-09-28T12:00:02.550Z</time>
      </trkpt>
      <trkpt lat="48.66331" lon="2.46147">
        <ele>91</ele>
        <time>2022-09-28T12:00:07.541Z</time>
      </trkpt>
      <trkpt lat="48.66325" lon="2.46151">
        <ele>91</ele>
        <time>2022-09-28T12:00:12.544Z</time>
      </trkpt>
      <trkpt lat="48.6632" lon="2.46152">
        <ele>91</ele>
        <time>2022-09-28T12:00:16.546Z</time>
      </trkpt>
      <trkpt lat="48.66314" lon="2.46152">
        <ele>91</ele>
        <time>2022-09-28T12:00:21.534Z</time>
      </trkpt>
      <trkpt lat="48.6631" lon="2.46151">
        <ele>91</ele>
        <time>2022-09-28T12:00:25.557Z</time>
      </trkpt>
      <trkpt lat="48.66304" lon="2.46153">
        <ele>90</ele>
        <time>2022-09-28T12:00:30.551Z</time>
      </trkpt>
      <trkpt lat="48.66299" lon="2.46151">
        <ele>91</ele>
        <time>2022-09-28T12:00:35.539Z</time>
      </trkpt>
      <trkpt lat="48.66292" lon="2.46148">
        <ele>91</ele>
        <time>2022-09-28T12:00:39.559Z</time>
      </trkpt>
      <trkpt lat="48.66283" lon="2.46148">
        <ele>91</ele>
        <time>2022-09-28T12:00:44.551Z</time>
      </trkpt>
      <trkpt lat="48.66277" lon="2.4615">
        <ele>91</ele>
        <time>2022-09-28T12:00:49.545Z</time>
      </trkpt>
      <trkpt lat="48.66266" lon="2.4615">
        <ele>91</ele>
        <time>2022-09-28T12:00:54.539Z</time>
      </trkpt>
      <trkpt lat="48.66257" lon="2.4615">
        <ele>91</ele>
        <time>2022-09-28T12:00:58.550Z</time>
      </trkpt>
      <trkpt lat="48.66249" lon="2.46151">
        <ele>91</ele>
        <time>2022-09-28T12:01:03.552Z</time>
      </trkpt>
      <trkpt lat="48.6624" lon="2.46156">
        <ele>91</ele>
        <time>2022-09-28T12:01:08.547Z</time>
      </trkpt>
      <trkpt lat="48.66234" lon="2.46158">
        <ele>91</ele>
        <time>2022-09-28T12:01:13.557Z</time>
      </trkpt>
      <trkpt lat="48.66228" lon="2.46164">
        <ele>91</ele>
        <time>2022-09-28T12:01:18.527Z</time>
      </trkpt>
      <trkpt lat="48.66222" lon="2.46167">
        <ele>91</ele>
        <time>2022-09-28T12:01:23.547Z</time>
      </trkpt>
      <trkpt lat="48.66216" lon="2.46173">
        <ele>91</ele>
        <time>2022-09-28T12:01:28.546Z</time>
      </trkpt>
      <trkpt lat="48.66213" lon="2.46177">
        <ele>91</ele>
        <time>2022-09-28T12:01:32.558Z</time>
      </trkpt>
      <trkpt lat="48.66212" lon="2.46182">
        <ele>90</ele>
        <time>2022-09-28T12:01:37.551Z</time>
      </trkpt>
      <trkpt lat="48.66212" lon="2.46186">
        <ele>90</ele>
        <time>2022-09-28T12:01:42.530Z</time>
      </trkpt>
      <trkpt lat="48.66208" lon="2.4619">
        <ele>89</ele>
        <time>2022-09-28T12:01:47.552Z</time>
      </trkpt>
      <trkpt lat="48.66205" lon="2.46196">
        <ele>89</ele>
        <time>2022-09-28T12:01:52.541Z</time>
      </trkpt>
      <trkpt lat="48.66201" lon="2.46202">
        <ele>89</ele>
        <time>2022-09-28T12:01:57.537Z</time>
      </trkpt>
      <trkpt lat="48.66198" lon="2.46209">
        <ele>89</ele>
        <time>2022-09-28T12:02:01.564Z</time>
      </trkpt>
      <trkpt lat="48.66193" lon="2.46218">
        <ele>89</ele>
        <time>2022-09-28T12:02:06.537Z</time>
      </trkpt>
      <trkpt lat="48.66187" lon="2.46227">
        <ele>89</ele>
        <time>2022-09-28T12:02:11.529Z</time>
      </trkpt>
      <trkpt lat="48.66183" lon="2.46236">
        <ele>89</ele>
        <time>2022-09-28T12:02:16.540Z</time>
      </trkpt>
      <trkpt lat="48.66181" lon="2.46246">
        <ele>90</ele>
        <time>2022-09-28T12:02:20.551Z</time>
      </trkpt>
      <trkpt lat="48.6618" lon="2.46257">
        <ele>89</ele>
        <time>2022-09-28T12:02:24.554Z</time>
      </trkpt>
      <trkpt lat="48.66177" lon="2.46263">
        <ele>89</ele>
        <time>2022-09-28T12:02:29.541Z</time>
      </trkpt>
      <trkpt lat="48.6617" lon="2.4627">
        <ele>90</ele>
        <time>2022-09-28T12:02:34.536Z</time>
      </trkpt>
      <trkpt lat="48.66162" lon="2.46281">
        <ele>90</ele>
        <time>2022-09-28T12:02:39.531Z</time>
      </trkpt>
      <trkpt lat="48.66155" lon="2.46294">
        <ele>90</ele>
        <time>2022-09-28T12:02:43.527Z</time>
      </trkpt>
      <trkpt lat="48.66149" lon="2.46305">
        <ele>90</ele>
        <time>2022-09-28T12:02:48.535Z</time>
      </trkpt>
      <trkpt lat="48.66146" lon="2.46307">
        <ele>90</ele>
        <time>2022-09-28T12:02:52.553Z</time>
      </trkpt>
      <trkpt lat="48.66146" lon="2.46315">
        <ele>90</ele>
        <time>2022-09-28T12:03:52.535Z</time>
      </trkpt>
      <trkpt lat="48.66146" lon="2.46316">
        <ele>90</ele>
        <time>2022-09-28T12:03:56.539Z</time>
      </trkpt>
      <trkpt lat="48.66146" lon="2.46318">
        <ele>90</ele>
        <time>2022-09-28T12:04:00.542Z</time>
      </trkpt>
      <trkpt lat="48.66149" lon="2.46321">
        <ele>90</ele>
        <time>2022-09-28T12:04:05.537Z</time>
      </trkpt>
      <trkpt lat="48.66152" lon="2.46321">
        <ele>90</ele>
        <time>2022-09-28T12:04:09.531Z</time>
      </trkpt>
      <trkpt lat="48.66149" lon="2.46329">
        <ele>90</ele>
        <time>2022-09-28T12:05:14.561Z</time>
      </trkpt>
      <trkpt lat="48.66147" lon="2.46329">
        <ele>90</ele>
        <time>2022-09-28T12:05:19.539Z</time>
      </trkpt>
      <trkpt lat="48.66146" lon="2.46328">
        <ele>90</ele>
        <time>2022-09-28T12:05:24.539Z</time>
      </trkpt>
      <trkpt lat="48.66144" lon="2.4633">
        <ele>90</ele>
        <time>2022-09-28T12:05:29.536Z</time>
      </trkpt>
      <trkpt lat="48.66144" lon="2.46332">
        <ele>90</ele>
        <time>2022-09-28T12:05:33.550Z</time>
      </trkpt>
      <trkpt lat="48.66147" lon="2.46329">
        <ele>90</ele>
        <time>2022-09-28T12:05:42.552Z</time>
      </trkpt>
      <trkpt lat="48.66148" lon="2.46328">
        <ele>90</ele>
        <time>2022-09-28T12:05:47.557Z</time>
      </trkpt>
      <trkpt lat="48.66151" lon="2.46332">
        <ele>90</ele>
        <time>2022-09-28T12:05:52.557Z</time>
      </trkpt>
      <trkpt lat="48.66151" lon="2.46338">
        <ele>90</ele>
        <time>2022-09-28T12:05:57.538Z</time>
      </trkpt>
      <trkpt lat="48.66153" lon="2.46343">
        <ele>89</ele>
        <time>2022-09-28T12:06:02.539Z</time>
      </trkpt>
      <trkpt lat="48.66156" lon="2.46349">
        <ele>89</ele>
        <time>2022-09-28T12:06:07.530Z</time>
      </trkpt>
      <trkpt lat="48.66161" lon="2.46353">
        <ele>89</ele>
        <time>2022-09-28T12:06:11.539Z</time>
      </trkpt>
      <trkpt lat="48.6616" lon="2.46359">
        <ele>89</ele>
        <time>2022-09-28T12:06:16.545Z</time>
      </trkpt>
      <trkpt lat="48.66154" lon="2.46366">
        <ele>89</ele>
        <time>2022-09-28T12:06:21.540Z</time>
      </trkpt>
      <trkpt lat="48.66149" lon="2.46368">
        <ele>89</ele>
        <time>2022-09-28T12:06:26.556Z</time>
      </trkpt>
      <trkpt lat="48.66144" lon="2.46377">
        <ele>90</ele>
        <time>2022-09-28T12:06:31.546Z</time>
      </trkpt>
      <trkpt lat="48.66138" lon="2.46384">
        <ele>90</ele>
        <time>2022-09-28T12:06:36.545Z</time>
      </trkpt>
      <trkpt lat="48.66133" lon="2.46385">
        <ele>90</ele>
        <time>2022-09-28T12:06:40.555Z</time>
      </trkpt>
      <trkpt lat="48.66126" lon="2.46389">
        <ele>90</ele>
        <time>2022-09-28T12:06:45.552Z</time>
      </trkpt>
      <trkpt lat="48.66121" lon="2.46392">
        <ele>89</ele>
        <time>2022-09-28T12:06:50.554Z</time>
      </trkpt>
      <trkpt lat="48.66116" lon="2.46395">
        <ele>89</ele>
        <time>2022-09-28T12:06:55.539Z</time>
      </trkpt>
      <trkpt lat="48.66111" lon="2.46397">
        <ele>89</ele>
        <time>2022-09-28T12:06:59.552Z</time>
      </trkpt>
      <trkpt lat="48.66103" lon="2.46402">
        <ele>89</ele>
        <time>2022-09-28T12:07:04.528Z</time>
      </trkpt>
      <trkpt lat="48.66096" lon="2.46405">
        <ele>89</ele>
        <time>2022-09-28T12:07:08.544Z</time>
      </trkpt>
      <trkpt lat="48.66093" lon="2.46406">
        <ele>89</ele>
        <time>2022-09-28T12:07:12.551Z</time>
      </trkpt>
      <trkpt lat="48.66092" lon="2.46405">
        <ele>89</ele>
        <time>2022-09-28T12:07:17.549Z</time>
      </trkpt>
      <trkpt lat="48.66086" lon="2.46406">
        <ele>89</ele>
        <time>2022-09-28T12:07:22.543Z</time>
      </trkpt>
      <trkpt lat="48.66081" lon="2.46408">
        <ele>89</ele>
        <time>2022-09-28T12:07:26.552Z</time>
      </trkpt>
      <trkpt lat="48.66077" lon="2.46411">
        <ele>89</ele>
        <time>2022-09-28T12:07:31.543Z</time>
      </trkpt>
      <trkpt lat="48.66075" lon="2.46413">
        <ele>89</ele>
        <time>2022-09-28T12:07:35.553Z</time>
      </trkpt>
      <trkpt lat="48.66068" lon="2.46419">
        <ele>89</ele>
        <time>2022-09-28T12:07:40.548Z</time>
      </trkpt>
      <trkpt lat="48.66061" lon="2.46424">
        <ele>89</ele>
        <time>2022-09-28T12:07:45.551Z</time>
      </trkpt>
      <trkpt lat="48.66058" lon="2.46426">
        <ele>89</ele>
        <time>2022-09-28T12:07:50.561Z</time>
      </trkpt>
      <trkpt lat="48.66055" lon="2.46429">
        <ele>89</ele>
        <time>2022-09-28T12:07:55.538Z</time>
      </trkpt>
      <trkpt lat="48.66049" lon="2.46431">
        <ele>90</ele>
        <time>2022-09-28T12:08:00.542Z</time>
      </trkpt>
      <trkpt lat="48.66046" lon="2.46433">
        <ele>90</ele>
        <time>2022-09-28T12:08:04.550Z</time>
      </trkpt>
      <trkpt lat="48.66044" lon="2.46437">
        <ele>90</ele>
        <time>2022-09-28T12:08:09.541Z</time>
      </trkpt>
      <trkpt lat="48.66037" lon="2.46444">
        <ele>91</ele>
        <time>2022-09-28T12:08:14.543Z</time>
      </trkpt>
      <trkpt lat="48.66025" lon="2.46451">
        <ele>91</ele>
        <time>2022-09-28T12:08:19.529Z</time>
      </trkpt>
      <trkpt lat="48.66019" lon="2.46455">
        <ele>91</ele>
        <time>2022-09-28T12:08:23.554Z</time>
      </trkpt>
      <trkpt lat="48.66012" lon="2.4646">
        <ele>93</ele>
        <time>2022-09-28T12:08:28.550Z</time>
      </trkpt>
      <trkpt lat="48.66007" lon="2.46461">
        <ele>93</ele>
        <time>2022-09-28T12:08:33.548Z</time>
      </trkpt>
      <trkpt lat="48.66006" lon="2.46461">
        <ele>93</ele>
        <time>2022-09-28T12:08:38.530Z</time>
      </trkpt>
      <trkpt lat="48.66005" lon="2.46462">
        <ele>93</ele>
        <time>2022-09-28T12:08:42.562Z</time>
      </trkpt>
      <trkpt lat="48.66004" lon="2.46464">
        <ele>93</ele>
        <time>2022-09-28T12:08:47.543Z</time>
      </trkpt>
      <trkpt lat="48.66002" lon="2.46466">
        <ele>93</ele>
        <time>2022-09-28T12:08:52.569Z</time>
      </trkpt>
      <trkpt lat="48.65994" lon="2.4647">
        <ele>93</ele>
        <time>2022-09-28T12:08:57.532Z</time>
      </trkpt>
      <trkpt lat="48.65987" lon="2.46477">
        <ele>93</ele>
        <time>2022-09-28T12:09:02.541Z</time>
      </trkpt>
      <trkpt lat="48.65979" lon="2.46477">
        <ele>92</ele>
        <time>2022-09-28T12:09:06.554Z</time>
      </trkpt>
      <trkpt lat="48.65973" lon="2.46479">
        <ele>92</ele>
        <time>2022-09-28T12:09:11.550Z</time>
      </trkpt>
      <trkpt lat="48.65971" lon="2.46481">
        <ele>92</ele>
        <time>2022-09-28T12:09:16.550Z</time>
      </trkpt>
      <trkpt lat="48.65969" lon="2.46483">
        <ele>92</ele>
        <time>2022-09-28T12:09:21.542Z</time>
      </trkpt>
      <trkpt lat="48.65964" lon="2.46485">
        <ele>92</ele>
        <time>2022-09-28T12:09:25.565Z</time>
      </trkpt>
      <trkpt lat="48.65957" lon="2.46487">
        <ele>90</ele>
        <time>2022-09-28T12:09:30.554Z</time>
      </trkpt>
      <trkpt lat="48.65951" lon="2.46489">
        <ele>90</ele>
        <time>2022-09-28T12:09:34.554Z</time>
      </trkpt>
      <trkpt lat="48.65945" lon="2.46493">
        <ele>90</ele>
        <time>2022-09-28T12:09:38.568Z</time>
      </trkpt>
      <trkpt lat="48.65938" lon="2.46498">
        <ele>90</ele>
        <time>2022-09-28T12:09:43.544Z</time>
      </trkpt>
      <trkpt lat="48.65931" lon="2.46503">
        <ele>90</ele>
        <time>2022-09-28T12:09:48.547Z</time>
      </trkpt>
      <trkpt lat="48.65922" lon="2.46508">
        <ele>90</ele>
        <time>2022-09-28T12:09:53.535Z</time>
      </trkpt>
      <trkpt lat="48.65918" lon="2.46511">
        <ele>90</ele>
        <time>2022-09-28T12:09:57.548Z</time>
      </trkpt>
      <trkpt lat="48.65913" lon="2.46514">
        <ele>90</ele>
        <time>2022-09-28T12:10:01.573Z</time>
      </trkpt>
      <trkpt lat="48.6591" lon="2.46516">
        <ele>90</ele>
        <time>2022-09-28T12:10:06.555Z</time>
      </trkpt>
      <trkpt lat="48.65906" lon="2.4652">
        <ele>90</ele>
        <time>2022-09-28T12:10:11.530Z</time>
      </trkpt>
      <trkpt lat="48.65902" lon="2.46521">
        <ele>89</ele>
        <time>2022-09-28T12:10:15.555Z</time>
      </trkpt>
      <trkpt lat="48.65897" lon="2.46527">
        <ele>89</ele>
        <time>2022-09-28T12:10:20.570Z</time>
      </trkpt>
      <trkpt lat="48.65892" lon="2.46531">
        <ele>89</ele>
        <time>2022-09-28T12:10:25.555Z</time>
      </trkpt>
      <trkpt lat="48.65885" lon="2.46536">
        <ele>89</ele>
        <time>2022-09-28T12:10:30.560Z</time>
      </trkpt>
      <trkpt lat="48.65881" lon="2.46544">
        <ele>89</ele>
        <time>2022-09-28T12:10:34.567Z</time>
      </trkpt>
      <trkpt lat="48.65875" lon="2.46545">
        <ele>89</ele>
        <time>2022-09-28T12:10:39.546Z</time>
      </trkpt>
      <trkpt lat="48.6587" lon="2.46546">
        <ele>89</ele>
        <time>2022-09-28T12:10:43.557Z</time>
      </trkpt>
      <trkpt lat="48.65865" lon="2.46549">
        <ele>89</ele>
        <time>2022-09-28T12:10:48.550Z</time>
      </trkpt>
      <trkpt lat="48.65859" lon="2.46549">
        <ele>89</ele>
        <time>2022-09-28T12:10:53.538Z</time>
      </trkpt>
      <trkpt lat="48.65854" lon="2.4655">
        <ele>89</ele>
        <time>2022-09-28T12:10:57.572Z</time>
      </trkpt>
      <trkpt lat="48.65848" lon="2.46553">
        <ele>89</ele>
        <time>2022-09-28T12:11:02.542Z</time>
      </trkpt>
      <trkpt lat="48.65847" lon="2.4656">
        <ele>89</ele>
        <time>2022-09-28T12:11:07.538Z</time>
      </trkpt>
      <trkpt lat="48.65845" lon="2.46561">
        <ele>89</ele>
        <time>2022-09-28T12:11:11.561Z</time>
      </trkpt>
      <trkpt lat="48.65842" lon="2.4656">
        <ele>89</ele>
        <time>2022-09-28T12:11:16.556Z</time>
      </trkpt>
      <trkpt lat="48.65837" lon="2.4656">
        <ele>89</ele>
        <time>2022-09-28T12:11:21.526Z</time>
      </trkpt>
      <trkpt lat="48.65831" lon="2.46561">
        <ele>89</ele>
        <time>2022-09-28T12:11:25.555Z</time>
      </trkpt>
      <trkpt lat="48.65826" lon="2.46557">
        <ele>89</ele>
        <time>2022-09-28T12:11:30.559Z</time>
      </trkpt>
      <trkpt lat="48.65822" lon="2.46557">
        <ele>89</ele>
        <time>2022-09-28T12:11:35.550Z</time>
      </trkpt>
      <trkpt lat="48.65817" lon="2.46556">
        <ele>89</ele>
        <time>2022-09-28T12:11:40.553Z</time>
      </trkpt>
      <trkpt lat="48.6581" lon="2.46557">
        <ele>89</ele>
        <time>2022-09-28T12:11:45.539Z</time>
      </trkpt>
      <trkpt lat="48.65802" lon="2.46561">
        <ele>89</ele>
        <time>2022-09-28T12:11:50.562Z</time>
      </trkpt>
      <trkpt lat="48.65798" lon="2.46562">
        <ele>89</ele>
        <time>2022-09-28T12:11:55.550Z</time>
      </trkpt>
      <trkpt lat="48.65796" lon="2.46562">
        <ele>89</ele>
        <time>2022-09-28T12:12:00.545Z</time>
      </trkpt>
      <trkpt lat="48.65795" lon="2.46562">
        <ele>89</ele>
        <time>2022-09-28T12:12:05.533Z</time>
      </trkpt>
      <trkpt lat="48.65793" lon="2.46561">
        <ele>89</ele>
        <time>2022-09-28T12:12:09.560Z</time>
      </trkpt>
      <trkpt lat="48.65789" lon="2.46562">
        <ele>89</ele>
        <time>2022-09-28T12:12:13.552Z</time>
      </trkpt>
      <trkpt lat="48.65784" lon="2.46563">
        <ele>89</ele>
        <time>2022-09-28T12:12:18.553Z</time>
      </trkpt>
      <trkpt lat="48.65777" lon="2.46568">
        <ele>89</ele>
        <time>2022-09-28T12:12:23.546Z</time>
      </trkpt>
      <trkpt lat="48.6577" lon="2.4657">
        <ele>89</ele>
        <time>2022-09-28T12:12:27.552Z</time>
      </trkpt>
      <trkpt lat="48.65763" lon="2.46573">
        <ele>90</ele>
        <time>2022-09-28T12:12:32.562Z</time>
      </trkpt>
      <trkpt lat="48.65761" lon="2.46571">
        <ele>90</ele>
        <time>2022-09-28T12:12:37.545Z</time>
      </trkpt>
      <trkpt lat="48.6576" lon="2.46569">
        <ele>89</ele>
        <time>2022-09-28T12:12:42.565Z</time>
      </trkpt>
      <trkpt lat="48.6576" lon="2.46563">
        <ele>89</ele>
        <time>2022-09-28T12:12:46.567Z</time>
      </trkpt>
      <trkpt lat="48.65757" lon="2.46561">
        <ele>89</ele>
        <time>2022-09-28T12:12:51.549Z</time>
      </trkpt>
      <trkpt lat="48.65751" lon="2.46557">
        <ele>89</ele>
        <time>2022-09-28T12:12:56.559Z</time>
      </trkpt>
      <trkpt lat="48.65744" lon="2.46553">
        <ele>89</ele>
        <time>2022-09-28T12:13:01.541Z</time>
      </trkpt>
      <trkpt lat="48.65742" lon="2.46548">
        <ele>89</ele>
        <time>2022-09-28T12:13:05.550Z</time>
      </trkpt>
      <trkpt lat="48.65735" lon="2.46544">
        <ele>90</ele>
        <time>2022-09-28T12:13:09.569Z</time>
      </trkpt>
      <trkpt lat="48.65732" lon="2.46539">
        <ele>89</ele>
        <time>2022-09-28T12:13:14.546Z</time>
      </trkpt>
      <trkpt lat="48.65729" lon="2.46533">
        <ele>89</ele>
        <time>2022-09-28T12:13:19.547Z</time>
      </trkpt>
      <trkpt lat="48.65725" lon="2.46529">
        <ele>89</ele>
        <time>2022-09-28T12:13:23.553Z</time>
      </trkpt>
      <trkpt lat="48.6572" lon="2.46524">
        <ele>89</ele>
        <time>2022-09-28T12:13:28.555Z</time>
      </trkpt>
      <trkpt lat="48.65717" lon="2.46515">
        <ele>89</ele>
        <time>2022-09-28T12:13:33.549Z</time>
      </trkpt>
      <trkpt lat="48.65711" lon="2.46509">
        <ele>87</ele>
        <time>2022-09-28T12:13:38.548Z</time>
      </trkpt>
      <trkpt lat="48.65708" lon="2.46502">
        <ele>87</ele>
        <time>2022-09-28T12:13:42.551Z</time>
      </trkpt>
      <trkpt lat="48.65705" lon="2.46497">
        <ele>91</ele>
        <time>2022-09-28T12:13:47.547Z</time>
      </trkpt>
      <trkpt lat="48.65697" lon="2.46489">
        <ele>91</ele>
        <time>2022-09-28T12:13:52.545Z</time>
      </trkpt>
      <trkpt lat="48.65694" lon="2.46484">
        <ele>88</ele>
        <time>2022-09-28T12:13:56.547Z</time>
      </trkpt>
      <trkpt lat="48.65688" lon="2.46478">
        <ele>88</ele>
        <time>2022-09-28T12:14:00.551Z</time>
      </trkpt>
      <trkpt lat="48.65684" lon="2.46471">
        <ele>88</ele>
        <time>2022-09-28T12:14:05.546Z</time>
      </trkpt>
      <trkpt lat="48.65682" lon="2.46467">
        <ele>88</ele>
        <time>2022-09-28T12:14:09.550Z</time>
      </trkpt>
      <trkpt lat="48.65678" lon="2.46463">
        <ele>91</ele>
        <time>2022-09-28T12:14:13.569Z</time>
      </trkpt>
      <trkpt lat="48.65673" lon="2.46458">
        <ele>89</ele>
        <time>2022-09-28T12:14:18.541Z</time>
      </trkpt>
      <trkpt lat="48.65671" lon="2.46451">
        <ele>89</ele>
        <time>2022-09-28T12:14:22.565Z</time>
      </trkpt>
      <trkpt lat="48.65667" lon="2.46441">
        <ele>89</ele>
        <time>2022-09-28T12:14:27.542Z</time>
      </trkpt>
      <trkpt lat="48.65664" lon="2.46436">
        <ele>89</ele>
        <time>2022-09-28T12:14:32.554Z</time>
      </trkpt>
      <trkpt lat="48.65661" lon="2.46429">
        <ele>86</ele>
        <time>2022-09-28T12:14:37.549Z</time>
      </trkpt>
      <trkpt lat="48.65654" lon="2.46422">
        <ele>86</ele>
        <time>2022-09-28T12:14:42.554Z</time>
      </trkpt>
      <trkpt lat="48.65647" lon="2.46418">
        <ele>88</ele>
        <time>2022-09-28T12:14:47.548Z</time>
      </trkpt>
      <trkpt lat="48.65645" lon="2.46412">
        <ele>88</ele>
        <time>2022-09-28T12:14:51.561Z</time>
      </trkpt>
      <trkpt lat="48.65642" lon="2.46403">
        <ele>88</ele>
        <time>2022-09-28T12:14:56.545Z</time>
      </trkpt>
      <trkpt lat="48.65638" lon="2.46397">
        <ele>85</ele>
        <time>2022-09-28T12:15:01.558Z</time>
      </trkpt>
      <trkpt lat="48.65634" lon="2.46388">
        <ele>85</ele>
        <time>2022-09-28T12:15:06.551Z</time>
      </trkpt>
      <trkpt lat="48.65632" lon="2.4638">
        <ele>85</ele>
        <time>2022-09-28T12:15:10.567Z</time>
      </trkpt>
      <trkpt lat="48.65628" lon="2.46376">
        <ele>85</ele>
        <time>2022-09-28T12:15:14.591Z</time>
      </trkpt>
      <trkpt lat="48.65626" lon="2.46371">
        <ele>83</ele>
        <time>2022-09-28T12:15:19.543Z</time>
      </trkpt>
      <trkpt lat="48.65621" lon="2.46357">
        <ele>84</ele>
        <time>2022-09-28T12:16:14.535Z</time>
      </trkpt>
      <trkpt lat="48.65618" lon="2.46357">
        <ele>84</ele>
        <time>2022-09-28T12:16:18.541Z</time>
      </trkpt>
      <trkpt lat="48.65618" lon="2.46357">
        <ele>84</ele>
        <time>2022-09-28T12:16:23.547Z</time>
      </trkpt>
      <trkpt lat="48.65617" lon="2.46355">
        <ele>84</ele>
        <time>2022-09-28T12:16:27.543Z</time>
      </trkpt>
      <trkpt lat="48.65617" lon="2.46355">
        <ele>84</ele>
        <time>2022-09-28T12:16:31.551Z</time>
      </trkpt>
      <trkpt lat="48.65615" lon="2.46354">
        <ele>84</ele>
        <time>2022-09-28T12:18:03.539Z</time>
      </trkpt>
      <trkpt lat="48.65613" lon="2.46352">
        <ele>84</ele>
        <time>2022-09-28T12:18:07.548Z</time>
      </trkpt>
      <trkpt lat="48.65612" lon="2.4635">
        <ele>84</ele>
        <time>2022-09-28T12:18:11.586Z</time>
      </trkpt>
      <trkpt lat="48.65613" lon="2.46347">
        <ele>84</ele>
        <time>2022-09-28T12:18:16.549Z</time>
      </trkpt>
      <trkpt lat="48.65611" lon="2.46344">
        <ele>83</ele>
        <time>2022-09-28T12:18:21.541Z</time>
      </trkpt>
      <trkpt lat="48.65609" lon="2.4634">
        <ele>83</ele>
        <time>2022-09-28T12:18:25.549Z</time>
      </trkpt>
      <trkpt lat="48.65607" lon="2.46334">
        <ele>83</ele>
        <time>2022-09-28T12:18:30.553Z</time>
      </trkpt>
      <trkpt lat="48.65606" lon="2.46328">
        <ele>83</ele>
        <time>2022-09-28T12:18:34.567Z</time>
      </trkpt>
      <trkpt lat="48.65604" lon="2.46323">
        <ele>83</ele>
        <time>2022-09-28T12:18:38.584Z</time>
      </trkpt>
      <trkpt lat="48.65602" lon="2.46316">
        <ele>83</ele>
        <time>2022-09-28T12:18:43.550Z</time>
      </trkpt>
      <trkpt lat="48.656" lon="2.46309">
        <ele>83</ele>
        <time>2022-09-28T12:18:47.558Z</time>
      </trkpt>
      <trkpt lat="48.65597" lon="2.46303">
        <ele>83</ele>
        <time>2022-09-28T12:18:52.549Z</time>
      </trkpt>
      <trkpt lat="48.65595" lon="2.46296">
        <ele>84</ele>
        <time>2022-09-28T12:18:57.547Z</time>
      </trkpt>
      <trkpt lat="48.65592" lon="2.46289">
        <ele>85</ele>
        <time>2022-09-28T12:19:01.563Z</time>
      </trkpt>
      <trkpt lat="48.65588" lon="2.46284">
        <ele>85</ele>
        <time>2022-09-28T12:19:06.537Z</time>
      </trkpt>
      <trkpt lat="48.65586" lon="2.46276">
        <ele>85</ele>
        <time>2022-09-28T12:19:11.545Z</time>
      </trkpt>
      <trkpt lat="48.65585" lon="2.46271">
        <ele>85</ele>
        <time>2022-09-28T12:19:16.558Z</time>
      </trkpt>
      <trkpt lat="48.65584" lon="2.46259">
        <ele>86</ele>
        <time>2022-09-28T12:19:21.555Z</time>
      </trkpt>
      <trkpt lat="48.6558" lon="2.4625">
        <ele>86</ele>
        <time>2022-09-28T12:19:26.550Z</time>
      </trkpt>
      <trkpt lat="48.65574" lon="2.4624">
        <ele>86</ele>
        <time>2022-09-28T12:19:31.538Z</time>
      </trkpt>
      <trkpt lat="48.65572" lon="2.46229">
        <ele>87</ele>
        <time>2022-09-28T12:19:36.548Z</time>
      </trkpt>
      <trkpt lat="48.65571" lon="2.46217">
        <ele>87</ele>
        <time>2022-09-28T12:19:41.551Z</time>
      </trkpt>
      <trkpt lat="48.65569" lon="2.46209">
        <ele>87</ele>
        <time>2022-09-28T12:19:46.549Z</time>
      </trkpt>
      <trkpt lat="48.65565" lon="2.46204">
        <ele>87</ele>
        <time>2022-09-28T12:19:51.535Z</time>
      </trkpt>
      <trkpt lat="48.65562" lon="2.46195">
        <ele>87</ele>
        <time>2022-09-28T12:19:56.550Z</time>
      </trkpt>
      <trkpt lat="48.65561" lon="2.46186">
        <ele>87</ele>
        <time>2022-09-28T12:20:01.537Z</time>
      </trkpt>
      <trkpt lat="48.65559" lon="2.46182">
        <ele>87</ele>
        <time>2022-09-28T12:20:06.540Z</time>
      </trkpt>
      <trkpt lat="48.65555" lon="2.46176">
        <ele>88</ele>
        <time>2022-09-28T12:20:10.544Z</time>
      </trkpt>
      <trkpt lat="48.65549" lon="2.46171">
        <ele>88</ele>
        <time>2022-09-28T12:20:15.536Z</time>
      </trkpt>
      <trkpt lat="48.65545" lon="2.46166">
        <ele>88</ele>
        <time>2022-09-28T12:20:20.542Z</time>
      </trkpt>
      <trkpt lat="48.65542" lon="2.46159">
        <ele>88</ele>
        <time>2022-09-28T12:20:25.535Z</time>
      </trkpt>
      <trkpt lat="48.65538" lon="2.46153">
        <ele>86</ele>
        <time>2022-09-28T12:20:30.543Z</time>
      </trkpt>
      <trkpt lat="48.65533" lon="2.46144">
        <ele>86</ele>
        <time>2022-09-28T12:20:35.531Z</time>
      </trkpt>
      <trkpt lat="48.65529" lon="2.46138">
        <ele>86</ele>
        <time>2022-09-28T12:20:39.541Z</time>
      </trkpt>
      <trkpt lat="48.65524" lon="2.46131">
        <ele>86</ele>
        <time>2022-09-28T12:20:43.531Z</time>
      </trkpt>
      <trkpt lat="48.6552" lon="2.46126">
        <ele>86</ele>
        <time>2022-09-28T12:20:48.544Z</time>
      </trkpt>
      <trkpt lat="48.65516" lon="2.46122">
        <ele>87</ele>
        <time>2022-09-28T12:20:52.539Z</time>
      </trkpt>
      <trkpt lat="48.6551" lon="2.46115">
        <ele>85</ele>
        <time>2022-09-28T12:20:56.552Z</time>
      </trkpt>
      <trkpt lat="48.65505" lon="2.46108">
        <ele>85</ele>
        <time>2022-09-28T12:21:01.539Z</time>
      </trkpt>
      <trkpt lat="48.65502" lon="2.461">
        <ele>85</ele>
        <time>2022-09-28T12:21:06.532Z</time>
      </trkpt>
      <trkpt lat="48.65501" lon="2.4609">
        <ele>86</ele>
        <time>2022-09-28T12:21:11.539Z</time>
      </trkpt>
      <trkpt lat="48.65496" lon="2.46086">
        <ele>86</ele>
        <time>2022-09-28T12:21:16.534Z</time>
      </trkpt>
      <trkpt lat="48.65491" lon="2.46083">
        <ele>86</ele>
        <time>2022-09-28T12:21:20.548Z</time>
      </trkpt>
      <trkpt lat="48.65489" lon="2.46079">
        <ele>86</ele>
        <time>2022-09-28T12:21:25.543Z</time>
      </trkpt>
      <trkpt lat="48.65485" lon="2.46074">
        <ele>84</ele>
        <time>2022-09-28T12:21:30.542Z</time>
      </trkpt>
      <trkpt lat="48.65481" lon="2.46068">
        <ele>84</ele>
        <time>2022-09-28T12:21:34.554Z</time>
      </trkpt>
      <trkpt lat="48.65477" lon="2.46063">
        <ele>84</ele>
        <time>2022-09-28T12:21:38.555Z</time>
      </trkpt>
      <trkpt lat="48.65471" lon="2.46057">
        <ele>84</ele>
        <time>2022-09-28T12:21:43.545Z</time>
      </trkpt>
      <trkpt lat="48.65464" lon="2.4605">
        <ele>84</ele>
        <time>2022-09-28T12:21:48.550Z</time>
      </trkpt>
      <trkpt lat="48.65461" lon="2.46046">
        <ele>84</ele>
        <time>2022-09-28T12:21:52.566Z</time>
      </trkpt>
      <trkpt lat="48.65456" lon="2.46037">
        <ele>82</ele>
        <time>2022-09-28T12:21:57.545Z</time>
      </trkpt>
      <trkpt lat="48.6545" lon="2.46033">
        <ele>82</ele>
        <time>2022-09-28T12:22:02.551Z</time>
      </trkpt>
      <trkpt lat="48.65448" lon="2.46026">
        <ele>82</ele>
        <time>2022-09-28T12:22:06.553Z</time>
      </trkpt>
      <trkpt lat="48.65443" lon="2.4602">
        <ele>82</ele>
        <time>2022-09-28T12:22:11.559Z</time>
      </trkpt>
      <trkpt lat="48.6544" lon="2.46016">
        <ele>82</ele>
        <time>2022-09-28T12:22:15.563Z</time>
      </trkpt>
      <trkpt lat="48.65437" lon="2.46009">
        <ele>82</ele>
        <time>2022-09-28T12:22:20.554Z</time>
      </trkpt>
      <trkpt lat="48.65432" lon="2.46004">
        <ele>82</ele>
        <time>2022-09-28T12:22:25.550Z</time>
      </trkpt>
      <trkpt lat="48.65429" lon="2.45997">
        <ele>82</ele>
        <time>2022-09-28T12:22:29.544Z</time>
      </trkpt>
      <trkpt lat="48.65424" lon="2.4599">
        <ele>82</ele>
        <time>2022-09-28T12:22:34.567Z</time>
      </trkpt>
      <trkpt lat="48.65419" lon="2.45983">
        <ele>82</ele>
        <time>2022-09-28T12:22:39.550Z</time>
      </trkpt>
      <trkpt lat="48.65416" lon="2.45974">
        <ele>82</ele>
        <time>2022-09-28T12:22:44.541Z</time>
      </trkpt>
      <trkpt lat="48.65414" lon="2.45967">
        <ele>82</ele>
        <time>2022-09-28T12:22:48.581Z</time>
      </trkpt>
      <trkpt lat="48.6541" lon="2.4596">
        <ele>82</ele>
        <time>2022-09-28T12:22:53.549Z</time>
      </trkpt>
      <trkpt lat="48.65408" lon="2.45952">
        <ele>83</ele>
        <time>2022-09-28T12:22:58.549Z</time>
      </trkpt>
      <trkpt lat="48.65403" lon="2.45945">
        <ele>83</ele>
        <time>2022-09-28T12:23:03.547Z</time>
      </trkpt>
      <trkpt lat="48.65399" lon="2.45939">
        <ele>82</ele>
        <time>2022-09-28T12:23:07.571Z</time>
      </trkpt>
      <trkpt lat="48.65394" lon="2.4593">
        <ele>82</ele>
        <time>2022-09-28T12:23:12.553Z</time>
      </trkpt>
      <trkpt lat="48.65388" lon="2.45925">
        <ele>82</ele>
        <time>2022-09-28T12:23:17.567Z</time>
      </trkpt>
      <trkpt lat="48.65383" lon="2.45918">
        <ele>82</ele>
        <time>2022-09-28T12:23:22.562Z</time>
      </trkpt>
      <trkpt lat="48.65381" lon="2.45911">
        <ele>82</ele>
        <time>2022-09-28T12:23:27.551Z</time>
      </trkpt>
      <trkpt lat="48.65376" lon="2.45906">
        <ele>82</ele>
        <time>2022-09-28T12:23:31.561Z</time>
      </trkpt>
      <trkpt lat="48.65372" lon="2.45897">
        <ele>83</ele>
        <time>2022-09-28T12:23:36.549Z</time>
      </trkpt>
      <trkpt lat="48.65368" lon="2.45887">
        <ele>83</ele>
        <time>2022-09-28T12:23:41.550Z</time>
      </trkpt>
      <trkpt lat="48.65365" lon="2.45878">
        <ele>83</ele>
        <time>2022-09-28T12:23:46.559Z</time>
      </trkpt>
      <trkpt lat="48.65361" lon="2.45872">
        <ele>83</ele>
        <time>2022-09-28T12:23:51.553Z</time>
      </trkpt>
      <trkpt lat="48.65355" lon="2.45867">
        <ele>83</ele>
        <time>2022-09-28T12:23:56.553Z</time>
      </trkpt>
      <trkpt lat="48.65351" lon="2.45862">
        <ele>83</ele>
        <time>2022-09-28T12:24:00.574Z</time>
      </trkpt>
      <trkpt lat="48.65348" lon="2.45857">
        <ele>83</ele>
        <time>2022-09-28T12:24:05.556Z</time>
      </trkpt>
      <trkpt lat="48.65344" lon="2.45851">
        <ele>82</ele>
        <time>2022-09-28T12:24:10.558Z</time>
      </trkpt>
      <trkpt lat="48.65338" lon="2.45846">
        <ele>82</ele>
        <time>2022-09-28T12:24:15.552Z</time>
      </trkpt>
      <trkpt lat="48.65335" lon="2.45839">
        <ele>82</ele>
        <time>2022-09-28T12:24:20.578Z</time>
      </trkpt>
      <trkpt lat="48.65331" lon="2.45834">
        <ele>82</ele>
        <time>2022-09-28T12:24:25.545Z</time>
      </trkpt>
      <trkpt lat="48.65326" lon="2.45828">
        <ele>82</ele>
        <time>2022-09-28T12:24:30.552Z</time>
      </trkpt>
      <trkpt lat="48.65322" lon="2.45821">
        <ele>82</ele>
        <time>2022-09-28T12:24:35.548Z</time>
      </trkpt>
      <trkpt lat="48.6532" lon="2.45815">
        <ele>82</ele>
        <time>2022-09-28T12:24:40.569Z</time>
      </trkpt>
      <trkpt lat="48.65317" lon="2.45812">
        <ele>82</ele>
        <time>2022-09-28T12:24:45.545Z</time>
      </trkpt>
      <trkpt lat="48.65313" lon="2.45807">
        <ele>82</ele>
        <time>2022-09-28T12:24:49.561Z</time>
      </trkpt>
      <trkpt lat="48.65312" lon="2.45804">
        <ele>82</ele>
        <time>2022-09-28T12:24:54.558Z</time>
      </trkpt>
      <trkpt lat="48.6531" lon="2.45804">
        <ele>82</ele>
        <time>2022-09-28T12:24:59.562Z</time>
      </trkpt>
      <trkpt lat="48.65307" lon="2.45803">
        <ele>82</ele>
        <time>2022-09-28T12:25:04.556Z</time>
      </trkpt>
      <trkpt lat="48.65305" lon="2.45798">
        <ele>82</ele>
        <time>2022-09-28T12:25:09.555Z</time>
      </trkpt>
      <trkpt lat="48.65302" lon="2.45793">
        <ele>82</ele>
        <time>2022-09-28T12:25:14.559Z</time>
      </trkpt>
      <trkpt lat="48.65302" lon="2.45787">
        <ele>82</ele>
        <time>2022-09-28T12:25:19.560Z</time>
      </trkpt>
      <trkpt lat="48.653" lon="2.45784">
        <ele>82</ele>
        <time>2022-09-28T12:25:24.564Z</time>
      </trkpt>
      <trkpt lat="48.65297" lon="2.45778">
        <ele>82</ele>
        <time>2022-09-28T12:25:29.587Z</time>
      </trkpt>
      <trkpt lat="48.65292" lon="2.4577">
        <ele>82</ele>
        <time>2022-09-28T12:25:34.550Z</time>
      </trkpt>
      <trkpt lat="48.6529" lon="2.45764">
        <ele>80</ele>
        <time>2022-09-28T12:25:38.565Z</time>
      </trkpt>
      <trkpt lat="48.65287" lon="2.45757">
        <ele>80</ele>
        <time>2022-09-28T12:25:43.568Z</time>
      </trkpt>
      <trkpt lat="48.65285" lon="2.45753">
        <ele>80</ele>
        <time>2022-09-28T12:25:48.580Z</time>
      </trkpt>
      <trkpt lat="48.65281" lon="2.45747">
        <ele>80</ele>
        <time>2022-09-28T12:25:53.547Z</time>
      </trkpt>
      <trkpt lat="48.65279" lon="2.45742">
        <ele>80</ele>
        <time>2022-09-28T12:25:57.549Z</time>
      </trkpt>
      <trkpt lat="48.65275" lon="2.45735">
        <ele>81</ele>
        <time>2022-09-28T12:26:02.560Z</time>
      </trkpt>
      <trkpt lat="48.65268" lon="2.45727">
        <ele>81</ele>
        <time>2022-09-28T12:26:07.545Z</time>
      </trkpt>
      <trkpt lat="48.65264" lon="2.45719">
        <ele>81</ele>
        <time>2022-09-28T12:26:11.552Z</time>
      </trkpt>
      <trkpt lat="48.65263" lon="2.45713">
        <ele>79</ele>
        <time>2022-09-28T12:26:15.556Z</time>
      </trkpt>
      <trkpt lat="48.6526" lon="2.45707">
        <ele>79</ele>
        <time>2022-09-28T12:26:19.565Z</time>
      </trkpt>
      <trkpt lat="48.65257" lon="2.45702">
        <ele>79</ele>
        <time>2022-09-28T12:26:24.550Z</time>
      </trkpt>
      <trkpt lat="48.65252" lon="2.45697">
        <ele>79</ele>
        <time>2022-09-28T12:26:29.535Z</time>
      </trkpt>
      <trkpt lat="48.65249" lon="2.45691">
        <ele>79</ele>
        <time>2022-09-28T12:26:33.567Z</time>
      </trkpt>
      <trkpt lat="48.65245" lon="2.45684">
        <ele>79</ele>
        <time>2022-09-28T12:26:38.568Z</time>
      </trkpt>
      <trkpt lat="48.65241" lon="2.45675">
        <ele>80</ele>
        <time>2022-09-28T12:26:43.545Z</time>
      </trkpt>
      <trkpt lat="48.65238" lon="2.45664">
        <ele>80</ele>
        <time>2022-09-28T12:26:48.560Z</time>
      </trkpt>
      <trkpt lat="48.65236" lon="2.45659">
        <ele>80</ele>
        <time>2022-09-28T12:26:52.565Z</time>
      </trkpt>
      <trkpt lat="48.6523" lon="2.45659">
        <ele>79</ele>
        <time>2022-09-28T12:26:57.540Z</time>
      </trkpt>
      <trkpt lat="48.65223" lon="2.4566">
        <ele>79</ele>
        <time>2022-09-28T12:27:02.550Z</time>
      </trkpt>
      <trkpt lat="48.6522" lon="2.45662">
        <ele>79</ele>
        <time>2022-09-28T12:27:06.570Z</time>
      </trkpt>
      <trkpt lat="48.65218" lon="2.45667">
        <ele>79</ele>
        <time>2022-09-28T12:27:10.576Z</time>
      </trkpt>
      <trkpt lat="48.6521" lon="2.45675">
        <ele>79</ele>
        <time>2022-09-28T12:27:15.553Z</time>
      </trkpt>
      <trkpt lat="48.65204" lon="2.45682">
        <ele>80</ele>
        <time>2022-09-28T12:27:20.546Z</time>
      </trkpt>
      <trkpt lat="48.652" lon="2.45689">
        <ele>80</ele>
        <time>2022-09-28T12:27:24.554Z</time>
      </trkpt>
      <trkpt lat="48.65196" lon="2.45696">
        <ele>80</ele>
        <time>2022-09-28T12:27:28.563Z</time>
      </trkpt>
      <trkpt lat="48.6519" lon="2.45699">
        <ele>80</ele>
        <time>2022-09-28T12:27:32.572Z</time>
      </trkpt>
      <trkpt lat="48.65183" lon="2.45701">
        <ele>80</ele>
        <time>2022-09-28T12:27:37.558Z</time>
      </trkpt>
      <trkpt lat="48.65179" lon="2.45699">
        <ele>80</ele>
        <time>2022-09-28T12:27:41.565Z</time>
      </trkpt>
      <trkpt lat="48.65174" lon="2.45695">
        <ele>80</ele>
        <time>2022-09-28T12:27:46.558Z</time>
      </trkpt>
      <trkpt lat="48.65167" lon="2.45691">
        <ele>80</ele>
        <time>2022-09-28T12:27:51.544Z</time>
      </trkpt>
      <trkpt lat="48.65164" lon="2.45692">
        <ele>80</ele>
        <time>2022-09-28T12:27:55.560Z</time>
      </trkpt>
      <trkpt lat="48.65157" lon="2.45696">
        <ele>80</ele>
        <time>2022-09-28T12:28:00.559Z</time>
      </trkpt>
      <trkpt lat="48.65154" lon="2.457">
        <ele>80</ele>
        <time>2022-09-28T12:28:05.545Z</time>
      </trkpt>
      <trkpt lat="48.65149" lon="2.45707">
        <ele>78</ele>
        <time>2022-09-28T12:28:10.539Z</time>
      </trkpt>
      <trkpt lat="48.65144" lon="2.4571">
        <ele>79</ele>
        <time>2022-09-28T12:28:14.552Z</time>
      </trkpt>
      <trkpt lat="48.6514" lon="2.45713">
        <ele>79</ele>
        <time>2022-09-28T12:28:19.537Z</time>
      </trkpt>
      <trkpt lat="48.65135" lon="2.45717">
        <ele>79</ele>
        <time>2022-09-28T12:28:24.553Z</time>
      </trkpt>
      <trkpt lat="48.6513" lon="2.4572">
        <ele>79</ele>
        <time>2022-09-28T12:28:28.564Z</time>
      </trkpt>
      <trkpt lat="48.65123" lon="2.45725">
        <ele>78</ele>
        <time>2022-09-28T12:28:33.533Z</time>
      </trkpt>
      <trkpt lat="48.65118" lon="2.45727">
        <ele>78</ele>
        <time>2022-09-28T12:28:37.556Z</time>
      </trkpt>
      <trkpt lat="48.65112" lon="2.45731">
        <ele>78</ele>
        <time>2022-09-28T12:28:42.543Z</time>
      </trkpt>
      <trkpt lat="48.65106" lon="2.45733">
        <ele>78</ele>
        <time>2022-09-28T12:28:46.551Z</time>
      </trkpt>
      <trkpt lat="48.65101" lon="2.45736">
        <ele>78</ele>
        <time>2022-09-28T12:28:50.581Z</time>
      </trkpt>
      <trkpt lat="48.65094" lon="2.45737">
        <ele>79</ele>
        <time>2022-09-28T12:28:55.556Z</time>
      </trkpt>
      <trkpt lat="48.65088" lon="2.45737">
        <ele>79</ele>
        <time>2022-09-28T12:29:00.549Z</time>
      </trkpt>
      <trkpt lat="48.65083" lon="2.45739">
        <ele>79</ele>
        <time>2022-09-28T12:29:05.544Z</time>
      </trkpt>
      <trkpt lat="48.65078" lon="2.4574">
        <ele>79</ele>
        <time>2022-09-28T12:29:09.560Z</time>
      </trkpt>
      <trkpt lat="48.65075" lon="2.45744">
        <ele>79</ele>
        <time>2022-09-28T12:29:14.543Z</time>
      </trkpt>
      <trkpt lat="48.6507" lon="2.45748">
        <ele>79</ele>
        <time>2022-09-28T12:29:19.548Z</time>
      </trkpt>
      <trkpt lat="48.65063" lon="2.45749">
        <ele>78</ele>
        <time>2022-09-28T12:29:23.561Z</time>
      </trkpt>
      <trkpt lat="48.65054" lon="2.45749">
        <ele>78</ele>
        <time>2022-09-28T12:29:28.564Z</time>
      </trkpt>
      <trkpt lat="48.65049" lon="2.45752">
        <ele>78</ele>
        <time>2022-09-28T12:29:33.542Z</time>
      </trkpt>
      <trkpt lat="48.65043" lon="2.45757">
        <ele>78</ele>
        <time>2022-09-28T12:29:38.537Z</time>
      </trkpt>
      <trkpt lat="48.65041" lon="2.45761">
        <ele>78</ele>
        <time>2022-09-28T12:29:42.551Z</time>
      </trkpt>
      <trkpt lat="48.65035" lon="2.45778">
        <ele>78</ele>
        <time>2022-09-28T12:30:18.555Z</time>
      </trkpt>
      <trkpt lat="48.65032" lon="2.45777">
        <ele>78</ele>
        <time>2022-09-28T12:30:23.540Z</time>
      </trkpt>
      <trkpt lat="48.65027" lon="2.45776">
        <ele>78</ele>
        <time>2022-09-28T12:30:28.549Z</time>
      </trkpt>
      <trkpt lat="48.65023" lon="2.45775">
        <ele>78</ele>
        <time>2022-09-28T12:30:33.545Z</time>
      </trkpt>
      <trkpt lat="48.65023" lon="2.45779">
        <ele>78</ele>
        <time>2022-09-28T12:30:37.552Z</time>
      </trkpt>
      <trkpt lat="48.65019" lon="2.4578">
        <ele>78</ele>
        <time>2022-09-28T12:30:41.561Z</time>
      </trkpt>
      <trkpt lat="48.65016" lon="2.45776">
        <ele>78</ele>
        <time>2022-09-28T12:30:46.542Z</time>
      </trkpt>
      <trkpt lat="48.65013" lon="2.45775">
        <ele>79</ele>
        <time>2022-09-28T12:30:51.546Z</time>
      </trkpt>
      <trkpt lat="48.65008" lon="2.45778">
        <ele>79</ele>
        <time>2022-09-28T12:30:56.546Z</time>
      </trkpt>
      <trkpt lat="48.64994" lon="2.45788">
        <ele>79</ele>
        <time>2022-09-28T12:31:14.559Z</time>
      </trkpt>
      <trkpt lat="48.64987" lon="2.45785">
        <ele>79</ele>
        <time>2022-09-28T12:31:19.543Z</time>
      </trkpt>
      <trkpt lat="48.64983" lon="2.45781">
        <ele>79</ele>
        <time>2022-09-28T12:31:24.546Z</time>
      </trkpt>
      <trkpt lat="48.64981" lon="2.45776">
        <ele>79</ele>
        <time>2022-09-28T12:31:28.556Z</time>
      </trkpt>
      <trkpt lat="48.64979" lon="2.45769">
        <ele>79</ele>
        <time>2022-09-28T12:31:33.542Z</time>
      </trkpt>
      <trkpt lat="48.64977" lon="2.45761">
        <ele>79</ele>
        <time>2022-09-28T12:31:42.557Z</time>
      </trkpt>
      <trkpt lat="48.64975" lon="2.45765">
        <ele>79</ele>
        <time>2022-09-28T12:31:46.560Z</time>
      </trkpt>
      <trkpt lat="48.64972" lon="2.45766">
        <ele>79</ele>
        <time>2022-09-28T12:31:51.532Z</time>
      </trkpt>
      <trkpt lat="48.64971" lon="2.45767">
        <ele>79</ele>
        <time>2022-09-28T12:31:56.551Z</time>
      </trkpt>
      <trkpt lat="48.64966" lon="2.45767">
        <ele>79</ele>
        <time>2022-09-28T12:32:01.554Z</time>
      </trkpt>
      <trkpt lat="48.64961" lon="2.45771">
        <ele>79</ele>
        <time>2022-09-28T12:32:05.558Z</time>
      </trkpt>
      <trkpt lat="48.64955" lon="2.45777">
        <ele>77</ele>
        <time>2022-09-28T12:32:10.552Z</time>
      </trkpt>
      <trkpt lat="48.64951" lon="2.45778">
        <ele>77</ele>
        <time>2022-09-28T12:32:15.545Z</time>
      </trkpt>
      <trkpt lat="48.64947" lon="2.4578">
        <ele>77</ele>
        <time>2022-09-28T12:32:20.545Z</time>
      </trkpt>
      <trkpt lat="48.64941" lon="2.45784">
        <ele>77</ele>
        <time>2022-09-28T12:32:25.539Z</time>
      </trkpt>
      <trkpt lat="48.64938" lon="2.45786">
        <ele>77</ele>
        <time>2022-09-28T12:32:29.553Z</time>
      </trkpt>
      <trkpt lat="48.64936" lon="2.45789">
        <ele>77</ele>
        <time>2022-09-28T12:32:34.554Z</time>
      </trkpt>
      <trkpt lat="48.64932" lon="2.45794">
        <ele>76</ele>
        <time>2022-09-28T12:32:39.544Z</time>
      </trkpt>
      <trkpt lat="48.64928" lon="2.458">
        <ele>77</ele>
        <time>2022-09-28T12:32:43.550Z</time>
      </trkpt>
      <trkpt lat="48.64914" lon="2.45808">
        <ele>77</ele>
        <time>2022-09-28T12:32:48.562Z</time>
      </trkpt>
      <trkpt lat="48.64906" lon="2.45813">
        <ele>77</ele>
        <time>2022-09-28T12:32:53.568Z</time>
      </trkpt>
      <trkpt lat="48.64898" lon="2.45822">
        <ele>77</ele>
        <time>2022-09-28T12:32:58.560Z</time>
      </trkpt>
      <trkpt lat="48.64891" lon="2.45825">
        <ele>77</ele>
        <time>2022-09-28T12:33:02.556Z</time>
      </trkpt>
      <trkpt lat="48.64883" lon="2.45829">
        <ele>77</ele>
        <time>2022-09-28T12:33:07.582Z</time>
      </trkpt>
      <trkpt lat="48.64878" lon="2.45832">
        <ele>77</ele>
        <time>2022-09-28T12:33:12.571Z</time>
      </trkpt>
      <trkpt lat="48.64873" lon="2.45838">
        <ele>77</ele>
        <time>2022-09-28T12:33:17.530Z</time>
      </trkpt>
      <trkpt lat="48.64863" lon="2.45841">
        <ele>77</ele>
        <time>2022-09-28T12:33:22.538Z</time>
      </trkpt>
      <trkpt lat="48.64858" lon="2.45841">
        <ele>77</ele>
        <time>2022-09-28T12:33:27.527Z</time>
      </trkpt>
      <trkpt lat="48.64851" lon="2.4586">
        <ele>77</ele>
        <time>2022-09-28T12:33:32.526Z</time>
      </trkpt>
      <trkpt lat="48.64841" lon="2.45848">
        <ele>77</ele>
        <time>2022-09-28T12:33:37.524Z</time>
      </trkpt>
      <trkpt lat="48.64836" lon="2.45843">
        <ele>76</ele>
        <time>2022-09-28T12:33:41.529Z</time>
      </trkpt>
      <trkpt lat="48.6483" lon="2.45841">
        <ele>76</ele>
        <time>2022-09-28T12:33:46.525Z</time>
      </trkpt>
      <trkpt lat="48.6483" lon="2.45844">
        <ele>76</ele>
        <time>2022-09-28T12:33:51.528Z</time>
      </trkpt>
      <trkpt lat="48.64826" lon="2.45832">
        <ele>76</ele>
        <time>2022-09-28T12:33:56.530Z</time>
      </trkpt>
      <trkpt lat="48.64823" lon="2.45825">
        <ele>76</ele>
        <time>2022-09-28T12:34:00.535Z</time>
      </trkpt>
      <trkpt lat="48.64827" lon="2.45816">
        <ele>75</ele>
        <time>2022-09-28T12:34:05.530Z</time>
      </trkpt>
      <trkpt lat="48.64823" lon="2.45801">
        <ele>75</ele>
        <time>2022-09-28T12:34:10.529Z</time>
      </trkpt>
      <trkpt lat="48.6482" lon="2.45794">
        <ele>75</ele>
        <time>2022-09-28T12:34:14.549Z</time>
      </trkpt>
      <trkpt lat="48.64816" lon="2.45783">
        <ele>78</ele>
        <time>2022-09-28T12:34:19.550Z</time>
      </trkpt>
      <trkpt lat="48.64813" lon="2.45776">
        <ele>78</ele>
        <time>2022-09-28T12:34:23.549Z</time>
      </trkpt>
      <trkpt lat="48.64809" lon="2.45765">
        <ele>78</ele>
        <time>2022-09-28T12:34:28.545Z</time>
      </trkpt>
      <trkpt lat="48.64806" lon="2.4576">
        <ele>78</ele>
        <time>2022-09-28T12:34:32.559Z</time>
      </trkpt>
      <trkpt lat="48.64804" lon="2.45754">
        <ele>78</ele>
        <time>2022-09-28T12:34:37.529Z</time>
      </trkpt>
      <trkpt lat="48.64804" lon="2.45748">
        <ele>78</ele>
        <time>2022-09-28T12:34:42.552Z</time>
      </trkpt>
      <trkpt lat="48.648" lon="2.45741">
        <ele>78</ele>
        <time>2022-09-28T12:34:47.537Z</time>
      </trkpt>
      <trkpt lat="48.64797" lon="2.45733">
        <ele>78</ele>
        <time>2022-09-28T12:34:52.540Z</time>
      </trkpt>
      <trkpt lat="48.64793" lon="2.45728">
        <ele>78</ele>
        <time>2022-09-28T12:34:56.540Z</time>
      </trkpt>
      <trkpt lat="48.6479" lon="2.4572">
        <ele>78</ele>
        <time>2022-09-28T12:35:01.533Z</time>
      </trkpt>
      <trkpt lat="48.64789" lon="2.45712">
        <ele>78</ele>
        <time>2022-09-28T12:35:06.544Z</time>
      </trkpt>
      <trkpt lat="48.64785" lon="2.45703">
        <ele>76</ele>
        <time>2022-09-28T12:35:11.589Z</time>
      </trkpt>
      <trkpt lat="48.6478" lon="2.45697">
        <ele>76</ele>
        <time>2022-09-28T12:35:16.536Z</time>
      </trkpt>
      <trkpt lat="48.64778" lon="2.4569">
        <ele>76</ele>
        <time>2022-09-28T12:35:20.563Z</time>
      </trkpt>
      <trkpt lat="48.64776" lon="2.45681">
        <ele>76</ele>
        <time>2022-09-28T12:35:25.536Z</time>
      </trkpt>
      <trkpt lat="48.64775" lon="2.45672">
        <ele>73</ele>
        <time>2022-09-28T12:35:29.540Z</time>
      </trkpt>
      <trkpt lat="48.64771" lon="2.45664">
        <ele>73</ele>
        <time>2022-09-28T12:35:34.538Z</time>
      </trkpt>
      <trkpt lat="48.6477" lon="2.45658">
        <ele>73</ele>
        <time>2022-09-28T12:35:38.545Z</time>
      </trkpt>
      <trkpt lat="48.6477" lon="2.45653">
        <ele>71</ele>
        <time>2022-09-28T12:35:42.578Z</time>
      </trkpt>
      <trkpt lat="48.64769" lon="2.45646">
        <ele>71</ele>
        <time>2022-09-28T12:35:47.561Z</time>
      </trkpt>
      <trkpt lat="48.64768" lon="2.4564">
        <ele>71</ele>
        <time>2022-09-28T12:35:51.571Z</time>
      </trkpt>
      <trkpt lat="48.64765" lon="2.45633">
        <ele>71</ele>
        <time>2022-09-28T12:35:55.599Z</time>
      </trkpt>
      <trkpt lat="48.64761" lon="2.45627">
        <ele>67</ele>
        <time>2022-09-28T12:36:00.532Z</time>
      </trkpt>
      <trkpt lat="48.64756" lon="2.45619">
        <ele>66</ele>
        <time>2022-09-28T12:36:04.538Z</time>
      </trkpt>
      <trkpt lat="48.64754" lon="2.45617">
        <ele>66</ele>
        <time>2022-09-28T12:36:08.540Z</time>
      </trkpt>
      <trkpt lat="48.64748" lon="2.45612">
        <ele>66</ele>
        <time>2022-09-28T12:36:13.536Z</time>
      </trkpt>
      <trkpt lat="48.64742" lon="2.45607">
        <ele>66</ele>
        <time>2022-09-28T12:36:17.535Z</time>
      </trkpt>
      <trkpt lat="48.64736" lon="2.45599">
        <ele>66</ele>
        <time>2022-09-28T12:36:22.540Z</time>
      </trkpt>
      <trkpt lat="48.64732" lon="2.45588">
        <ele>65</ele>
        <time>2022-09-28T12:36:27.540Z</time>
      </trkpt>
      <trkpt lat="48.64727" lon="2.45581">
        <ele>65</ele>
        <time>2022-09-28T12:36:32.546Z</time>
      </trkpt>
      <trkpt lat="48.64725" lon="2.45574">
        <ele>65</ele>
        <time>2022-09-28T12:36:37.540Z</time>
      </trkpt>
      <trkpt lat="48.64723" lon="2.45567">
        <ele>63</ele>
        <time>2022-09-28T12:36:41.550Z</time>
      </trkpt>
      <trkpt lat="48.64722" lon="2.4556">
        <ele>63</ele>
        <time>2022-09-28T12:36:46.542Z</time>
      </trkpt>
      <trkpt lat="48.64723" lon="2.45551">
        <ele>63</ele>
        <time>2022-09-28T12:36:50.535Z</time>
      </trkpt>
      <trkpt lat="48.64724" lon="2.45543">
        <ele>63</ele>
        <time>2022-09-28T12:36:55.555Z</time>
      </trkpt>
      <trkpt lat="48.64724" lon="2.45536">
        <ele>61</ele>
        <time>2022-09-28T12:37:00.549Z</time>
      </trkpt>
      <trkpt lat="48.64724" lon="2.45526">
        <ele>61</ele>
        <time>2022-09-28T12:37:14.533Z</time>
      </trkpt>
      <trkpt lat="48.64728" lon="2.45524">
        <ele>61</ele>
        <time>2022-09-28T12:37:19.545Z</time>
      </trkpt>
      <trkpt lat="48.64727" lon="2.45522">
        <ele>61</ele>
        <time>2022-09-28T12:37:24.532Z</time>
      </trkpt>
      <trkpt lat="48.64727" lon="2.45519">
        <ele>61</ele>
        <time>2022-09-28T12:37:29.536Z</time>
      </trkpt>
      <trkpt lat="48.64727" lon="2.45513">
        <ele>61</ele>
        <time>2022-09-28T12:37:33.547Z</time>
      </trkpt>
      <trkpt lat="48.64728" lon="2.45507">
        <ele>61</ele>
        <time>2022-09-28T12:37:38.538Z</time>
      </trkpt>
      <trkpt lat="48.64732" lon="2.45502">
        <ele>61</ele>
        <time>2022-09-28T12:37:42.539Z</time>
      </trkpt>
      <trkpt lat="48.64733" lon="2.45499">
        <ele>61</ele>
        <time>2022-09-28T12:37:46.547Z</time>
      </trkpt>
      <trkpt lat="48.64736" lon="2.45493">
        <ele>63</ele>
        <time>2022-09-28T12:37:51.535Z</time>
      </trkpt>
      <trkpt lat="48.64739" lon="2.45491">
        <ele>63</ele>
        <time>2022-09-28T12:37:55.543Z</time>
      </trkpt>
      <trkpt lat="48.64743" lon="2.45484">
        <ele>64</ele>
        <time>2022-09-28T12:38:00.540Z</time>
      </trkpt>
      <trkpt lat="48.64746" lon="2.45479">
        <ele>64</ele>
        <time>2022-09-28T12:38:05.538Z</time>
      </trkpt>
      <trkpt lat="48.64749" lon="2.45472">
        <ele>64</ele>
        <time>2022-09-28T12:38:09.584Z</time>
      </trkpt>
      <trkpt lat="48.64753" lon="2.45466">
        <ele>64</ele>
        <time>2022-09-28T12:38:14.538Z</time>
      </trkpt>
      <trkpt lat="48.64754" lon="2.45459">
        <ele>64</ele>
        <time>2022-09-28T12:38:18.569Z</time>
      </trkpt>
      <trkpt lat="48.6475" lon="2.45451">
        <ele>63</ele>
        <time>2022-09-28T12:38:23.551Z</time>
      </trkpt>
      <trkpt lat="48.64746" lon="2.45446">
        <ele>63</ele>
        <time>2022-09-28T12:38:27.570Z</time>
      </trkpt>
      <trkpt lat="48.6474" lon="2.45442">
        <ele>63</ele>
        <time>2022-09-28T12:38:42.538Z</time>
      </trkpt>
      <trkpt lat="48.64733" lon="2.45443">
        <ele>59</ele>
        <time>2022-09-28T12:38:47.535Z</time>
      </trkpt>
      <trkpt lat="48.64727" lon="2.45442">
        <ele>59</ele>
        <time>2022-09-28T12:38:51.541Z</time>
      </trkpt>
      <trkpt lat="48.6472" lon="2.45439">
        <ele>59</ele>
        <time>2022-09-28T12:38:56.543Z</time>
      </trkpt>
      <trkpt lat="48.64716" lon="2.45433">
        <ele>59</ele>
        <time>2022-09-28T12:39:01.531Z</time>
      </trkpt>
      <trkpt lat="48.64711" lon="2.45427">
        <ele>58</ele>
        <time>2022-09-28T12:39:06.541Z</time>
      </trkpt>
      <trkpt lat="48.64709" lon="2.45418">
        <ele>58</ele>
        <time>2022-09-28T12:39:11.543Z</time>
      </trkpt>
      <trkpt lat="48.64705" lon="2.45412">
        <ele>55</ele>
        <time>2022-09-28T12:39:16.537Z</time>
      </trkpt>
      <trkpt lat="48.64705" lon="2.45407">
        <ele>55</ele>
        <time>2022-09-28T12:39:20.539Z</time>
      </trkpt>
      <trkpt lat="48.64708" lon="2.45401">
        <ele>53</ele>
        <time>2022-09-28T12:39:25.537Z</time>
      </trkpt>
      <trkpt lat="48.64711" lon="2.45394">
        <ele>57</ele>
        <time>2022-09-28T12:39:30.540Z</time>
      </trkpt>
      <trkpt lat="48.64713" lon="2.45388">
        <ele>57</ele>
        <time>2022-09-28T12:39:34.538Z</time>
      </trkpt>
      <trkpt lat="48.64715" lon="2.45386">
        <ele>57</ele>
        <time>2022-09-28T12:39:38.554Z</time>
      </trkpt>
      <trkpt lat="48.6472" lon="2.45379">
        <ele>57</ele>
        <time>2022-09-28T12:39:43.537Z</time>
      </trkpt>
      <trkpt lat="48.64721" lon="2.45373">
        <ele>56</ele>
        <time>2022-09-28T12:39:48.545Z</time>
      </trkpt>
      <trkpt lat="48.64723" lon="2.45368">
        <ele>56</ele>
        <time>2022-09-28T12:39:53.532Z</time>
      </trkpt>
      <trkpt lat="48.6472" lon="2.45366">
        <ele>56</ele>
        <time>2022-09-28T12:39:57.539Z</time>
      </trkpt>
      <trkpt lat="48.64719" lon="2.45365">
        <ele>56</ele>
        <time>2022-09-28T12:40:02.535Z</time>
      </trkpt>
      <trkpt lat="48.64718" lon="2.4536">
        <ele>56</ele>
        <time>2022-09-28T12:40:07.535Z</time>
      </trkpt>
      <trkpt lat="48.64719" lon="2.45357">
        <ele>56</ele>
        <time>2022-09-28T12:40:11.539Z</time>
      </trkpt>
      <trkpt lat="48.64717" lon="2.45354">
        <ele>56</ele>
        <time>2022-09-28T12:40:15.535Z</time>
      </trkpt>
      <trkpt lat="48.64716" lon="2.45347">
        <ele>53</ele>
        <time>2022-09-28T12:40:20.537Z</time>
      </trkpt>
      <trkpt lat="48.64715" lon="2.45342">
        <ele>53</ele>
        <time>2022-09-28T12:40:24.548Z</time>
      </trkpt>
      <trkpt lat="48.6471" lon="2.45335">
        <ele>53</ele>
        <time>2022-09-28T12:40:29.535Z</time>
      </trkpt>
      <trkpt lat="48.64705" lon="2.4533">
        <ele>49</ele>
        <time>2022-09-28T12:40:34.534Z</time>
      </trkpt>
      <trkpt lat="48.64703" lon="2.45326">
        <ele>49</ele>
        <time>2022-09-28T12:40:38.537Z</time>
      </trkpt>
      <trkpt lat="48.64701" lon="2.45319">
        <ele>47</ele>
        <time>2022-09-28T12:40:43.525Z</time>
      </trkpt>
      <trkpt lat="48.64699" lon="2.45305">
        <ele>47</ele>
        <time>2022-09-28T12:40:47.542Z</time>
      </trkpt>
      <trkpt lat="48.64697" lon="2.45295">
        <ele>47</ele>
        <time>2022-09-28T12:40:52.559Z</time>
      </trkpt>
      <trkpt lat="48.64697" lon="2.45292">
        <ele>47</ele>
        <time>2022-09-28T12:40:57.531Z</time>
      </trkpt>
      <trkpt lat="48.64697" lon="2.45291">
        <ele>46</ele>
        <time>2022-09-28T12:41:01.531Z</time>
      </trkpt>
      <trkpt lat="48.64698" lon="2.45288">
        <ele>46</ele>
        <time>2022-09-28T12:41:06.528Z</time>
      </trkpt>
      <trkpt lat="48.64697" lon="2.45282">
        <ele>46</ele>
        <time>2022-09-28T12:41:11.536Z</time>
      </trkpt>
      <trkpt lat="48.64694" lon="2.45275">
        <ele>46</ele>
        <time>2022-09-28T12:41:16.527Z</time>
      </trkpt>
      <trkpt lat="48.64692" lon="2.4527">
        <ele>46</ele>
        <time>2022-09-28T12:41:21.533Z</time>
      </trkpt>
      <trkpt lat="48.6469" lon="2.45268">
        <ele>46</ele>
        <time>2022-09-28T12:41:25.563Z</time>
      </trkpt>
      <trkpt lat="48.64687" lon="2.45263">
        <ele>45</ele>
        <time>2022-09-28T12:41:30.530Z</time>
      </trkpt>
      <trkpt lat="48.64683" lon="2.4526">
        <ele>45</ele>
        <time>2022-09-28T12:41:34.538Z</time>
      </trkpt>
      <trkpt lat="48.6468" lon="2.45253">
        <ele>44</ele>
        <time>2022-09-28T12:41:38.548Z</time>
      </trkpt>
      <trkpt lat="48.64674" lon="2.45248">
        <ele>44</ele>
        <time>2022-09-28T12:41:43.528Z</time>
      </trkpt>
      <trkpt lat="48.6467" lon="2.45246">
        <ele>44</ele>
        <time>2022-09-28T12:41:47.538Z</time>
      </trkpt>
      <trkpt lat="48.64665" lon="2.45245">
        <ele>44</ele>
        <time>2022-09-28T12:41:51.571Z</time>
      </trkpt>
      <trkpt lat="48.64661" lon="2.45241">
        <ele>44</ele>
        <time>2022-09-28T12:41:56.532Z</time>
      </trkpt>
      <trkpt lat="48.64655" lon="2.45236">
        <ele>43</ele>
        <time>2022-09-28T12:42:01.544Z</time>
      </trkpt>
      <trkpt lat="48.6465" lon="2.4523">
        <ele>43</ele>
        <time>2022-09-28T12:42:05.556Z</time>
      </trkpt>
      <trkpt lat="48.64644" lon="2.45224">
        <ele>43</ele>
        <time>2022-09-28T12:42:10.536Z</time>
      </trkpt>
      <trkpt lat="48.6464" lon="2.45221">
        <ele>43</ele>
        <time>2022-09-28T12:42:15.525Z</time>
      </trkpt>
      <trkpt lat="48.64635" lon="2.45223">
        <ele>43</ele>
        <time>2022-09-28T12:42:19.530Z</time>
      </trkpt>
      <trkpt lat="48.64629" lon="2.45216">
        <ele>43</ele>
        <time>2022-09-28T12:42:24.537Z</time>
      </trkpt>
      <trkpt lat="48.64626" lon="2.45209">
        <ele>43</ele>
        <time>2022-09-28T12:42:29.528Z</time>
      </trkpt>
      <trkpt lat="48.64621" lon="2.45203">
        <ele>42</ele>
        <time>2022-09-28T12:42:34.533Z</time>
      </trkpt>
      <trkpt lat="48.64616" lon="2.452">
        <ele>42</ele>
        <time>2022-09-28T12:42:38.552Z</time>
      </trkpt>
      <trkpt lat="48.64613" lon="2.45197">
        <ele>42</ele>
        <time>2022-09-28T12:42:43.545Z</time>
      </trkpt>
      <trkpt lat="48.6461" lon="2.45184">
        <ele>42</ele>
        <time>2022-09-28T12:42:48.546Z</time>
      </trkpt>
      <trkpt lat="48.64605" lon="2.45181">
        <ele>42</ele>
        <time>2022-09-28T12:42:53.541Z</time>
      </trkpt>
      <trkpt lat="48.64599" lon="2.4518">
        <ele>42</ele>
        <time>2022-09-28T12:42:58.538Z</time>
      </trkpt>
      <trkpt lat="48.64596" lon="2.45175">
        <ele>42</ele>
        <time>2022-09-28T12:43:02.542Z</time>
      </trkpt>
      <trkpt lat="48.64594" lon="2.45167">
        <ele>42</ele>
        <time>2022-09-28T12:43:07.538Z</time>
      </trkpt>
      <trkpt lat="48.64594" lon="2.45162">
        <ele>42</ele>
        <time>2022-09-28T12:43:12.547Z</time>
      </trkpt>
      <trkpt lat="48.64591" lon="2.45155">
        <ele>42</ele>
        <time>2022-09-28T12:43:17.542Z</time>
      </trkpt>
      <trkpt lat="48.6459" lon="2.45143">
        <ele>41</ele>
        <time>2022-09-28T12:43:22.553Z</time>
      </trkpt>
      <trkpt lat="48.6459" lon="2.45136">
        <ele>41</ele>
        <time>2022-09-28T12:43:27.553Z</time>
      </trkpt>
      <trkpt lat="48.64589" lon="2.45128">
        <ele>41</ele>
        <time>2022-09-28T12:43:32.545Z</time>
      </trkpt>
      <trkpt lat="48.64585" lon="2.45123">
        <ele>40</ele>
        <time>2022-09-28T12:43:37.547Z</time>
      </trkpt>
      <trkpt lat="48.64581" lon="2.45115">
        <ele>40</ele>
        <time>2022-09-28T12:43:42.546Z</time>
      </trkpt>
      <trkpt lat="48.64582" lon="2.45114">
        <ele>40</ele>
        <time>2022-09-28T12:43:47.533Z</time>
      </trkpt>
      <trkpt lat="48.64584" lon="2.45115">
        <ele>40</ele>
        <time>2022-09-28T12:43:51.540Z</time>
      </trkpt>
      <trkpt lat="48.64586" lon="2.45114">
        <ele>40</ele>
        <time>2022-09-28T12:43:56.537Z</time>
      </trkpt>
      <trkpt lat="48.64583" lon="2.45106">
        <ele>40</ele>
        <time>2022-09-28T12:44:00.542Z</time>
      </trkpt>
      <trkpt lat="48.64585" lon="2.45103">
        <ele>40</ele>
        <time>2022-09-28T12:44:05.547Z</time>
      </trkpt>
      <trkpt lat="48.64581" lon="2.45098">
        <ele>40</ele>
        <time>2022-09-28T12:44:10.540Z</time>
      </trkpt>
      <trkpt lat="48.64577" lon="2.45089">
        <ele>40</ele>
        <time>2022-09-28T12:44:24.533Z</time>
      </trkpt>
      <trkpt lat="48.64574" lon="2.45089">
        <ele>40</ele>
        <time>2022-09-28T12:44:28.550Z</time>
      </trkpt>
      <trkpt lat="48.64575" lon="2.45082">
        <ele>40</ele>
        <time>2022-09-28T12:44:33.533Z</time>
      </trkpt>
      <trkpt lat="48.64571" lon="2.45077">
        <ele>40</ele>
        <time>2022-09-28T12:44:37.542Z</time>
      </trkpt>
      <trkpt lat="48.64567" lon="2.45074">
        <ele>39</ele>
        <time>2022-09-28T12:44:42.550Z</time>
      </trkpt>
      <trkpt lat="48.64568" lon="2.45071">
        <ele>39</ele>
        <time>2022-09-28T12:44:47.549Z</time>
      </trkpt>
      <trkpt lat="48.64563" lon="2.45076">
        <ele>39</ele>
        <time>2022-09-28T12:44:52.546Z</time>
      </trkpt>
      <trkpt lat="48.64559" lon="2.45079">
        <ele>39</ele>
        <time>2022-09-28T12:44:56.551Z</time>
      </trkpt>
      <trkpt lat="48.64553" lon="2.4508">
        <ele>39</ele>
        <time>2022-09-28T12:45:01.547Z</time>
      </trkpt>
      <trkpt lat="48.64548" lon="2.45081">
        <ele>39</ele>
        <time>2022-09-28T12:45:06.545Z</time>
      </trkpt>
      <trkpt lat="48.64543" lon="2.45079">
        <ele>39</ele>
        <time>2022-09-28T12:45:11.535Z</time>
      </trkpt>
      <trkpt lat="48.64538" lon="2.45073">
        <ele>40</ele>
        <time>2022-09-28T12:45:16.547Z</time>
      </trkpt>
      <trkpt lat="48.64534" lon="2.45063">
        <ele>39</ele>
        <time>2022-09-28T12:45:21.534Z</time>
      </trkpt>
      <trkpt lat="48.64532" lon="2.45059">
        <ele>39</ele>
        <time>2022-09-28T12:45:25.543Z</time>
      </trkpt>
      <trkpt lat="48.6453" lon="2.45054">
        <ele>39</ele>
        <time>2022-09-28T12:45:29.545Z</time>
      </trkpt>
      <trkpt lat="48.64526" lon="2.45046">
        <ele>39</ele>
        <time>2022-09-28T12:45:34.543Z</time>
      </trkpt>
      <trkpt lat="48.64523" lon="2.45039">
        <ele>39</ele>
        <time>2022-09-28T12:45:39.529Z</time>
      </trkpt>
      <trkpt lat="48.6452" lon="2.45033">
        <ele>39</ele>
        <time>2022-09-28T12:45:43.541Z</time>
      </trkpt>
      <trkpt lat="48.64517" lon="2.45026">
        <ele>39</ele>
        <time>2022-09-28T12:45:47.539Z</time>
      </trkpt>
      <trkpt lat="48.64514" lon="2.45021">
        <ele>39</ele>
        <time>2022-09-28T12:45:51.540Z</time>
      </trkpt>
      <trkpt lat="48.6451" lon="2.45013">
        <ele>40</ele>
        <time>2022-09-28T12:45:56.542Z</time>
      </trkpt>
      <trkpt lat="48.64507" lon="2.45006">
        <ele>40</ele>
        <time>2022-09-28T12:46:01.548Z</time>
      </trkpt>
      <trkpt lat="48.64504" lon="2.45">
        <ele>40</ele>
        <time>2022-09-28T12:46:06.534Z</time>
      </trkpt>
      <trkpt lat="48.64501" lon="2.44995">
        <ele>40</ele>
        <time>2022-09-28T12:46:10.537Z</time>
      </trkpt>
      <trkpt lat="48.64498" lon="2.44989">
        <ele>40</ele>
        <time>2022-09-28T12:46:15.536Z</time>
      </trkpt>
      <trkpt lat="48.64496" lon="2.44984">
        <ele>40</ele>
        <time>2022-09-28T12:46:19.535Z</time>
      </trkpt>
      <trkpt lat="48.64493" lon="2.44977">
        <ele>40</ele>
        <time>2022-09-28T12:46:24.573Z</time>
      </trkpt>
      <trkpt lat="48.64489" lon="2.4497">
        <ele>40</ele>
        <time>2022-09-28T12:46:29.537Z</time>
      </trkpt>
      <trkpt lat="48.64485" lon="2.44964">
        <ele>39</ele>
        <time>2022-09-28T12:46:33.561Z</time>
      </trkpt>
      <trkpt lat="48.64481" lon="2.44958">
        <ele>38</ele>
        <time>2022-09-28T12:46:37.580Z</time>
      </trkpt>
      <trkpt lat="48.64478" lon="2.4495">
        <ele>38</ele>
        <time>2022-09-28T12:46:42.561Z</time>
      </trkpt>
      <trkpt lat="48.6448" lon="2.44945">
        <ele>38</ele>
        <time>2022-09-28T12:46:47.563Z</time>
      </trkpt>
      <trkpt lat="48.64482" lon="2.44941">
        <ele>38</ele>
        <time>2022-09-28T12:46:52.547Z</time>
      </trkpt>
      <trkpt lat="48.64486" lon="2.44936">
        <ele>38</ele>
        <time>2022-09-28T12:46:57.541Z</time>
      </trkpt>
      <trkpt lat="48.6449" lon="2.4493">
        <ele>39</ele>
        <time>2022-09-28T12:47:02.543Z</time>
      </trkpt>
      <trkpt lat="48.64494" lon="2.44925">
        <ele>39</ele>
        <time>2022-09-28T12:47:07.542Z</time>
      </trkpt>
      <trkpt lat="48.64497" lon="2.44921">
        <ele>39</ele>
        <time>2022-09-28T12:47:11.552Z</time>
      </trkpt>
      <trkpt lat="48.64499" lon="2.44917">
        <ele>39</ele>
        <time>2022-09-28T12:47:16.543Z</time>
      </trkpt>
      <trkpt lat="48.64498" lon="2.4491">
        <ele>39</ele>
        <time>2022-09-28T12:47:20.567Z</time>
      </trkpt>
      <trkpt lat="48.64495" lon="2.44903">
        <ele>39</ele>
        <time>2022-09-28T12:47:25.543Z</time>
      </trkpt>
      <trkpt lat="48.64493" lon="2.44896">
        <ele>39</ele>
        <time>2022-09-28T12:47:30.540Z</time>
      </trkpt>
      <trkpt lat="48.64491" lon="2.4489">
        <ele>39</ele>
        <time>2022-09-28T12:47:34.556Z</time>
      </trkpt>
      <trkpt lat="48.64489" lon="2.44883">
        <ele>39</ele>
        <time>2022-09-28T12:47:39.538Z</time>
      </trkpt>
      <trkpt lat="48.64487" lon="2.44878">
        <ele>39</ele>
        <time>2022-09-28T12:47:43.560Z</time>
      </trkpt>
      <trkpt lat="48.64483" lon="2.44873">
        <ele>39</ele>
        <time>2022-09-28T12:47:48.541Z</time>
      </trkpt>
      <trkpt lat="48.64481" lon="2.44868">
        <ele>39</ele>
        <time>2022-09-28T12:47:52.555Z</time>
      </trkpt>
      <trkpt lat="48.64478" lon="2.44862">
        <ele>39</ele>
        <time>2022-09-28T12:47:57.544Z</time>
      </trkpt>
      <trkpt lat="48.64475" lon="2.44857">
        <ele>39</ele>
        <time>2022-09-28T12:48:02.538Z</time>
      </trkpt>
      <trkpt lat="48.64471" lon="2.4485">
        <ele>39</ele>
        <time>2022-09-28T12:48:07.538Z</time>
      </trkpt>
      <trkpt lat="48.64468" lon="2.44844">
        <ele>39</ele>
        <time>2022-09-28T12:48:11.580Z</time>
      </trkpt>
      <trkpt lat="48.64465" lon="2.44837">
        <ele>39</ele>
        <time>2022-09-28T12:48:16.538Z</time>
      </trkpt>
      <trkpt lat="48.64462" lon="2.44831">
        <ele>39</ele>
        <time>2022-09-28T12:48:20.579Z</time>
      </trkpt>
      <trkpt lat="48.64459" lon="2.44825">
        <ele>39</ele>
        <time>2022-09-28T12:48:25.532Z</time>
      </trkpt>
      <trkpt lat="48.64455" lon="2.44819">
        <ele>38</ele>
        <time>2022-09-28T12:48:30.538Z</time>
      </trkpt>
      <trkpt lat="48.64454" lon="2.44815">
        <ele>37</ele>
        <time>2022-09-28T12:48:34.547Z</time>
      </trkpt>
      <trkpt lat="48.64453" lon="2.44809">
        <ele>37</ele>
        <time>2022-09-28T12:48:38.587Z</time>
      </trkpt>
      <trkpt lat="48.64451" lon="2.44802">
        <ele>37</ele>
        <time>2022-09-28T12:48:43.566Z</time>
      </trkpt>
      <trkpt lat="48.64447" lon="2.44792">
        <ele>37</ele>
        <time>2022-09-28T12:48:48.565Z</time>
      </trkpt>
      <trkpt lat="48.64443" lon="2.44782">
        <ele>37</ele>
        <time>2022-09-28T12:48:53.567Z</time>
      </trkpt>
      <trkpt lat="48.6444" lon="2.44775">
        <ele>37</ele>
        <time>2022-09-28T12:48:58.583Z</time>
      </trkpt>
      <trkpt lat="48.64438" lon="2.44769">
        <ele>37</ele>
        <time>2022-09-28T12:49:03.563Z</time>
      </trkpt>
      <trkpt lat="48.64433" lon="2.44761">
        <ele>36</ele>
        <time>2022-09-28T12:49:08.571Z</time>
      </trkpt>
      <trkpt lat="48.64429" lon="2.44755">
        <ele>40</ele>
        <time>2022-09-28T12:49:12.586Z</time>
      </trkpt>
      <trkpt lat="48.64425" lon="2.44747">
        <ele>40</ele>
        <time>2022-09-28T12:49:17.539Z</time>
      </trkpt>
      <trkpt lat="48.64421" lon="2.4474">
        <ele>40</ele>
        <time>2022-09-28T12:49:21.572Z</time>
      </trkpt>
      <trkpt lat="48.64417" lon="2.44735">
        <ele>39</ele>
        <time>2022-09-28T12:49:26.575Z</time>
      </trkpt>
      <trkpt lat="48.64414" lon="2.4473">
        <ele>39</ele>
        <time>2022-09-28T12:49:31.568Z</time>
      </trkpt>
      <trkpt lat="48.64413" lon="2.44725">
        <ele>39</ele>
        <time>2022-09-28T12:49:35.574Z</time>
      </trkpt>
      <trkpt lat="48.64411" lon="2.44719">
        <ele>39</ele>
        <time>2022-09-28T12:49:40.585Z</time>
      </trkpt>
      <trkpt lat="48.64407" lon="2.44712">
        <ele>39</ele>
        <time>2022-09-28T12:49:45.570Z</time>
      </trkpt>
      <trkpt lat="48.64403" lon="2.44707">
        <ele>38</ele>
        <time>2022-09-28T12:49:50.581Z</time>
      </trkpt>
      <trkpt lat="48.64401" lon="2.44701">
        <ele>40</ele>
        <time>2022-09-28T12:49:55.582Z</time>
      </trkpt>
      <trkpt lat="48.644" lon="2.44694">
        <ele>40</ele>
        <time>2022-09-28T12:50:00.561Z</time>
      </trkpt>
      <trkpt lat="48.64397" lon="2.44688">
        <ele>40</ele>
        <time>2022-09-28T12:50:04.574Z</time>
      </trkpt>
      <trkpt lat="48.64394" lon="2.4468">
        <ele>39</ele>
        <time>2022-09-28T12:50:09.578Z</time>
      </trkpt>
      <trkpt lat="48.6439" lon="2.44673">
        <ele>39</ele>
        <time>2022-09-28T12:50:14.570Z</time>
      </trkpt>
      <trkpt lat="48.64386" lon="2.44667">
        <ele>39</ele>
        <time>2022-09-28T12:50:19.537Z</time>
      </trkpt>
      <trkpt lat="48.64381" lon="2.44664">
        <ele>39</ele>
        <time>2022-09-28T12:50:23.546Z</time>
      </trkpt>
      <trkpt lat="48.64376" lon="2.44659">
        <ele>39</ele>
        <time>2022-09-28T12:50:27.571Z</time>
      </trkpt>
      <trkpt lat="48.64368" lon="2.44648">
        <ele>39</ele>
        <time>2022-09-28T12:50:32.574Z</time>
      </trkpt>
      <trkpt lat="48.64365" lon="2.4464">
        <ele>39</ele>
        <time>2022-09-28T12:50:36.580Z</time>
      </trkpt>
      <trkpt lat="48.6436" lon="2.44631">
        <ele>39</ele>
        <time>2022-09-28T12:50:41.566Z</time>
      </trkpt>
      <trkpt lat="48.64356" lon="2.44619">
        <ele>35</ele>
        <time>2022-09-28T12:50:46.572Z</time>
      </trkpt>
      <trkpt lat="48.64355" lon="2.44612">
        <ele>35</ele>
        <time>2022-09-28T12:50:50.582Z</time>
      </trkpt>
      <trkpt lat="48.64351" lon="2.44602">
        <ele>35</ele>
        <time>2022-09-28T12:50:55.564Z</time>
      </trkpt>
      <trkpt lat="48.64348" lon="2.44592">
        <ele>34</ele>
        <time>2022-09-28T12:51:00.565Z</time>
      </trkpt>
      <trkpt lat="48.64346" lon="2.44583">
        <ele>35</ele>
        <time>2022-09-28T12:51:04.582Z</time>
      </trkpt>
      <trkpt lat="48.64344" lon="2.44572">
        <ele>35</ele>
        <time>2022-09-28T12:51:09.545Z</time>
      </trkpt>
      <trkpt lat="48.64347" lon="2.44571">
        <ele>35</ele>
        <time>2022-09-28T12:51:13.552Z</time>
      </trkpt>
      <trkpt lat="48.6435" lon="2.44565">
        <ele>33</ele>
        <time>2022-09-28T12:51:18.569Z</time>
      </trkpt>
      <trkpt lat="48.64353" lon="2.44554">
        <ele>33</ele>
        <time>2022-09-28T12:51:23.580Z</time>
      </trkpt>
      <trkpt lat="48.64357" lon="2.44548">
        <ele>33</ele>
        <time>2022-09-28T12:51:28.561Z</time>
      </trkpt>
      <trkpt lat="48.6436" lon="2.44544">
        <ele>33</ele>
        <time>2022-09-28T12:51:33.560Z</time>
      </trkpt>
      <trkpt lat="48.64362" lon="2.44538">
        <ele>32</ele>
        <time>2022-09-28T12:51:38.561Z</time>
      </trkpt>
      <trkpt lat="48.64366" lon="2.44534">
        <ele>32</ele>
        <time>2022-09-28T12:51:43.547Z</time>
      </trkpt>
      <trkpt lat="48.6437" lon="2.44529">
        <ele>32</ele>
        <time>2022-09-28T12:51:47.565Z</time>
      </trkpt>
      <trkpt lat="48.64375" lon="2.44522">
        <ele>33</ele>
        <time>2022-09-28T12:51:52.543Z</time>
      </trkpt>
      <trkpt lat="48.6438" lon="2.44517">
        <ele>33</ele>
        <time>2022-09-28T12:51:57.529Z</time>
      </trkpt>
      <trkpt lat="48.64384" lon="2.44515">
        <ele>33</ele>
        <time>2022-09-28T12:52:01.546Z</time>
      </trkpt>
      <trkpt lat="48.64387" lon="2.44513">
        <ele>33</ele>
        <time>2022-09-28T12:52:05.562Z</time>
      </trkpt>
      <trkpt lat="48.64392" lon="2.44508">
        <ele>33</ele>
        <time>2022-09-28T12:52:09.563Z</time>
      </trkpt>
      <trkpt lat="48.64398" lon="2.44503">
        <ele>33</ele>
        <time>2022-09-28T12:52:14.544Z</time>
      </trkpt>
      <trkpt lat="48.64401" lon="2.44493">
        <ele>33</ele>
        <time>2022-09-28T12:52:19.543Z</time>
      </trkpt>
      <trkpt lat="48.64404" lon="2.44484">
        <ele>32</ele>
        <time>2022-09-28T12:52:24.536Z</time>
      </trkpt>
      <trkpt lat="48.64407" lon="2.44476">
        <ele>32</ele>
        <time>2022-09-28T12:52:28.545Z</time>
      </trkpt>
      <trkpt lat="48.64411" lon="2.4447">
        <ele>32</ele>
        <time>2022-09-28T12:52:33.536Z</time>
      </trkpt>
      <trkpt lat="48.64415" lon="2.44461">
        <ele>32</ele>
        <time>2022-09-28T12:52:38.536Z</time>
      </trkpt>
      <trkpt lat="48.64419" lon="2.44455">
        <ele>31</ele>
        <time>2022-09-28T12:52:42.565Z</time>
      </trkpt>
      <trkpt lat="48.64421" lon="2.44451">
        <ele>31</ele>
        <time>2022-09-28T12:52:46.567Z</time>
      </trkpt>
      <trkpt lat="48.64426" lon="2.44446">
        <ele>31</ele>
        <time>2022-09-28T12:52:51.532Z</time>
      </trkpt>
      <trkpt lat="48.64431" lon="2.44442">
        <ele>32</ele>
        <time>2022-09-28T12:52:56.533Z</time>
      </trkpt>
      <trkpt lat="48.64436" lon="2.44438">
        <ele>32</ele>
        <time>2022-09-28T12:53:01.542Z</time>
      </trkpt>
      <trkpt lat="48.64439" lon="2.44431">
        <ele>32</ele>
        <time>2022-09-28T12:53:06.569Z</time>
      </trkpt>
      <trkpt lat="48.64442" lon="2.44424">
        <ele>33</ele>
        <time>2022-09-28T12:53:11.564Z</time>
      </trkpt>
      <trkpt lat="48.64445" lon="2.4442">
        <ele>33</ele>
        <time>2022-09-28T12:53:15.603Z</time>
      </trkpt>
      <trkpt lat="48.6445" lon="2.44415">
        <ele>33</ele>
        <time>2022-09-28T12:53:20.604Z</time>
      </trkpt>
      <trkpt lat="48.64457" lon="2.44408">
        <ele>33</ele>
        <time>2022-09-28T12:53:25.556Z</time>
      </trkpt>
      <trkpt lat="48.64461" lon="2.44405">
        <ele>34</ele>
        <time>2022-09-28T12:53:29.574Z</time>
      </trkpt>
      <trkpt lat="48.64464" lon="2.44402">
        <ele>36</ele>
        <time>2022-09-28T12:53:33.584Z</time>
      </trkpt>
      <trkpt lat="48.64468" lon="2.44399">
        <ele>36</ele>
        <time>2022-09-28T12:53:38.587Z</time>
      </trkpt>
      <trkpt lat="48.64471" lon="2.44397">
        <ele>36</ele>
        <time>2022-09-28T12:53:43.587Z</time>
      </trkpt>
      <trkpt lat="48.64474" lon="2.44393">
        <ele>36</ele>
        <time>2022-09-28T12:53:48.581Z</time>
      </trkpt>
      <trkpt lat="48.64479" lon="2.4439">
        <ele>36</ele>
        <time>2022-09-28T12:53:53.603Z</time>
      </trkpt>
      <trkpt lat="48.64483" lon="2.44386">
        <ele>36</ele>
        <time>2022-09-28T12:53:58.581Z</time>
      </trkpt>
      <trkpt lat="48.64489" lon="2.44382">
        <ele>38</ele>
        <time>2022-09-28T12:54:03.590Z</time>
      </trkpt>
      <trkpt lat="48.64495" lon="2.44384">
        <ele>38</ele>
        <time>2022-09-28T12:54:08.596Z</time>
      </trkpt>
      <trkpt lat="48.64499" lon="2.44383">
        <ele>38</ele>
        <time>2022-09-28T12:54:13.580Z</time>
      </trkpt>
      <trkpt lat="48.64505" lon="2.44383">
        <ele>38</ele>
        <time>2022-09-28T12:54:18.579Z</time>
      </trkpt>
      <trkpt lat="48.64509" lon="2.44387">
        <ele>38</ele>
        <time>2022-09-28T12:54:23.551Z</time>
      </trkpt>
    </trkseg>
  </trk>
</gpx>